# Wetter Temperatur Luftdruck Luftfeuchtigkeit Sichtweite Windgeschwindigkeit Windrichtung Zeit
1 Clouds 21 1021 30 10000 3.09 180 12:18 22.04.2021
2 Clouds 20 1022 32 10000 3.09 180 11:40 22.04.2021
3 Clouds 20 1022 35 10000 2.06 180 11:19 22.04.2021
4 Clouds 20 1022 42 10000 2.06 160 10:40 22.04.2021
5 Clouds 19 1022 42 10000 2.06 160 10:19 22.04.2021
6 Clear 18 1022 48 10000 1.54 0 09:36 22.04.2021
7 Clear 18 1021 48 10000 1.35 235 08:55 22.04.2021
8 Clear 17 1021 48 10000 1.35 235 08:36 22.04.2021
9 Clear 16 1021 55 10000 1.04 278 08:18 22.04.2021
10 Clouds 15 1023 59 10000 0.45 284 07:31 22.04.2021
11 Clouds 15 1021 62 10000 0.93 275 07:31 22.04.2021
12 Clouds 13 1021 62 10000 1.33 308 06:57 22.04.2021
13 Clouds 12 1020 62 10000 1.37 323 06:19 22.04.2021
14 Clouds 12 1020 67 10000 3.09 330 05:23 22.04.2021
15 Clouds 13 1020 58 10000 1.81 305 02:28 22.04.2021
16 Clouds 15 1020 51 10000 2.06 330 00:25 22.04.2021
17 Clouds 15 1020 51 10000 2.06 330 23:41 21.04.2021
18 Clouds 15 1020 48 10000 2.06 330 23:21 21.04.2021
19 Clouds 15 1019 44 10000 1.25 290 22:41 21.04.2021
20 Clouds 15 1019 44 10000 0.73 251 22:21 21.04.2021
21 Clouds 15 1019 44 10000 0.75 252 21:41 21.04.2021
22 Clouds 15 1019 44 10000 1.09 194 21:22 21.04.2021
23 Clouds 16 1018 42 10000 1.09 194 20:32 21.04.2021
24 Clouds 16 1017 32 10000 2.06 300 19:57 21.04.2021
25 Clouds 16 1017 32 10000 2.06 300 19:38 21.04.2021
26 Clear 16 1019 62 10000 1.34 217 19:18 21.04.2021
27 Clouds 17 1017 32 10000 3.6 290 18:42 21.04.2021
28 Clear 17 1019 61 10000 1.34 195 18:22 21.04.2021
29 Clouds 17 1018 42 10000 5.14 160 17:45 21.04.2021
30 Clear 18 1018 54 10000 1.34 169 17:23 21.04.2021
31 Clear 18 1018 55 10000 1.79 148 16:41 21.04.2021
32 Clear 19 1019 56 10000 1.34 178 15:52 21.04.2021
33 Clouds 19 1017 28 10000 4.63 280 15:28 21.04.2021
34 Clouds 19 1017 28 10000 4.63 270 14:46 21.04.2021
35 Clouds 20 1017 26 10000 4.63 280 14:28 21.04.2021
36 Clouds 20 1017 24 10000 3.09 250 13:51 21.04.2021
37 Clouds 20 1017 30 10000 3.09 250 13:23 21.04.2021
38 Clouds 19 1017 30 10000 3.09 250 12:52 21.04.2021
39 Clouds 19 1017 32 10000 2.57 230 12:28 21.04.2021
40 Clouds 19 1018 32 10000 2.06 230 11:47 21.04.2021
41 Clouds 19 1018 34 10000 2.57 200 11:25 21.04.2021
42 Clouds 18 1018 34 10000 1.54 0 10:42 21.04.2021
43 Clear 17 1018 39 10000 2.06 150 09:58 21.04.2021
44 Clear 16 1017 42 10000 1.54 280 09:33 21.04.2021
45 Clear 16 1017 42 10000 1.54 280 08:53 21.04.2021
46 Clear 15 1017 44 10000 2.57 280 08:27 21.04.2021
47 Clear 14 1017 47 10000 2.06 300 07:59 21.04.2021
48 Clouds 14 1017 51 10000 2.65 317 07:29 21.04.2021
49 Clouds 11 1016 62 10000 2.57 340 06:23 21.04.2021
50 Clouds 11 1016 62 10000 2.98 298 04:18 21.04.2021
51 Clouds 14 1016 47 10000 2.57 320 00:50 21.04.2021
52 Clouds 14 1016 47 10000 3.6 290 23:48 20.04.2021
53 Clouds 15 1015 47 10000 4.63 270 22:56 20.04.2021
54 Clouds 15 1015 47 10000 4.63 270 22:36 20.04.2021
55 Clouds 15 1015 47 10000 3.09 300 22:18 20.04.2021
56 Clouds 15 1015 47 10000 2.57 290 21:44 20.04.2021
57 Clouds 15 1015 44 10000 3.09 300 21:23 20.04.2021
58 Clouds 16 1014 44 10000 3.09 300 20:42 20.04.2021
59 Clouds 16 1014 41 10000 2.06 300 20:23 20.04.2021
60 Clouds 16 1013 36 10000 3.09 290 19:52 20.04.2021
61 Clouds 16 1013 36 10000 3.09 290 19:34 20.04.2021
62 Clear 17 1005 40 10000 4.92 277 18:54 20.04.2021
63 Clouds 17 1013 34 10000 4.12 280 18:35 20.04.2021
64 Clear 17 1015 64 10000 1.79 155 17:43 20.04.2021
65 Clear 18 1015 60 10000 2.24 204 17:18 20.04.2021
66 Clear 18 1015 52 10000 2.24 196 16:43 20.04.2021
67 Clear 19 1012 40 10000 3.58 193 15:51 20.04.2021
68 Clouds 20 1013 26 10000 5.14 260 15:27 20.04.2021
69 Clouds 20 1013 24 10000 4.12 260 14:57 20.04.2021
70 Clouds 20 1013 26 10000 5.14 260 14:28 20.04.2021
71 Clouds 19 1013 28 10000 6.17 250 13:32 20.04.2021
72 Clouds 19 1013 32 10000 3.09 290 12:57 20.04.2021
73 Clouds 19 1013 32 10000 3.09 290 12:34 20.04.2021
74 Clouds 18 1013 32 10000 3.6 270 11:58 20.04.2021
75 Clouds 18 1013 32 10000 3.6 270 11:39 20.04.2021
76 Clouds 17 1014 34 10000 3.6 260 11:19 20.04.2021
77 Clouds 17 1013 36 10000 5.14 290 10:42 20.04.2021
78 Clouds 17 1013 39 10000 4.12 280 10:22 20.04.2021
79 Clouds 16 1013 42 10000 6.17 290 09:20 20.04.2021
80 Clouds 15 1013 44 10000 2.57 280 08:54 20.04.2021
81 Clear 14 1015 60 10000 4.02 254 08:19 20.04.2021
82 Clear 14 1014 63 10000 3.58 285 07:39 20.04.2021
83 Clouds 13 1012 62 10000 2.06 330 06:35 20.04.2021
84 Clear 12 1012 71 10000 2.82 292 05:37 20.04.2021
85 Clear 12 1012 62 10000 2.57 280 04:41 20.04.2021
86 Clear 13 1012 62 10000 1.03 0 00:53 20.04.2021
87 Clear 13 1012 58 10000 1.54 310 00:27 20.04.2021
88 Clear 13 1012 58 10000 1.54 310 00:27 20.04.2021
89 Clear 14 1012 62 10000 1.03 0 23:33 19.04.2021
90 Clear 14 1012 58 10000 2.06 280 22:51 19.04.2021
91 Clear 14 1012 58 10000 2.06 280 22:29 19.04.2021
92 Clouds 15 1012 55 10000 2.57 280 21:47 19.04.2021
93 Clouds 15 1012 51 10000 3.09 280 21:22 19.04.2021
94 Clouds 15 1011 48 10000 3.6 280 20:42 19.04.2021
95 Clouds 16 1011 48 10000 3.6 280 20:22 19.04.2021
96 Clouds 16 1010 48 10000 3.09 300 19:50 19.04.2021
97 Clouds 16 1010 45 10000 5.14 300 19:28 19.04.2021
98 Clouds 17 1010 42 10000 5.14 300 18:59 19.04.2021
99 Clouds 17 1010 42 10000 5.14 300 18:41 19.04.2021
100 Clouds 18 1010 42 10000 6.17 300 18:19 19.04.2021
101 Clouds 18 1009 37 10000 7.2 300 17:46 19.04.2021
102 Clouds 19 1009 34 10000 6.17 300 17:24 19.04.2021
103 Clouds 20 1009 32 10000 5.14 290 16:45 19.04.2021
104 Clouds 20 1009 32 10000 5.14 310 16:25 19.04.2021
105 Clouds 20 1009 30 10000 5.14 300 15:43 19.04.2021
106 Clouds 20 1009 37 10000 5.14 200 15:24 19.04.2021
107 Clouds 20 1009 35 10000 4.12 220 14:52 19.04.2021
108 Clouds 20 1009 33 10000 4.12 220 14:31 19.04.2021
109 Clouds 21 1009 40 10000 5.14 190 13:52 19.04.2021
110 Clouds 20 1010 40 10000 3.09 200 13:28 19.04.2021
111 Clouds 20 1010 43 10000 5.14 170 12:48 19.04.2021
112 Clouds 20 1010 40 10000 5.14 180 12:27 19.04.2021
113 Clouds 19 1010 42 10000 6.17 190 11:59 19.04.2021
114 Clouds 19 1011 42 10000 5.14 190 11:27 19.04.2021
115 Clouds 19 1011 45 10000 2.57 160 10:55 19.04.2021
116 Clouds 18 1011 55 10000 2.06 160 10:36 19.04.2021
117 Clouds 18 1011 55 10000 2.06 160 10:18 19.04.2021
118 Clouds 17 1011 55 10000 2.49 228 09:39 19.04.2021
119 Clouds 17 1012 59 10000 3.13 209 09:21 19.04.2021
120 Clouds 15 1012 77 10000 2.11 220 08:32 19.04.2021
121 Clouds 14 1014 74 10000 2.08 221 07:49 19.04.2021
122 Clouds 14 1011 73 10000 0.89 163 07:21 19.04.2021
123 Clouds 14 1013 77 10000 1.7 235 06:45 19.04.2021
124 Clouds 14 1011 82 10000 1.55 279 02:41 19.04.2021
125 Clouds 14 1012 87 10000 1.56 267 01:40 19.04.2021
126 Clouds 14 1012 88 10000 0.75 283 00:33 19.04.2021
127 Clouds 15 1013 82 10000 0.68 274 23:20 18.04.2021
128 Clouds 15 1013 88 9000 0.68 274 22:56 18.04.2021
129 Clouds 15 1013 82 9000 0.68 274 22:31 18.04.2021
130 Clouds 16 1013 82 9000 0.61 252 21:49 18.04.2021
131 Clouds 16 1013 77 9000 0.79 118 21:24 18.04.2021
132 Clouds 16 1013 82 9000 2.04 214 20:43 18.04.2021
133 Clouds 16 1012 77 10000 2.02 191 20:24 18.04.2021
134 Clouds 16 1012 82 10000 2.04 194 19:56 18.04.2021
135 Clouds 16 1012 82 10000 2.02 191 19:36 18.04.2021
136 Clouds 17 1012 72 10000 1.56 218 18:59 18.04.2021
137 Clouds 17 1012 72 10000 1.49 214 18:38 18.04.2021
138 Clouds 17 1012 72 10000 2.06 180 18:20 18.04.2021
139 Clouds 17 1012 68 10000 2.57 200 17:42 18.04.2021
140 Clouds 17 1012 68 10000 2.57 200 17:24 18.04.2021
141 Clouds 18 1012 68 10000 2.06 190 16:45 18.04.2021
142 Clouds 18 1012 63 10000 2.57 190 16:19 18.04.2021
143 Clouds 18 1012 63 10000 2.06 190 15:41 18.04.2021
144 Clouds 18 1012 63 10000 2.06 190 15:23 18.04.2021
145 Clouds 19 1012 63 10000 2.06 180 14:42 18.04.2021
146 Clouds 19 1012 68 10000 2.06 180 14:20 18.04.2021
147 Clouds 19 1011 63 10000 2.06 180 13:54 18.04.2021
148 Clouds 19 1011 63 10000 2.06 180 13:32 18.04.2021
149 Clouds 19 1011 63 10000 2.06 180 12:49 18.04.2021
150 Clouds 19 1011 63 10000 2.06 180 12:24 18.04.2021
151 Clouds 18 1011 63 10000 2.62 210 11:41 18.04.2021
152 Clouds 18 1012 68 10000 2.51 228 11:20 18.04.2021
153 Clouds 17 1012 67 10000 2.06 180 10:46 18.04.2021
154 Clouds 17 1012 72 10000 2.06 180 10:21 18.04.2021
155 Clouds 17 1011 72 10000 1.03 0 09:47 18.04.2021
156 Clouds 16 1011 72 10000 1.03 0 09:28 18.04.2021
157 Clouds 15 1011 72 10000 0.89 202 08:56 18.04.2021
158 Clouds 15 1011 72 10000 0.89 200 08:34 18.04.2021
159 Clouds 15 1010 82 10000 0.49 15 07:55 18.04.2021
160 Clouds 15 1010 82 10000 0.46 16 07:55 18.04.2021
161 Clouds 15 1010 82 10000 0.49 15 07:36 18.04.2021
162 Clouds 13 1010 76 10000 2.57 340 05:41 18.04.2021
163 Clouds 13 1011 82 10000 1.08 52 05:22 18.04.2021
164 Clouds 14 1010 82 10000 1.52 79 02:27 18.04.2021
165 Clouds 14 1010 77 10000 1.52 79 01:48 18.04.2021
166 Clouds 14 1010 77 10000 2.16 68 00:36 18.04.2021
167 Clouds 15 1010 77 10000 2.54 14 23:31 17.04.2021
168 Clouds 15 1010 72 10000 1.54 330 22:51 17.04.2021
169 Clouds 15 1010 72 10000 2.06 330 22:30 17.04.2021
170 Clouds 15 1010 72 10000 2.06 320 21:47 17.04.2021
171 Clouds 16 1010 72 10000 2.06 320 21:28 17.04.2021
172 Clouds 16 1009 67 10000 2.57 330 20:46 17.04.2021
173 Clouds 16 1009 67 10000 3.6 330 20:25 17.04.2021
174 Clouds 16 1009 67 10000 3.6 330 19:44 17.04.2021
175 Clouds 16 1008 63 10000 4.63 330 19:20 17.04.2021
176 Clouds 17 1008 63 10000 4.63 330 18:55 17.04.2021
177 Clouds 18 1008 59 10000 5.14 320 18:26 17.04.2021
178 Clouds 19 1008 55 10000 5.14 310 17:49 17.04.2021
179 Clouds 19 1008 52 10000 3.6 330 17:30 17.04.2021
180 Clouds 19 1008 52 10000 4.63 330 16:42 17.04.2021
181 Clouds 19 1008 52 10000 4.12 320 16:23 17.04.2021
182 Clouds 20 1008 49 10000 4.12 330 15:38 17.04.2021
183 Clouds 20 1008 49 10000 5.14 310 14:49 17.04.2021
184 Clouds 20 1009 52 10000 5.66 310 14:29 17.04.2021
185 Clouds 20 1009 52 10000 5.66 310 13:45 17.04.2021
186 Clouds 19 1009 52 10000 5.14 310 13:18 17.04.2021
187 Clouds 19 1009 52 10000 5.14 340 12:35 17.04.2021
188 Clouds 18 1010 55 10000 4.12 310 11:58 17.04.2021
189 Clouds 19 1010 55 10000 4.12 310 11:38 17.04.2021
190 Clouds 19 1010 55 10000 4.63 350 11:19 17.04.2021
191 Clouds 18 1010 55 10000 3.6 340 10:39 17.04.2021
192 Clouds 17 1010 55 10000 3.6 340 10:18 17.04.2021
193 Clouds 15 1011 67 10000 2.57 320 08:55 17.04.2021
194 Clouds 15 1011 63 10000 4.12 330 08:33 17.04.2021
195 Clouds 15 1011 63 10000 4.12 330 08:33 17.04.2021
196 Clouds 14 1011 67 10000 4.12 330 07:54 17.04.2021
197 Clouds 13 1011 67 10000 4.12 330 06:34 17.04.2021
198 Clouds 13 1012 67 10000 3.09 330 03:48 17.04.2021
199 Clouds 13 1013 67 10000 3.09 330 02:26 17.04.2021
200 Clouds 13 1014 58 10000 3.78 23 00:42 17.04.2021
201 Clouds 13 1014 67 10000 3.74 26 00:20 17.04.2021
202 Clouds 13 1014 67 10000 3.74 26 23:43 16.04.2021
203 Clouds 13 1014 67 10000 3.61 29 22:52 16.04.2021
204 Clouds 14 1014 67 10000 3.83 41 22:25 16.04.2021
205 Clouds 14 1012 63 10000 3.84 41 21:58 16.04.2021
206 Clouds 14 1012 63 10000 3.84 41 21:40 16.04.2021
207 Clouds 14 1014 63 10000 3.95 39 21:21 16.04.2021
208 Clouds 14 1014 63 10000 2.57 70 20:45 16.04.2021
209 Clouds 14 1014 67 10000 4.63 80 20:20 16.04.2021
210 Clouds 14 1014 67 10000 4.63 90 19:49 16.04.2021
211 Clouds 14 1014 63 10000 3.6 90 19:21 16.04.2021
212 Clouds 16 1014 59 10000 4.12 90 18:28 16.04.2021
213 Clouds 16 1014 59 10000 4.63 90 17:53 16.04.2021
214 Clouds 17 1014 59 10000 4.63 80 17:20 16.04.2021
215 Clouds 17 1013 55 10000 5.66 90 16:57 16.04.2021
216 Clouds 17 1013 55 10000 5.66 90 16:38 16.04.2021
217 Clouds 17 1013 59 10000 3.09 170 16:20 16.04.2021
218 Rain 17 1014 52 10000 3.09 170 15:39 16.04.2021
219 Rain 17 1014 52 10000 3.09 170 15:39 16.04.2021
220 Clouds 18 1015 52 10000 3.09 120 14:56 16.04.2021
221 Clouds 18 1015 52 10000 3.09 120 14:37 16.04.2021
222 Clouds 18 1016 60 10000 0.45 156 13:58 16.04.2021
223 Clouds 18 1016 61 10000 0.45 159 13:36 16.04.2021
224 Clouds 18 1015 52 10000 2.06 90 13:18 16.04.2021
225 Clouds 18 1015 48 10000 3.09 120 12:42 16.04.2021
226 Clouds 18 1015 48 10000 2.57 100 12:21 16.04.2021
227 Clouds 17 1016 55 10000 3.6 330 11:43 16.04.2021
228 Clouds 17 1016 55 10000 3.6 330 11:23 16.04.2021
229 Clouds 16 1017 59 10000 3.6 320 10:43 16.04.2021
230 Clouds 16 1016 59 10000 2.57 320 10:23 16.04.2021
231 Clouds 16 1016 59 10000 2.57 320 09:44 16.04.2021
232 Clouds 16 1016 63 10000 3.09 320 09:23 16.04.2021
233 Clouds 15 1015 63 10000 2.57 320 08:45 16.04.2021
234 Clouds 15 1015 63 10000 2.06 300 08:24 16.04.2021
235 Clouds 15 1015 67 10000 3.09 360 07:46 16.04.2021
236 Clouds 14 1015 72 10000 2.57 10 07:25 16.04.2021
237 Clouds 14 1015 72 10000 1.54 330 06:41 16.04.2021
238 Clouds 13 1014 67 10000 2.92 40 05:32 16.04.2021
239 Clouds 14 1014 58 10000 2.28 27 03:31 16.04.2021
240 Clouds 15 1014 67 10000 0.95 14 00:46 16.04.2021
241 Clouds 15 1014 67 10000 0.71 11 00:22 16.04.2021
242 Clouds 15 1015 67 10000 0.7 9 23:57 15.04.2021
243 Clouds 15 1015 63 10000 0.44 285 23:34 15.04.2021
244 Clouds 15 1014 72 10000 0.4 286 22:50 15.04.2021
245 Clouds 15 1014 72 10000 0.31 193 22:26 15.04.2021
246 Clouds 15 1014 72 10000 0.31 187 22:26 15.04.2021
247 Clouds 15 1014 72 10000 0.31 187 21:48 15.04.2021
248 Clouds 15 1014 72 10000 0.4 161 21:29 15.04.2021
249 Clouds 15 1014 72 10000 0.4 161 20:58 15.04.2021
250 Clouds 15 1014 72 10000 0.4 125 20:38 15.04.2021
251 Clouds 15 1014 72 10000 0.87 175 20:18 15.04.2021
252 Clouds 16 1013 72 10000 2.06 200 19:41 15.04.2021
253 Clouds 16 1013 67 10000 2.57 200 19:21 15.04.2021
254 Clouds 16 1013 67 10000 3.6 180 18:41 15.04.2021
255 Clouds 17 1013 63 10000 5.14 180 18:20 15.04.2021
256 Clouds 17 1013 63 10000 5.14 180 17:54 15.04.2021
257 Clouds 18 1013 63 10000 5.14 180 17:33 15.04.2021
258 Clouds 18 1013 45 10000 4.12 170 16:45 15.04.2021
259 Clouds 18 1013 45 10000 4.12 170 16:25 15.04.2021
260 Clouds 19 1013 45 10000 4.12 170 15:51 15.04.2021
261 Clouds 19 1013 42 10000 4.63 170 15:31 15.04.2021
262 Clouds 19 1014 37 10000 2.57 180 14:57 15.04.2021
263 Clouds 19 1014 37 10000 2.57 180 14:38 15.04.2021
264 Clouds 19 1014 40 10000 3.09 170 14:19 15.04.2021
265 Clouds 19 1014 34 10000 2.06 170 13:41 15.04.2021
266 Clouds 19 1015 34 10000 3.09 180 12:59 15.04.2021
267 Clouds 19 1015 34 10000 3.09 180 12:38 15.04.2021
268 Clouds 19 1015 34 10000 2.06 180 12:20 15.04.2021
269 Clouds 19 1015 34 10000 2.06 180 12:20 15.04.2021
270 Clouds 19 1015 34 10000 2.06 180 11:42 15.04.2021
271 Clouds 18 1015 34 10000 2.06 180 11:22 15.04.2021
272 Clouds 18 1015 37 10000 2.06 195 10:48 15.04.2021
273 Clear 18 1015 42 10000 0.45 137 10:26 15.04.2021
274 Clear 17 1015 45 10000 0.39 139 09:37 15.04.2021
275 Clear 16 1015 48 10000 1.2 30 08:58 15.04.2021
276 Clear 16 1015 48 10000 1.26 28 08:38 15.04.2021
277 Clear 15 1015 54 10000 1.94 13 07:48 15.04.2021
278 Clear 13 1015 62 10000 2.3 358 07:22 15.04.2021
279 Clear 11 1014 58 10000 2.06 300 06:38 15.04.2021
280 Clear 11 1014 58 10000 2.06 300 06:20 15.04.2021
281 Clouds 12 1014 58 10000 2.57 330 04:50 15.04.2021
282 Clouds 15 1014 51 10000 1.03 0 00:43 15.04.2021
283 Clouds 15 1014 51 10000 1.03 0 23:39 14.04.2021
284 Clouds 16 1014 51 10000 1.03 0 23:19 14.04.2021
285 Clouds 15 1014 55 10000 2.57 350 22:43 14.04.2021
286 Clouds 16 1014 55 10000 2.57 350 22:23 14.04.2021
287 Clouds 16 1014 58 10000 2.57 350 21:44 14.04.2021
288 Clouds 16 1013 55 10000 1.54 0 21:26 14.04.2021
289 Clouds 17 1013 45 10000 1.03 0 20:56 14.04.2021
290 Clouds 17 1013 45 10000 1.03 0 20:34 14.04.2021
291 Clouds 17 1013 48 10000 1.03 0 19:53 14.04.2021
292 Clouds 17 1014 58 10000 0.89 247 19:20 14.04.2021
293 Clouds 18 1012 52 10000 3.09 180 18:57 14.04.2021
294 Clouds 18 1014 60 10000 0.45 186 18:22 14.04.2021
295 Clouds 18 1012 40 10000 4.12 150 17:58 14.04.2021
296 Clouds 18 1014 64 10000 0.45 157 17:58 14.04.2021
297 Clouds 18 1013 40 10000 3.6 150 17:25 14.04.2021
298 Clouds 18 1014 65 10000 0.89 216 16:54 14.04.2021
299 Clouds 18 1013 45 10000 3.09 160 16:27 14.04.2021
300 Clouds 18 1013 42 10000 4.12 150 15:46 14.04.2021
301 Clouds 18 1013 42 10000 4.12 170 15:27 14.04.2021
302 Clouds 19 1013 39 10000 4.12 150 14:56 14.04.2021
303 Clouds 19 1013 39 10000 4.12 150 14:37 14.04.2021
304 Clouds 20 1014 40 10000 4.12 180 14:18 14.04.2021
305 Clouds 20 1014 37 10000 5.66 170 13:44 14.04.2021
306 Clouds 20 1014 34 10000 6.17 180 12:41 14.04.2021
307 Clouds 20 1014 32 10000 5.14 180 12:18 14.04.2021
308 Clouds 20 1014 32 10000 5.66 190 11:39 14.04.2021
309 Clouds 19 1015 30 10000 3.6 200 11:21 14.04.2021
310 Clouds 19 1015 32 10000 1.54 0 10:34 14.04.2021
311 Clouds 17 1015 51 10000 2.57 170 09:43 14.04.2021
312 Clouds 17 1015 55 10000 2.06 150 09:23 14.04.2021
313 Clouds 16 1015 55 10000 2.76 258 08:48 14.04.2021
314 Clouds 16 1015 58 10000 1.54 350 08:23 14.04.2021
315 Clouds 14 1016 62 10000 0.45 189 07:28 14.04.2021
316 Clouds 12 1016 69 10000 1.83 287 06:28 14.04.2021
317 Clouds 12 1016 70 10000 1.89 281 05:24 14.04.2021
318 Clouds 13 1015 76 10000 1.7 297 02:27 14.04.2021
319 Clouds 13 1015 82 10000 1.62 300 00:50 14.04.2021
320 Clouds 13 1015 82 10000 1.58 300 00:50 14.04.2021
321 Clouds 13 1016 82 10000 1.6 292 00:27 14.04.2021
322 Clouds 14 1016 82 10000 1.6 292 23:32 13.04.2021
323 Clouds 14 1016 82 10000 1.55 266 22:44 13.04.2021
324 Clouds 15 1016 88 10000 1.49 248 22:21 13.04.2021
325 Clouds 15 1016 82 10000 1.52 248 21:48 13.04.2021
326 Clouds 15 1016 82 10000 1.49 248 21:30 13.04.2021
327 Clouds 15 1016 88 10000 1.31 219 20:50 13.04.2021
328 Clouds 15 1016 88 10000 1.26 224 20:24 13.04.2021
329 Clouds 16 1016 82 10000 2.57 190 19:58 13.04.2021
330 Clouds 16 1015 82 10000 2.57 200 19:26 13.04.2021
331 Clouds 17 1015 72 10000 3.09 200 18:49 13.04.2021
332 Clouds 17 1015 55 10000 2.06 200 18:30 13.04.2021
333 Clouds 19 1015 52 10000 3.6 170 17:40 13.04.2021
334 Clouds 19 1015 48 10000 2.06 180 17:21 13.04.2021
335 Clouds 19 1015 55 10000 3.09 160 16:45 13.04.2021
336 Clouds 19 1015 42 10000 2.57 180 16:27 13.04.2021
337 Clouds 19 1016 40 10000 4.12 180 15:55 13.04.2021
338 Clouds 19 1016 40 10000 4.12 180 15:37 13.04.2021
339 Clouds 19 1016 40 10000 5.14 180 14:58 13.04.2021
340 Clouds 20 1016 45 10000 3.09 160 14:24 13.04.2021
341 Clouds 20 1016 45 10000 4.12 150 13:55 13.04.2021
342 Rain 20 1016 45 10000 4.12 150 13:36 13.04.2021
343 Clouds 20 1017 37 10000 2.57 140 13:18 13.04.2021
344 Clouds 19 1017 45 10000 3.09 180 12:44 13.04.2021
345 Clouds 20 1017 45 10000 3.09 180 12:22 13.04.2021
346 Clouds 19 1018 45 10000 3.09 180 11:36 13.04.2021
347 Clouds 18 1018 48 10000 1.03 0 10:58 13.04.2021
348 Rain 17 1018 48 10000 1.03 0 10:39 13.04.2021
349 Rain 17 1018 55 10000 2.65 199 10:18 13.04.2021
350 Clouds 16 1018 55 10000 2.62 199 09:46 13.04.2021
351 Clouds 16 1018 58 10000 1.55 184 09:19 13.04.2021
352 Clouds 15 1018 62 10000 1.55 184 08:43 13.04.2021
353 Clouds 15 1019 61 10000 1.13 187 08:21 13.04.2021
354 Clouds 15 1019 60 10000 1.13 187 07:43 13.04.2021
355 Clouds 14 1019 65 10000 0.81 204 07:22 13.04.2021
356 Clouds 12 1018 76 10000 0.27 235 06:19 13.04.2021
357 Clear 12 1018 71 10000 1.54 0 03:41 13.04.2021
358 Clear 12 1020 71 10000 2.06 330 01:31 13.04.2021
359 Clear 12 1020 66 10000 2.57 330 23:50 12.04.2021
360 Clear 13 1020 66 10000 2.57 330 23:32 12.04.2021
361 Clouds 13 1019 54 10000 1.11 188 22:46 12.04.2021
362 Clear 13 1020 66 10000 1.52 195 22:28 12.04.2021
363 Clear 14 1020 71 10000 1.52 195 21:48 12.04.2021
364 Clear 14 1020 67 10000 1.57 193 21:25 12.04.2021
365 Clear 14 1020 62 10000 1.45 195 20:46 12.04.2021
366 Clear 15 1020 58 10000 1.84 198 20:26 12.04.2021
367 Clear 15 1020 55 10000 2.57 180 19:59 12.04.2021
368 Clear 15 1020 55 10000 2.57 180 19:39 12.04.2021
369 Clear 15 1020 58 10000 3.6 170 19:20 12.04.2021
370 Clear 15 1020 51 10000 4.63 170 18:48 12.04.2021
371 Clear 16 1020 45 10000 4.12 170 18:30 12.04.2021
372 Clouds 16 1021 55 10000 1.34 167 17:46 12.04.2021
373 Clear 17 1020 48 10000 4.63 180 17:25 12.04.2021
374 Clear 17 1020 48 10000 5.14 190 16:49 12.04.2021
375 Clear 18 1020 45 10000 5.66 180 16:29 12.04.2021
376 Clear 18 1020 34 10000 5.14 200 15:56 12.04.2021
377 Clear 18 1020 34 10000 3.6 200 15:33 12.04.2021
378 Clear 19 1021 34 10000 3.09 200 14:55 12.04.2021
379 Clear 19 1021 34 10000 3.09 200 14:37 12.04.2021
380 Clear 19 1021 37 10000 3.09 180 13:59 12.04.2021
381 Clear 18 1021 37 10000 3.09 180 13:39 12.04.2021
382 Clear 18 1022 39 10000 3.09 210 13:18 12.04.2021
383 Clear 18 1022 45 10000 3.6 170 12:38 12.04.2021
384 Clear 18 1022 39 10000 2.57 200 12:20 12.04.2021
385 Clear 17 1022 36 10000 1.51 211 11:27 12.04.2021
386 Clear 17 1023 36 10000 1.51 211 10:51 12.04.2021
387 Clear 16 1023 36 10000 0.55 208 10:28 12.04.2021
388 Clear 16 1023 39 10000 0.55 208 09:52 12.04.2021
389 Clear 15 1023 51 10000 0.51 66 09:23 12.04.2021
390 Clear 14 1023 58 10000 0.51 66 08:49 12.04.2021
391 Clear 13 1025 54 10000 1.73 37 07:53 12.04.2021
392 Clear 11 1023 76 10000 2.46 36 07:29 12.04.2021
393 Clear 9 1023 81 10000 2.46 36 06:39 12.04.2021
394 Clear 9 1023 81 10000 2.06 350 05:47 12.04.2021
395 Clear 9 1024 76 10000 2.06 20 02:27 12.04.2021
396 Clear 10 1024 76 10000 2.06 10 00:29 12.04.2021
397 Clear 10 1024 76 10000 1.54 10 23:55 11.04.2021
398 Clear 11 1024 76 10000 1.54 10 23:36 11.04.2021
399 Clear 11 1024 71 10000 0.85 27 23:18 11.04.2021
400 Clear 11 1024 71 10000 0.87 25 22:37 11.04.2021
401 Clear 11 1024 71 10000 0.19 352 22:19 11.04.2021
402 Clear 11 1024 71 10000 0.19 352 21:42 11.04.2021
403 Clear 12 1024 66 10000 0.31 153 21:23 11.04.2021
404 Clear 12 1023 62 10000 0.79 52 20:42 11.04.2021
405 Clear 13 1023 58 10000 0.62 94 20:23 11.04.2021
406 Clear 13 1023 58 10000 3.09 180 19:41 11.04.2021
407 Clear 14 1023 58 10000 3.09 180 19:20 11.04.2021
408 Clear 14 1022 51 10000 2.57 170 18:56 11.04.2021
409 Clear 14 1022 51 10000 2.57 170 18:37 11.04.2021
410 Clouds 15 1022 48 10000 3.6 180 18:18 11.04.2021
411 Clouds 15 1022 48 10000 4.12 180 17:40 11.04.2021
412 Clouds 15 1020 48 10000 5.14 180 17:22 11.04.2021
413 Clouds 16 1022 45 10000 4.63 170 16:42 11.04.2021
414 Clouds 16 1022 42 10000 4.63 180 16:21 11.04.2021
415 Clouds 16 1022 42 10000 3.6 190 15:46 11.04.2021
416 Clouds 16 1022 36 10000 5.14 180 15:26 11.04.2021
417 Clouds 16 1022 36 10000 4.12 210 14:51 11.04.2021
418 Clouds 16 1022 36 10000 4.12 210 14:51 11.04.2021
419 Clouds 16 1023 42 10000 4.12 180 14:24 11.04.2021
420 Clouds 17 1023 45 10000 3.6 200 13:44 11.04.2021
421 Clouds 16 1023 45 10000 3.6 190 13:26 11.04.2021
422 Clouds 16 1023 42 10000 2.57 210 12:41 11.04.2021
423 Clouds 16 1023 39 10000 2.57 200 12:20 11.04.2021
424 Clear 16 1024 36 10000 2.06 200 11:48 11.04.2021
425 Clear 16 1024 36 10000 2.57 180 11:21 11.04.2021
426 Clear 15 1024 39 10000 2.57 170 10:47 11.04.2021
427 Clear 15 1024 41 10000 0.72 67 10:23 11.04.2021
428 Clear 14 1024 47 10000 0.72 67 09:51 11.04.2021
429 Clear 14 1024 51 10000 0.72 67 09:30 11.04.2021
430 Clear 13 1024 54 10000 1.42 43 08:40 11.04.2021
431 Clear 13 1024 54 10000 1.42 43 08:40 11.04.2021
432 Clear 11 1025 65 10000 1.7 35 07:57 11.04.2021
433 Clear 10 1025 66 10000 0.45 360 07:21 11.04.2021
434 Clouds 7 1023 81 10000 2.57 360 05:55 11.04.2021
435 Clouds 8 1023 81 10000 1.54 0 05:23 11.04.2021
436 Clouds 8 1023 81 10000 2.06 330 04:51 11.04.2021
437 Clouds 8 1023 81 10000 2.06 330 04:33 11.04.2021
438 Clouds 9 1024 70 10000 2.06 310 01:31 11.04.2021
439 Clouds 9 1024 70 10000 2.06 330 00:32 11.04.2021
440 Clouds 9 1024 71 10000 2.06 330 23:46 10.04.2021
441 Clouds 9 1024 66 10000 1.54 0 22:58 10.04.2021
442 Clouds 9 1024 62 10000 1.54 0 22:30 10.04.2021
443 Clouds 10 1024 62 10000 0.94 160 21:54 10.04.2021
444 Clouds 10 1024 58 10000 1.18 168 21:33 10.04.2021
445 Clouds 10 1024 58 10000 2.06 160 20:58 10.04.2021
446 Clouds 11 1024 58 10000 2.06 160 20:40 10.04.2021
447 Clouds 11 1023 58 10000 3.09 170 20:21 10.04.2021
448 Clouds 12 1023 50 10000 3.09 170 19:43 10.04.2021
449 Clouds 12 1023 50 10000 3.6 170 19:25 10.04.2021
450 Clouds 13 1023 47 10000 5.14 170 18:44 10.04.2021
451 Clouds 13 1023 38 10000 3.09 200 18:25 10.04.2021
452 Clouds 14 1023 33 10000 3.6 170 17:37 10.04.2021
453 Clouds 15 1023 31 10000 5.14 180 16:54 10.04.2021
454 Clouds 15 1023 31 10000 5.14 170 16:26 10.04.2021
455 Clouds 15 1023 25 10000 4.12 180 15:53 10.04.2021
456 Clouds 14 1024 25 10000 5.14 180 14:57 10.04.2021
457 Clouds 14 1024 25 10000 5.14 180 14:37 10.04.2021
458 Clouds 15 1025 29 10000 4.12 200 13:59 10.04.2021
459 Clouds 15 1025 29 10000 4.12 200 13:40 10.04.2021
460 Clouds 15 1026 29 10000 4.12 200 12:49 10.04.2021
461 Clouds 14 1026 29 10000 4.12 200 12:26 10.04.2021
462 Clouds 14 1026 29 10000 3.09 170 11:47 10.04.2021
463 Clouds 13 1026 30 10000 3.09 180 11:24 10.04.2021
464 Clouds 13 1026 31 10000 0.75 321 10:52 10.04.2021
465 Clouds 13 1027 33 10000 2.57 200 10:31 10.04.2021
466 Clouds 12 1027 35 10000 1.34 3 09:45 10.04.2021
467 Clear 11 1028 44 10000 0.45 346 09:19 10.04.2021
468 Clouds 11 1027 35 10000 1.98 10 08:46 10.04.2021
469 Clouds 10 1027 40 10000 1.75 347 08:28 10.04.2021
470 Clear 8 1028 50 10000 1.92 348 07:29 10.04.2021
471 Clouds 6 1027 48 10000 4.12 340 06:49 10.04.2021
472 Clear 5 1027 52 10000 2.04 350 05:54 10.04.2021
473 Clear 6 1027 52 10000 2.09 344 03:46 10.04.2021
474 Clear 6 1027 56 10000 2.15 351 02:50 10.04.2021
475 Clear 6 1027 52 10000 2.15 350 02:18 10.04.2021
476 Clear 7 1027 45 10000 2.22 346 00:40 10.04.2021
477 Clear 7 1028 42 10000 2.06 330 23:59 09.04.2021
478 Clear 7 1028 42 10000 2.57 330 23:37 09.04.2021
479 Clear 8 1028 49 10000 2.4 355 22:58 09.04.2021
480 Clear 7 1028 49 10000 2.42 355 22:37 09.04.2021
481 Clouds 8 1028 43 10000 2.58 4 21:55 09.04.2021
482 Clouds 8 1028 43 10000 2.62 4 21:37 09.04.2021
483 Clouds 8 1028 37 10000 2.98 10 21:18 09.04.2021
484 Clouds 9 1027 37 10000 2.57 360 20:40 09.04.2021
485 Clouds 9 1027 37 10000 2.57 360 20:21 09.04.2021
486 Clouds 10 1027 30 10000 4.12 360 19:43 09.04.2021
487 Clouds 10 1027 30 10000 4.12 360 19:23 09.04.2021
488 Clouds 11 1026 28 10000 6.17 360 18:50 09.04.2021
489 Clouds 11 1028 32 10000 3.13 44 18:29 09.04.2021
490 Clouds 11 1028 32 10000 4.02 342 17:54 09.04.2021
491 Clouds 12 1026 26 10000 6.17 360 17:34 09.04.2021
492 Clouds 12 1026 28 10000 6.69 360 16:55 09.04.2021
493 Clouds 12 1026 28 10000 6.69 360 16:32 09.04.2021
494 Clouds 12 1026 33 10000 6.69 360 15:50 09.04.2021
495 Clouds 12 1026 33 10000 6.69 360 15:26 09.04.2021
496 Clouds 12 1026 30 10000 5.14 350 14:57 09.04.2021
497 Clouds 12 1026 33 10000 5.14 350 14:33 09.04.2021
498 Clouds 12 1026 33 10000 6.17 340 13:52 09.04.2021
499 Clouds 12 1026 33 10000 6.17 340 13:24 09.04.2021
500 Clouds 12 1026 44 10000 5.14 360 12:51 09.04.2021
501 Clouds 12 1027 44 10000 5.14 350 12:32 09.04.2021
502 Clouds 12 1027 44 10000 5.14 350 11:45 09.04.2021
503 Clouds 12 1027 44 10000 5.14 350 11:45 09.04.2021
504 Clouds 12 1027 44 10000 5.14 340 11:22 09.04.2021
505 Clouds 11 1027 47 10000 5.14 340 10:46 09.04.2021
506 Clouds 11 1027 50 10000 6.17 340 10:20 09.04.2021
507 Clouds 10 1026 66 10000 3.6 330 09:30 09.04.2021
508 Clouds 9 1026 66 10000 3.6 330 08:57 09.04.2021
509 Clouds 9 1026 66 10000 3.6 330 08:37 09.04.2021
510 Clouds 8 1026 71 10000 3.6 330 07:36 09.04.2021
511 Clouds 6 1026 70 10000 3.09 330 06:34 09.04.2021
512 Clouds 6 1025 81 10000 1.03 0 05:53 09.04.2021
513 Clouds 6 1025 70 10000 1.54 0 03:52 09.04.2021
514 Clouds 7 1025 65 10000 1.03 0 01:32 09.04.2021
515 Clouds 7 1024 57 10000 2.06 340 00:37 09.04.2021
516 Clouds 7 1024 57 10000 2.06 340 00:18 09.04.2021
517 Clouds 8 1024 57 10000 2.06 320 23:18 08.04.2021
518 Clouds 8 1023 61 10000 3.09 330 22:42 08.04.2021
519 Clouds 8 1023 61 10000 3.09 330 22:22 08.04.2021
520 Clouds 8 1023 57 10000 4.12 330 21:55 08.04.2021
521 Clouds 8 1023 57 10000 4.12 330 21:36 08.04.2021
522 Clouds 8 1022 57 10000 4.12 330 21:18 08.04.2021
523 Clouds 8 1022 57 10000 4.12 330 20:49 08.04.2021
524 Clouds 8 1021 57 10000 4.12 330 20:26 08.04.2021
525 Clouds 8 1021 61 10000 4.12 330 19:45 08.04.2021
526 Clouds 8 1020 61 10000 5.14 330 19:19 08.04.2021
527 Clouds 9 1020 61 10000 7.2 340 18:46 08.04.2021
528 Clouds 9 1019 57 10000 6.69 340 18:21 08.04.2021
529 Clouds 9 1019 57 10000 5.14 330 17:49 08.04.2021
530 Clouds 9 1019 62 10000 6.69 330 17:24 08.04.2021
531 Clouds 10 1018 61 10000 6.69 330 16:51 08.04.2021
532 Clouds 9 1018 66 10000 8.75 350 16:31 08.04.2021
533 Clouds 10 1017 66 10000 7.72 340 15:48 08.04.2021
534 Clouds 10 1017 62 10000 7.2 340 15:28 08.04.2021
535 Clouds 11 1017 62 10000 6.17 330 14:46 08.04.2021
536 Clouds 11 1016 62 10000 6.17 330 14:27 08.04.2021
537 Clouds 12 1016 58 10000 6.17 340 13:57 08.04.2021
538 Clouds 12 1016 58 10000 6.17 340 13:39 08.04.2021
539 Drizzle 13 1015 51 10000 7.72 360 13:21 08.04.2021
540 Clouds 15 1013 42 10000 6.17 350 12:38 08.04.2021
541 Clouds 15 1013 42 10000 6.17 350 12:18 08.04.2021
542 Clouds 16 1013 42 10000 6.17 310 11:43 08.04.2021
543 Clouds 16 1013 34 10000 6.17 290 10:59 08.04.2021
544 Clouds 16 1013 34 10000 6.17 290 10:36 08.04.2021
545 Clouds 15 1013 55 10000 3.09 230 10:18 08.04.2021
546 Clouds 14 1013 55 10000 3.6 260 09:41 08.04.2021
547 Clouds 15 1012 51 10000 5.14 280 08:46 08.04.2021
548 Clouds 15 1012 55 10000 2.57 260 08:28 08.04.2021
549 Clouds 15 1012 58 10000 2.57 260 07:58 08.04.2021
550 Clouds 15 1012 58 10000 2.57 260 07:35 08.04.2021
551 Clouds 14 1010 71 10000 3.2 254 03:54 08.04.2021
552 Clouds 14 1010 55 10000 2.06 310 01:20 08.04.2021
553 Clouds 15 1010 63 10000 2.06 360 00:21 08.04.2021
554 Clouds 15 1010 63 10000 2.06 360 23:42 07.04.2021
555 Clouds 15 1010 59 10000 2.06 320 23:22 07.04.2021
556 Clouds 16 1010 59 10000 2.06 330 22:50 07.04.2021
557 Clouds 16 1010 59 10000 2.06 330 22:32 07.04.2021
558 Clouds 16 1009 59 10000 2.06 330 21:47 07.04.2021
559 Clouds 16 1009 55 10000 2.57 270 21:26 07.04.2021
560 Clouds 17 1009 55 10000 2.57 250 20:47 07.04.2021
561 Clouds 17 1008 52 10000 3.09 260 20:21 07.04.2021
562 Clouds 18 1008 48 10000 3.09 250 19:46 07.04.2021
563 Clouds 18 1007 45 10000 3.09 250 19:26 07.04.2021
564 Clouds 19 1007 40 10000 4.63 260 18:49 07.04.2021
565 Clouds 20 1007 37 10000 5.14 280 18:21 07.04.2021
566 Clouds 20 1007 37 10000 5.14 280 17:56 07.04.2021
567 Clouds 20 1007 37 10000 5.14 280 17:37 07.04.2021
568 Clouds 20 1009 58 10000 0.45 206 16:58 07.04.2021
569 Clouds 20 1009 56 10000 0.89 154 16:39 07.04.2021
570 Clear 20 1009 58 10000 0.89 147 16:20 07.04.2021
571 Clouds 21 1007 35 10000 5.14 180 15:40 07.04.2021
572 Clouds 21 1007 35 10000 4.12 180 14:58 07.04.2021
573 Clouds 21 1007 35 10000 4.12 180 14:32 07.04.2021
574 Clouds 21 1008 37 10000 3.09 160 13:53 07.04.2021
575 Clouds 20 1008 40 10000 4.12 160 13:28 07.04.2021
576 Clouds 19 1008 40 10000 4.12 180 12:58 07.04.2021
577 Clouds 19 1008 40 10000 4.12 180 12:25 07.04.2021
578 Clouds 19 1008 37 10000 3.09 200 11:59 07.04.2021
579 Clouds 18 1008 39 10000 3.09 200 11:29 07.04.2021
580 Clouds 18 1008 39 10000 3.09 200 11:29 07.04.2021
581 Clouds 18 1008 45 10000 4.12 200 10:59 07.04.2021
582 Clouds 17 1008 45 10000 4.12 200 10:30 07.04.2021
583 Clouds 17 1008 51 10000 4.12 200 09:46 07.04.2021
584 Clouds 16 1008 59 10000 4.12 180 09:27 07.04.2021
585 Clear 15 1008 59 10000 3.09 180 08:47 07.04.2021
586 Clear 15 1008 59 10000 3.09 210 08:23 07.04.2021
587 Clouds 14 1007 63 10000 4.12 210 07:44 07.04.2021
588 Clouds 14 1007 63 10000 2.57 210 07:25 07.04.2021
589 Clouds 13 1007 58 10000 1.54 0 06:36 07.04.2021
590 Clouds 13 1006 62 10000 1.54 0 04:24 07.04.2021
591 Clear 13 1007 62 10000 1.79 325 00:45 07.04.2021
592 Clouds 14 1006 47 10000 3.45 273 23:47 06.04.2021
593 Clouds 14 1005 51 10000 3.62 277 23:22 06.04.2021
594 Clouds 14 1005 54 10000 3.62 277 22:48 06.04.2021
595 Clouds 15 1005 54 10000 3.49 270 22:20 06.04.2021
596 Clouds 15 1004 51 10000 1.54 0 21:43 06.04.2021
597 Clouds 15 1004 51 10000 1.54 0 21:23 06.04.2021
598 Clouds 16 1004 44 10000 1.54 0 20:55 06.04.2021
599 Clouds 16 1003 42 10000 2.57 290 20:25 06.04.2021
600 Clouds 17 1002 39 10000 3.6 300 19:58 06.04.2021
601 Clouds 17 1002 39 10000 3.6 300 19:38 06.04.2021
602 Clouds 17 1002 48 10000 2.57 310 19:19 06.04.2021
603 Clouds 18 1002 55 10000 3.09 330 18:41 06.04.2021
604 Clouds 19 1001 49 10000 4.12 300 18:19 06.04.2021
605 Clouds 19 1001 49 10000 3.09 300 17:44 06.04.2021
606 Clouds 19 1001 46 10000 4.12 300 17:19 06.04.2021
607 Clouds 20 1000 43 10000 4.12 310 16:46 06.04.2021
608 Clouds 20 1000 56 10000 2.06 180 16:26 06.04.2021
609 Clouds 20 1000 56 10000 3.09 190 15:27 06.04.2021
610 Clouds 20 1000 52 10000 3.6 190 14:47 06.04.2021
611 Clouds 20 1000 56 10000 2.06 330 14:28 06.04.2021
612 Clouds 19 1001 63 10000 3.09 320 13:47 06.04.2021
613 Clouds 20 1001 60 10000 3.5 219 13:27 06.04.2021
614 Clouds 19 1001 60 10000 2.57 80 12:58 06.04.2021
615 Clouds 19 1001 60 10000 2.57 80 12:37 06.04.2021
616 Clouds 19 1001 60 10000 2.57 90 12:18 06.04.2021
617 Clouds 19 1002 60 10000 4.12 80 11:43 06.04.2021
618 Clouds 18 1002 56 10000 2.57 90 11:20 06.04.2021
619 Clouds 17 1003 63 10000 1.38 140 10:44 06.04.2021
620 Clouds 16 1003 63 10000 2.06 340 10:22 06.04.2021
621 Clouds 16 1004 63 10000 2.06 310 09:45 06.04.2021
622 Clouds 15 1004 63 10000 2.57 330 09:25 06.04.2021
623 Clouds 14 1004 72 10000 1.43 34 08:34 06.04.2021
624 Clouds 13 1004 82 10000 2.57 270 07:33 06.04.2021
625 Clouds 12 1006 87 10000 2.92 33 06:54 06.04.2021
626 Clouds 13 1006 82 10000 2.06 30 04:53 06.04.2021
627 Rain 13 1009 82 10000 2.06 10 01:34 06.04.2021
628 Clouds 13 1009 82 10000 2.06 10 00:42 06.04.2021
629 Clouds 13 1010 77 10000 1.4 197 00:20 06.04.2021
630 Rain 13 1011 82 10000 1.41 198 23:42 05.04.2021
631 Clouds 13 1011 82 10000 3.89 51 23:18 05.04.2021
632 Rain 13 1011 82 10000 3.89 51 22:41 05.04.2021
633 Clouds 13 1011 82 10000 2.12 71 22:22 05.04.2021
634 Clouds 13 1011 72 10000 2.11 72 21:39 05.04.2021
635 Clouds 13 1011 72 10000 2.3 73 21:19 05.04.2021
636 Clouds 13 1012 72 10000 1.48 79 20:42 05.04.2021
637 Clouds 13 1012 72 10000 1.86 77 20:22 05.04.2021
638 Clouds 13 1011 72 10000 1.85 76 19:39 05.04.2021
639 Clouds 13 1011 67 10000 2.06 80 19:19 05.04.2021
640 Clouds 14 1012 67 10000 3.09 120 18:42 05.04.2021
641 Clouds 14 1012 67 10000 3.6 120 18:23 05.04.2021
642 Clouds 14 1011 67 10000 4.12 90 17:47 05.04.2021
643 Rain 14 1011 67 10000 4.12 90 17:24 05.04.2021
644 Clouds 14 1011 72 10000 6.17 90 16:56 05.04.2021
645 Clouds 14 1012 67 10000 5.14 90 16:37 05.04.2021
646 Clouds 15 1012 67 10000 5.14 90 16:18 05.04.2021
647 Clouds 15 1012 67 10000 5.14 90 15:40 05.04.2021
648 Clouds 15 1012 63 10000 5.14 90 15:21 05.04.2021
649 Clouds 16 1012 63 10000 5.14 90 14:36 05.04.2021
650 Clouds 16 1012 63 10000 5.14 90 14:36 05.04.2021
651 Clouds 16 1011 63 10000 5.14 90 13:54 05.04.2021
652 Clouds 17 1011 63 10000 5.14 90 13:29 05.04.2021
653 Clouds 17 1012 59 10000 2.57 340 12:47 05.04.2021
654 Clouds 17 1012 59 10000 2.57 340 12:47 05.04.2021
655 Clouds 17 1012 59 10000 2.57 320 12:26 05.04.2021
656 Clouds 17 1012 59 10000 2.57 310 11:52 05.04.2021
657 Clouds 17 1012 59 10000 2.57 310 11:30 05.04.2021
658 Clouds 17 1012 59 10000 3.09 340 10:56 05.04.2021
659 Clouds 17 1012 63 10000 3.09 340 10:36 05.04.2021
660 Clouds 16 1011 63 10000 2.57 340 09:49 05.04.2021
661 Clouds 16 1010 63 10000 2.57 320 09:26 05.04.2021
662 Clouds 16 1010 77 10000 2.57 120 08:54 05.04.2021
663 Clouds 16 1010 77 10000 2.57 120 08:36 05.04.2021
664 Clouds 15 1010 77 10000 2.57 120 08:18 05.04.2021
665 Clouds 15 1009 77 10000 2.4 40 07:33 05.04.2021
666 Rain 17 1009 72 10000 1.51 39 03:58 05.04.2021
667 Clear 18 1008 55 10000 1.5 203 00:57 05.04.2021
668 Clear 18 1008 55 10000 2.08 273 00:20 05.04.2021
669 Clear 19 1009 52 10000 2.06 350 23:37 04.04.2021
670 Clear 19 1009 52 10000 2.06 350 23:18 04.04.2021
671 Clear 19 1008 72 10000 3.26 247 22:45 04.04.2021
672 Clear 19 1008 72 10000 2.29 246 22:26 04.04.2021
673 Clear 19 1007 68 10000 3.12 232 21:23 04.04.2021
674 Clear 19 1006 68 10000 3.15 232 20:47 04.04.2021
675 Rain 19 1006 68 10000 4.06 206 20:23 04.04.2021
676 Rain 19 1006 63 10000 3.83 226 19:41 04.04.2021
677 Clear 20 1006 63 10000 2.71 205 19:20 04.04.2021
678 Clear 20 1005 60 10000 1.03 0 18:56 04.04.2021
679 Clear 20 1005 60 10000 1.03 0 18:36 04.04.2021
680 Clear 20 1005 60 10000 1.03 0 18:18 04.04.2021
681 Clear 21 1006 56 10000 3.09 180 17:25 04.04.2021
682 Clear 21 1006 56 10000 4.12 170 16:58 04.04.2021
683 Clear 21 1006 56 10000 4.12 170 16:40 04.04.2021
684 Clouds 21 1006 56 10000 6.17 160 15:56 04.04.2021
685 Clouds 21 1006 56 10000 6.17 160 15:32 04.04.2021
686 Clouds 21 1007 52 10000 6.17 150 14:42 04.04.2021
687 Clouds 20 1007 52 10000 6.17 150 14:24 04.04.2021
688 Clouds 20 1007 52 10000 6.17 150 14:24 04.04.2021
689 Clouds 20 1008 49 10000 6.17 150 13:28 04.04.2021
690 Clouds 20 1008 49 10000 6.17 150 13:28 04.04.2021
691 Clouds 21 1009 56 10000 6.17 150 12:52 04.04.2021
692 Clouds 20 1010 49 10000 5.14 130 12:28 04.04.2021
693 Clouds 20 1010 59 10000 5.14 170 11:51 04.04.2021
694 Clouds 20 1010 55 10000 6.17 160 11:31 04.04.2021
695 Clouds 19 1010 49 10000 5.14 140 10:55 04.04.2021
696 Clouds 18 1010 63 10000 4.12 120 10:32 04.04.2021
697 Clouds 18 1011 72 10000 5.14 130 09:52 04.04.2021
698 Clouds 17 1011 72 10000 4.12 120 09:23 04.04.2021
699 Clouds 16 1011 72 10000 3.09 130 08:49 04.04.2021
700 Clouds 16 1011 72 10000 3.09 130 08:49 04.04.2021
701 Clouds 16 1012 77 10000 4.12 100 08:31 04.04.2021
702 Clouds 15 1011 77 10000 3.09 100 07:21 04.04.2021
703 Clouds 13 1011 82 10000 1.54 310 06:33 04.04.2021
704 Clouds 15 1011 77 10000 2.1 137 04:34 04.04.2021
705 Clouds 15 1012 77 10000 1.75 233 01:21 04.04.2021
706 Clouds 16 1012 77 10000 0.77 251 00:19 04.04.2021
707 Clouds 16 1012 72 10000 0.75 253 23:47 03.04.2021
708 Clouds 16 1013 77 10000 1.95 240 23:18 03.04.2021
709 Rain 16 1012 77 10000 1.97 239 22:48 03.04.2021
710 Rain 16 1012 77 10000 2.61 238 22:19 03.04.2021
711 Clouds 16 1012 77 10000 2.61 238 21:47 03.04.2021
712 Clouds 16 1012 77 10000 2.61 238 21:47 03.04.2021
713 Rain 16 1012 82 10000 1.92 219 21:23 03.04.2021
714 Clouds 17 1012 82 10000 1.92 219 20:49 03.04.2021
715 Clouds 17 1012 82 10000 1.83 218 20:27 03.04.2021
716 Clouds 17 1012 77 10000 1.54 209 19:50 03.04.2021
717 Clouds 18 1012 72 10000 1.74 212 19:24 03.04.2021
718 Clouds 18 1012 63 10000 1.54 230 18:48 03.04.2021
719 Clouds 18 1012 59 10000 1.54 210 18:30 03.04.2021
720 Clear 19 1012 52 10000 3.09 160 17:51 03.04.2021
721 Clear 19 1012 52 10000 4.12 170 17:25 03.04.2021
722 Clear 19 1012 48 10000 5.66 170 16:51 03.04.2021
723 Clear 19 1012 52 10000 5.14 170 16:21 03.04.2021
724 Clear 19 1012 55 10000 5.66 170 15:50 03.04.2021
725 Clear 19 1012 52 10000 6.17 170 15:22 03.04.2021
726 Clear 20 1013 45 10000 6.17 170 14:44 03.04.2021
727 Clear 20 1013 46 10000 5.14 170 14:24 03.04.2021
728 Clear 20 1013 40 10000 5.14 190 13:51 03.04.2021
729 Clear 20 1013 43 10000 4.63 200 13:24 03.04.2021
730 Clear 20 1013 37 10000 5.14 200 12:56 03.04.2021
731 Clear 20 1013 37 10000 3.83 221 12:32 03.04.2021
732 Clear 19 1013 43 10000 2.57 140 11:40 03.04.2021
733 Clear 19 1013 60 10000 2.24 178 11:19 03.04.2021
734 Clear 19 1013 49 10000 2.06 100 10:43 03.04.2021
735 Clear 18 1013 55 10000 1.54 0 10:25 03.04.2021
736 Clear 17 1013 63 10000 1.54 0 09:29 03.04.2021
737 Clear 16 1013 67 10000 1.98 261 08:59 03.04.2021
738 Clear 15 1013 77 10000 1.88 286 08:31 03.04.2021
739 Clear 13 1013 82 10000 1.91 302 07:30 03.04.2021
740 Clear 12 1013 81 10000 1.54 300 06:53 03.04.2021
741 Clear 12 1013 81 10000 2.22 308 03:54 03.04.2021
742 Clear 12 1013 81 10000 2.3 307 02:54 03.04.2021
743 Clear 13 1013 76 10000 2.21 309 02:27 03.04.2021
744 Clear 13 1013 82 10000 1.79 309 00:31 03.04.2021
745 Clear 13 1013 76 10000 1.54 0 23:59 02.04.2021
746 Clear 13 1013 71 10000 1.54 0 23:30 02.04.2021
747 Clear 14 1013 72 10000 3.6 70 22:56 02.04.2021
748 Clear 14 1013 72 10000 3.6 70 22:38 02.04.2021
749 Clear 14 1014 67 10000 1.54 0 21:59 02.04.2021
750 Clear 14 1014 67 10000 1.54 0 21:40 02.04.2021
751 Clear 14 1013 72 10000 2.57 60 21:18 02.04.2021
752 Clear 15 1013 67 10000 2.57 60 20:39 02.04.2021
753 Clear 15 1013 55 10000 3.6 240 20:20 02.04.2021
754 Clouds 16 1013 55 10000 3.09 210 19:41 02.04.2021
755 Clouds 16 1013 52 10000 3.09 210 19:22 02.04.2021
756 Clouds 16 1013 55 10000 2.57 100 18:46 02.04.2021
757 Clouds 17 1013 52 10000 2.06 130 18:28 02.04.2021
758 Clouds 17 1013 52 10000 3.09 140 17:55 02.04.2021
759 Clouds 18 1013 48 10000 3.6 150 17:24 02.04.2021
760 Clear 18 1015 47 10000 1.79 198 16:24 02.04.2021
761 Clouds 19 1013 45 10000 5.14 160 15:43 02.04.2021
762 Clouds 19 1013 40 10000 6.17 170 15:20 02.04.2021
763 Clouds 18 1013 45 10000 5.66 150 14:33 02.04.2021
764 Clear 18 1016 55 10000 1.79 167 13:50 02.04.2021
765 Clear 18 1014 40 10000 3.09 60 13:28 02.04.2021
766 Clear 18 1015 48 10000 2.57 130 12:55 02.04.2021
767 Clear 18 1015 48 10000 2.57 130 12:36 02.04.2021
768 Clear 17 1015 48 10000 2.57 120 12:18 02.04.2021
769 Clear 17 1015 51 10000 3.28 222 11:44 02.04.2021
770 Clear 16 1016 51 10000 2.79 225 11:18 02.04.2021
771 Clear 15 1016 51 10000 2.82 226 10:42 02.04.2021
772 Clear 15 1016 44 10000 2.4 230 10:21 02.04.2021
773 Clear 14 1016 47 10000 2.4 230 09:39 02.04.2021
774 Clear 13 1016 44 10000 1.88 237 09:21 02.04.2021
775 Clear 13 1018 65 10000 1.88 237 08:45 02.04.2021
776 Clear 12 1018 67 10000 0.45 221 08:25 02.04.2021
777 Clear 9 1018 67 10000 0.79 281 07:20 02.04.2021
778 Clear 7 1016 65 10000 2.06 330 06:31 02.04.2021
779 Clear 7 1017 60 10000 1.03 0 03:25 02.04.2021
780 Clear 7 1018 70 10000 1.03 0 01:31 02.04.2021
781 Clear 8 1018 65 10000 1.03 0 00:41 02.04.2021
782 Clear 8 1018 61 10000 1.54 0 23:44 01.04.2021
783 Clear 8 1018 61 10000 1.54 0 23:26 01.04.2021
784 Clear 8 1018 53 10000 1.03 0 22:22 01.04.2021
785 Clouds 8 1018 61 10000 1.54 0 21:59 01.04.2021
786 Clouds 8 1018 61 10000 1.54 0 21:41 01.04.2021
787 Clouds 8 1018 61 10000 1.54 0 21:22 01.04.2021
788 Clouds 9 1017 62 10000 1.54 0 20:40 01.04.2021
789 Clouds 9 1017 62 10000 1.54 0 20:21 01.04.2021
790 Clear 10 1017 66 10000 1.03 0 19:41 01.04.2021
791 Clouds 10 1017 54 10000 1.03 0 19:18 01.04.2021
792 Clouds 11 1017 54 10000 4.12 350 18:43 01.04.2021
793 Clouds 11 1017 54 10000 4.12 350 18:18 01.04.2021
794 Clouds 13 1017 47 10000 6.17 350 17:39 01.04.2021
795 Clouds 12 1017 51 10000 7.72 350 17:21 01.04.2021
796 Clouds 12 1017 51 10000 7.72 360 16:47 01.04.2021
797 Clouds 11 1017 58 10000 3.09 50 16:18 01.04.2021
798 Clouds 11 1017 76 10000 2.57 230 15:39 01.04.2021
799 Clouds 10 1017 76 10000 2.57 230 15:19 01.04.2021
800 Clouds 9 1018 81 10000 5.14 20 14:39 01.04.2021
801 Clouds 9 1018 81 10000 5.14 20 14:39 01.04.2021
802 Clouds 9 1018 66 10000 4.12 50 14:20 01.04.2021
803 Clouds 8 1018 66 10000 4.12 50 14:20 01.04.2021
804 Rain 8 1017 71 10000 7.72 90 13:49 01.04.2021
805 Rain 8 1019 81 10000 2.24 11 13:28 01.04.2021
806 Rain 9 1019 79 10000 2.24 360 12:47 01.04.2021
807 Clouds 9 1018 76 10000 3.13 53 12:29 01.04.2021
808 Drizzle 11 1017 58 10000 3.6 330 11:45 01.04.2021
809 Clouds 12 1017 58 10000 3.09 330 11:20 01.04.2021
810 Clouds 11 1017 58 10000 5.14 330 10:50 01.04.2021
811 Clouds 11 1017 58 10000 5.14 330 10:31 01.04.2021
812 Clouds 12 1017 58 10000 4.63 320 09:52 01.04.2021
813 Clouds 11 1017 62 10000 2.06 290 09:23 01.04.2021
814 Clouds 10 1017 66 10000 3.09 290 08:33 01.04.2021
815 Clouds 9 1017 76 10000 1.54 0 07:24 01.04.2021
816 Clouds 9 1017 71 10000 2.06 330 06:59 01.04.2021
817 Clouds 8 1017 62 10000 3.09 310 06:31 01.04.2021
818 Clouds 9 1017 62 10000 5.14 350 03:28 01.04.2021
819 Clouds 9 1018 57 10000 2.06 300 00:38 01.04.2021
820 Clouds 10 1018 57 10000 5.14 360 23:44 31.03.2021
821 Clouds 10 1018 57 10000 5.14 360 23:44 31.03.2021
822 Clouds 10 1018 50 10000 6.17 330 22:59 31.03.2021
823 Clouds 10 1018 50 10000 6.17 330 22:40 31.03.2021
824 Clouds 10 1018 54 10000 4.12 310 22:20 31.03.2021
825 Clouds 10 1018 54 10000 4.12 300 21:44 31.03.2021
826 Clouds 10 1018 54 10000 4.12 310 21:20 31.03.2021
827 Clouds 10 1018 54 10000 4.12 310 20:43 31.03.2021
828 Clouds 10 1017 54 10000 4.12 330 20:23 31.03.2021
829 Clouds 10 1017 58 10000 4.12 330 19:55 31.03.2021
830 Clouds 10 1017 58 10000 4.12 330 19:36 31.03.2021
831 Clouds 10 1017 58 10000 4.12 340 19:18 31.03.2021
832 Clouds 10 1018 72 10000 4.92 10 18:41 31.03.2021
833 Clouds 9 1018 71 10000 5.14 360 17:56 31.03.2021
834 Clouds 9 1018 71 10000 5.14 360 17:34 31.03.2021
835 Clouds 9 1018 66 10000 5.14 350 16:58 31.03.2021
836 Clouds 10 1018 66 10000 5.14 350 16:37 31.03.2021
837 Clouds 10 1018 71 10000 6.17 350 16:19 31.03.2021
838 Clouds 10 1018 76 10000 5.14 350 15:50 31.03.2021
839 Clouds 10 1019 81 9000 5.14 320 15:19 31.03.2021
840 Clouds 9 1019 87 8000 5.14 360 14:43 31.03.2021
841 Clouds 9 1020 81 10000 5.14 360 14:20 31.03.2021
842 Clouds 9 1020 87 8000 5.14 360 13:41 31.03.2021
843 Clouds 9 1020 76 7000 6.17 350 12:42 31.03.2021
844 Clouds 10 1020 76 9000 6.17 350 12:21 31.03.2021
845 Clouds 9 1020 81 10000 5.14 350 11:51 31.03.2021
846 Clouds 9 1020 66 9000 5.66 360 11:21 31.03.2021
847 Clouds 8 1021 77 10000 3.58 53 10:47 31.03.2021
848 Clouds 8 1022 77 10000 2.68 336 10:25 31.03.2021
849 Clouds 8 1022 77 10000 2.68 336 10:25 31.03.2021
850 Clouds 9 1021 71 10000 4.47 22 09:42 31.03.2021
851 Clouds 10 1018 50 10000 12.35 350 08:59 31.03.2021
852 Clouds 10 1019 46 10000 10.29 350 08:38 31.03.2021
853 Clouds 10 1020 50 10000 7.72 350 07:52 31.03.2021
854 Clouds 9 1020 62 10000 6.17 350 06:46 31.03.2021
855 Clouds 9 1023 87 10000 2.06 300 03:51 31.03.2021
856 Clouds 8 1024 81 10000 5.14 330 01:43 31.03.2021
857 Rain 9 1023 62 10000 2.57 340 00:49 31.03.2021
858 Rain 10 1023 54 10000 3.6 350 00:21 31.03.2021
859 Clouds 11 1023 50 10000 4.15 1 23:41 30.03.2021
860 Clouds 11 1023 46 10000 3.81 2 22:59 30.03.2021
861 Clouds 11 1023 46 10000 3.87 2 22:40 30.03.2021
862 Clouds 11 1023 46 10000 3.87 2 22:40 30.03.2021
863 Clouds 12 1023 40 10000 3.79 7 22:21 30.03.2021
864 Clouds 11 1023 40 10000 3.79 7 21:49 30.03.2021
865 Clouds 12 1023 40 10000 2.06 340 21:21 30.03.2021
866 Clouds 12 1023 38 10000 2.06 340 20:55 30.03.2021
867 Clouds 12 1023 38 10000 2.57 340 20:28 30.03.2021
868 Clouds 13 1023 35 10000 3.09 360 19:51 30.03.2021
869 Clear 13 1022 38 10000 1.34 350 19:28 30.03.2021
870 Clouds 13 1023 31 10000 3.6 350 18:47 30.03.2021
871 Clouds 14 1023 29 10000 5.14 350 18:24 30.03.2021
872 Clouds 15 1023 31 10000 7.2 350 17:42 30.03.2021
873 Clouds 15 1023 29 10000 8.23 350 17:24 30.03.2021
874 Clouds 15 1023 29 10000 8.23 360 16:46 30.03.2021
875 Clouds 16 1023 29 10000 7.2 350 16:25 30.03.2021
876 Clouds 16 1024 27 10000 6.69 360 15:21 30.03.2021
877 Clouds 16 1024 27 10000 7.2 350 14:59 30.03.2021
878 Clouds 16 1024 27 10000 7.2 350 14:39 30.03.2021
879 Clouds 16 1024 27 10000 6.69 340 14:18 30.03.2021
880 Clouds 16 1025 29 10000 6.17 30 13:38 30.03.2021
881 Clouds 16 1025 33 10000 5.14 30 12:58 30.03.2021
882 Clouds 16 1025 33 10000 5.14 30 12:39 30.03.2021
883 Clouds 16 1025 39 10000 6.17 30 12:19 30.03.2021
884 Clouds 15 1025 36 10000 5.66 40 11:24 30.03.2021
885 Clouds 15 1026 41 10000 3.6 350 10:59 30.03.2021
886 Clouds 15 1026 41 10000 3.6 350 10:37 30.03.2021
887 Clouds 15 1027 55 10000 4.02 355 10:18 30.03.2021
888 Clouds 14 1026 51 10000 7.47 29 09:38 30.03.2021
889 Clouds 14 1026 54 10000 6.96 18 09:20 30.03.2021
890 Clouds 14 1026 54 10000 2.06 340 08:39 30.03.2021
891 Clouds 13 1026 58 10000 2.57 340 07:53 30.03.2021
892 Clouds 12 1026 62 10000 2.57 340 07:23 30.03.2021
893 Clouds 12 1025 62 10000 1.54 330 06:19 30.03.2021
894 Clouds 12 1025 58 10000 3.4 3 05:24 30.03.2021
895 Clouds 13 1026 67 10000 4.22 15 01:29 30.03.2021
896 Clouds 13 1026 67 10000 4.27 22 23:51 29.03.2021
897 Clouds 13 1025 67 10000 4.4 27 23:18 29.03.2021
898 Clouds 13 1026 67 10000 4.23 26 22:35 29.03.2021
899 Clouds 14 1025 71 10000 4.34 28 21:55 29.03.2021
900 Clouds 14 1025 67 10000 4.34 28 21:33 29.03.2021
901 Clouds 14 1025 72 10000 4.05 34 20:50 29.03.2021
902 Clouds 14 1025 67 10000 3.36 39 20:29 29.03.2021
903 Clouds 15 1025 63 10000 1.54 0 19:52 29.03.2021
904 Clouds 15 1025 63 10000 1.54 0 19:27 29.03.2021
905 Clouds 16 1024 63 10000 2.57 190 18:51 29.03.2021
906 Clouds 17 1024 51 10000 3.6 190 18:27 29.03.2021
907 Clouds 17 1024 45 10000 3.6 190 17:55 29.03.2021
908 Clouds 18 1024 39 10000 2.06 170 17:35 29.03.2021
909 Clouds 19 1024 24 10000 4.12 20 16:52 29.03.2021
910 Clouds 19 1025 30 10000 2.57 300 16:25 29.03.2021
911 Clouds 19 1025 32 10000 4.12 340 15:41 29.03.2021
912 Clouds 19 1026 50 10000 1.34 244 15:22 29.03.2021
913 Clouds 19 1027 60 10000 1.79 202 14:48 29.03.2021
914 Clouds 20 1026 30 10000 5.14 350 13:58 29.03.2021
915 Clouds 19 1026 30 10000 5.14 350 13:37 29.03.2021
916 Clear 19 1028 51 10000 0.89 187 13:18 29.03.2021
917 Clear 19 1028 46 10000 0.89 254 12:48 29.03.2021
918 Clouds 20 1027 30 10000 2.57 320 11:48 29.03.2021
919 Clouds 19 1028 32 10000 3.09 350 11:28 29.03.2021
920 Clouds 18 1028 59 10000 1.93 7 10:49 29.03.2021
921 Clouds 17 1028 48 10000 1.73 10 10:23 29.03.2021
922 Clouds 17 1028 59 10000 2.06 180 09:33 29.03.2021
923 Clear 16 1027 46 10000 1.7 6 08:43 29.03.2021
924 Clear 14 1028 66 10000 1.84 10 08:25 29.03.2021
925 Clear 11 1029 67 10000 2.37 10 07:21 29.03.2021
926 Clear 9 1029 72 10000 0.45 5 06:25 29.03.2021
927 Clear 10 1028 81 10000 2.02 4 03:25 29.03.2021
928 Clear 11 1028 76 10000 1.48 351 00:46 29.03.2021
929 Clouds 11 1028 76 10000 1.11 331 00:18 29.03.2021
930 Clouds 11 1028 76 10000 0.84 275 23:30 28.03.2021
931 Clouds 12 1028 76 10000 2.57 360 22:53 28.03.2021
932 Clouds 12 1028 76 10000 2.57 360 22:35 28.03.2021
933 Clouds 12 1028 76 10000 1.19 230 21:57 28.03.2021
934 Clouds 13 1028 76 10000 1.19 231 21:38 28.03.2021
935 Clouds 13 1028 71 10000 1.34 201 21:18 28.03.2021
936 Clouds 13 1028 67 10000 1.33 202 20:42 28.03.2021
937 Clouds 14 1028 67 10000 1.79 192 20:24 28.03.2021
938 Clouds 14 1027 67 10000 1.79 192 19:42 28.03.2021
939 Clouds 15 1027 63 10000 2 183 19:22 28.03.2021
940 Clear 15 1027 63 10000 3.09 180 18:53 28.03.2021
941 Clouds 16 1027 63 10000 4.63 190 18:24 28.03.2021
942 Clouds 17 1026 55 10000 4.63 180 17:46 28.03.2021
943 Clouds 18 1026 59 10000 3.6 180 17:22 28.03.2021
944 Clouds 18 1026 48 10000 5.14 190 16:43 28.03.2021
945 Clouds 18 1026 37 10000 4.12 180 16:22 28.03.2021
946 Clouds 18 1027 39 10000 3.09 180 15:25 28.03.2021
947 Clouds 18 1027 39 10000 3.6 190 14:50 28.03.2021
948 Clouds 18 1027 42 10000 4.63 220 14:30 28.03.2021
949 Clouds 18 1028 45 10000 4.63 200 13:39 28.03.2021
950 Clouds 17 1028 48 10000 4.63 180 13:19 28.03.2021
951 Clouds 17 1028 45 10000 4.63 160 12:43 28.03.2021
952 Clouds 17 1028 45 10000 4.63 160 12:43 28.03.2021
953 Clouds 16 1028 48 10000 3.6 180 12:25 28.03.2021
954 Clouds 17 1028 45 10000 2.57 160 11:40 28.03.2021
955 Clouds 15 1029 48 10000 2.57 170 11:18 28.03.2021
956 Clouds 16 1029 51 10000 2.06 140 10:43 28.03.2021
957 Clouds 14 1029 55 10000 1.54 0 10:21 28.03.2021
958 Clouds 14 1029 55 10000 0.8 255 09:44 28.03.2021
959 Clouds 13 1029 66 10000 0.85 293 09:23 28.03.2021
960 Clouds 13 1029 66 10000 0.82 292 08:42 28.03.2021
961 Clouds 10 1030 70 10000 0.98 354 07:45 28.03.2021
962 Clear 8 1028 81 10000 1.03 0 06:23 28.03.2021
963 Clear 8 1028 76 10000 2.06 340 03:51 28.03.2021
964 Clear 9 1028 76 10000 1.54 0 00:49 28.03.2021
965 Clear 9 1028 76 10000 1.54 0 00:19 28.03.2021
966 Clear 9 1028 76 10000 1.54 0 23:39 27.03.2021
967 Clear 10 1028 71 10000 1.03 0 22:53 27.03.2021
968 Clear 10 1028 71 10000 1.03 0 22:35 27.03.2021
969 Clear 10 1028 71 10000 1.54 0 21:46 27.03.2021
970 Clear 10 1028 71 10000 1.54 0 21:21 27.03.2021
971 Clear 10 1028 71 10000 1.54 0 20:59 27.03.2021
972 Clear 10 1028 71 10000 1.54 0 20:38 27.03.2021
973 Clear 11 1028 66 10000 1.54 0 20:19 27.03.2021
974 Clear 11 1028 62 10000 1.54 0 19:42 27.03.2021
975 Clear 12 1027 58 10000 1.54 0 19:23 27.03.2021
976 Clouds 12 1027 58 10000 2.57 170 18:48 27.03.2021
977 Clouds 12 1027 58 10000 2.57 170 18:26 27.03.2021
978 Clouds 13 1026 51 10000 3.6 170 17:40 27.03.2021
979 Clouds 14 1026 47 10000 4.63 170 17:20 27.03.2021
980 Clouds 14 1026 47 10000 4.12 170 16:48 27.03.2021
981 Clouds 15 1026 44 10000 5.14 160 16:27 27.03.2021
982 Clouds 15 1026 41 10000 5.14 180 15:46 27.03.2021
983 Clouds 15 1026 36 10000 5.14 180 15:20 27.03.2021
984 Clear 15 1026 36 10000 5.14 180 14:44 27.03.2021
985 Clear 15 1027 31 10000 5.14 170 13:40 27.03.2021
986 Clear 15 1027 34 10000 4.12 190 13:21 27.03.2021
987 Clear 15 1027 36 10000 4.12 200 12:50 27.03.2021
988 Clear 15 1027 33 10000 2.57 210 11:55 27.03.2021
989 Clear 15 1027 33 10000 2.57 210 11:37 27.03.2021
990 Clear 15 1027 33 10000 3.09 200 11:19 27.03.2021
991 Clear 14 1028 33 10000 2.57 180 10:40 27.03.2021
992 Clear 14 1028 47 10000 1.18 186 09:59 27.03.2021
993 Clear 13 1028 50 10000 0.45 158 09:22 27.03.2021
994 Clear 12 1028 50 10000 0.45 158 08:40 27.03.2021
995 Clear 12 1027 58 10000 0.45 27 08:18 27.03.2021
996 Clear 11 1029 61 10000 0.4 45 07:31 27.03.2021
997 Clear 9 1028 66 10000 1.05 7 06:43 27.03.2021
998 Clear 6 1026 75 10000 1.67 2 04:42 27.03.2021
999 Clear 7 1026 70 10000 1.51 2 03:29 27.03.2021
1000 Clear 7 1026 61 10000 2.06 330 00:45 27.03.2021
1001 Clear 7 1026 61 10000 2.06 330 00:26 27.03.2021
1002 Clear 7 1026 61 10000 2.06 330 23:43 26.03.2021
1003 Clear 8 1026 57 10000 2.06 330 22:45 26.03.2021
1004 Clear 8 1026 57 10000 0.2 70 22:25 26.03.2021
1005 Clear 8 1026 61 10000 0.48 153 21:25 26.03.2021
1006 Clear 9 1026 57 10000 0.46 150 20:58 26.03.2021
1007 Clear 9 1026 57 10000 0.48 153 20:32 26.03.2021
1008 Clear 10 1025 43 10000 1.54 0 19:53 26.03.2021
1009 Clear 10 1025 43 10000 1.54 0 19:35 26.03.2021
1010 Clear 10 1024 37 10000 1.54 0 18:59 26.03.2021
1011 Clear 11 1024 37 10000 1.54 0 18:36 26.03.2021
1012 Clear 11 1024 35 10000 3.09 160 18:18 26.03.2021
1013 Clear 11 1024 30 10000 2.57 180 17:43 26.03.2021
1014 Clear 13 1024 28 10000 2.57 180 16:54 26.03.2021
1015 Clouds 13 1023 28 10000 2.57 180 16:30 26.03.2021
1016 Clouds 13 1024 26 10000 2.06 200 15:43 26.03.2021
1017 Clouds 13 1024 26 10000 3.6 200 14:57 26.03.2021
1018 Clouds 13 1024 26 10000 3.6 200 14:21 26.03.2021
1019 Clouds 12 1024 26 10000 3.6 220 13:34 26.03.2021
1020 Clouds 12 1025 30 10000 4.12 200 12:48 26.03.2021
1021 Clouds 12 1025 26 10000 2.57 200 11:50 26.03.2021
1022 Clouds 12 1025 26 10000 2.57 200 11:31 26.03.2021
1023 Clouds 11 1025 28 10000 2.57 200 10:46 26.03.2021
1024 Clouds 12 1025 30 10000 2.57 200 10:27 26.03.2021
1025 Clear 11 1025 28 10000 2.57 160 09:41 26.03.2021
1026 Clear 9 1025 34 10000 1.54 0 09:00 26.03.2021
1027 Clear 9 1025 34 10000 1.54 0 08:35 26.03.2021
1028 Clear 8 1025 39 10000 0.54 327 07:59 26.03.2021
1029 Clear 7 1025 52 10000 1.02 351 07:23 26.03.2021
1030 Clouds 6 1026 60 10000 1.04 351 06:57 26.03.2021
1031 Clouds 5 1026 60 10000 1.43 347 06:27 26.03.2021
1032 Clouds 4 1024 69 10000 1.73 358 05:25 26.03.2021
1033 Clouds 4 1023 56 10000 2.06 330 01:57 26.03.2021
1034 Clouds 5 1023 65 10000 2.06 320 00:27 26.03.2021
1035 Clouds 5 1023 60 10000 2.06 320 23:44 25.03.2021
1036 Clouds 5 1022 60 10000 2.06 300 22:56 25.03.2021
1037 Clouds 5 1022 60 10000 3.09 330 22:28 25.03.2021
1038 Clouds 5 1022 60 10000 2.57 340 21:51 25.03.2021
1039 Clouds 5 1022 60 10000 2.57 340 21:33 25.03.2021
1040 Clouds 5 1022 56 10000 2.57 240 20:45 25.03.2021
1041 Clouds 5 1022 52 10000 3.09 300 20:25 25.03.2021
1042 Clouds 5 1021 56 10000 3.6 350 19:45 25.03.2021
1043 Clouds 5 1021 56 10000 3.09 340 19:27 25.03.2021
1044 Clouds 6 1021 52 10000 4.12 10 18:47 25.03.2021
1045 Clouds 6 1020 49 10000 5.14 20 18:27 25.03.2021
1046 Clouds 6 1022 55 10000 2.24 360 17:52 25.03.2021
1047 Clouds 6 1021 53 10000 2.68 43 17:33 25.03.2021
1048 Clouds 7 1021 55 10000 2.68 58 16:52 25.03.2021
1049 Clouds 7 1021 56 10000 2.68 24 16:31 25.03.2021
1050 Clouds 8 1019 27 10000 5.14 350 15:45 25.03.2021
1051 Clouds 9 1020 36 10000 5.36 36 15:22 25.03.2021
1052 Clouds 9 1020 37 10000 4.02 336 14:46 25.03.2021
1053 Clouds 9 1019 37 10000 7.2 320 14:18 25.03.2021
1054 Clouds 9 1019 32 10000 7.2 340 13:24 25.03.2021
1055 Clouds 9 1019 37 10000 5.14 330 12:46 25.03.2021
1056 Clouds 8 1019 57 10000 4.12 340 12:22 25.03.2021
1057 Clouds 7 1021 57 10000 1.79 25 11:53 25.03.2021
1058 Clouds 7 1021 57 10000 1.79 25 11:53 25.03.2021
1059 Clouds 6 1020 81 1000 8.23 340 11:31 25.03.2021
1060 Clouds 9 1019 46 10000 4.12 340 10:57 25.03.2021
1061 Clouds 8 1019 46 10000 4.12 340 10:39 25.03.2021
1062 Clouds 8 1019 46 10000 4.12 350 10:18 25.03.2021
1063 Clouds 8 1019 43 10000 4.12 350 09:43 25.03.2021
1064 Clouds 7 1019 53 10000 3.09 330 08:59 25.03.2021
1065 Clouds 6 1019 65 10000 3.09 330 08:30 25.03.2021
1066 Clouds 4 1018 75 10000 4.12 330 07:26 25.03.2021
1067 Clouds 4 1018 75 10000 2.57 330 06:42 25.03.2021
1068 Clouds 4 1018 75 10000 3.09 350 06:22 25.03.2021
1069 Clouds 4 1017 70 10000 2.57 340 04:50 25.03.2021
1070 Clouds 4 1017 70 10000 2.06 310 01:20 25.03.2021
1071 Clouds 4 1017 75 10000 2.57 320 00:19 25.03.2021
1072 Clouds 5 1016 65 10000 2.06 290 23:39 24.03.2021
1073 Clouds 5 1016 65 10000 2.06 290 23:18 24.03.2021
1074 Clouds 5 1016 65 10000 1.54 0 22:39 24.03.2021
1075 Clouds 5 1015 65 10000 4.63 360 21:51 24.03.2021
1076 Clouds 5 1015 65 10000 4.63 360 21:32 24.03.2021
1077 Clouds 6 1015 61 10000 2.57 350 20:56 24.03.2021
1078 Clouds 7 1014 57 10000 2.57 340 20:38 24.03.2021
1079 Clouds 7 1014 57 10000 2.57 340 20:18 24.03.2021
1080 Clear 7 1015 60 10000 3.13 355 19:31 24.03.2021
1081 Clouds 7 1014 57 10000 4.47 355 18:53 24.03.2021
1082 Clouds 8 1014 55 10000 5.36 20 18:24 24.03.2021
1083 Clouds 8 1014 55 10000 5.36 20 18:24 24.03.2021
1084 Clouds 9 1011 35 10000 5.66 340 17:53 24.03.2021
1085 Clouds 10 1011 35 10000 6.17 330 17:32 24.03.2021
1086 Clouds 10 1011 32 10000 6.17 330 16:56 24.03.2021
1087 Clouds 10 1011 32 10000 6.17 330 16:38 24.03.2021
1088 Clouds 10 1011 30 10000 6.69 330 16:18 24.03.2021
1089 Clouds 11 1011 37 10000 5.66 340 15:33 24.03.2021
1090 Clouds 10 1011 53 10000 5.14 340 14:59 24.03.2021
1091 Clouds 10 1011 37 10000 6.17 330 14:29 24.03.2021
1092 Clouds 11 1010 37 10000 6.69 350 13:58 24.03.2021
1093 Clouds 11 1011 35 10000 4.92 338 13:28 24.03.2021
1094 Clouds 12 1010 26 10000 6.17 310 12:50 24.03.2021
1095 Clouds 12 1010 30 10000 6.17 330 12:29 24.03.2021
1096 Clouds 11 1010 30 10000 6.17 340 11:54 24.03.2021
1097 Clouds 11 1010 30 10000 6.17 340 11:35 24.03.2021
1098 Clouds 11 1010 30 10000 6.17 340 11:35 24.03.2021
1099 Clouds 10 1011 35 10000 4.63 290 10:48 24.03.2021
1100 Clouds 10 1011 37 10000 5.14 310 10:28 24.03.2021
1101 Clouds 10 1011 37 10000 4.12 320 09:54 24.03.2021
1102 Clouds 8 1011 43 10000 4.63 320 09:25 24.03.2021
1103 Clouds 8 1011 46 10000 3.6 310 08:57 24.03.2021
1104 Clouds 8 1011 46 10000 3.6 310 08:32 24.03.2021
1105 Clouds 7 1012 53 10000 2.06 310 07:45 24.03.2021
1106 Clouds 7 1012 57 10000 3.6 310 07:18 24.03.2021
1107 Clouds 6 1011 61 10000 4.63 320 06:41 24.03.2021
1108 Drizzle 6 1011 81 10000 4.63 340 01:26 24.03.2021
1109 Drizzle 6 1011 76 10000 4.12 330 00:36 24.03.2021
1110 Drizzle 7 1010 76 10000 5.14 330 23:43 23.03.2021
1111 Drizzle 6 1010 76 10000 5.14 330 23:19 23.03.2021
1112 Clouds 6 1010 76 10000 4.12 330 22:44 23.03.2021
1113 Clouds 7 1010 76 10000 4.12 330 22:24 23.03.2021
1114 Clouds 7 1010 76 10000 3.09 310 21:41 23.03.2021
1115 Clouds 7 1010 76 10000 2.57 350 21:22 23.03.2021
1116 Clouds 7 1009 71 10000 4.12 350 20:44 23.03.2021
1117 Drizzle 7 1009 71 10000 5.14 340 20:25 23.03.2021
1118 Drizzle 7 1009 76 10000 4.12 350 19:47 23.03.2021
1119 Drizzle 7 1008 81 10000 3.6 360 19:25 23.03.2021
1120 Drizzle 7 1008 76 10000 4.12 330 18:43 23.03.2021
1121 Drizzle 7 1007 76 10000 4.12 330 18:22 23.03.2021
1122 Drizzle 8 1007 76 10000 4.12 320 17:45 23.03.2021
1123 Drizzle 8 1007 76 10000 4.12 330 17:21 23.03.2021
1124 Clouds 8 1006 76 10000 4.12 330 16:39 23.03.2021
1125 Drizzle 8 1006 71 10000 6.17 320 16:19 23.03.2021
1126 Clouds 8 1006 71 10000 4.63 330 15:38 23.03.2021
1127 Clouds 8 1006 71 10000 5.14 330 14:55 23.03.2021
1128 Drizzle 9 1005 76 10000 6.17 330 14:21 23.03.2021
1129 Drizzle 9 1005 76 10000 6.17 330 14:21 23.03.2021
1130 Clouds 9 1005 66 10000 7.72 330 13:55 23.03.2021
1131 Clouds 9 1005 66 10000 5.14 330 13:37 23.03.2021
1132 Clouds 9 1005 66 10000 5.14 330 13:18 23.03.2021
1133 Clouds 9 1005 66 10000 6.69 330 12:41 23.03.2021
1134 Clouds 9 1005 66 10000 6.69 330 12:20 23.03.2021
1135 Clouds 9 1005 66 10000 7.2 330 11:44 23.03.2021
1136 Clouds 9 1005 66 10000 6.17 330 10:44 23.03.2021
1137 Drizzle 9 1005 71 10000 5.14 330 10:25 23.03.2021
1138 Drizzle 9 1004 71 10000 5.14 330 09:58 23.03.2021
1139 Drizzle 10 1004 71 10000 5.14 330 09:38 23.03.2021
1140 Drizzle 10 1004 71 10000 6.17 330 09:19 23.03.2021
1141 Clouds 10 1004 66 10000 5.14 330 08:39 23.03.2021
1142 Clouds 10 1003 66 10000 6.17 330 08:21 23.03.2021
1143 Clouds 10 1003 66 10000 5.14 310 07:28 23.03.2021
1144 Clouds 10 1003 66 10000 5.14 320 06:59 23.03.2021
1145 Clouds 10 1003 66 10000 5.14 320 06:26 23.03.2021
1146 Clouds 10 1003 66 10000 3.9 6 03:22 23.03.2021
1147 Clouds 10 1003 62 10000 4.12 330 02:18 23.03.2021
1148 Clouds 12 1002 62 10000 3.6 350 23:43 22.03.2021
1149 Clouds 12 1003 54 10000 2.18 320 22:56 22.03.2021
1150 Clouds 13 1003 54 10000 2.18 320 22:37 22.03.2021
1151 Clouds 13 1003 58 10000 2.59 304 22:18 22.03.2021
1152 Clouds 13 1002 58 10000 2.59 304 21:40 22.03.2021
1153 Clouds 13 1002 58 10000 2.59 304 21:40 22.03.2021
1154 Clouds 13 1002 58 10000 2.06 360 21:21 22.03.2021
1155 Clouds 13 1002 54 10000 1.98 314 20:41 22.03.2021
1156 Clouds 13 1002 54 10000 2.06 340 20:21 22.03.2021
1157 Clouds 13 1001 51 10000 2.57 270 19:53 22.03.2021
1158 Clouds 13 1001 51 10000 2.57 270 19:31 22.03.2021
1159 Clouds 14 1000 51 10000 2.57 290 18:47 22.03.2021
1160 Clouds 14 1000 51 10000 2.57 290 18:29 22.03.2021
1161 Clouds 14 1000 44 10000 3.6 290 17:59 22.03.2021
1162 Clouds 15 1000 44 10000 3.6 290 17:41 22.03.2021
1163 Clouds 15 1000 44 10000 3.09 260 17:19 22.03.2021
1164 Clouds 16 999 42 10000 3.09 280 16:44 22.03.2021
1165 Clouds 16 999 42 10000 4.12 300 16:19 22.03.2021
1166 Clouds 17 998 45 10000 6.17 280 15:38 22.03.2021
1167 Clouds 17 998 45 10000 6.17 280 15:18 22.03.2021
1168 Clouds 17 998 48 10000 6.17 250 14:52 22.03.2021
1169 Clouds 18 998 48 10000 6.17 250 14:34 22.03.2021
1170 Clouds 18 999 56 10000 4.47 238 13:48 22.03.2021
1171 Clouds 19 998 37 10000 6.17 230 13:27 22.03.2021
1172 Clouds 19 998 42 10000 5.14 180 12:54 22.03.2021
1173 Clouds 19 998 42 10000 5.14 180 12:25 22.03.2021
1174 Clouds 19 998 52 10000 4.12 220 11:49 22.03.2021
1175 Clouds 19 998 52 10000 4.12 220 11:26 22.03.2021
1176 Clouds 18 999 52 10000 4.12 200 10:45 22.03.2021
1177 Clouds 17 999 52 10000 4.12 200 10:24 22.03.2021
1178 Clouds 16 998 55 10000 2.06 220 09:46 22.03.2021
1179 Clouds 16 998 55 10000 2.06 220 09:27 22.03.2021
1180 Clouds 16 998 55 10000 3.09 260 08:45 22.03.2021
1181 Clouds 16 998 63 10000 2.57 220 08:26 22.03.2021
1182 Clouds 15 997 77 9000 2.57 200 07:50 22.03.2021
1183 Clouds 15 997 82 9000 5.18 222 07:30 22.03.2021
1184 Clouds 14 997 88 9000 2.96 206 06:39 22.03.2021
1185 Clouds 14 998 88 10000 1.25 144 02:47 22.03.2021
1186 Clouds 14 1000 82 10000 1.55 105 00:43 22.03.2021
1187 Clouds 14 1000 82 10000 1.01 103 23:55 21.03.2021
1188 Clouds 14 1000 82 10000 1.04 85 23:20 21.03.2021
1189 Clouds 15 1001 82 10000 2.06 330 22:59 21.03.2021
1190 Clouds 15 1001 82 10000 2.06 330 22:38 21.03.2021
1191 Clouds 15 1001 82 10000 1.39 90 21:43 21.03.2021
1192 Clouds 15 1001 82 10000 1.34 61 21:24 21.03.2021
1193 Clouds 15 1001 82 10000 1.34 61 20:55 21.03.2021
1194 Clouds 15 1001 82 10000 1.34 61 20:36 21.03.2021
1195 Clouds 15 1002 82 10000 2.06 330 20:18 21.03.2021
1196 Clouds 15 1002 72 10000 2.06 310 19:29 21.03.2021
1197 Rain 15 1002 77 10000 2.06 310 18:58 21.03.2021
1198 Rain 15 1002 77 10000 2.06 310 18:40 21.03.2021
1199 Rain 15 1001 77 10000 3.6 290 18:18 21.03.2021
1200 Rain 15 1001 72 10000 5.66 80 17:41 21.03.2021
1201 Rain 15 1002 72 10000 5.14 80 17:18 21.03.2021
1202 Clouds 15 1003 67 10000 2.06 150 16:49 21.03.2021
1203 Drizzle 15 1003 72 10000 4.12 20 16:23 21.03.2021
1204 Clouds 16 1005 67 10000 3.09 320 15:42 21.03.2021
1205 Clouds 16 1003 63 10000 6.17 80 15:21 21.03.2021
1206 Clouds 16 1004 63 10000 4.12 80 14:47 21.03.2021
1207 Clouds 16 1005 63 10000 5.14 90 14:27 21.03.2021
1208 Clouds 16 1005 63 10000 4.63 80 13:57 21.03.2021
1209 Clouds 17 1005 63 10000 4.63 80 13:38 21.03.2021
1210 Clouds 16 1006 67 10000 3.6 60 12:43 21.03.2021
1211 Rain 16 1007 67 10000 3.09 90 12:25 21.03.2021
1212 Rain 16 1007 67 10000 3.09 90 12:25 21.03.2021
1213 Clouds 16 1007 67 10000 4.63 90 11:41 21.03.2021
1214 Clouds 16 1008 67 10000 2.57 70 11:21 21.03.2021
1215 Clouds 16 1008 72 10000 5.14 330 10:45 21.03.2021
1216 Clouds 16 1009 67 10000 2.06 300 10:27 21.03.2021
1217 Clouds 15 1008 67 10000 1.54 300 09:50 21.03.2021
1218 Clouds 15 1008 67 10000 1.54 300 09:32 21.03.2021
1219 Clouds 15 1009 67 10000 1.54 0 08:57 21.03.2021
1220 Clouds 14 1009 67 10000 1.54 0 08:36 21.03.2021
1221 Clouds 14 1009 72 10000 3.09 320 08:18 21.03.2021
1222 Clouds 13 1008 76 10000 2.57 320 07:29 21.03.2021
1223 Clouds 12 1008 82 10000 1.54 290 06:21 21.03.2021
1224 Clouds 12 1008 82 10000 3.13 33 04:52 21.03.2021
1225 Clouds 12 1009 82 10000 2.58 37 00:58 21.03.2021
1226 Clouds 12 1009 82 10000 2.58 37 00:39 21.03.2021
1227 Clouds 12 1010 82 10000 2.5 24 00:20 21.03.2021
1228 Clouds 13 1010 82 10000 2.5 24 23:45 20.03.2021
1229 Clouds 13 1010 76 10000 2.22 10 23:20 20.03.2021
1230 Clouds 13 1010 76 10000 1.54 320 22:24 20.03.2021
1231 Clouds 13 1010 76 10000 1.54 280 21:58 20.03.2021
1232 Clouds 13 1010 76 10000 1.54 280 21:40 20.03.2021
1233 Clouds 13 1010 76 10000 2.06 300 21:21 20.03.2021
1234 Clouds 13 1010 76 10000 3.6 330 20:41 20.03.2021
1235 Clouds 13 1010 76 10000 5.14 330 20:21 20.03.2021
1236 Clouds 14 1010 76 10000 4.12 320 19:41 20.03.2021
1237 Clouds 14 1010 76 10000 4.63 340 19:23 20.03.2021
1238 Clouds 14 1010 76 10000 4.12 330 18:46 20.03.2021
1239 Clouds 14 1010 77 10000 2.57 320 18:24 20.03.2021
1240 Clouds 15 1010 82 10000 0.53 123 17:48 20.03.2021
1241 Clouds 15 1010 82 10000 1.81 174 17:26 20.03.2021
1242 Clouds 15 1010 72 10000 1.81 175 16:44 20.03.2021
1243 Clouds 16 1010 72 10000 1.54 190 16:20 20.03.2021
1244 Clouds 16 1010 67 10000 2.57 170 15:54 20.03.2021
1245 Clouds 16 1010 67 10000 2.57 170 15:33 20.03.2021
1246 Clouds 16 1010 67 10000 2.95 179 14:44 20.03.2021
1247 Clouds 16 1010 72 10000 3.46 182 14:22 20.03.2021
1248 Clouds 15 1011 67 10000 3.1 177 13:32 20.03.2021
1249 Clouds 14 1011 67 10000 3.05 176 12:51 20.03.2021
1250 Clouds 14 1012 72 10000 1.45 176 12:26 20.03.2021
1251 Clouds 14 1012 77 10000 1.48 176 11:45 20.03.2021
1252 Clouds 13 1012 76 10000 0.61 129 11:27 20.03.2021
1253 Clouds 13 1012 76 10000 0.61 129 10:55 20.03.2021
1254 Clouds 12 1012 82 10000 0.78 105 10:28 20.03.2021
1255 Clouds 13 1012 82 10000 0.78 105 09:56 20.03.2021
1256 Clouds 12 1012 87 10000 0.38 68 09:27 20.03.2021
1257 Clouds 12 1013 87 10000 0.38 65 08:56 20.03.2021
1258 Clouds 12 1013 93 10000 0.62 197 08:30 20.03.2021
1259 Clouds 12 1013 93 10000 0.62 197 08:30 20.03.2021
1260 Clouds 12 1013 93 10000 0.61 196 07:52 20.03.2021
1261 Clouds 12 1013 93 10000 0.62 196 07:32 20.03.2021
1262 Clouds 11 1013 87 10000 0.29 103 06:52 20.03.2021
1263 Rain 11 1013 87 10000 2.57 340 06:19 20.03.2021
1264 Clouds 12 1013 82 10000 1.03 0 03:59 20.03.2021
1265 Clouds 12 1013 82 10000 1.03 0 03:41 20.03.2021
1266 Clouds 12 1013 71 10000 1.03 0 23:58 19.03.2021
1267 Clouds 12 1013 71 10000 1.03 0 23:31 19.03.2021
1268 Clouds 12 1014 78 10000 0.45 334 22:49 19.03.2021
1269 Clouds 12 1014 76 10000 0.45 335 22:28 19.03.2021
1270 Clouds 12 1013 71 10000 1.03 0 21:56 19.03.2021
1271 Clouds 12 1013 71 10000 1.54 0 21:22 19.03.2021
1272 Clouds 12 1013 76 10000 1.54 0 20:59 19.03.2021
1273 Clouds 12 1013 76 10000 1.54 0 20:40 19.03.2021
1274 Clouds 12 1012 76 10000 1.54 0 20:21 19.03.2021
1275 Clouds 12 1012 76 10000 1.03 0 19:46 19.03.2021
1276 Clouds 12 1012 71 10000 1.03 0 19:20 19.03.2021
1277 Clouds 14 1012 72 10000 1.54 0 18:40 19.03.2021
1278 Clouds 14 1012 72 10000 1.54 170 18:19 19.03.2021
1279 Clouds 14 1011 58 10000 2.06 160 17:55 19.03.2021
1280 Clouds 15 1011 55 10000 2.57 170 17:30 19.03.2021
1281 Clouds 16 1011 51 10000 2.57 180 16:55 19.03.2021
1282 Clouds 16 1011 51 10000 2.57 180 16:29 19.03.2021
1283 Clouds 16 1011 48 10000 2.06 170 15:55 19.03.2021
1284 Clouds 17 1011 48 10000 2.06 200 15:26 19.03.2021
1285 Clouds 17 1010 48 10000 2.57 170 14:47 19.03.2021
1286 Clouds 17 1010 48 10000 2.06 160 14:27 19.03.2021
1287 Clouds 16 1011 51 10000 2.06 190 13:40 19.03.2021
1288 Clouds 16 1011 55 10000 2.06 180 12:57 19.03.2021
1289 Clouds 16 1011 55 10000 2.06 180 12:35 19.03.2021
1290 Clouds 16 1011 51 10000 2.06 190 11:44 19.03.2021
1291 Clouds 16 1011 55 10000 4.63 190 10:54 19.03.2021
1292 Clouds 15 1011 58 10000 3.6 200 10:31 19.03.2021
1293 Clouds 15 1011 62 10000 3.6 190 09:49 19.03.2021
1294 Clouds 14 1011 67 10000 3.38 246 09:30 19.03.2021
1295 Clouds 13 1011 71 10000 3.18 258 08:58 19.03.2021
1296 Clouds 13 1011 71 10000 3.23 258 08:39 19.03.2021
1297 Clouds 12 1011 82 10000 3 263 08:18 19.03.2021
1298 Clouds 11 1011 87 10000 3 263 07:37 19.03.2021
1299 Clouds 10 1010 93 10000 2.62 266 06:52 19.03.2021
1300 Clouds 10 1010 93 10000 4.44 221 03:34 19.03.2021
1301 Clouds 11 1011 54 10000 1.89 184 00:58 19.03.2021
1302 Rain 11 1011 54 10000 2.1 218 23:49 18.03.2021
1303 Clouds 11 1012 54 10000 2.32 222 23:26 18.03.2021
1304 Clouds 12 1012 54 10000 2.33 222 22:41 18.03.2021
1305 Clouds 12 1012 54 10000 1.88 244 22:22 18.03.2021
1306 Clouds 12 1012 50 10000 1.88 244 21:39 18.03.2021
1307 Clouds 12 1012 50 10000 2.4 259 20:54 18.03.2021
1308 Clouds 12 1012 50 10000 2.4 259 20:35 18.03.2021
1309 Clouds 13 1011 50 10000 2.28 278 19:59 18.03.2021
1310 Clouds 13 1011 50 10000 2.28 278 19:41 18.03.2021
1311 Clouds 13 1012 47 10000 0.87 357 19:20 18.03.2021
1312 Clouds 12 1012 47 10000 2.06 140 18:35 18.03.2021
1313 Clouds 12 1012 47 10000 5.14 160 17:51 18.03.2021
1314 Clouds 13 1012 41 10000 5.14 160 17:26 18.03.2021
1315 Clouds 13 1012 41 10000 5.14 170 16:50 18.03.2021
1316 Clouds 13 1012 41 10000 5.66 170 16:30 18.03.2021
1317 Clouds 14 1012 38 10000 4.12 200 15:49 18.03.2021
1318 Clouds 14 1012 29 10000 4.12 240 15:30 18.03.2021
1319 Clouds 15 1012 29 10000 4.12 240 14:59 18.03.2021
1320 Clouds 15 1012 29 10000 4.12 240 14:40 18.03.2021
1321 Clouds 15 1012 29 10000 5.14 250 13:56 18.03.2021
1322 Clouds 15 1013 29 10000 6.17 250 13:27 18.03.2021
1323 Clouds 15 1013 29 10000 6.17 250 12:47 18.03.2021
1324 Clouds 14 1013 29 10000 5.66 260 12:28 18.03.2021
1325 Clouds 14 1013 29 10000 4.12 270 11:55 18.03.2021
1326 Clouds 14 1013 29 10000 4.12 270 11:34 18.03.2021
1327 Clouds 13 1013 26 10000 4.12 280 10:51 18.03.2021
1328 Clouds 13 1013 28 10000 2.57 280 10:29 18.03.2021
1329 Clouds 13 1013 26 10000 2.57 300 09:58 18.03.2021
1330 Clear 12 1013 28 10000 2.06 340 09:30 18.03.2021
1331 Clear 12 1013 33 10000 2.06 340 08:59 18.03.2021
1332 Clear 12 1013 33 10000 2.06 340 08:41 18.03.2021
1333 Clouds 11 1013 40 10000 2.06 360 08:23 18.03.2021
1334 Clouds 10 1013 43 10000 2.06 340 07:43 18.03.2021
1335 Clouds 8 1013 57 10000 1.54 0 06:40 18.03.2021
1336 Clouds 6 1013 61 10000 3 293 06:22 18.03.2021
1337 Clouds 7 1012 61 10000 2.06 30 05:25 18.03.2021
1338 Clouds 8 1011 57 10000 2.57 350 00:40 18.03.2021
1339 Clouds 9 1010 53 10000 4.63 290 23:19 17.03.2021
1340 Clouds 9 1010 50 10000 4.63 290 22:38 17.03.2021
1341 Clouds 9 1010 50 10000 4.63 290 22:20 17.03.2021
1342 Clouds 10 1009 46 10000 6.17 280 21:49 17.03.2021
1343 Clouds 10 1009 46 10000 6.69 280 21:30 17.03.2021
1344 Clouds 10 1008 50 10000 4.12 280 20:48 17.03.2021
1345 Clouds 10 1008 43 10000 4.63 280 20:26 17.03.2021
1346 Clouds 11 1008 43 10000 5.14 280 19:58 17.03.2021
1347 Clouds 11 1008 43 10000 5.14 280 19:39 17.03.2021
1348 Clouds 11 1007 37 10000 5.14 270 19:19 17.03.2021
1349 Clouds 11 1007 43 10000 4.63 270 18:47 17.03.2021
1350 Clouds 12 1007 41 10000 5.14 270 18:29 17.03.2021
1351 Clouds 13 1006 35 10000 6.17 260 17:32 17.03.2021
1352 Clouds 13 1006 38 10000 6.17 270 16:58 17.03.2021
1353 Clouds 13 1006 38 10000 6.17 270 16:39 17.03.2021
1354 Clouds 14 1006 36 10000 5.14 280 16:20 17.03.2021
1355 Clouds 14 1005 26 10000 5.14 280 15:44 17.03.2021
1356 Clouds 15 1005 27 10000 6.17 270 15:25 17.03.2021
1357 Clouds 14 1006 25 10000 7.2 260 14:37 17.03.2021
1358 Clouds 15 1006 25 10000 5.14 270 14:18 17.03.2021
1359 Clouds 15 1006 25 10000 5.14 260 13:52 17.03.2021
1360 Clouds 15 1006 23 10000 6.17 280 13:24 17.03.2021
1361 Clouds 15 1006 25 10000 6.17 240 12:37 17.03.2021
1362 Clouds 15 1006 23 10000 4.12 240 12:19 17.03.2021
1363 Clouds 14 1006 31 10000 4.12 220 11:40 17.03.2021
1364 Clouds 14 1006 28 10000 1.54 0 11:20 17.03.2021
1365 Clouds 14 1006 26 10000 4.12 320 10:50 17.03.2021
1366 Clouds 13 1006 26 10000 4.12 310 10:23 17.03.2021
1367 Clouds 13 1006 28 10000 4.12 320 09:46 17.03.2021
1368 Clouds 13 1006 28 10000 4.12 320 09:20 17.03.2021
1369 Clouds 12 1006 43 10000 1.54 0 08:47 17.03.2021
1370 Clouds 11 1006 43 10000 1.54 0 08:27 17.03.2021
1371 Clouds 11 1006 50 10000 1.54 0 07:43 17.03.2021
1372 Clouds 9 1008 59 10000 0.89 274 06:57 17.03.2021
1373 Clouds 8 1006 65 10000 2.93 301 06:29 17.03.2021
1374 Clouds 8 1005 65 10000 3.39 291 04:18 17.03.2021
1375 Clouds 9 1005 65 10000 3.37 297 02:41 17.03.2021
1376 Clouds 10 1005 57 10000 3.34 297 00:39 17.03.2021
1377 Clouds 10 1005 57 10000 2.06 330 23:27 16.03.2021
1378 Clouds 10 1005 57 10000 2.57 320 22:46 16.03.2021
1379 Clouds 10 1005 57 10000 2.06 290 22:28 16.03.2021
1380 Clouds 11 1005 58 10000 1.54 0 21:45 16.03.2021
1381 Clouds 11 1005 54 10000 3.09 280 21:26 16.03.2021
1382 Clouds 11 1005 50 10000 2.06 290 20:58 16.03.2021
1383 Clouds 11 1004 50 10000 1.54 0 20:20 16.03.2021
1384 Clouds 11 1004 50 10000 2.06 300 19:52 16.03.2021
1385 Clouds 11 1004 50 10000 2.06 300 19:34 16.03.2021
1386 Clouds 11 1004 43 10000 3.09 280 18:59 16.03.2021
1387 Clouds 12 1004 43 10000 3.09 280 18:40 16.03.2021
1388 Clouds 12 1003 33 10000 4.12 270 18:20 16.03.2021
1389 Clouds 12 1003 35 10000 4.12 270 17:45 16.03.2021
1390 Clouds 13 1003 33 10000 5.66 270 17:24 16.03.2021
1391 Clouds 13 1004 33 10000 5.14 290 16:50 16.03.2021
1392 Clouds 14 1004 29 10000 4.63 280 16:26 16.03.2021
1393 Clouds 14 1004 29 10000 7.72 260 15:46 16.03.2021
1394 Clouds 15 1004 29 10000 5.14 240 15:21 16.03.2021
1395 Clouds 15 1004 31 10000 6.17 230 14:57 16.03.2021
1396 Clouds 15 1004 31 10000 6.17 230 14:39 16.03.2021
1397 Clouds 15 1004 31 10000 5.14 250 14:19 16.03.2021
1398 Clouds 15 1004 33 10000 5.14 260 13:46 16.03.2021
1399 Clouds 15 1004 33 10000 5.66 270 13:23 16.03.2021
1400 Clouds 15 1004 33 10000 5.14 250 12:50 16.03.2021
1401 Clouds 15 1004 33 10000 5.14 250 12:31 16.03.2021
1402 Clouds 14 1005 31 10000 5.14 250 11:41 16.03.2021
1403 Clouds 14 1005 38 10000 5.66 250 11:21 16.03.2021
1404 Clouds 13 1005 44 10000 6.17 260 10:27 16.03.2021
1405 Clouds 13 1005 44 10000 5.66 270 09:49 16.03.2021
1406 Clouds 12 1004 47 10000 7.2 270 09:30 16.03.2021
1407 Clouds 12 1004 50 10000 5.66 280 08:59 16.03.2021
1408 Clouds 11 1004 50 10000 5.66 280 08:40 16.03.2021
1409 Clouds 11 1004 50 10000 5.66 260 08:20 16.03.2021
1410 Clouds 10 1004 54 10000 4.63 270 07:36 16.03.2021
1411 Clouds 9 1003 57 10000 4.63 300 06:40 16.03.2021
1412 Clouds 9 1002 57 10000 4.12 280 05:52 16.03.2021
1413 Clouds 9 1002 57 10000 4.12 280 05:34 16.03.2021
1414 Clouds 9 1001 57 10000 5.14 260 02:45 16.03.2021
1415 Clouds 9 1001 54 10000 5.14 260 02:24 16.03.2021
1416 Clouds 10 1001 50 10000 5.14 280 23:58 15.03.2021
1417 Clouds 10 1001 50 10000 5.14 280 23:29 15.03.2021
1418 Clouds 10 1001 50 10000 5.14 280 23:29 15.03.2021
1419 Clouds 10 1001 50 10000 5.14 280 23:29 15.03.2021
1420 Clouds 10 1002 54 10000 5.14 260 22:53 15.03.2021
1421 Clouds 10 1002 54 10000 5.14 260 22:34 15.03.2021
1422 Clouds 10 1001 54 10000 4.12 260 21:55 15.03.2021
1423 Clouds 10 1001 54 10000 4.12 260 21:36 15.03.2021
1424 Clouds 10 1001 54 10000 4.12 260 21:18 15.03.2021
1425 Clouds 10 1002 58 10000 5.14 280 20:41 15.03.2021
1426 Clouds 10 1002 50 10000 5.14 260 20:22 15.03.2021
1427 Clouds 10 1001 50 10000 5.14 280 19:51 15.03.2021
1428 Clouds 10 1001 50 10000 5.14 280 19:33 15.03.2021
1429 Clouds 11 1001 54 10000 6.17 270 18:57 15.03.2021
1430 Clouds 11 1001 47 10000 6.17 270 18:32 15.03.2021
1431 Clouds 12 1000 38 10000 7.2 270 17:56 15.03.2021
1432 Clouds 12 1000 38 10000 7.2 270 17:33 15.03.2021
1433 Clouds 13 1000 41 10000 6.17 280 16:56 15.03.2021
1434 Clouds 13 1000 41 10000 6.17 280 16:35 15.03.2021
1435 Clouds 14 1000 51 10000 6.17 250 15:47 15.03.2021
1436 Clouds 14 1002 60 10000 4.02 281 15:27 15.03.2021
1437 Clouds 14 1002 52 10000 3.58 295 14:45 15.03.2021
1438 Clouds 14 1002 52 10000 3.58 295 14:45 15.03.2021
1439 Clouds 14 1000 51 10000 5.14 290 14:27 15.03.2021
1440 Clouds 14 1000 51 10000 7.2 290 13:55 15.03.2021
1441 Clouds 14 1000 51 10000 7.2 290 13:34 15.03.2021
1442 Clouds 14 1001 51 10000 5.14 300 12:51 15.03.2021
1443 Clouds 16 1001 51 10000 5.14 300 12:20 15.03.2021
1444 Clouds 16 1002 51 10000 5.66 260 11:57 15.03.2021
1445 Clouds 16 1002 51 10000 5.66 260 11:38 15.03.2021
1446 Clouds 17 1001 45 10000 5.14 210 11:18 15.03.2021
1447 Clouds 17 1002 55 10000 4.12 180 10:34 15.03.2021
1448 Clouds 16 1003 63 10000 1.54 0 09:59 15.03.2021
1449 Clouds 16 1003 63 10000 1.54 0 09:40 15.03.2021
1450 Clouds 16 1003 63 10000 2.57 130 09:20 15.03.2021
1451 Clouds 15 1004 72 10000 4.43 225 08:41 15.03.2021
1452 Clouds 15 1004 76 10000 3.42 240 08:21 15.03.2021
1453 Clouds 13 1004 82 10000 3.42 240 07:33 15.03.2021
1454 Clear 11 1006 82 10000 2.93 247 06:48 15.03.2021
1455 Clouds 10 1006 83 10000 2.37 255 05:35 15.03.2021
1456 Clouds 11 1006 93 10000 2.03 274 03:19 15.03.2021
1457 Clear 11 1009 84 10000 1.76 268 00:21 15.03.2021
1458 Clear 12 1009 87 10000 1.71 271 23:23 14.03.2021
1459 Clear 12 1010 87 10000 1.71 271 22:49 14.03.2021
1460 Clear 12 1010 88 10000 1.4 258 22:28 14.03.2021
1461 Clear 12 1010 87 10000 0.45 126 21:52 14.03.2021
1462 Clouds 12 1009 87 10000 1.3 226 21:23 14.03.2021
1463 Clouds 12 1009 87 10000 1.3 226 20:52 14.03.2021
1464 Clouds 12 1009 82 10000 1.55 207 20:29 14.03.2021
1465 Clouds 12 1010 82 10000 1.55 207 19:59 14.03.2021
1466 Clouds 13 1010 82 10000 1.55 207 19:41 14.03.2021
1467 Clouds 13 1009 76 10000 1.83 197 19:18 14.03.2021
1468 Clouds 13 1009 76 10000 1.73 200 18:36 14.03.2021
1469 Clouds 14 1009 67 10000 2.57 170 17:54 14.03.2021
1470 Clouds 15 1009 67 10000 2.57 170 17:36 14.03.2021
1471 Clouds 15 1009 63 10000 2.57 200 17:18 14.03.2021
1472 Clouds 16 1009 55 10000 2.57 200 16:40 14.03.2021
1473 Clouds 16 1009 59 10000 2.06 200 16:19 14.03.2021
1474 Clouds 16 1009 55 10000 2.57 190 15:42 14.03.2021
1475 Clouds 16 1010 48 10000 3.09 190 14:52 14.03.2021
1476 Clouds 16 1010 55 10000 3.06 216 14:31 14.03.2021
1477 Clouds 17 1010 48 10000 2.88 218 13:55 14.03.2021
1478 Clouds 17 1010 48 10000 2.86 217 13:36 14.03.2021
1479 Clouds 16 1011 51 10000 2.79 225 12:58 14.03.2021
1480 Clouds 16 1011 51 10000 3.2 226 12:40 14.03.2021
1481 Clouds 16 1012 63 10000 2.95 229 12:22 14.03.2021
1482 Clouds 16 1013 67 10000 2.95 229 11:38 14.03.2021
1483 Clouds 15 1013 63 10000 2.64 231 11:19 14.03.2021
1484 Clouds 15 1013 67 10000 2.64 231 10:38 14.03.2021
1485 Clouds 15 1013 72 10000 2.01 233 10:19 14.03.2021
1486 Clouds 14 1013 76 10000 2.01 233 09:56 14.03.2021
1487 Clouds 14 1013 76 10000 2.01 233 09:38 14.03.2021
1488 Clouds 14 1013 82 10000 1.68 236 09:20 14.03.2021
1489 Clouds 13 1014 82 10000 1.68 236 08:36 14.03.2021
1490 Clouds 12 1015 81 10000 1.29 220 07:58 14.03.2021
1491 Clouds 12 1013 87 10000 0.46 235 07:28 14.03.2021
1492 Clear 11 1013 87 10000 1.48 320 05:38 14.03.2021
1493 Clear 11 1015 81 10000 1.16 308 01:27 14.03.2021
1494 Clear 12 1015 82 10000 0.88 303 00:20 14.03.2021
1495 Clear 12 1015 76 10000 0.88 303 23:59 13.03.2021
1496 Clear 12 1015 76 10000 0.88 303 23:40 13.03.2021
1497 Clear 12 1016 82 10000 1.12 277 23:19 13.03.2021
1498 Clear 12 1016 76 10000 1.12 277 22:46 13.03.2021
1499 Clear 12 1016 82 10000 0.77 257 22:21 13.03.2021
1500 Clear 13 1016 71 10000 0.77 257 21:35 13.03.2021
1501 Clear 13 1016 76 10000 0.52 247 20:59 13.03.2021
1502 Clear 13 1016 76 10000 0.52 246 20:41 13.03.2021
1503 Clear 13 1016 76 10000 0.85 215 20:23 13.03.2021
1504 Clear 14 1016 72 10000 2.06 70 19:40 13.03.2021
1505 Clear 14 1016 67 10000 1.06 211 19:22 13.03.2021
1506 Clear 14 1016 67 10000 1.06 211 18:42 13.03.2021
1507 Clear 14 1015 67 10000 1.03 0 18:20 13.03.2021
1508 Clear 14 1015 63 10000 2.06 180 17:51 13.03.2021
1509 Clear 15 1015 59 10000 2.06 180 17:31 13.03.2021
1510 Clouds 15 1016 63 10000 2.04 220 16:53 13.03.2021
1511 Clouds 15 1016 63 10000 0.45 190 16:35 13.03.2021
1512 Clouds 16 1017 62 10000 0.89 200 15:56 13.03.2021
1513 Clouds 16 1017 63 10000 0.45 207 15:19 13.03.2021
1514 Clouds 16 1017 62 10000 0.89 211 14:41 13.03.2021
1515 Clouds 16 1017 61 10000 0.89 221 14:21 13.03.2021
1516 Clouds 16 1017 59 10000 0.45 224 13:30 13.03.2021
1517 Clouds 16 1018 58 10000 0.89 184 12:54 13.03.2021
1518 Clouds 16 1018 58 10000 0.89 123 12:36 13.03.2021
1519 Clear 17 1017 42 10000 3.09 200 11:58 13.03.2021
1520 Clear 16 1017 42 10000 3.09 200 11:39 13.03.2021
1521 Clear 16 1017 55 10000 4.12 200 11:20 13.03.2021
1522 Clear 16 1017 51 10000 2.06 140 10:31 13.03.2021
1523 Clear 15 1017 62 10000 2.28 223 10:00 13.03.2021
1524 Clear 15 1017 62 10000 2.28 223 09:33 13.03.2021
1525 Clouds 14 1017 62 10000 2.41 234 08:54 13.03.2021
1526 Clouds 13 1017 62 10000 1.72 242 08:26 13.03.2021
1527 Clouds 13 1018 69 10000 0.45 267 07:57 13.03.2021
1528 Clouds 12 1018 70 10000 1.72 242 07:38 13.03.2021
1529 Clouds 8 1016 87 10000 0.95 283 05:30 13.03.2021
1530 Clouds 9 1017 87 10000 0.97 342 02:42 13.03.2021
1531 Clouds 9 1018 87 10000 0.79 331 00:36 13.03.2021
1532 Clouds 9 1018 87 10000 0.63 307 23:46 12.03.2021
1533 Clouds 10 1018 87 10000 0.43 308 23:28 12.03.2021
1534 Clouds 9 1018 81 10000 0.42 308 22:41 12.03.2021
1535 Clouds 10 1018 81 10000 0.36 279 22:20 12.03.2021
1536 Clouds 10 1018 81 10000 0.36 279 21:38 12.03.2021
1537 Clouds 10 1018 81 10000 0.36 279 21:38 12.03.2021
1538 Clouds 10 1018 81 10000 0.58 213 21:19 12.03.2021
1539 Clouds 10 1018 81 10000 0.58 212 20:48 12.03.2021
1540 Clouds 10 1018 76 10000 0.53 199 20:24 12.03.2021
1541 Clouds 11 1018 76 10000 0.53 199 19:45 12.03.2021
1542 Clouds 11 1018 71 10000 1.11 206 19:27 12.03.2021
1543 Clouds 11 1018 71 10000 2.06 160 18:54 12.03.2021
1544 Clouds 11 1018 71 10000 2.06 160 18:32 12.03.2021
1545 Clouds 12 1018 62 10000 3.09 160 17:45 12.03.2021
1546 Clouds 12 1018 62 10000 3.09 170 17:27 12.03.2021
1547 Clouds 12 1019 63 10000 1.34 205 16:51 12.03.2021
1548 Clouds 13 1018 51 10000 3.09 160 16:29 12.03.2021
1549 Clouds 13 1018 51 10000 3.09 160 15:45 12.03.2021
1550 Clouds 13 1018 51 10000 2.57 160 15:21 12.03.2021
1551 Clouds 14 1018 51 10000 3.6 160 14:42 12.03.2021
1552 Clouds 14 1018 51 10000 3.6 160 14:19 12.03.2021
1553 Clouds 13 1019 51 10000 3.6 180 13:40 12.03.2021
1554 Clouds 13 1019 51 10000 3.6 180 13:20 12.03.2021
1555 Clouds 13 1019 51 10000 3.6 180 12:50 12.03.2021
1556 Clouds 13 1020 50 10000 3.27 217 12:30 12.03.2021
1557 Clouds 13 1020 50 10000 3.27 217 12:30 12.03.2021
1558 Clouds 13 1021 50 10000 3.27 217 11:57 12.03.2021
1559 Clouds 13 1021 50 10000 3.24 216 11:38 12.03.2021
1560 Clouds 12 1021 54 10000 2.98 220 11:00 12.03.2021
1561 Clouds 12 1021 54 10000 2.98 220 10:41 12.03.2021
1562 Clouds 11 1022 54 10000 2.11 230 10:20 12.03.2021
1563 Clouds 10 1022 58 10000 0.71 251 09:29 12.03.2021
1564 Clear 10 1022 62 10000 0.78 250 08:57 12.03.2021
1565 Clear 10 1022 62 10000 0.71 251 08:39 12.03.2021
1566 Clear 9 1023 63 10000 0.1 78 07:41 12.03.2021
1567 Clear 8 1022 81 10000 0.92 24 07:19 12.03.2021
1568 Clear 7 1021 73 10000 1.34 65 06:42 12.03.2021
1569 Clear 6 1021 73 10000 1.34 65 05:45 12.03.2021
1570 Clouds 7 1022 81 10000 2.49 8 00:52 12.03.2021
1571 Clouds 7 1022 76 10000 2.57 350 23:56 11.03.2021
1572 Clouds 8 1023 76 10000 2.57 350 22:59 11.03.2021
1573 Clouds 8 1023 76 10000 2.57 350 22:59 11.03.2021
1574 Clouds 8 1023 76 10000 2.57 350 22:39 11.03.2021
1575 Clouds 8 1023 71 10000 4.15 17 22:19 11.03.2021
1576 Clouds 7 1023 71 10000 2.06 300 21:46 11.03.2021
1577 Clouds 8 1022 71 10000 4.22 19 21:24 11.03.2021
1578 Clouds 8 1022 71 10000 4.22 19 20:49 11.03.2021
1579 Clouds 8 1022 71 10000 3.09 340 20:22 11.03.2021
1580 Clouds 8 1021 66 10000 4.12 330 19:53 11.03.2021
1581 Clouds 8 1021 66 10000 4.12 330 19:34 11.03.2021
1582 Clouds 8 1020 66 10000 6.17 350 18:53 11.03.2021
1583 Clouds 8 1020 66 10000 6.17 350 18:53 11.03.2021
1584 Clouds 8 1020 66 10000 6.17 350 18:34 11.03.2021
1585 Clouds 8 1019 66 10000 5.66 350 17:53 11.03.2021
1586 Clouds 8 1019 66 10000 5.66 350 17:35 11.03.2021
1587 Clouds 9 1017 54 10000 8.75 340 16:37 11.03.2021
1588 Clouds 9 1016 54 10000 9.26 340 16:19 11.03.2021
1589 Clouds 10 1016 54 10000 9.26 340 15:39 11.03.2021
1590 Clouds 10 1016 54 10000 7.72 350 15:20 11.03.2021
1591 Clouds 10 1015 50 10000 8.75 340 14:44 11.03.2021
1592 Clouds 11 1015 54 10000 7.2 330 14:18 11.03.2021
1593 Clouds 10 1015 54 10000 7.2 340 13:45 11.03.2021
1594 Clouds 11 1014 54 10000 8.23 330 13:22 11.03.2021
1595 Clouds 11 1014 54 10000 7.72 340 12:54 11.03.2021
1596 Clouds 9 1014 62 10000 7.72 340 12:29 11.03.2021
1597 Clouds 9 1014 62 10000 7.2 330 11:47 11.03.2021
1598 Clouds 9 1014 71 10000 6.69 330 11:29 11.03.2021
1599 Clouds 9 1013 76 10000 6.69 330 10:56 11.03.2021
1600 Drizzle 10 1012 71 10000 5.14 330 10:27 11.03.2021
1601 Clouds 10 1012 62 10000 6.17 330 09:52 11.03.2021
1602 Clouds 10 1012 66 10000 7.2 330 09:32 11.03.2021
1603 Clouds 10 1011 62 10000 5.66 330 08:50 11.03.2021
1604 Clouds 10 1010 71 10000 5.66 330 08:32 11.03.2021
1605 Clouds 11 1010 66 10000 5.66 340 07:48 11.03.2021
1606 Clouds 11 1009 66 10000 7.2 350 07:21 11.03.2021
1607 Clouds 11 1008 71 10000 7.2 360 06:42 11.03.2021
1608 Clouds 11 1007 58 10000 6.17 330 06:22 11.03.2021
1609 Clouds 14 1008 63 10000 5.14 280 02:26 11.03.2021
1610 Clouds 13 1008 72 10000 1.54 0 00:29 11.03.2021
1611 Clouds 13 1009 76 10000 2.06 30 23:23 10.03.2021
1612 Clouds 13 1009 71 10000 2.45 287 22:42 10.03.2021
1613 Clouds 13 1009 67 10000 2.44 280 22:21 10.03.2021
1614 Clouds 13 1009 67 10000 2.57 350 21:44 10.03.2021
1615 Clouds 13 1009 67 10000 2.57 350 21:44 10.03.2021
1616 Clouds 13 1009 67 10000 2.57 350 21:22 10.03.2021
1617 Clouds 13 1009 67 10000 2.06 30 20:46 10.03.2021
1618 Clouds 14 1009 67 10000 2.06 30 20:27 10.03.2021
1619 Clouds 14 1009 67 10000 2.06 10 19:48 10.03.2021
1620 Clouds 14 1009 67 10000 1.54 0 19:27 10.03.2021
1621 Clouds 15 1008 67 10000 2.57 60 18:46 10.03.2021
1622 Clouds 15 1008 67 10000 2.57 60 18:24 10.03.2021
1623 Clouds 15 1008 67 10000 2.57 60 18:24 10.03.2021
1624 Clouds 15 1008 63 10000 4.12 180 17:55 10.03.2021
1625 Clear 15 1010 69 10000 0.89 184 17:37 10.03.2021
1626 Clear 16 1010 69 10000 0.89 195 17:19 10.03.2021
1627 Clouds 16 1008 59 10000 4.12 170 16:42 10.03.2021
1628 Clouds 17 1008 52 10000 5.14 190 16:22 10.03.2021
1629 Clouds 17 1008 48 10000 5.14 170 15:45 10.03.2021
1630 Clouds 18 1008 48 10000 5.14 160 15:23 10.03.2021
1631 Clouds 18 1008 45 10000 3.09 150 14:48 10.03.2021
1632 Clouds 18 1008 45 10000 3.09 150 14:20 10.03.2021
1633 Clouds 18 1008 45 10000 3.09 150 14:20 10.03.2021
1634 Clouds 18 1009 39 10000 3.28 219 13:51 10.03.2021
1635 Clouds 18 1009 39 10000 3.25 219 13:51 10.03.2021
1636 Clouds 18 1009 39 10000 3.59 224 13:27 10.03.2021
1637 Clear 18 1010 37 10000 3.09 150 12:45 10.03.2021
1638 Clear 18 1010 32 10000 2.57 170 12:19 10.03.2021
1639 Clear 18 1010 34 10000 3.43 220 11:43 10.03.2021
1640 Clear 17 1011 39 10000 2.43 222 11:19 10.03.2021
1641 Clear 17 1011 39 10000 2.43 222 10:46 10.03.2021
1642 Clouds 17 1011 48 10000 2.22 223 10:28 10.03.2021
1643 Clouds 16 1011 44 10000 2.22 223 09:45 10.03.2021
1644 Clouds 15 1011 44 10000 0.93 206 09:24 10.03.2021
1645 Clouds 15 1012 51 10000 0.93 206 08:58 10.03.2021
1646 Clouds 15 1012 51 10000 0.93 206 08:40 10.03.2021
1647 Clouds 14 1012 58 10000 0.38 53 08:21 10.03.2021
1648 Clouds 13 1013 62 10000 0.38 51 07:40 10.03.2021
1649 Clouds 12 1013 66 10000 0.74 22 07:18 10.03.2021
1650 Clouds 11 1011 71 10000 0.74 22 06:44 10.03.2021
1651 Clouds 11 1012 71 10000 2.08 25 02:42 10.03.2021
1652 Clouds 11 1013 62 10000 2.18 19 23:53 09.03.2021
1653 Clouds 12 1013 62 10000 1.82 13 23:26 09.03.2021
1654 Clouds 12 1013 62 10000 1.82 13 22:47 09.03.2021
1655 Clouds 12 1013 66 10000 1.88 19 22:28 09.03.2021
1656 Clouds 12 1013 76 10000 1.88 19 21:56 09.03.2021
1657 Clouds 12 1013 76 10000 1.88 19 21:37 09.03.2021
1658 Clouds 12 1013 66 10000 2.52 29 21:18 09.03.2021
1659 Clouds 12 1013 71 10000 2.52 29 20:43 09.03.2021
1660 Clouds 12 1013 66 10000 2.7 34 20:21 09.03.2021
1661 Clear 12 1013 71 10000 1.54 0 19:53 09.03.2021
1662 Clouds 13 1013 67 10000 3.33 31 19:28 09.03.2021
1663 Clouds 13 1013 58 10000 2.57 70 18:51 09.03.2021
1664 Clouds 13 1012 62 10000 1.54 0 18:29 09.03.2021
1665 Clouds 14 1012 58 10000 2.73 40 17:57 09.03.2021
1666 Clouds 14 1012 58 10000 2.73 40 17:35 09.03.2021
1667 Clouds 14 1012 55 10000 3.09 100 16:55 09.03.2021
1668 Clouds 15 1012 55 10000 3.09 100 16:37 09.03.2021
1669 Clouds 15 1014 59 10000 2.24 24 16:19 09.03.2021
1670 Clouds 16 1012 55 10000 2.57 190 15:44 09.03.2021
1671 Clouds 16 1014 58 10000 1.34 113 15:23 09.03.2021
1672 Clouds 17 1012 45 10000 1.54 180 14:40 09.03.2021
1673 Clouds 17 1012 45 10000 1.54 180 14:22 09.03.2021
1674 Clouds 16 1013 48 10000 2.57 180 13:39 09.03.2021
1675 Clouds 16 1014 66 10000 0.89 205 13:20 09.03.2021
1676 Clouds 16 1013 48 10000 2.57 160 12:42 09.03.2021
1677 Clouds 16 1014 48 10000 2.57 180 12:22 09.03.2021
1678 Clouds 16 1014 51 10000 2.06 160 11:42 09.03.2021
1679 Clouds 16 1014 55 10000 2.57 180 11:21 09.03.2021
1680 Clouds 16 1014 55 10000 2.57 180 11:21 09.03.2021
1681 Clouds 16 1014 55 10000 2.57 180 11:21 09.03.2021
1682 Clouds 15 1016 66 10000 0.89 263 10:56 09.03.2021
1683 Clouds 15 1016 67 10000 0.89 269 10:38 09.03.2021
1684 Clouds 15 1014 59 10000 2.63 48 10:19 09.03.2021
1685 Clouds 15 1014 63 10000 1.54 0 09:44 09.03.2021
1686 Clouds 14 1014 67 10000 2.79 41 09:26 09.03.2021
1687 Clouds 14 1014 67 10000 2.79 41 08:48 09.03.2021
1688 Clouds 13 1014 76 10000 2.96 36 08:28 09.03.2021
1689 Clouds 12 1014 76 10000 2.06 330 07:40 09.03.2021
1690 Clouds 13 1014 82 10000 2.85 34 07:21 09.03.2021
1691 Clouds 11 1013 87 10000 2.5 33 06:18 09.03.2021
1692 Clouds 12 1013 82 10000 2.5 33 05:46 09.03.2021
1693 Clouds 12 1015 76 10000 0.6 125 00:38 09.03.2021
1694 Clouds 12 1015 76 10000 0.62 126 23:45 08.03.2021
1695 Clouds 12 1015 82 10000 0.91 181 23:27 08.03.2021
1696 Clouds 12 1015 76 10000 0.91 181 22:55 08.03.2021
1697 Clouds 12 1015 76 10000 0.91 181 22:36 08.03.2021
1698 Clouds 12 1015 76 10000 1.5 184 22:18 08.03.2021
1699 Clouds 12 1015 76 10000 1.5 184 21:35 08.03.2021
1700 Clouds 12 1015 71 10000 1.76 184 20:48 08.03.2021
1701 Clouds 12 1015 71 10000 2.01 182 20:28 08.03.2021
1702 Clouds 13 1015 76 10000 1.98 183 19:59 08.03.2021
1703 Clouds 12 1015 76 10000 1.79 158 19:37 08.03.2021
1704 Clouds 13 1015 76 10000 1.54 0 18:44 08.03.2021
1705 Clouds 13 1015 76 10000 2.57 160 18:23 08.03.2021
1706 Clouds 13 1014 76 10000 3.09 160 17:56 08.03.2021
1707 Clouds 13 1014 76 10000 3.09 160 17:38 08.03.2021
1708 Clouds 13 1014 72 10000 3.6 180 16:58 08.03.2021
1709 Clouds 13 1014 72 10000 3.6 180 16:33 08.03.2021
1710 Clouds 14 1014 67 10000 3.6 170 15:59 08.03.2021
1711 Clouds 14 1014 67 10000 3.6 170 15:38 08.03.2021
1712 Clouds 14 1014 67 10000 3.6 170 15:18 08.03.2021
1713 Clouds 14 1015 59 10000 3.6 180 14:21 08.03.2021
1714 Clouds 15 1015 59 10000 3.09 180 13:47 08.03.2021
1715 Clouds 15 1015 59 10000 3.09 180 13:23 08.03.2021
1716 Clouds 14 1016 63 10000 2.57 160 12:55 08.03.2021
1717 Clouds 15 1016 63 10000 2.57 180 12:29 08.03.2021
1718 Clouds 14 1017 62 10000 2.57 160 11:45 08.03.2021
1719 Clouds 13 1017 62 10000 2.57 160 11:20 08.03.2021
1720 Clouds 13 1018 62 10000 3.32 208 10:47 08.03.2021
1721 Clouds 13 1018 67 10000 2.53 206 10:28 08.03.2021
1722 Clouds 13 1018 67 10000 2.53 206 09:45 08.03.2021
1723 Clouds 12 1019 66 10000 2.12 197 09:25 08.03.2021
1724 Clouds 11 1019 71 10000 1.76 189 08:31 08.03.2021
1725 Clouds 11 1018 71 10000 1.76 188 07:49 08.03.2021
1726 Clouds 10 1018 76 10000 0.69 111 07:21 08.03.2021
1727 Clouds 10 1018 76 10000 0.45 147 05:19 08.03.2021
1728 Clouds 10 1019 71 10000 1.62 56 01:45 08.03.2021
1729 Clouds 10 1020 71 10000 1.95 44 00:41 08.03.2021
1730 Clouds 10 1020 71 10000 2.1 38 23:53 07.03.2021
1731 Clouds 10 1020 71 10000 2.15 35 23:20 07.03.2021
1732 Clouds 10 1021 71 10000 2.15 35 22:47 07.03.2021
1733 Clouds 10 1021 71 10000 2.26 38 22:27 07.03.2021
1734 Clouds 10 1021 71 10000 2.26 38 21:50 07.03.2021
1735 Clouds 10 1021 71 10000 2.26 38 21:32 07.03.2021
1736 Clouds 10 1021 71 10000 2.9 42 20:58 07.03.2021
1737 Clouds 10 1021 71 10000 2.9 42 20:40 07.03.2021
1738 Clouds 10 1021 71 10000 3.13 46 20:18 07.03.2021
1739 Clouds 10 1021 66 10000 3.11 46 19:40 07.03.2021
1740 Clouds 10 1021 66 10000 3.47 47 19:22 07.03.2021
1741 Clouds 10 1021 66 10000 3.76 51 18:51 07.03.2021
1742 Clouds 10 1021 62 10000 2.57 320 18:21 07.03.2021
1743 Clouds 11 1021 62 10000 2.06 330 17:57 07.03.2021
1744 Clouds 11 1021 62 10000 2.06 330 17:37 07.03.2021
1745 Clouds 11 1022 66 10000 2.68 113 17:18 07.03.2021
1746 Clouds 11 1021 58 10000 2.57 330 16:42 07.03.2021
1747 Clouds 12 1021 58 10000 2.57 330 16:21 07.03.2021
1748 Clouds 12 1021 58 10000 2.57 330 16:21 07.03.2021
1749 Clouds 12 1022 58 10000 2.57 350 15:49 07.03.2021
1750 Clouds 12 1022 58 10000 3.09 10 15:31 07.03.2021
1751 Clouds 13 1022 54 10000 4.12 360 14:51 07.03.2021
1752 Clouds 13 1022 54 10000 2.57 360 14:29 07.03.2021
1753 Clouds 12 1022 54 10000 2.57 10 13:48 07.03.2021
1754 Clouds 13 1023 54 10000 4.12 10 13:26 07.03.2021
1755 Clouds 12 1025 63 10000 3.13 24 12:48 07.03.2021
1756 Clouds 12 1024 58 10000 2.57 340 12:30 07.03.2021
1757 Clouds 13 1024 54 10000 3.6 340 11:54 07.03.2021
1758 Clouds 12 1025 63 10000 4.02 339 11:23 07.03.2021
1759 Clouds 13 1024 54 10000 4.12 330 10:54 07.03.2021
1760 Clouds 13 1024 54 10000 4.12 330 10:36 07.03.2021
1761 Clouds 12 1024 58 10000 3.09 330 09:53 07.03.2021
1762 Clouds 11 1024 62 10000 3.09 330 09:27 07.03.2021
1763 Clouds 11 1024 62 10000 3.6 350 08:57 07.03.2021
1764 Clouds 11 1023 62 10000 6.26 21 08:38 07.03.2021
1765 Clouds 11 1023 65 10000 2.68 19 08:20 07.03.2021
1766 Clouds 10 1022 71 10000 4.12 330 05:26 07.03.2021
1767 Clouds 12 1022 58 10000 3.09 340 02:33 07.03.2021
1768 Clouds 13 1021 67 10000 3.96 3 00:33 07.03.2021
1769 Clouds 13 1021 67 10000 3.77 357 23:40 06.03.2021
1770 Clouds 13 1021 67 10000 3.45 2 23:20 06.03.2021
1771 Clouds 13 1021 67 10000 3.45 2 22:45 06.03.2021
1772 Clouds 14 1021 71 10000 2.79 15 22:21 06.03.2021
1773 Clouds 13 1021 76 10000 2.79 15 21:46 06.03.2021
1774 Clouds 13 1021 71 10000 2.37 28 21:20 06.03.2021
1775 Clouds 13 1020 67 10000 2.37 28 20:42 06.03.2021
1776 Clouds 14 1020 67 10000 2.26 42 19:59 06.03.2021
1777 Clouds 14 1020 67 10000 2.26 42 19:37 06.03.2021
1778 Clouds 14 1020 67 10000 1.71 59 19:18 06.03.2021
1779 Clouds 14 1019 67 10000 2.57 100 18:41 06.03.2021
1780 Clouds 15 1019 59 10000 2.57 100 18:20 06.03.2021
1781 Clear 15 1020 69 10000 0.89 190 17:49 06.03.2021
1782 Clear 16 1020 69 10000 0.89 184 17:30 06.03.2021
1783 Clear 16 1020 64 10000 0.89 218 16:57 06.03.2021
1784 Clear 17 1020 64 10000 0.89 213 16:32 06.03.2021
1785 Clouds 18 1017 34 10000 3.09 320 15:56 06.03.2021
1786 Clouds 18 1017 34 10000 3.09 320 15:38 06.03.2021
1787 Clouds 18 1017 45 10000 4.12 190 15:18 06.03.2021
1788 Clouds 18 1017 42 10000 4.12 200 14:31 06.03.2021
1789 Clouds 18 1018 34 10000 1.54 0 13:52 06.03.2021
1790 Clouds 19 1018 34 10000 1.54 0 13:33 06.03.2021
1791 Clouds 19 1018 40 10000 2.06 220 12:58 06.03.2021
1792 Clouds 18 1018 40 10000 2.06 220 12:38 06.03.2021
1793 Clouds 18 1020 50 10000 2.68 222 12:18 06.03.2021
1794 Clouds 18 1020 50 10000 2.68 222 12:18 06.03.2021
1795 Clouds 18 1019 42 10000 3.16 256 11:38 06.03.2021
1796 Clouds 17 1019 42 10000 3.4 250 11:18 06.03.2021
1797 Clouds 17 1019 48 10000 3.39 251 10:42 06.03.2021
1798 Clouds 16 1019 59 10000 3.15 244 09:57 06.03.2021
1799 Clouds 15 1019 59 10000 1.5 275 09:24 06.03.2021
1800 Clouds 15 1019 63 10000 2.06 120 08:54 06.03.2021
1801 Clouds 15 1019 67 10000 2.06 120 08:30 06.03.2021
1802 Clouds 13 1018 71 10000 2.33 291 07:55 06.03.2021
1803 Clouds 13 1018 71 10000 2.11 285 07:22 06.03.2021
1804 Rain 12 1018 71 10000 1.54 0 06:27 06.03.2021
1805 Clouds 12 1017 71 10000 2.02 299 03:49 06.03.2021
1806 Rain 12 1018 76 10000 2.29 256 01:42 06.03.2021
1807 Clear 13 1018 76 10000 0.76 296 00:46 06.03.2021
1808 Clear 12 1018 76 10000 1.55 285 23:49 05.03.2021
1809 Clear 12 1018 76 10000 1.65 280 23:19 05.03.2021
1810 Clear 12 1018 76 10000 1.65 280 23:19 05.03.2021
1811 Clear 12 1018 76 10000 1.61 278 22:44 05.03.2021
1812 Clear 12 1018 76 10000 1.56 283 22:22 05.03.2021
1813 Clear 13 1018 71 10000 1.03 0 21:51 05.03.2021
1814 Clear 13 1018 71 10000 1.03 0 21:31 05.03.2021
1815 Clear 13 1018 71 10000 1.54 0 20:50 05.03.2021
1816 Clear 13 1018 71 10000 1.54 0 20:26 05.03.2021
1817 Clear 13 1018 71 10000 1.54 0 20:26 05.03.2021
1818 Clear 13 1017 76 10000 1.03 0 19:54 05.03.2021
1819 Clear 14 1017 72 10000 1.03 0 19:26 05.03.2021
1820 Clear 14 1017 67 10000 0.83 225 18:55 05.03.2021
1821 Clear 14 1017 67 10000 0.84 226 18:36 05.03.2021
1822 Clear 14 1017 63 10000 1.47 217 18:18 05.03.2021
1823 Clear 15 1017 63 10000 3.09 170 17:34 05.03.2021
1824 Clear 15 1016 55 10000 4.12 170 16:46 05.03.2021
1825 Clear 16 1016 59 10000 5.14 160 16:24 05.03.2021
1826 Clear 16 1016 55 10000 5.14 150 15:56 05.03.2021
1827 Clear 16 1016 55 10000 5.14 150 15:37 05.03.2021
1828 Clear 17 1016 45 10000 6.17 160 15:18 05.03.2021
1829 Clear 18 1016 30 10000 5.14 190 14:38 05.03.2021
1830 Clear 18 1018 49 10000 0.89 195 13:55 05.03.2021
1831 Clear 18 1018 49 10000 0.89 195 13:55 05.03.2021
1832 Clear 18 1018 46 10000 0.89 197 13:22 05.03.2021
1833 Clear 18 1018 49 10000 0.89 254 12:49 05.03.2021
1834 Clear 18 1017 26 10000 3.59 241 11:54 05.03.2021
1835 Clear 18 1017 26 10000 3.59 241 11:36 05.03.2021
1836 Clear 17 1017 34 10000 3.15 246 11:18 05.03.2021
1837 Clear 17 1018 36 10000 3.13 247 10:40 05.03.2021
1838 Clear 16 1018 44 10000 2.77 251 10:21 05.03.2021
1839 Clear 16 1018 51 10000 2.77 251 09:47 05.03.2021
1840 Clear 15 1018 54 10000 2.42 262 09:26 05.03.2021
1841 Clear 14 1018 51 10000 2.42 262 08:40 05.03.2021
1842 Clear 14 1020 61 10000 1.82 287 08:22 05.03.2021
1843 Clear 13 1019 60 10000 1.86 288 07:39 05.03.2021
1844 Clear 11 1019 63 10000 1.75 308 06:50 05.03.2021
1845 Clear 11 1019 64 10000 1.79 309 06:30 05.03.2021
1846 Clear 10 1019 81 10000 1.19 291 01:52 05.03.2021
1847 Clear 10 1005 65 10000 0.89 42 00:34 05.03.2021
1848 Clear 10 1019 81 10000 1.07 283 23:36 04.03.2021
1849 Clear 11 1020 76 10000 0.82 260 22:38 04.03.2021
1850 Clear 11 1020 76 10000 0.93 222 22:19 04.03.2021
1851 Clear 11 1020 71 10000 0.93 222 21:42 04.03.2021
1852 Clear 11 1020 71 10000 1.01 208 21:23 04.03.2021
1853 Clear 11 1020 76 10000 1.05 208 20:41 04.03.2021
1854 Clear 12 1020 71 10000 1.54 330 20:21 04.03.2021
1855 Clear 12 1020 66 10000 1.16 199 19:54 04.03.2021
1856 Clear 13 1020 66 10000 1.16 199 19:31 04.03.2021
1857 Clear 13 1020 62 10000 1.37 197 18:59 04.03.2021
1858 Clear 13 1020 62 10000 1.37 197 18:59 04.03.2021
1859 Clear 13 1020 66 10000 1.51 196 18:59 04.03.2021
1860 Clear 13 1020 62 10000 1.47 198 18:38 04.03.2021
1861 Clear 13 1020 58 10000 1.79 195 18:19 04.03.2021
1862 Clear 14 1020 54 10000 1.79 195 17:42 04.03.2021
1863 Clear 15 1020 55 10000 2.57 170 17:20 04.03.2021
1864 Clear 15 1020 55 10000 2.57 180 16:44 04.03.2021
1865 Clear 15 1020 55 10000 2.57 180 16:44 04.03.2021
1866 Clear 16 1020 39 10000 3.09 180 16:24 04.03.2021
1867 Clear 17 1020 34 10000 3.09 170 15:48 04.03.2021
1868 Clear 18 1020 36 10000 2.57 180 15:30 04.03.2021
1869 Clear 18 1020 32 10000 2.57 160 14:45 04.03.2021
1870 Clear 17 1021 34 10000 3.09 180 14:22 04.03.2021
1871 Clear 18 1021 34 10000 2.57 170 13:45 04.03.2021
1872 Clear 17 1021 34 10000 2.57 180 13:23 04.03.2021
1873 Clear 17 1022 36 10000 2.06 160 12:44 04.03.2021
1874 Clear 17 1022 36 10000 2.57 180 12:25 04.03.2021
1875 Clear 17 1023 34 10000 2.57 180 11:43 04.03.2021
1876 Clear 16 1023 29 10000 1.54 170 11:22 04.03.2021
1877 Clear 16 1023 36 10000 2.06 180 10:46 04.03.2021
1878 Clear 15 1024 36 10000 1.54 170 10:25 04.03.2021
1879 Clear 15 1024 36 10000 0.91 248 09:36 04.03.2021
1880 Clear 14 1024 43 10000 1.08 25 08:56 04.03.2021
1881 Clear 14 1026 53 10000 1.08 25 08:34 04.03.2021
1882 Clear 12 1026 56 10000 2.11 26 07:51 04.03.2021
1883 Clear 9 1024 57 10000 2.46 20 07:19 04.03.2021
1884 Clear 7 1024 61 10000 2.62 21 06:24 04.03.2021
1885 Clear 8 1026 57 10000 2.06 320 02:39 04.03.2021
1886 Clear 8 1026 53 10000 2.89 11 01:32 04.03.2021
1887 Clear 11 1027 46 10000 2.06 340 22:43 03.03.2021
1888 Clear 11 1027 43 10000 3.09 350 22:25 03.03.2021
1889 Clear 11 1027 37 10000 2.06 310 21:43 03.03.2021
1890 Clear 11 1027 40 10000 1.54 0 21:24 03.03.2021
1891 Clear 11 1027 46 10000 2.06 340 20:57 03.03.2021
1892 Clear 11 1027 46 10000 2.06 340 20:39 03.03.2021
1893 Clear 12 1027 43 10000 3.6 340 19:59 03.03.2021
1894 Clear 12 1027 43 10000 3.6 340 19:40 03.03.2021
1895 Clear 12 1027 43 10000 3.72 358 19:19 03.03.2021
1896 Clear 12 1027 41 10000 2.57 360 18:45 03.03.2021
1897 Clear 12 1027 41 10000 2.57 340 18:20 03.03.2021
1898 Clear 13 1027 38 10000 4.12 350 17:42 03.03.2021
1899 Clear 14 1027 36 10000 4.63 340 17:18 03.03.2021
1900 Clouds 15 1027 36 10000 5.14 340 16:40 03.03.2021
1901 Clouds 15 1027 36 10000 7.2 360 16:21 03.03.2021
1902 Clouds 16 1027 34 10000 7.2 360 15:33 03.03.2021
1903 Clouds 16 1027 34 10000 6.17 350 14:54 03.03.2021
1904 Clouds 16 1027 34 10000 7.72 350 14:29 03.03.2021
1905 Clouds 16 1027 36 10000 7.2 350 13:52 03.03.2021
1906 Clouds 16 1027 36 10000 7.2 360 13:31 03.03.2021
1907 Clouds 15 1028 36 10000 5.66 360 12:45 03.03.2021
1908 Clouds 15 1028 39 10000 7.2 360 12:26 03.03.2021
1909 Clouds 15 1028 41 10000 5.66 360 11:48 03.03.2021
1910 Clouds 15 1028 44 10000 7.2 360 11:28 03.03.2021
1911 Clouds 14 1028 44 10000 6.69 360 10:50 03.03.2021
1912 Clouds 14 1028 47 10000 7.72 350 10:31 03.03.2021
1913 Clouds 13 1028 54 10000 6.17 340 09:49 03.03.2021
1914 Clouds 12 1028 50 10000 6.17 340 09:31 03.03.2021
1915 Clouds 12 1028 54 10000 7.2 340 08:44 03.03.2021
1916 Clouds 11 1028 58 10000 6.17 350 08:22 03.03.2021
1917 Clouds 10 1028 54 10000 6.17 340 07:41 03.03.2021
1918 Clouds 9 1027 57 10000 6.17 330 06:51 03.03.2021
1919 Clouds 7 1027 61 10000 5.14 330 05:49 03.03.2021
1920 Clouds 7 1027 61 10000 3.09 320 04:59 03.03.2021
1921 Clouds 7 1027 66 10000 3.1 348 04:35 03.03.2021
1922 Clouds 7 1027 66 10000 3.04 348 03:51 03.03.2021
1923 Clouds 7 1028 75 10000 2.43 343 23:59 02.03.2021
1924 Clouds 7 1028 70 10000 2.43 343 23:31 02.03.2021
1925 Clouds 7 1029 66 10000 2.33 338 22:42 02.03.2021
1926 Clouds 7 1029 66 10000 2.59 344 22:19 02.03.2021
1927 Clouds 8 1029 61 10000 2.65 344 21:41 02.03.2021
1928 Clouds 8 1029 57 10000 2.91 350 21:22 02.03.2021
1929 Clouds 8 1029 57 10000 2.85 350 20:48 02.03.2021
1930 Clouds 8 1029 57 10000 3.45 352 20:23 02.03.2021
1931 Clouds 8 1029 57 10000 3.45 352 19:57 02.03.2021
1932 Clouds 9 1029 57 10000 3.45 352 19:39 02.03.2021
1933 Clouds 9 1029 57 10000 3.54 354 19:20 02.03.2021
1934 Clouds 9 1029 53 10000 2.57 320 18:41 02.03.2021
1935 Clouds 9 1029 53 10000 2.57 330 18:21 02.03.2021
1936 Clouds 9 1029 53 10000 3.6 340 17:49 02.03.2021
1937 Clouds 9 1029 53 10000 3.6 340 17:30 02.03.2021
1938 Clouds 10 1028 46 10000 5.14 340 16:57 02.03.2021
1939 Clouds 10 1028 46 10000 5.14 340 16:33 02.03.2021
1940 Clouds 10 1028 43 10000 5.66 350 15:51 02.03.2021
1941 Clouds 11 1029 47 10000 5.14 350 15:25 02.03.2021
1942 Clouds 11 1029 41 10000 7.72 10 14:24 02.03.2021
1943 Clouds 11 1029 43 10000 5.66 360 13:57 02.03.2021
1944 Clouds 11 1029 43 10000 5.66 360 13:38 02.03.2021
1945 Clouds 11 1029 41 10000 8.23 10 13:18 02.03.2021
1946 Clear 10 1030 55 10000 5.81 48 12:30 02.03.2021
1947 Clouds 10 1030 43 10000 6.17 360 11:54 02.03.2021
1948 Clear 10 1031 57 10000 5.36 360 11:36 02.03.2021
1949 Clear 10 1031 56 10000 5.36 350 11:18 02.03.2021
1950 Clear 10 1031 55 10000 4.02 19 10:33 02.03.2021
1951 Clouds 10 1029 47 10000 7.2 10 09:59 02.03.2021
1952 Clouds 10 1029 47 10000 7.2 10 09:40 02.03.2021
1953 Clouds 10 1030 54 10000 5.66 360 09:19 02.03.2021
1954 Clear 9 1031 57 10000 5.36 30 08:38 02.03.2021
1955 Clouds 9 1029 53 10000 5.14 20 07:58 02.03.2021
1956 Clouds 9 1029 53 10000 6.69 10 07:27 02.03.2021
1957 Clouds 8 1029 61 10000 3.09 360 06:33 02.03.2021
1958 Clouds 8 1029 57 10000 2.57 350 05:45 02.03.2021
1959 Clouds 8 1028 57 10000 4.12 10 05:27 02.03.2021
1960 Clouds 9 1027 71 10000 3.09 320 01:44 02.03.2021
1961 Clouds 9 1027 71 10000 3.09 320 01:44 02.03.2021
1962 Clouds 9 1027 71 10000 3.09 320 01:44 02.03.2021
1963 Clouds 10 1027 71 10000 3.09 330 01:25 02.03.2021
1964 Clouds 10 1027 71 10000 2.57 320 00:21 02.03.2021
1965 Clouds 9 1026 71 10000 2.06 320 23:22 01.03.2021
1966 Clouds 9 1026 71 10000 2.06 310 22:40 01.03.2021
1967 Clouds 10 1026 71 10000 2.57 330 22:21 01.03.2021
1968 Clouds 10 1026 76 10000 3.29 19 21:45 01.03.2021
1969 Clouds 10 1025 76 10000 2.06 360 21:23 01.03.2021
1970 Clouds 10 1025 71 10000 1.54 0 20:47 01.03.2021
1971 Clouds 10 1025 71 10000 2.91 37 20:27 01.03.2021
1972 Clouds 11 1024 66 10000 2.91 37 19:53 01.03.2021
1973 Clouds 10 1024 66 10000 2.66 41 19:33 01.03.2021
1974 Clouds 11 1024 66 10000 2.02 51 18:46 01.03.2021
1975 Clouds 12 1023 62 10000 3.09 180 18:24 01.03.2021
1976 Clouds 12 1023 54 10000 1.7 72 17:52 01.03.2021
1977 Clouds 13 1023 51 10000 2.06 20 17:28 01.03.2021
1978 Clear 13 1024 61 10000 0.89 264 16:59 01.03.2021
1979 Clear 13 1024 61 10000 0.89 264 16:59 01.03.2021
1980 Clouds 14 1022 41 10000 2.06 360 16:40 01.03.2021
1981 Clear 14 1024 60 10000 0.89 290 16:22 01.03.2021
1982 Clouds 15 1023 41 10000 0.99 41 15:39 01.03.2021
1983 Clouds 15 1023 41 10000 1.38 357 15:18 01.03.2021
1984 Clouds 15 1023 41 10000 3.09 20 14:43 01.03.2021
1985 Clouds 15 1023 41 10000 3.09 340 14:25 01.03.2021
1986 Clouds 15 1023 41 10000 3.09 350 13:39 01.03.2021
1987 Clouds 14 1024 41 10000 3.09 350 13:20 01.03.2021
1988 Clouds 14 1024 44 10000 3.09 350 12:44 01.03.2021
1989 Clouds 14 1025 44 10000 3.09 320 12:26 01.03.2021
1990 Clouds 14 1025 44 10000 3.09 340 11:58 01.03.2021
1991 Clouds 14 1025 44 10000 3.09 340 11:32 01.03.2021
1992 Clouds 13 1026 51 10000 4.12 10 10:44 01.03.2021
1993 Clouds 13 1026 51 10000 4.12 10 10:44 01.03.2021
1994 Clouds 12 1026 54 10000 4.12 10 10:22 01.03.2021
1995 Clear 12 1027 63 10000 2.24 360 09:56 01.03.2021
1996 Clear 11 1027 62 10000 1.34 330 09:37 01.03.2021
1997 Clouds 11 1026 54 10000 2.57 350 09:19 01.03.2021
1998 Clouds 11 1026 66 10000 2.43 1 08:41 01.03.2021
1999 Clouds 10 1027 81 10000 2.41 2 07:34 01.03.2021
2000 Clouds 7 1026 81 10000 2.06 330 06:31 01.03.2021
2001 Clouds 8 1027 81 10000 2.57 360 02:47 01.03.2021
2002 Clouds 10 1027 66 10000 2.06 320 23:58 28.02.2021
2003 Clouds 10 1027 66 10000 2.06 320 23:22 28.02.2021
2004 Clouds 10 1028 62 10000 2.57 330 22:45 28.02.2021
2005 Clouds 10 1028 62 10000 2.57 330 22:21 28.02.2021
2006 Clouds 10 1028 66 10000 2.57 350 21:48 28.02.2021
2007 Clouds 10 1027 66 10000 2.57 350 21:25 28.02.2021
2008 Clouds 10 1027 58 10000 3.09 350 20:52 28.02.2021
2009 Clouds 10 1027 58 10000 3.09 350 20:34 28.02.2021
2010 Clouds 10 1027 58 10000 3.09 350 19:47 28.02.2021
2011 Clouds 11 1027 58 10000 3.09 350 19:28 28.02.2021
2012 Clouds 11 1026 62 10000 3.09 350 18:49 28.02.2021
2013 Clouds 11 1026 58 10000 3.09 350 18:28 28.02.2021
2014 Clouds 11 1026 58 10000 3.6 350 17:59 28.02.2021
2015 Clouds 11 1026 58 10000 3.6 350 17:40 28.02.2021
2016 Clouds 11 1025 54 10000 3.09 360 17:21 28.02.2021
2017 Clouds 12 1025 54 10000 3.09 360 16:48 28.02.2021
2018 Clouds 12 1025 54 10000 3.09 360 16:30 28.02.2021
2019 Clouds 12 1025 58 10000 3.09 350 15:52 28.02.2021
2020 Clouds 13 1025 54 10000 5.14 350 15:28 28.02.2021
2021 Clouds 13 1025 58 10000 5.14 360 14:58 28.02.2021
2022 Clouds 13 1025 58 10000 5.14 360 14:39 28.02.2021
2023 Clouds 13 1025 58 10000 5.14 350 14:19 28.02.2021
2024 Clouds 13 1025 55 10000 6.17 360 13:39 28.02.2021
2025 Clouds 13 1025 54 10000 5.14 350 13:19 28.02.2021
2026 Clouds 13 1024 54 10000 5.14 20 12:54 28.02.2021
2027 Clouds 13 1024 54 10000 5.14 20 12:35 28.02.2021
2028 Clouds 14 1025 61 10000 5.36 107 11:59 28.02.2021
2029 Clouds 14 1024 55 10000 2.06 290 11:41 28.02.2021
2030 Clouds 13 1025 68 10000 6.26 18 11:22 28.02.2021
2031 Clouds 13 1025 71 10000 5.36 82 10:43 28.02.2021
2032 Clouds 13 1025 71 10000 5.36 35 10:25 28.02.2021
2033 Clouds 14 1023 63 10000 3.09 350 09:40 28.02.2021
2034 Clouds 13 1024 72 10000 4.92 46 09:21 28.02.2021
2035 Clouds 13 1023 63 10000 3.09 340 08:45 28.02.2021
2036 Clouds 14 1022 63 10000 5.14 350 08:26 28.02.2021
2037 Clear 13 1023 72 10000 4.02 144 07:46 28.02.2021
2038 Clear 13 1023 68 10000 2.68 43 07:28 28.02.2021
2039 Clear 12 1021 68 10000 1.34 11 06:24 28.02.2021
2040 Clear 12 1005 73 10000 0.45 3 05:23 28.02.2021
2041 Clear 11 1018 76 10000 3.2 354 02:40 28.02.2021
2042 Clear 11 1019 76 10000 2.06 310 01:36 28.02.2021
2043 Clear 11 1020 72 10000 2.13 358 00:43 28.02.2021
2044 Clear 11 1019 81 10000 1.75 357 00:23 28.02.2021
2045 Clear 11 1019 76 10000 1.77 357 23:44 27.02.2021
2046 Clear 11 1018 76 10000 2.06 320 23:19 27.02.2021
2047 Clear 11 1018 81 10000 1.54 0 22:43 27.02.2021
2048 Clear 12 1018 81 10000 2.06 320 22:19 27.02.2021
2049 Clear 12 1018 76 10000 2.06 320 21:40 27.02.2021
2050 Clear 12 1018 81 10000 1.54 0 21:22 27.02.2021
2051 Clear 12 1018 82 10000 1.54 0 20:47 27.02.2021
2052 Clear 13 1018 82 10000 2.06 320 20:27 27.02.2021
2053 Clear 13 1018 76 10000 2.06 320 19:45 27.02.2021
2054 Clear 13 1018 82 10000 0.79 224 19:26 27.02.2021
2055 Clear 14 1018 77 10000 1.54 0 18:44 27.02.2021
2056 Clear 15 1017 72 10000 2.06 180 18:21 27.02.2021
2057 Clear 15 1019 73 10000 0.45 223 17:55 27.02.2021
2058 Clear 15 1017 63 10000 2.06 190 17:36 27.02.2021
2059 Clear 16 1017 48 10000 2.06 190 17:18 27.02.2021
2060 Clear 16 1017 55 10000 3.09 190 16:48 27.02.2021
2061 Clear 18 1017 48 10000 3.09 190 16:25 27.02.2021
2062 Clear 18 1017 45 10000 3.09 180 15:41 27.02.2021
2063 Clear 18 1017 42 10000 3.09 180 15:18 27.02.2021
2064 Clear 18 1017 45 10000 3.09 200 14:40 27.02.2021
2065 Clear 19 1017 42 10000 3.09 200 14:20 27.02.2021
2066 Clear 18 1018 42 10000 3.09 180 13:39 27.02.2021
2067 Clear 18 1018 42 10000 3.09 180 13:19 27.02.2021
2068 Clear 19 1018 42 10000 3.09 180 12:45 27.02.2021
2069 Clear 18 1018 42 10000 2.06 180 12:22 27.02.2021
2070 Clear 18 1019 45 10000 2.06 180 11:46 27.02.2021
2071 Clear 18 1019 52 10000 2.06 160 11:27 27.02.2021
2072 Clear 18 1019 45 10000 1.54 140 10:50 27.02.2021
2073 Clear 17 1019 55 10000 1.54 140 10:32 27.02.2021
2074 Clear 16 1020 51 10000 1.13 238 09:52 27.02.2021
2075 Clear 15 1020 54 10000 0.31 285 09:31 27.02.2021
2076 Clear 14 1020 58 10000 0.3 287 08:43 27.02.2021
2077 Clear 13 1019 48 10000 0.96 10 08:22 27.02.2021
2078 Clear 12 1020 76 10000 0.96 10 07:43 27.02.2021
2079 Clear 9 1020 81 10000 1.31 5 06:33 27.02.2021
2080 Clear 11 1021 58 10000 2.57 300 01:22 27.02.2021
2081 Clear 11 1021 62 10000 2.18 2 00:26 27.02.2021
2082 Clear 11 1021 66 10000 2.18 2 23:40 26.02.2021
2083 Clear 11 1021 51 10000 2.06 300 23:20 26.02.2021
2084 Clear 11 1022 51 10000 1.54 300 22:33 26.02.2021
2085 Clear 12 1022 54 10000 3.6 300 21:53 26.02.2021
2086 Clear 12 1022 54 10000 3.09 310 21:35 26.02.2021
2087 Clear 12 1022 54 10000 3.09 300 20:55 26.02.2021
2088 Clear 12 1022 54 10000 1.54 310 20:36 26.02.2021
2089 Clear 13 1022 54 10000 1.54 310 20:18 26.02.2021
2090 Clear 14 1022 51 10000 2.57 320 19:26 26.02.2021
2091 Clear 14 1023 51 10000 2.06 320 18:52 26.02.2021
2092 Clear 14 1023 48 10000 3.6 330 18:24 26.02.2021
2093 Clear 15 1023 48 10000 4.12 330 17:58 26.02.2021
2094 Clear 15 1023 48 10000 4.12 330 17:36 26.02.2021
2095 Clear 16 1023 45 10000 3.09 320 16:59 26.02.2021
2096 Clear 17 1023 45 10000 3.09 320 16:41 26.02.2021
2097 Clear 17 1023 42 10000 3.6 340 16:22 26.02.2021
2098 Clear 18 1023 45 10000 4.12 330 15:43 26.02.2021
2099 Clear 18 1023 45 10000 4.12 330 15:23 26.02.2021
2100 Clouds 18 1023 45 10000 3.6 350 14:53 26.02.2021
2101 Clouds 18 1023 45 10000 3.6 350 14:53 26.02.2021
2102 Clouds 18 1023 45 10000 3.6 350 14:34 26.02.2021
2103 Clouds 18 1024 48 10000 5.14 350 13:52 26.02.2021
2104 Clouds 18 1024 52 10000 4.63 340 13:33 26.02.2021
2105 Clouds 17 1025 52 10000 5.14 330 12:50 26.02.2021
2106 Clouds 17 1026 52 10000 4.12 330 12:27 26.02.2021
2107 Clouds 17 1026 52 10000 4.63 340 11:42 26.02.2021
2108 Clouds 17 1026 55 10000 4.12 340 11:20 26.02.2021
2109 Clouds 16 1027 59 10000 4.63 330 10:37 26.02.2021
2110 Clouds 16 1027 59 10000 4.63 350 09:48 26.02.2021
2111 Clouds 15 1027 58 10000 4.63 330 09:28 26.02.2021
2112 Clouds 14 1027 63 10000 3.6 320 08:36 26.02.2021
2113 Clouds 13 1027 62 10000 2.57 300 07:57 26.02.2021
2114 Clouds 13 1027 67 10000 1.54 310 07:22 26.02.2021
2115 Clouds 11 1027 71 10000 2.06 300 06:32 26.02.2021
2116 Clouds 11 1027 71 10000 3.09 320 05:19 26.02.2021
2117 Clouds 11 1028 66 10000 3.13 350 02:39 26.02.2021
2118 Clouds 12 1029 66 10000 3.01 353 00:33 26.02.2021
2119 Clouds 12 1029 66 10000 3.09 350 23:40 25.02.2021
2120 Clouds 12 1029 66 10000 3.09 350 23:19 25.02.2021
2121 Clouds 12 1029 62 10000 3.09 350 22:38 25.02.2021
2122 Clouds 12 1029 66 10000 2.57 320 21:54 25.02.2021
2123 Clouds 12 1029 66 10000 2.57 320 21:34 25.02.2021
2124 Clouds 12 1028 66 10000 2.06 310 20:58 25.02.2021
2125 Clouds 12 1028 66 10000 2.06 310 20:38 25.02.2021
2126 Clouds 12 1028 62 10000 2.06 310 20:20 25.02.2021
2127 Clouds 12 1028 62 10000 2.57 310 19:49 25.02.2021
2128 Clouds 12 1028 62 10000 3.09 310 19:21 25.02.2021
2129 Clouds 12 1028 54 10000 4.12 320 18:48 25.02.2021
2130 Clouds 13 1028 54 10000 4.12 320 18:19 25.02.2021
2131 Clouds 13 1028 54 10000 4.12 330 17:42 25.02.2021
2132 Clouds 13 1028 51 10000 5.14 330 17:23 25.02.2021
2133 Clouds 15 1028 48 10000 5.14 340 16:38 25.02.2021
2134 Clouds 15 1028 48 10000 4.63 360 16:20 25.02.2021
2135 Clouds 16 1028 45 10000 6.69 360 15:29 25.02.2021
2136 Clouds 17 1028 45 10000 5.14 340 14:41 25.02.2021
2137 Clouds 16 1028 48 10000 6.69 340 14:21 25.02.2021
2138 Clouds 16 1028 48 10000 7.2 360 13:50 25.02.2021
2139 Clouds 16 1029 48 10000 7.2 340 13:25 25.02.2021
2140 Clouds 16 1029 48 10000 7.2 340 12:47 25.02.2021
2141 Clouds 16 1029 48 10000 7.72 340 12:21 25.02.2021
2142 Clouds 16 1029 48 10000 7.72 340 12:21 25.02.2021
2143 Clouds 15 1030 51 10000 7.2 340 11:43 25.02.2021
2144 Clouds 15 1030 51 10000 7.2 350 11:19 25.02.2021
2145 Clouds 15 1030 51 10000 9.26 350 10:38 25.02.2021
2146 Clouds 14 1030 55 10000 9.26 350 09:58 25.02.2021
2147 Clouds 14 1030 55 10000 9.26 350 09:38 25.02.2021
2148 Clouds 13 1030 62 10000 8.75 340 08:50 25.02.2021
2149 Clouds 13 1030 62 10000 7.72 340 08:22 25.02.2021
2150 Clouds 13 1030 62 10000 10.29 340 07:52 25.02.2021
2151 Clouds 11 1030 66 10000 8.75 330 07:26 25.02.2021
2152 Clouds 11 1029 62 10000 8.75 330 06:47 25.02.2021
2153 Clear 11 1031 71 10000 3.13 49 01:57 25.02.2021
2154 Clear 11 1032 70 10000 3.13 15 01:34 25.02.2021
2155 Clouds 11 1031 66 10000 1.54 0 00:39 25.02.2021
2156 Clear 11 1031 62 10000 2.57 340 23:47 24.02.2021
2157 Clear 12 1031 62 10000 2.57 340 23:22 24.02.2021
2158 Clear 11 1031 62 10000 4.12 350 22:44 24.02.2021
2159 Clear 12 1031 62 10000 4.12 350 22:24 24.02.2021
2160 Clear 12 1031 66 10000 3.09 330 21:44 24.02.2021
2161 Clear 12 1030 62 10000 4.12 340 20:53 24.02.2021
2162 Clear 12 1030 58 10000 3.09 340 20:29 24.02.2021
2163 Clear 13 1030 58 10000 2.06 320 19:56 24.02.2021
2164 Clear 13 1029 52 10000 2.24 49 19:28 24.02.2021
2165 Clear 13 1030 54 10000 2.57 360 18:55 24.02.2021
2166 Clear 13 1030 54 10000 2.57 360 18:34 24.02.2021
2167 Clear 14 1029 51 10000 5.14 10 17:52 24.02.2021
2168 Clear 15 1029 51 10000 6.17 10 17:29 24.02.2021
2169 Clear 15 1028 48 10000 4.12 10 16:57 24.02.2021
2170 Clear 16 1028 48 10000 4.12 10 16:36 24.02.2021
2171 Clear 16 1029 50 10000 3.58 69 16:18 24.02.2021
2172 Clear 17 1028 34 10000 6.17 10 15:37 24.02.2021
2173 Clear 19 1028 30 10000 6.17 10 14:53 24.02.2021
2174 Clear 20 1028 30 10000 6.17 10 14:34 24.02.2021
2175 Clear 20 1028 32 10000 6.17 10 13:58 24.02.2021
2176 Clear 20 1028 32 10000 6.17 10 13:38 24.02.2021
2177 Clear 20 1028 32 10000 6.17 360 13:19 24.02.2021
2178 Clear 20 1028 30 10000 5.14 340 12:43 24.02.2021
2179 Clear 20 1029 32 10000 5.14 350 12:23 24.02.2021
2180 Clear 20 1029 30 10000 5.14 360 11:46 24.02.2021
2181 Clear 19 1029 30 10000 5.14 340 10:51 24.02.2021
2182 Clear 19 1029 30 10000 5.14 340 10:29 24.02.2021
2183 Clear 18 1029 32 10000 5.14 360 09:41 24.02.2021
2184 Clear 17 1029 32 10000 5.14 360 09:19 24.02.2021
2185 Clear 16 1029 34 10000 5.14 360 08:34 24.02.2021
2186 Clear 14 1029 47 10000 3.68 4 07:57 24.02.2021
2187 Clear 12 1029 50 10000 3.81 3 07:20 24.02.2021
2188 Clear 10 1029 47 10000 2.57 310 06:20 24.02.2021
2189 Clear 10 1028 50 10000 2.57 340 03:25 24.02.2021
2190 Clear 11 1029 50 10000 2.06 350 00:22 24.02.2021
2191 Clear 11 1029 50 10000 1.54 340 23:21 23.02.2021
2192 Clear 11 1029 58 10000 1.54 350 22:37 23.02.2021
2193 Clear 11 1029 54 10000 2.5 358 22:19 23.02.2021
2194 Clear 12 1029 44 10000 2.06 300 21:42 23.02.2021
2195 Clear 12 1029 41 10000 2.57 290 21:22 23.02.2021
2196 Clear 13 1029 41 10000 2.06 290 20:48 23.02.2021
2197 Clear 13 1028 41 10000 2.57 280 20:29 23.02.2021
2198 Clear 12 1028 47 10000 2.57 270 19:48 23.02.2021
2199 Clear 13 1028 44 10000 1.54 280 19:27 23.02.2021
2200 Clear 14 1028 41 10000 1.54 0 18:55 23.02.2021
2201 Clear 14 1028 41 10000 1.54 0 18:32 23.02.2021
2202 Clear 15 1028 39 10000 2.57 270 17:54 23.02.2021
2203 Clear 16 1028 39 10000 2.57 270 17:33 23.02.2021
2204 Clear 17 1028 32 10000 3.09 340 16:50 23.02.2021
2205 Clear 18 1028 34 10000 3.09 340 16:27 23.02.2021
2206 Clear 18 1028 37 10000 4.12 340 15:57 23.02.2021
2207 Clear 18 1028 37 10000 4.12 340 15:38 23.02.2021
2208 Clear 19 1028 34 10000 4.63 340 15:18 23.02.2021
2209 Clear 18 1028 34 10000 4.12 340 14:42 23.02.2021
2210 Clear 18 1028 34 10000 5.14 340 14:24 23.02.2021
2211 Clear 18 1028 37 10000 5.14 320 13:43 23.02.2021
2212 Clear 18 1028 37 10000 4.12 320 13:23 23.02.2021
2213 Clear 18 1029 34 10000 4.63 330 12:51 23.02.2021
2214 Clear 17 1029 36 10000 5.14 330 12:20 23.02.2021
2215 Clear 17 1029 34 10000 5.66 340 11:47 23.02.2021
2216 Clear 16 1029 34 10000 5.14 340 11:21 23.02.2021
2217 Clear 16 1029 36 10000 5.66 340 10:48 23.02.2021
2218 Clear 16 1029 34 10000 6.17 330 10:30 23.02.2021
2219 Clear 15 1029 36 10000 5.14 330 09:43 23.02.2021
2220 Clear 14 1029 39 10000 4.12 320 09:24 23.02.2021
2221 Clear 13 1029 41 10000 3.6 320 08:49 23.02.2021
2222 Clear 12 1030 60 10000 2.41 7 08:22 23.02.2021
2223 Clear 11 1028 55 10000 2.41 7 07:49 23.02.2021
2224 Clear 7 1028 66 10000 2.06 300 05:31 23.02.2021
2225 Clear 7 1028 75 10000 1.03 0 04:32 23.02.2021
2226 Clear 8 1029 75 10000 2.34 3 02:34 23.02.2021
2227 Clear 8 1029 81 10000 1.03 0 00:20 23.02.2021
2228 Clear 8 1029 76 10000 1.03 0 23:47 22.02.2021
2229 Clear 9 1029 76 10000 1.03 0 23:20 22.02.2021
2230 Clear 9 1028 66 10000 1.83 5 22:40 22.02.2021
2231 Clear 9 1028 66 10000 2.17 17 22:20 22.02.2021
2232 Clear 9 1029 66 10000 2.06 330 21:41 22.02.2021
2233 Clear 9 1029 66 10000 2.06 330 21:23 22.02.2021
2234 Clear 10 1028 66 10000 2.06 360 20:51 22.02.2021
2235 Clear 10 1028 66 10000 2.57 360 20:28 22.02.2021
2236 Clouds 10 1028 62 10000 2.57 330 19:51 22.02.2021
2237 Clouds 10 1028 58 10000 2.57 330 19:31 22.02.2021
2238 Clouds 11 1028 58 10000 3.09 320 18:56 22.02.2021
2239 Clouds 11 1028 58 10000 3.09 320 18:37 22.02.2021
2240 Clouds 12 1028 54 10000 3.09 320 18:18 22.02.2021
2241 Clouds 13 1028 51 10000 3.09 320 17:24 22.02.2021
2242 Clouds 14 1028 48 10000 3.09 310 16:54 22.02.2021
2243 Clouds 14 1028 48 10000 2.57 320 16:32 22.02.2021
2244 Clouds 15 1028 48 10000 3.09 330 15:44 22.02.2021
2245 Clouds 15 1028 48 10000 3.6 330 15:25 22.02.2021
2246 Clouds 15 1028 48 10000 4.63 330 14:47 22.02.2021
2247 Clouds 15 1028 48 10000 4.63 330 14:47 22.02.2021
2248 Clouds 15 1028 47 10000 5.14 330 14:23 22.02.2021
2249 Clouds 15 1028 51 10000 4.63 320 13:46 22.02.2021
2250 Clouds 15 1028 51 10000 4.63 320 13:46 22.02.2021
2251 Clouds 15 1029 47 10000 5.66 330 12:56 22.02.2021
2252 Clouds 14 1030 51 10000 5.66 350 12:24 22.02.2021
2253 Clouds 14 1030 54 10000 5.14 350 11:57 22.02.2021
2254 Clouds 14 1030 54 10000 5.14 350 11:39 22.02.2021
2255 Clouds 13 1030 51 10000 5.14 340 11:20 22.02.2021
2256 Clouds 13 1030 58 10000 5.14 340 10:45 22.02.2021
2257 Clouds 12 1030 58 10000 5.14 350 10:22 22.02.2021
2258 Clouds 11 1030 62 10000 7.2 350 09:41 22.02.2021
2259 Clouds 11 1030 58 10000 5.66 340 09:22 22.02.2021
2260 Clouds 10 1030 62 10000 6.17 350 08:49 22.02.2021
2261 Clouds 9 1030 66 10000 5.66 340 08:23 22.02.2021
2262 Clouds 9 1030 71 10000 4.12 330 07:50 22.02.2021
2263 Clouds 7 1030 76 10000 4.12 330 07:23 22.02.2021
2264 Clear 5 1016 77 10000 1.34 35 06:28 22.02.2021
2265 Clear 5 1029 74 10000 2.89 2 05:26 22.02.2021
2266 Clear 6 1028 72 10000 2.82 0 03:24 22.02.2021
2267 Clouds 6 1029 71 10000 4.12 310 02:31 22.02.2021
2268 Clouds 6 1030 76 10000 2.57 340 00:44 22.02.2021
2269 Clouds 7 1029 71 10000 4.12 340 00:19 22.02.2021
2270 Clear 7 1029 64 10000 2.8 355 23:27 21.02.2021
2271 Clouds 7 1029 66 10000 4.12 310 22:40 21.02.2021
2272 Clouds 8 1029 66 10000 4.12 310 22:21 21.02.2021
2273 Clouds 8 1029 66 10000 5.14 330 21:37 21.02.2021
2274 Clear 7 1028 67 10000 0.89 32 20:59 21.02.2021
2275 Clouds 8 1029 66 10000 4.12 320 20:39 21.02.2021
2276 Clouds 8 1029 66 10000 4.12 320 20:19 21.02.2021
2277 Clouds 8 1029 66 10000 4.12 330 19:50 21.02.2021
2278 Clouds 8 1029 66 10000 4.12 330 19:32 21.02.2021
2279 Clouds 9 1028 66 10000 3.41 5 18:43 21.02.2021
2280 Clouds 9 1028 66 10000 3.09 300 18:24 21.02.2021
2281 Clouds 10 1027 62 10000 5.14 350 17:29 21.02.2021
2282 Clouds 10 1027 62 10000 6.17 340 16:58 21.02.2021
2283 Clouds 11 1027 62 10000 6.17 340 16:34 21.02.2021
2284 Clouds 11 1027 54 10000 6.17 340 15:54 21.02.2021
2285 Clouds 12 1027 54 10000 6.17 340 15:22 21.02.2021
2286 Clouds 12 1027 54 10000 6.17 330 14:51 21.02.2021
2287 Clouds 12 1027 58 10000 6.17 330 14:30 21.02.2021
2288 Clouds 12 1027 58 10000 6.17 340 13:48 21.02.2021
2289 Clouds 11 1027 58 10000 6.17 330 13:25 21.02.2021
2290 Clouds 11 1027 62 10000 4.12 330 12:32 21.02.2021
2291 Clouds 11 1027 71 10000 5.14 330 11:58 21.02.2021
2292 Clouds 11 1027 71 10000 5.14 330 11:40 21.02.2021
2293 Clouds 11 1027 66 10000 3.09 360 10:40 21.02.2021
2294 Clouds 11 1027 66 10000 3.09 360 10:21 21.02.2021
2295 Clouds 10 1027 71 10000 3.09 350 09:43 21.02.2021
2296 Clouds 10 1027 71 10000 3.09 350 09:24 21.02.2021
2297 Clouds 9 1027 71 10000 5.14 350 08:34 21.02.2021
2298 Clouds 9 1027 76 10000 3.09 340 07:57 21.02.2021
2299 Clouds 9 1026 76 10000 3.09 340 07:22 21.02.2021
2300 Clouds 8 1026 76 10000 3.09 320 06:24 21.02.2021
2301 Clouds 9 1025 71 10000 3.6 350 02:42 21.02.2021
2302 Clouds 9 1024 66 10000 2.57 290 01:20 21.02.2021
2303 Clouds 9 1024 62 10000 2.06 310 00:21 21.02.2021
2304 Clouds 9 1024 71 10000 3.01 350 23:48 20.02.2021
2305 Clouds 9 1024 76 10000 1.54 0 22:58 20.02.2021
2306 Clouds 10 1024 71 10000 1.54 0 22:33 20.02.2021
2307 Clouds 10 1024 71 10000 3.09 320 21:59 20.02.2021
2308 Clouds 10 1024 71 10000 3.09 320 21:41 20.02.2021
2309 Clouds 10 1024 62 10000 2.06 320 21:18 20.02.2021
2310 Clouds 10 1024 71 10000 2.57 360 20:40 20.02.2021
2311 Clouds 11 1024 58 10000 1.54 0 20:19 20.02.2021
2312 Clouds 11 1023 58 10000 2.57 300 19:42 20.02.2021
2313 Clouds 11 1023 54 10000 2.06 300 18:58 20.02.2021
2314 Clouds 12 1023 50 10000 2.06 320 18:37 20.02.2021
2315 Clouds 12 1023 50 10000 2.06 320 18:18 20.02.2021
2316 Clouds 12 1023 47 10000 1.03 0 17:36 20.02.2021
2317 Clouds 13 1023 44 10000 2.57 360 16:50 20.02.2021
2318 Clouds 14 1023 44 10000 4.12 360 16:27 20.02.2021
2319 Clouds 14 1023 44 10000 5.14 360 15:44 20.02.2021
2320 Clouds 14 1024 60 10000 0.45 222 15:18 20.02.2021
2321 Clouds 15 1023 36 10000 3.09 360 14:43 20.02.2021
2322 Clouds 15 1023 39 10000 3.09 10 14:22 20.02.2021
2323 Clouds 14 1023 48 10000 2.06 360 13:40 20.02.2021
2324 Clouds 14 1025 62 10000 0.89 259 13:22 20.02.2021
2325 Clouds 14 1024 51 10000 2.57 150 12:47 20.02.2021
2326 Clouds 14 1024 55 10000 2.06 160 12:22 20.02.2021
2327 Clouds 14 1025 62 10000 2.57 170 11:42 20.02.2021
2328 Clouds 14 1025 58 10000 2.06 170 11:23 20.02.2021
2329 Clouds 13 1025 62 10000 1.01 207 10:43 20.02.2021
2330 Clouds 13 1026 66 9000 0.27 185 09:50 20.02.2021
2331 Clouds 12 1027 70 10000 0.93 53 09:20 20.02.2021
2332 Clouds 11 1026 76 9000 2.06 360 08:34 20.02.2021
2333 Clouds 9 1027 77 10000 0.45 33 07:54 20.02.2021
2334 Clouds 7 1026 75 10000 1.27 55 02:46 20.02.2021
2335 Clouds 7 1026 75 10000 1.25 65 02:22 20.02.2021
2336 Clouds 7 1026 75 10000 1.25 65 01:47 20.02.2021
2337 Clouds 7 1026 65 10000 1.1 53 00:45 20.02.2021
2338 Clouds 7 1026 65 10000 0.76 62 23:46 19.02.2021
2339 Clouds 8 1027 65 10000 2.06 340 22:56 19.02.2021
2340 Clouds 8 1027 65 10000 2.06 340 22:26 19.02.2021
2341 Clouds 8 1027 70 10000 0.66 116 21:50 19.02.2021
2342 Clouds 8 1027 70 10000 0.64 112 21:30 19.02.2021
2343 Clouds 9 1027 70 10000 0.65 113 20:48 19.02.2021
2344 Clouds 9 1027 65 10000 0.81 126 20:28 19.02.2021
2345 Clouds 9 1026 70 10000 0.8 125 19:55 19.02.2021
2346 Clouds 10 1026 70 10000 0.98 128 19:24 19.02.2021
2347 Clouds 10 1026 53 10000 0.98 151 18:56 19.02.2021
2348 Clouds 10 1026 53 10000 0.98 151 18:33 19.02.2021
2349 Clouds 11 1025 35 10000 1.33 163 17:51 19.02.2021
2350 Clouds 12 1025 33 10000 3.09 360 16:53 19.02.2021
2351 Clouds 14 1025 31 10000 3.09 360 16:28 19.02.2021
2352 Clear 14 1027 42 10000 1.79 5 15:58 19.02.2021
2353 Clouds 14 1025 29 10000 3.09 340 15:31 19.02.2021
2354 Clouds 14 1025 33 10000 3.6 350 14:59 19.02.2021
2355 Clouds 14 1025 33 10000 3.6 350 14:38 19.02.2021
2356 Clouds 14 1025 31 10000 4.12 350 14:18 19.02.2021
2357 Clouds 14 1026 31 10000 4.12 350 13:42 19.02.2021
2358 Clouds 14 1026 31 10000 4.12 350 13:24 19.02.2021
2359 Clouds 14 1026 33 10000 5.14 10 12:41 19.02.2021
2360 Clouds 14 1026 33 10000 5.14 10 12:22 19.02.2021
2361 Clear 14 1026 38 10000 4.12 350 11:50 19.02.2021
2362 Clear 14 1026 47 10000 2.06 170 11:22 19.02.2021
2363 Clear 13 1026 41 10000 1.19 219 10:50 19.02.2021
2364 Clear 13 1026 44 10000 0.35 210 10:22 19.02.2021
2365 Clear 12 1026 54 10000 0.38 208 09:47 19.02.2021
2366 Clear 12 1026 54 10000 0.78 53 09:25 19.02.2021
2367 Clear 11 1026 61 10000 0.78 53 08:50 19.02.2021
2368 Clear 10 1026 65 10000 1.46 37 08:23 19.02.2021
2369 Clear 8 1026 70 10000 1.45 37 07:48 19.02.2021
2370 Clear 7 1026 65 10000 2.06 300 07:29 19.02.2021
2371 Clear 6 1025 75 10000 2.06 300 06:53 19.02.2021
2372 Clouds 5 1024 70 10000 2.06 330 05:27 19.02.2021
2373 Clouds 5 1024 70 10000 1.36 11 04:41 19.02.2021
2374 Clouds 6 1023 70 10000 2.57 340 01:47 19.02.2021
2375 Clear 6 1025 70 10000 1.74 349 00:37 19.02.2021
2376 Clouds 7 1023 70 10000 2.06 360 23:55 18.02.2021
2377 Clouds 7 1023 70 10000 2.06 360 23:35 18.02.2021
2378 Clear 7 1024 68 10000 2.02 0 22:50 18.02.2021
2379 Clouds 7 1023 75 10000 2.06 340 22:29 18.02.2021
2380 Clouds 8 1023 70 10000 2.06 350 21:51 18.02.2021
2381 Clouds 7 1023 65 10000 2.06 14 21:25 18.02.2021
2382 Clouds 8 1022 61 10000 2.06 80 20:44 18.02.2021
2383 Clouds 8 1022 57 10000 2.57 310 20:24 18.02.2021
2384 Clouds 8 1021 61 10000 2.06 310 19:47 18.02.2021
2385 Clouds 8 1021 61 10000 2.57 320 19:28 18.02.2021
2386 Clouds 9 1021 57 10000 2.57 300 18:54 18.02.2021
2387 Clouds 9 1021 57 10000 1.54 13 18:31 18.02.2021
2388 Clouds 10 1020 46 10000 1.62 13 17:53 18.02.2021
2389 Clouds 11 1020 43 10000 1.54 0 17:28 18.02.2021
2390 Clouds 12 1020 44 10000 3.09 360 16:59 18.02.2021
2391 Clouds 12 1020 44 10000 3.09 360 16:40 18.02.2021
2392 Clouds 12 1019 44 10000 3.09 20 16:21 18.02.2021
2393 Clouds 12 1019 38 10000 2.57 350 15:39 18.02.2021
2394 Clouds 13 1019 44 10000 3.6 340 15:21 18.02.2021
2395 Clouds 12 1019 35 10000 3.6 340 14:49 18.02.2021
2396 Clouds 12 1019 35 10000 3.6 340 14:29 18.02.2021
2397 Clouds 13 1019 35 10000 3.6 340 14:29 18.02.2021
2398 Clouds 12 1019 40 10000 3.6 350 13:46 18.02.2021
2399 Clouds 13 1019 38 10000 4.63 360 13:20 18.02.2021
2400 Clouds 12 1019 38 10000 2.06 360 12:53 18.02.2021
2401 Clouds 12 1020 43 10000 2.06 340 12:23 18.02.2021
2402 Clouds 12 1020 43 10000 3.09 340 11:46 18.02.2021
2403 Clouds 11 1020 46 10000 2.57 340 11:27 18.02.2021
2404 Clouds 10 1020 54 10000 1.12 241 10:52 18.02.2021
2405 Clouds 10 1020 57 10000 1.12 241 10:31 18.02.2021
2406 Clouds 10 1020 57 10000 1.2 306 09:50 18.02.2021
2407 Clouds 9 1020 70 10000 0.92 323 09:26 18.02.2021
2408 Clouds 8 1020 75 10000 0.92 323 08:48 18.02.2021
2409 Clouds 7 1021 75 10000 1.44 359 08:29 18.02.2021
2410 Clouds 5 1021 79 10000 1.47 358 07:35 18.02.2021
2411 Clouds 5 1022 74 10000 1.52 8 06:59 18.02.2021
2412 Clouds 4 1019 86 10000 1.6 359 04:48 18.02.2021
2413 Clouds 3 1021 80 10000 2.06 340 23:57 17.02.2021
2414 Clouds 3 1021 80 10000 2.06 340 23:37 17.02.2021
2415 Clouds 3 1021 80 10000 2.06 340 22:56 17.02.2021
2416 Clouds 3 1021 80 10000 2.06 330 22:27 17.02.2021
2417 Clouds 3 1021 75 10000 2.06 340 21:58 17.02.2021
2418 Clouds 3 1021 75 10000 2.06 340 21:23 17.02.2021
2419 Clouds 3 1021 80 10000 2.06 340 20:56 17.02.2021
2420 Clouds 3 1021 80 10000 2.06 340 20:37 17.02.2021
2421 Clouds 4 1021 80 10000 2.06 350 19:56 17.02.2021
2422 Clouds 4 1021 80 10000 2.06 350 19:36 17.02.2021
2423 Clouds 4 1021 75 10000 1.31 218 18:57 17.02.2021
2424 Clouds 4 1021 75 10000 1.64 211 18:34 17.02.2021
2425 Clouds 5 1021 65 10000 1.42 210 17:47 17.02.2021
2426 Clouds 6 1020 49 10000 2.06 320 17:22 17.02.2021
2427 Clouds 6 1020 42 10000 2.06 340 16:52 17.02.2021
2428 Clouds 7 1021 42 10000 2.57 350 16:29 17.02.2021
2429 Clouds 8 1021 46 10000 3.09 340 15:56 17.02.2021
2430 Clouds 8 1021 46 10000 3.09 340 15:37 17.02.2021
2431 Clouds 7 1021 49 10000 3.09 350 15:19 17.02.2021
2432 Clouds 7 1021 49 10000 2.57 360 14:41 17.02.2021
2433 Clouds 7 1021 53 10000 3.09 20 14:23 17.02.2021
2434 Clouds 7 1022 53 10000 4.63 10 13:42 17.02.2021
2435 Clouds 6 1023 57 10000 3.6 10 12:59 17.02.2021
2436 Clouds 6 1023 57 10000 4.12 0 12:26 17.02.2021
2437 Clouds 5 1023 57 10000 3.6 350 11:49 17.02.2021
2438 Clouds 5 1023 57 10000 3.09 360 11:30 17.02.2021
2439 Clouds 5 1023 53 10000 3.09 10 10:58 17.02.2021
2440 Clouds 5 1023 53 10000 3.09 10 10:40 17.02.2021
2441 Clouds 4 1023 56 10000 2.57 10 10:20 17.02.2021
2442 Clouds 4 1023 56 10000 2.06 50 09:40 17.02.2021
2443 Clouds 3 1023 64 10000 2.06 350 08:58 17.02.2021
2444 Clouds 3 1023 64 10000 2.06 350 08:37 17.02.2021
2445 Clouds 2 1023 64 10000 3.09 20 08:19 17.02.2021
2446 Clouds 2 1023 69 10000 2.06 40 07:24 17.02.2021
2447 Snow 1 1022 64 10000 2.06 350 03:54 17.02.2021
2448 Snow 1 1022 69 10000 2.57 360 02:33 17.02.2021
2449 Snow 1 1022 64 10000 1.54 0 01:49 17.02.2021
2450 Snow 1 1023 64 10000 2.06 330 00:30 17.02.2021
2451 Snow 1 1023 60 10000 3.09 340 23:50 16.02.2021
2452 Snow 1 1023 60 10000 3.09 340 23:32 16.02.2021
2453 Snow 1 1023 60 10000 2.06 280 22:42 16.02.2021
2454 Snow 1 1023 60 10000 2.06 280 22:22 16.02.2021
2455 Snow 1 1023 60 10000 2.06 300 21:41 16.02.2021
2456 Clouds 1 1024 78 10000 0.45 335 21:22 16.02.2021
2457 Clouds 1 1024 82 10000 0.45 273 20:58 16.02.2021
2458 Clouds 1 1024 85 10000 3.32 353 20:38 16.02.2021
2459 Clouds 1 1023 60 10000 2.06 300 20:20 16.02.2021
2460 Clouds 1 1023 75 10000 2.06 300 19:40 16.02.2021
2461 Snow 1 1023 69 10000 2.06 300 19:21 16.02.2021
2462 Clouds 0 1024 88 10000 1.79 13 18:39 16.02.2021
2463 Snow 0 1023 75 10000 2.06 300 18:21 16.02.2021
2464 Snow 0 1023 75 6000 2.57 330 17:49 16.02.2021
2465 Snow 0 1023 75 6000 2.57 330 17:23 16.02.2021
2466 Clouds 0 1023 93 3491 1.34 30 16:51 16.02.2021
2467 Snow 1 1023 75 4000 4.12 300 16:24 16.02.2021
2468 Snow 0 1023 86 4000 2.06 300 15:47 16.02.2021
2469 Snow 1 1023 86 4000 2.06 300 15:26 16.02.2021
2470 Snow 1 1023 80 4000 3.09 340 14:48 16.02.2021
2471 Snow 1 1023 80 4000 4.12 340 14:30 16.02.2021
2472 Snow 1 1022 70 5000 4.12 360 13:57 16.02.2021
2473 Snow 1 1022 70 5000 4.12 360 13:34 16.02.2021
2474 Clouds 1 1021 88 2904 8.76 3 12:46 16.02.2021
2475 Snow 1 1023 93 2871 1.34 315 12:25 16.02.2021
2476 Snow 1 1022 69 3000 4.12 330 11:50 16.02.2021
2477 Snow 1 1023 75 2500 5.66 330 11:24 16.02.2021
2478 Snow 0 1023 80 3000 3.09 330 10:57 16.02.2021
2479 Snow 0 1023 80 3000 3.09 330 10:38 16.02.2021
2480 Snow 0 1023 80 3000 2.57 330 10:20 16.02.2021
2481 Snow 0 1023 80 2000 2.06 350 09:47 16.02.2021
2482 Snow 0 1023 86 3000 2.06 350 09:26 16.02.2021
2483 Snow 0 1023 80 4000 2.57 330 08:44 16.02.2021
2484 Snow 0 1023 80 4000 2.57 330 08:44 16.02.2021
2485 Snow 0 1023 80 4000 2.57 310 08:22 16.02.2021
2486 Snow 0 1022 93 4000 2.06 300 07:27 16.02.2021
2487 Snow 0 1023 100 5000 6.7 358 05:31 16.02.2021
2488 Snow 0 1023 100 4000 2.57 330 00:51 16.02.2021
2489 Mist 0 1023 100 4000 2.57 310 23:46 15.02.2021
2490 Snow 0 1023 100 5000 3.09 310 23:24 15.02.2021
2491 Mist 1 1024 100 1000 3.6 310 22:44 15.02.2021
2492 Snow 1 1023 100 6000 4.12 320 22:23 15.02.2021
2493 Snow 0 1023 100 3000 3.6 320 21:42 15.02.2021
2494 Snow 0 1024 100 2000 4.12 300 21:22 15.02.2021
2495 Snow 1 1024 80 2000 3.09 310 20:47 15.02.2021
2496 Snow 1 1024 80 8000 6.17 320 20:27 15.02.2021
2497 Clouds 1 1024 80 10000 3.6 310 19:48 15.02.2021
2498 Snow 1 1023 93 7000 6.17 320 19:24 15.02.2021
2499 Snow 1 1023 100 5000 6.17 320 18:47 15.02.2021
2500 Snow 1 1023 93 2000 5.14 330 18:26 15.02.2021
2501 Snow 2 1023 80 4000 5.66 330 17:44 15.02.2021
2502 Mist 2 1023 86 4000 5.66 320 17:26 15.02.2021
2503 Mist 2 1023 80 4000 5.66 320 16:57 15.02.2021
2504 Mist 2 1023 75 4000 6.17 330 16:28 15.02.2021
2505 Clouds 3 1023 70 8000 6.17 330 15:58 15.02.2021
2506 Clouds 3 1023 70 8000 6.17 330 15:40 15.02.2021
2507 Mist 3 1023 70 5000 6.17 330 15:18 15.02.2021
2508 Clouds 4 1023 73 10000 4.92 334 14:40 15.02.2021
2509 Clouds 3 1024 80 10000 4.02 330 14:20 15.02.2021
2510 Clouds 3 1024 81 10000 4.47 320 13:48 15.02.2021
2511 Clouds 3 1023 87 5000 6.17 330 13:20 15.02.2021
2512 Clouds 3 1023 87 5000 6.17 330 13:20 15.02.2021
2513 Clouds 2 1023 100 7000 6.17 310 12:45 15.02.2021
2514 Clouds 2 1023 100 5000 5.14 330 12:21 15.02.2021
2515 Clouds 2 1023 100 5000 1.54 290 11:49 15.02.2021
2516 Clouds 3 1023 77 6925 4.47 13 11:23 15.02.2021
2517 Clouds 2 1023 100 2000 3.6 310 10:50 15.02.2021
2518 Clouds 2 1022 100 2000 2.06 250 10:25 15.02.2021
2519 Clouds 2 1023 100 1000 14.39 22 09:56 15.02.2021
2520 Clouds 2 1023 100 1000 14.39 22 09:36 15.02.2021
2521 Clouds 2 1023 83 3907 5.36 16 08:57 15.02.2021
2522 Snow 1 1023 86 4343 4.02 19 08:20 15.02.2021
2523 Clouds 1 1022 83 4409 4.02 336 06:59 15.02.2021
2524 Clouds 1 1022 85 4409 4.47 321 06:40 15.02.2021
2525 Drizzle 1 1021 80 8000 4.12 330 02:47 15.02.2021
2526 Drizzle 2 1021 80 8000 3.09 320 01:55 15.02.2021
2527 Drizzle 3 1020 80 9000 4.12 330 23:59 14.02.2021
2528 Drizzle 3 1020 75 9000 5.14 330 23:23 14.02.2021
2529 Drizzle 3 1019 75 9000 4.63 320 22:41 14.02.2021
2530 Drizzle 3 1019 75 9000 4.63 320 22:22 14.02.2021
2531 Drizzle 3 1019 75 10000 6.17 320 21:51 14.02.2021
2532 Drizzle 3 1019 75 10000 5.14 320 21:29 14.02.2021
2533 Drizzle 3 1019 75 10000 5.14 320 21:29 14.02.2021
2534 Drizzle 3 1018 75 8000 5.14 320 20:53 14.02.2021
2535 Drizzle 4 1018 75 8000 5.14 320 20:30 14.02.2021
2536 Drizzle 4 1018 80 8000 5.14 310 19:49 14.02.2021
2537 Drizzle 4 1018 75 8000 6.17 310 19:28 14.02.2021
2538 Drizzle 4 1018 75 8000 7.2 330 18:42 14.02.2021
2539 Drizzle 3 1017 75 7000 7.2 330 18:21 14.02.2021
2540 Drizzle 4 1017 81 7000 6.17 330 17:40 14.02.2021
2541 Drizzle 4 1017 81 7000 6.69 330 16:57 14.02.2021
2542 Drizzle 4 1017 81 7000 6.69 330 16:38 14.02.2021
2543 Drizzle 4 1016 75 7000 6.69 330 16:18 14.02.2021
2544 Drizzle 4 1016 75 7000 6.17 330 15:41 14.02.2021
2545 Drizzle 5 1016 81 8000 7.2 330 14:58 14.02.2021
2546 Drizzle 5 1016 81 8000 7.2 330 14:29 14.02.2021
2547 Drizzle 5 1016 75 8000 6.69 330 13:55 14.02.2021
2548 Drizzle 5 1016 75 8000 6.17 330 13:31 14.02.2021
2549 Drizzle 6 1016 75 8000 6.17 330 12:45 14.02.2021
2550 Drizzle 6 1016 75 8000 6.17 330 12:21 14.02.2021
2551 Drizzle 6 1016 81 8000 6.17 330 11:51 14.02.2021
2552 Drizzle 6 1016 81 8000 6.17 330 11:24 14.02.2021
2553 Clouds 5 1016 81 8000 6.17 330 10:49 14.02.2021
2554 Clouds 5 1015 81 8000 6.17 330 09:57 14.02.2021
2555 Clouds 5 1015 81 8000 6.17 330 09:39 14.02.2021
2556 Clouds 5 1015 81 8000 5.14 330 09:21 14.02.2021
2557 Clouds 5 1015 81 8000 5.14 330 08:43 14.02.2021
2558 Clouds 5 1015 81 8000 5.66 330 07:57 14.02.2021
2559 Clouds 5 1015 93 8000 3.6 310 06:52 14.02.2021
2560 Clouds 6 1014 87 8000 5.14 320 05:43 14.02.2021
2561 Clouds 7 1014 87 10000 4.12 320 03:33 14.02.2021
2562 Clouds 7 1016 87 9000 6.17 330 02:29 14.02.2021
2563 Clouds 8 1016 87 9000 4.12 330 00:49 14.02.2021
2564 Clouds 8 1016 87 9000 4.12 330 00:31 14.02.2021
2565 Clouds 8 1016 87 9000 4.12 330 00:31 14.02.2021
2566 Clouds 8 1016 87 9000 4.12 330 23:42 13.02.2021
2567 Rain 8 1016 81 9000 4.12 330 23:21 13.02.2021
2568 Clouds 9 1017 81 10000 4.12 330 22:46 13.02.2021
2569 Clouds 9 1017 81 10000 4.12 330 22:20 13.02.2021
2570 Clouds 9 1017 81 10000 3.09 300 21:44 13.02.2021
2571 Clouds 9 1017 87 9000 3.6 330 21:22 13.02.2021
2572 Clouds 9 1017 93 9000 3.09 320 20:30 13.02.2021
2573 Clouds 9 1017 87 9000 3.6 320 19:59 13.02.2021
2574 Clouds 9 1017 87 9000 3.6 320 19:40 13.02.2021
2575 Clouds 9 1017 87 9000 3.6 320 19:21 13.02.2021
2576 Clouds 9 1018 81 8000 4.12 340 18:45 13.02.2021
2577 Clouds 9 1018 81 8000 4.12 330 18:23 13.02.2021
2578 Clouds 9 1018 81 10000 4.12 330 17:43 13.02.2021
2579 Clouds 9 1018 81 9000 3.09 320 17:23 13.02.2021
2580 Clouds 9 1018 81 9000 3.09 320 16:44 13.02.2021
2581 Clouds 9 1018 76 9000 3.09 320 16:26 13.02.2021
2582 Clouds 10 1018 81 10000 3.09 320 15:41 13.02.2021
2583 Clouds 10 1018 81 10000 3.09 320 15:22 13.02.2021
2584 Clouds 10 1018 81 10000 3.09 330 14:33 13.02.2021
2585 Clouds 10 1019 76 10000 4.12 330 13:48 13.02.2021
2586 Clouds 10 1019 76 10000 3.09 330 13:25 13.02.2021
2587 Clouds 10 1019 71 10000 3.09 330 12:50 13.02.2021
2588 Clouds 10 1020 71 10000 3.09 330 12:19 13.02.2021
2589 Rain 10 1020 71 10000 4.12 330 11:45 13.02.2021
2590 Clouds 11 1020 71 10000 4.12 330 11:20 13.02.2021
2591 Clouds 11 1020 66 10000 2.57 340 10:47 13.02.2021
2592 Clouds 11 1020 66 10000 2.57 340 10:27 13.02.2021
2593 Clouds 11 1020 66 10000 3.09 340 09:59 13.02.2021
2594 Clouds 10 1020 66 10000 3.09 340 09:41 13.02.2021
2595 Clouds 10 1020 66 10000 2.57 320 09:20 13.02.2021
2596 Clouds 10 1020 66 10000 2.57 320 08:40 13.02.2021
2597 Clouds 10 1019 71 10000 2.6 47 07:53 13.02.2021
2598 Clouds 9 1019 71 10000 2.86 37 06:42 13.02.2021
2599 Clouds 9 1019 71 10000 2.86 36 06:19 13.02.2021
2600 Clouds 10 1019 71 10000 3.41 46 04:19 13.02.2021
2601 Clouds 10 1019 76 10000 3.27 41 01:54 13.02.2021
2602 Clouds 10 1019 81 10000 3.57 39 00:51 13.02.2021
2603 Clouds 10 1019 81 10000 3.18 39 23:55 12.02.2021
2604 Clouds 11 1019 76 10000 2.85 40 23:31 12.02.2021
2605 Clouds 11 1019 76 10000 2.87 40 22:58 12.02.2021
2606 Clouds 11 1019 76 10000 3.13 42 22:29 12.02.2021
2607 Clouds 11 1019 71 10000 3.13 42 21:50 12.02.2021
2608 Clouds 11 1019 71 10000 3.52 51 21:29 12.02.2021
2609 Clouds 11 1019 71 10000 2.06 70 20:55 12.02.2021
2610 Clouds 11 1019 71 10000 2.06 70 20:37 12.02.2021
2611 Clouds 11 1018 66 10000 4.12 90 20:18 12.02.2021
2612 Clouds 11 1018 66 10000 5.14 90 19:43 12.02.2021
2613 Clouds 11 1018 66 10000 5.14 90 19:25 12.02.2021
2614 Clouds 11 1017 67 10000 3.6 90 18:30 12.02.2021
2615 Clouds 11 1020 61 10000 1.34 21 17:48 12.02.2021
2616 Clouds 12 1019 60 10000 2.24 360 17:25 12.02.2021
2617 Clouds 13 1016 42 10000 3.6 290 16:36 12.02.2021
2618 Clouds 15 1016 32 10000 3.6 280 15:47 12.02.2021
2619 Clouds 16 1016 36 10000 3.09 280 15:21 12.02.2021
2620 Clouds 16 1016 36 10000 3.09 280 15:21 12.02.2021
2621 Clouds 17 1016 34 10000 6.17 300 14:53 12.02.2021
2622 Clouds 17 1016 34 10000 5.66 300 14:30 12.02.2021
2623 Clouds 17 1016 34 10000 4.12 290 13:41 12.02.2021
2624 Clouds 18 1016 34 10000 5.14 270 13:22 12.02.2021
2625 Clouds 17 1016 39 10000 1.54 0 12:49 12.02.2021
2626 Clouds 17 1016 39 10000 2.06 130 12:31 12.02.2021
2627 Clouds 17 1016 42 10000 2.06 140 11:43 12.02.2021
2628 Clouds 16 1017 48 10000 2.57 150 11:20 12.02.2021
2629 Clouds 16 1017 45 10000 1.6 270 10:46 12.02.2021
2630 Clouds 15 1016 55 10000 1.54 0 09:52 12.02.2021
2631 Clouds 14 1016 58 10000 2.06 90 09:29 12.02.2021
2632 Clouds 14 1016 67 10000 1.54 0 08:51 12.02.2021
2633 Clouds 13 1016 66 10000 1.43 349 08:29 12.02.2021
2634 Clouds 13 1016 66 10000 1.43 349 08:29 12.02.2021
2635 Clear 12 1018 72 10000 0.45 276 07:58 12.02.2021
2636 Clouds 11 1016 76 10000 1.54 0 07:35 12.02.2021
2637 Clouds 10 1015 76 10000 3.09 350 06:55 12.02.2021
2638 Clouds 10 1014 71 10000 2.06 330 05:49 12.02.2021
2639 Clouds 10 1014 76 10000 2.18 318 05:23 12.02.2021
2640 Clouds 10 1014 76 10000 2.18 318 05:23 12.02.2021
2641 Clouds 12 1011 54 10000 3.6 280 01:48 12.02.2021
2642 Clouds 12 1010 58 10000 3.6 260 23:41 11.02.2021
2643 Clouds 13 1010 58 10000 3.6 260 23:22 11.02.2021
2644 Clouds 13 1009 58 10000 5.14 270 22:58 11.02.2021
2645 Clouds 13 1009 58 10000 5.14 270 22:39 11.02.2021
2646 Clouds 13 1009 58 10000 3.6 270 22:20 11.02.2021
2647 Clouds 13 1008 54 10000 4.12 320 21:39 11.02.2021
2648 Clouds 13 1008 55 10000 4.12 300 21:19 11.02.2021
2649 Clouds 13 1008 55 10000 5.66 270 20:46 11.02.2021
2650 Clouds 13 1007 58 10000 6.69 260 20:22 11.02.2021
2651 Clouds 13 1007 55 10000 5.66 300 19:49 11.02.2021
2652 Clouds 13 1007 55 10000 5.14 300 19:31 11.02.2021
2653 Clouds 13 1007 58 10000 4.12 290 18:55 11.02.2021
2654 Clouds 13 1007 62 10000 4.12 250 18:29 11.02.2021
2655 Clouds 14 1006 58 10000 6.17 240 17:55 11.02.2021
2656 Clouds 15 1006 58 10000 4.12 270 17:22 11.02.2021
2657 Clouds 15 1005 59 10000 4.12 300 16:59 11.02.2021
2658 Clouds 15 1005 59 10000 4.12 300 16:41 11.02.2021
2659 Clouds 15 1005 63 10000 3.09 320 16:21 11.02.2021
2660 Clouds 16 1005 55 10000 2.06 300 15:43 11.02.2021
2661 Clouds 16 1004 63 10000 4.12 200 15:25 11.02.2021
2662 Clouds 15 1005 63 10000 10.5 224 14:47 11.02.2021
2663 Clouds 15 1005 67 10000 4.12 240 14:28 11.02.2021
2664 Rain 14 1007 78 10000 3.13 156 13:41 11.02.2021
2665 Rain 17 1005 63 8000 6.17 180 13:19 11.02.2021
2666 Clouds 18 1005 63 10000 5.14 160 12:51 11.02.2021
2667 Clouds 18 1007 63 10000 5.14 150 12:28 11.02.2021
2668 Clouds 18 1007 63 10000 5.14 140 11:46 11.02.2021
2669 Clouds 18 1008 63 10000 5.14 140 11:22 11.02.2021
2670 Clouds 18 1008 72 10000 4.12 150 10:44 11.02.2021
2671 Clouds 17 1008 68 10000 4.12 160 10:26 11.02.2021
2672 Clouds 17 1009 72 10000 13.41 201 09:53 11.02.2021
2673 Clouds 16 1009 77 10000 11.32 200 09:22 11.02.2021
2674 Clouds 16 1010 88 10000 11.32 200 08:51 11.02.2021
2675 Clouds 15 1010 88 10000 6.81 196 08:23 11.02.2021
2676 Clouds 14 1012 88 10000 1.79 207 07:30 11.02.2021
2677 Clouds 13 1012 88 10000 1.34 121 06:40 11.02.2021
2678 Clouds 12 1012 81 10000 3.2 164 04:58 11.02.2021
2679 Clouds 13 1015 78 10000 2.2 210 02:29 11.02.2021
2680 Clouds 13 1015 78 10000 2.41 234 00:50 11.02.2021
2681 Clouds 13 1015 78 10000 2.58 242 00:20 11.02.2021
2682 Clouds 13 1016 77 10000 0.45 132 23:40 10.02.2021
2683 Clear 13 1014 82 10000 2.66 243 22:52 10.02.2021
2684 Clear 13 1014 87 10000 2.53 245 22:29 10.02.2021
2685 Clear 13 1014 87 10000 2.53 245 22:29 10.02.2021
2686 Clear 13 1014 87 10000 2.53 245 21:58 10.02.2021
2687 Clear 13 1014 82 10000 2.84 248 21:38 10.02.2021
2688 Clear 13 1014 82 10000 2.85 249 21:19 10.02.2021
2689 Clear 14 1014 76 10000 2.84 248 20:40 10.02.2021
2690 Clear 14 1014 76 10000 2.41 238 20:22 10.02.2021
2691 Clear 14 1014 82 10000 2.42 239 19:45 10.02.2021
2692 Clouds 15 1014 72 10000 1.54 0 19:24 10.02.2021
2693 Clouds 15 1014 67 10000 2.06 0 18:40 10.02.2021
2694 Clouds 15 1014 72 10000 2.09 206 18:22 10.02.2021
2695 Clouds 15 1014 72 10000 2.09 206 17:51 10.02.2021
2696 Clouds 16 1014 63 10000 2.06 190 17:24 10.02.2021
2697 Clouds 16 1013 55 10000 4.63 160 16:53 10.02.2021
2698 Clear 17 1015 57 10000 0.89 183 16:30 10.02.2021
2699 Clouds 17 1013 45 10000 3.09 210 15:54 10.02.2021
2700 Clouds 18 1014 45 10000 3.09 210 15:23 10.02.2021
2701 Clouds 18 1014 45 10000 2.57 210 14:47 10.02.2021
2702 Clouds 18 1014 45 10000 3.6 200 14:27 10.02.2021
2703 Clouds 17 1014 48 10000 3.6 200 13:51 10.02.2021
2704 Clouds 17 1014 48 10000 4.12 220 13:28 10.02.2021
2705 Clouds 18 1014 42 10000 3.6 230 12:48 10.02.2021
2706 Clouds 17 1014 52 10000 3.6 210 12:29 10.02.2021
2707 Clouds 17 1015 51 10000 4.12 240 11:48 10.02.2021
2708 Clouds 16 1015 59 10000 3.09 190 11:29 10.02.2021
2709 Clouds 16 1015 59 10000 2.06 200 10:52 10.02.2021
2710 Clouds 16 1015 59 10000 2.57 220 10:21 10.02.2021
2711 Clouds 16 1015 59 10000 4.12 240 09:44 10.02.2021
2712 Clouds 15 1015 63 10000 2.57 200 09:22 10.02.2021
2713 Clouds 15 1015 67 10000 3.6 270 08:50 10.02.2021
2714 Clouds 15 1015 67 10000 2.57 230 08:30 10.02.2021
2715 Clouds 13 1015 72 10000 2.57 190 07:22 10.02.2021
2716 Clouds 12 1014 87 10000 1.03 0 04:54 10.02.2021
2717 Clouds 13 1015 78 10000 3.98 250 01:20 10.02.2021
2718 Clouds 13 1013 82 10000 2.06 330 23:42 09.02.2021
2719 Clouds 14 1013 82 10000 2.06 330 23:23 09.02.2021
2720 Clouds 13 1013 82 10000 2.06 340 22:41 09.02.2021
2721 Clouds 13 1013 77 10000 2.06 340 22:23 09.02.2021
2722 Clouds 13 1013 82 10000 1.03 0 21:42 09.02.2021
2723 Clouds 13 1013 77 10000 2.57 120 21:19 09.02.2021
2724 Rain 14 1013 72 9000 2.06 260 20:42 09.02.2021
2725 Rain 14 1012 59 9000 3.09 240 20:24 09.02.2021
2726 Clouds 16 1011 59 10000 1.54 0 19:42 09.02.2021
2727 Clouds 16 1011 63 10000 1.03 0 19:22 09.02.2021
2728 Clouds 16 1011 55 10000 2.06 210 18:43 09.02.2021
2729 Clouds 16 1011 55 10000 2.06 210 18:25 09.02.2021
2730 Clear 16 1013 69 10000 1.79 209 17:47 09.02.2021
2731 Clouds 16 1010 52 10000 2.57 200 17:26 09.02.2021
2732 Clouds 17 1011 59 10000 3.6 180 16:52 09.02.2021
2733 Clear 17 1012 73 10000 2.68 231 16:19 09.02.2021
2734 Clouds 18 1011 55 10000 5.14 180 15:51 09.02.2021
2735 Clouds 18 1011 52 10000 4.63 160 15:29 09.02.2021
2736 Clouds 18 1011 48 10000 5.66 170 14:59 09.02.2021
2737 Clouds 18 1011 48 10000 5.66 170 14:36 09.02.2021
2738 Clouds 18 1011 52 10000 6.17 160 14:18 09.02.2021
2739 Clouds 18 1012 52 10000 6.17 160 13:40 09.02.2021
2740 Clouds 18 1011 54 10000 4.47 141 13:20 09.02.2021
2741 Clouds 18 1014 56 10000 1.79 211 12:43 09.02.2021
2742 Clouds 18 1012 55 10000 4.47 159 12:23 09.02.2021
2743 Clouds 18 1013 48 10000 2.57 180 11:44 09.02.2021
2744 Clouds 17 1013 59 10000 2.06 150 11:21 09.02.2021
2745 Clouds 18 1014 59 10000 2.06 150 10:57 09.02.2021
2746 Clouds 17 1014 63 10000 2.06 120 10:20 09.02.2021
2747 Clouds 17 1014 63 10000 1.54 0 09:51 09.02.2021
2748 Clouds 16 1014 63 10000 4.11 229 09:26 09.02.2021
2749 Clouds 16 1014 67 10000 1.54 0 08:54 09.02.2021
2750 Clouds 15 1014 72 10000 1.54 0 08:28 09.02.2021
2751 Clouds 14 1013 82 10000 3.27 233 07:41 09.02.2021
2752 Clouds 12 1012 76 10000 3.08 234 05:34 09.02.2021
2753 Clouds 13 1012 72 10000 1.72 257 03:48 09.02.2021
2754 Clouds 14 1011 67 10000 5.11 221 01:51 09.02.2021
2755 Clouds 14 1010 76 10000 6.5 214 00:31 09.02.2021
2756 Clouds 14 1010 76 10000 6.11 215 23:40 08.02.2021
2757 Clouds 14 1010 76 10000 6.15 216 23:18 08.02.2021
2758 Clouds 14 1009 67 10000 6.15 216 22:42 08.02.2021
2759 Clouds 14 1009 67 10000 7.8 219 22:22 08.02.2021
2760 Clouds 15 1008 58 10000 2.06 240 21:45 08.02.2021
2761 Clouds 15 1008 58 10000 2.06 240 21:22 08.02.2021
2762 Clouds 15 1007 55 10000 2.06 210 20:44 08.02.2021
2763 Clouds 15 1007 55 10000 2.06 210 20:24 08.02.2021
2764 Clouds 15 1006 51 10000 2.57 200 19:58 08.02.2021
2765 Clouds 15 1006 51 10000 2.57 200 19:39 08.02.2021
2766 Clouds 15 1006 55 10000 2.57 200 19:19 08.02.2021
2767 Clouds 16 1005 48 10000 1.54 280 18:41 08.02.2021
2768 Clouds 16 1005 48 10000 1.54 280 18:18 08.02.2021
2769 Clouds 16 1007 62 10000 3.13 171 17:43 08.02.2021
2770 Clouds 17 1004 48 10000 4.12 230 17:22 08.02.2021
2771 Clouds 18 1003 42 10000 5.14 220 16:40 08.02.2021
2772 Clouds 18 1006 58 10000 2.68 231 16:20 08.02.2021
2773 Clouds 18 1006 59 10000 2.68 268 15:40 08.02.2021
2774 Clouds 19 1003 49 10000 5.14 220 15:19 08.02.2021
2775 Clouds 18 1005 72 9000 12.35 190 14:51 08.02.2021
2776 Clouds 18 1003 68 10000 5.14 140 14:29 08.02.2021
2777 Clouds 17 1003 68 10000 4.12 140 13:56 08.02.2021
2778 Rain 17 1003 72 10000 5.14 150 13:29 08.02.2021
2779 Rain 17 1004 77 10000 6.17 160 12:49 08.02.2021
2780 Clouds 17 1004 77 10000 6.17 160 12:31 08.02.2021
2781 Clouds 18 1004 68 10000 7.72 140 11:42 08.02.2021
2782 Clouds 18 1006 68 10000 8.23 140 11:18 08.02.2021
2783 Clouds 19 1007 68 10000 7.72 150 10:39 08.02.2021
2784 Clouds 19 1007 68 10000 7.2 140 10:20 08.02.2021
2785 Clouds 18 1007 63 10000 6.17 150 09:48 08.02.2021
2786 Clouds 19 1007 63 10000 7.2 160 09:21 08.02.2021
2787 Clouds 17 1007 72 10000 3.09 150 08:31 08.02.2021
2788 Clouds 15 1007 67 10000 2.57 150 07:49 08.02.2021
2789 Clouds 15 1008 67 10000 4.12 160 06:51 08.02.2021
2790 Clouds 15 1009 63 10000 4.12 120 05:28 08.02.2021
2791 Clouds 14 1010 72 10000 5.14 150 02:27 08.02.2021
2792 Clouds 15 1012 72 10000 2.57 120 00:26 08.02.2021
2793 Rain 15 1012 77 10000 2.57 80 23:56 07.02.2021
2794 Rain 16 1012 77 10000 2.57 80 23:37 07.02.2021
2795 Rain 16 1012 77 10000 2.57 80 23:18 07.02.2021
2796 Clouds 15 1012 88 10000 2.06 90 22:42 07.02.2021
2797 Clouds 15 1012 88 10000 2.06 90 22:24 07.02.2021
2798 Clouds 15 1013 82 10000 2.08 145 21:50 07.02.2021
2799 Clouds 15 1013 82 10000 2.81 148 21:26 07.02.2021
2800 Clouds 16 1013 77 10000 3.6 90 20:51 07.02.2021
2801 Clouds 15 1013 77 10000 3.6 90 20:33 07.02.2021
2802 Clouds 15 1013 77 10000 2.06 90 19:55 07.02.2021
2803 Clouds 16 1012 77 10000 2.06 90 19:30 07.02.2021
2804 Clouds 16 1012 77 10000 3.09 60 18:55 07.02.2021
2805 Clouds 16 1012 77 10000 3.09 60 18:35 07.02.2021
2806 Clear 16 1012 72 10000 2.4 168 17:59 07.02.2021
2807 Clear 16 1012 72 10000 2.35 167 17:40 07.02.2021
2808 Clear 16 1012 72 10000 3.5 185 17:19 07.02.2021
2809 Clear 17 1012 59 10000 3.57 185 16:45 07.02.2021
2810 Clear 17 1012 59 10000 2.56 173 16:23 07.02.2021
2811 Clear 18 1012 59 10000 2.56 173 15:49 07.02.2021
2812 Clear 18 1013 63 10000 2.06 210 15:28 07.02.2021
2813 Clear 18 1013 72 10000 1.54 180 14:57 07.02.2021
2814 Clear 18 1013 72 10000 1.54 180 14:39 07.02.2021
2815 Clear 18 1013 72 10000 1.54 210 14:18 07.02.2021
2816 Clear 19 1013 48 10000 2.06 200 13:35 07.02.2021
2817 Clear 19 1013 49 10000 2.06 160 12:54 07.02.2021
2818 Clear 19 1013 49 10000 2.06 160 12:36 07.02.2021
2819 Clear 19 1014 55 10000 2.06 160 12:18 07.02.2021
2820 Clear 18 1015 55 10000 2.93 225 11:27 07.02.2021
2821 Clear 18 1015 55 10000 2.93 225 10:57 07.02.2021
2822 Clear 18 1015 55 10000 2.11 225 10:27 07.02.2021
2823 Clouds 17 1017 65 10000 2.11 225 09:50 07.02.2021
2824 Clouds 16 1017 66 10000 0.45 238 09:25 07.02.2021
2825 Clouds 15 1017 69 10000 2 235 08:38 07.02.2021
2826 Clouds 13 1017 69 10000 0.45 91 07:49 07.02.2021
2827 Clear 11 1014 76 10000 0.8 288 05:58 07.02.2021
2828 Clear 11 1014 76 10000 0.8 288 05:58 07.02.2021
2829 Clear 12 1014 81 10000 1.16 290 03:59 07.02.2021
2830 Clear 12 1015 87 10000 1.13 318 02:25 07.02.2021
2831 Clear 12 1015 87 10000 1.25 294 00:37 07.02.2021
2832 Clear 12 1015 81 10000 1.02 308 23:50 06.02.2021
2833 Clear 12 1016 81 10000 1.06 304 22:54 06.02.2021
2834 Clear 13 1016 87 10000 0.9 301 21:57 06.02.2021
2835 Clear 13 1016 87 10000 0.9 301 21:36 06.02.2021
2836 Clear 13 1016 82 10000 0.79 274 21:18 06.02.2021
2837 Clear 13 1016 87 10000 0.79 274 20:43 06.02.2021
2838 Clear 13 1016 87 10000 0.99 247 20:20 06.02.2021
2839 Clear 14 1016 82 10000 0.99 247 19:45 06.02.2021
2840 Clear 14 1017 75 10000 0.89 291 19:22 06.02.2021
2841 Clear 15 1015 57 10000 0.45 178 18:43 06.02.2021
2842 Clear 15 1015 77 10000 1.59 229 18:24 06.02.2021
2843 Clear 16 1015 77 10000 1.59 229 17:41 06.02.2021
2844 Clear 16 1015 77 10000 2.04 220 17:21 06.02.2021
2845 Clear 17 1015 77 10000 3.09 180 16:50 06.02.2021
2846 Clear 18 1015 72 10000 3.6 180 16:30 06.02.2021
2847 Clear 19 1015 63 10000 3.09 180 15:52 06.02.2021
2848 Clear 19 1015 63 10000 3.09 180 15:33 06.02.2021
2849 Clear 20 1015 49 10000 2.57 180 14:59 06.02.2021
2850 Clouds 20 1015 56 10000 1.54 150 14:39 06.02.2021
2851 Clouds 20 1015 56 10000 1.54 150 14:21 06.02.2021
2852 Clouds 20 1016 56 10000 2.06 130 13:44 06.02.2021
2853 Clouds 19 1016 55 10000 3.09 160 12:41 06.02.2021
2854 Clouds 19 1017 59 10000 2.06 170 12:20 06.02.2021
2855 Clouds 19 1017 63 10000 1.54 160 11:40 06.02.2021
2856 Clouds 18 1017 59 10000 1.93 243 11:20 06.02.2021
2857 Clouds 18 1017 59 10000 1.93 242 10:52 06.02.2021
2858 Clouds 17 1018 67 10000 1.6 260 10:26 06.02.2021
2859 Clear 17 1019 63 10000 1.59 259 09:38 06.02.2021
2860 Clouds 16 1018 72 10000 1.41 263 09:19 06.02.2021
2861 Clear 16 1019 69 10000 1.43 265 08:59 06.02.2021
2862 Clear 14 1019 76 10000 1.15 284 08:29 06.02.2021
2863 Clouds 11 1017 93 10000 0.98 302 06:58 06.02.2021
2864 Clouds 11 1017 93 10000 1.08 301 05:41 06.02.2021
2865 Clouds 11 1018 93 10000 1.54 0 02:52 06.02.2021
2866 Clouds 11 1018 87 10000 1.54 0 00:59 06.02.2021
2867 Clouds 12 1018 87 10000 1.54 0 00:41 06.02.2021
2868 Clear 12 1018 87 10000 1.54 0 00:18 06.02.2021
2869 Clear 12 1020 83 10000 1.4 318 23:41 05.02.2021
2870 Clear 12 1019 93 10000 1.54 0 23:23 05.02.2021
2871 Clear 12 1019 93 10000 1.54 0 22:43 05.02.2021
2872 Clear 13 1019 87 10000 0.95 276 22:18 05.02.2021
2873 Clear 13 1019 87 10000 0.95 276 21:40 05.02.2021
2874 Clear 13 1020 78 10000 1.18 255 20:58 05.02.2021
2875 Clear 13 1020 79 10000 1.18 255 20:38 05.02.2021
2876 Clear 14 1019 87 10000 1.2 244 19:48 05.02.2021
2877 Clear 14 1019 87 10000 1.54 0 19:19 05.02.2021
2878 Clear 14 1019 82 10000 1.1 238 18:45 05.02.2021
2879 Clear 14 1019 82 10000 1.03 213 18:19 05.02.2021
2880 Clear 15 1019 67 10000 1.03 213 17:43 05.02.2021
2881 Clear 16 1018 63 10000 1.88 220 17:21 05.02.2021
2882 Clear 17 1018 59 10000 1.88 220 16:46 05.02.2021
2883 Clear 17 1018 55 10000 2.05 204 16:23 05.02.2021
2884 Clear 18 1018 48 10000 2.05 204 15:53 05.02.2021
2885 Clear 19 1018 49 10000 2.39 208 15:26 05.02.2021
2886 Clear 19 1018 55 10000 2.4 208 14:40 05.02.2021
2887 Clear 19 1018 59 10000 2.26 209 14:22 05.02.2021
2888 Clear 19 1019 59 10000 2.26 209 13:58 05.02.2021
2889 Clear 19 1019 59 10000 2.26 209 13:35 05.02.2021
2890 Clear 19 1019 52 10000 2.03 205 12:49 05.02.2021
2891 Clear 19 1020 52 10000 1.77 214 12:27 05.02.2021
2892 Clear 19 1020 55 10000 1.79 214 11:41 05.02.2021
2893 Clear 19 1020 55 10000 1.42 215 11:21 05.02.2021
2894 Clear 18 1020 63 10000 1.44 216 10:57 05.02.2021
2895 Clear 17 1020 63 10000 0.94 225 10:27 05.02.2021
2896 Clear 17 1020 67 10000 0.94 225 09:47 05.02.2021
2897 Clouds 16 1022 72 10000 0.45 145 09:28 05.02.2021
2898 Clouds 16 1022 76 10000 0.45 90 08:58 05.02.2021
2899 Clear 14 1020 82 10000 0.34 300 08:23 05.02.2021
2900 Clear 13 1019 82 10000 0.5 339 07:37 05.02.2021
2901 Clear 11 1019 87 10000 0.47 355 06:54 05.02.2021
2902 Clouds 11 1020 82 10000 0.79 19 05:38 05.02.2021
2903 Clear 11 1018 87 10000 1.42 19 03:23 05.02.2021
2904 Clear 11 1018 87 10000 1.56 6 02:25 05.02.2021
2905 Clear 12 1017 81 10000 1.07 13 00:41 05.02.2021
2906 Clear 12 1017 81 10000 1.07 13 00:41 05.02.2021
2907 Clear 12 1017 81 10000 1.1 0 00:21 05.02.2021
2908 Clear 12 1017 87 10000 1.07 3 23:59 04.02.2021
2909 Clear 12 1017 87 10000 1.07 3 23:39 04.02.2021
2910 Clear 12 1017 81 10000 0.96 356 23:20 04.02.2021
2911 Clear 13 1017 82 10000 0.96 356 22:51 04.02.2021
2912 Clear 13 1017 82 10000 1 346 22:27 04.02.2021
2913 Clear 13 1017 82 10000 1.03 344 21:42 04.02.2021
2914 Clear 14 1016 82 10000 1.18 321 21:21 04.02.2021
2915 Clear 14 1016 71 10000 1.54 0 20:52 04.02.2021
2916 Clear 14 1016 71 10000 1.54 0 20:34 04.02.2021
2917 Clear 14 1016 72 10000 2.06 10 19:45 04.02.2021
2918 Clear 14 1016 72 10000 2.57 10 18:59 04.02.2021
2919 Clear 14 1016 72 10000 2.57 10 18:36 04.02.2021
2920 Clear 15 1015 72 10000 2.57 20 18:18 04.02.2021
2921 Clear 15 1015 72 10000 2.06 30 17:41 04.02.2021
2922 Clear 16 1015 67 10000 2.57 50 17:20 04.02.2021
2923 Clear 17 1015 63 10000 2.06 70 16:41 04.02.2021
2924 Clear 17 1017 67 10000 0.89 165 16:19 04.02.2021
2925 Clear 18 1017 66 10000 0.89 211 15:40 04.02.2021
2926 Clear 18 1014 42 10000 1.54 120 15:21 04.02.2021
2927 Clear 19 1017 66 10000 1.79 217 14:49 04.02.2021
2928 Clear 18 1014 45 10000 2.57 150 14:21 04.02.2021
2929 Clear 19 1014 45 10000 3.21 255 13:56 04.02.2021
2930 Clear 19 1014 45 10000 3.21 255 13:36 04.02.2021
2931 Clear 18 1015 48 10000 1.54 0 12:57 04.02.2021
2932 Clear 18 1015 52 10000 1.54 0 12:21 04.02.2021
2933 Clear 18 1016 55 10000 1.54 0 11:42 04.02.2021
2934 Clear 17 1016 59 10000 1.54 0 11:24 04.02.2021
2935 Clear 17 1016 63 10000 2.02 259 10:43 04.02.2021
2936 Clear 16 1017 67 10000 1.75 273 10:18 04.02.2021
2937 Clear 15 1017 72 10000 1.74 271 09:43 04.02.2021
2938 Clear 14 1017 77 10000 1.6 285 09:18 04.02.2021
2939 Clear 14 1017 87 10000 1.6 285 08:41 04.02.2021
2940 Clear 13 1018 77 10000 0.45 244 08:20 04.02.2021
2941 Clear 12 1019 80 10000 1.52 306 07:41 04.02.2021
2942 Clear 11 1018 84 10000 1.4 312 06:55 04.02.2021
2943 Clear 11 1018 84 10000 1.4 312 06:35 04.02.2021
2944 Clouds 11 1017 93 10000 1.22 290 03:53 04.02.2021
2945 Clear 11 1018 84 10000 1.15 278 02:26 04.02.2021
2946 Clouds 11 1017 93 10000 1.14 267 00:42 04.02.2021
2947 Clear 12 1019 85 10000 1.04 254 23:40 03.02.2021
2948 Clouds 12 1018 93 10000 1.54 350 22:44 03.02.2021
2949 Clouds 12 1018 87 10000 0.79 242 22:22 03.02.2021
2950 Clouds 12 1018 87 10000 1.54 350 21:58 03.02.2021
2951 Clouds 12 1018 87 10000 1.54 350 21:38 03.02.2021
2952 Clouds 12 1018 87 10000 1.54 330 21:20 03.02.2021
2953 Clouds 12 1018 82 10000 0.79 244 20:45 03.02.2021
2954 Clouds 12 1017 82 10000 1.54 0 20:24 03.02.2021
2955 Clouds 13 1017 87 10000 1.14 248 19:45 03.02.2021
2956 Clouds 13 1017 82 10000 0.58 216 19:21 03.02.2021
2957 Clouds 14 1017 76 10000 0.55 238 18:48 03.02.2021
2958 Clouds 14 1017 76 10000 0.45 133 18:20 03.02.2021
2959 Clouds 15 1016 67 10000 0.45 133 17:53 03.02.2021
2960 Clouds 15 1016 67 10000 0.45 133 17:33 03.02.2021
2961 Clouds 16 1016 59 10000 2.06 190 16:57 03.02.2021
2962 Clouds 16 1016 59 10000 2.06 190 16:35 03.02.2021
2963 Clouds 17 1015 52 10000 2.06 180 15:46 03.02.2021
2964 Clouds 17 1017 63 10000 0.45 234 15:26 03.02.2021
2965 Clouds 17 1015 52 10000 2.06 190 14:54 03.02.2021
2966 Clouds 17 1015 55 10000 3.09 190 14:30 03.02.2021
2967 Clouds 17 1015 55 10000 3.09 200 13:56 03.02.2021
2968 Clouds 17 1016 59 10000 3.6 180 13:29 03.02.2021
2969 Clouds 18 1016 59 10000 2.57 180 12:55 03.02.2021
2970 Clouds 17 1016 59 10000 2.57 180 12:36 03.02.2021
2971 Clouds 17 1016 55 10000 2.57 180 12:18 03.02.2021
2972 Clouds 18 1016 59 10000 2.57 180 11:38 03.02.2021
2973 Clouds 17 1017 59 10000 2.06 200 11:19 03.02.2021
2974 Clouds 16 1017 59 10000 0.27 315 10:27 03.02.2021
2975 Clouds 16 1017 63 10000 0.27 315 09:53 03.02.2021
2976 Clear 15 1018 75 10000 0.26 315 09:34 03.02.2021
2977 Clear 14 1018 77 10000 0.88 58 08:55 03.02.2021
2978 Clear 14 1018 78 10000 0.88 58 08:37 03.02.2021
2979 Clear 12 1018 84 10000 1.55 42 07:48 03.02.2021
2980 Clouds 10 1015 87 10000 1.88 26 06:42 03.02.2021
2981 Clouds 10 1014 81 10000 1.86 24 04:55 03.02.2021
2982 Clouds 10 1014 81 10000 1.86 24 04:37 03.02.2021
2983 Clouds 10 1014 87 10000 1.71 36 03:49 03.02.2021
2984 Clouds 11 1014 93 10000 1.56 38 02:39 03.02.2021
2985 Clouds 11 1014 87 10000 1.19 48 01:24 03.02.2021
2986 Clouds 11 1014 87 10000 0.99 53 00:23 03.02.2021
2987 Clouds 12 1014 87 10000 0.98 56 23:42 02.02.2021
2988 Clouds 12 1014 87 10000 1.03 78 23:23 02.02.2021
2989 Clouds 12 1014 87 10000 1.03 80 22:43 02.02.2021
2990 Clouds 12 1014 87 10000 1.03 80 22:43 02.02.2021
2991 Clouds 12 1014 87 10000 1 72 22:19 02.02.2021
2992 Clouds 12 1014 87 10000 1 72 21:44 02.02.2021
2993 Clouds 12 1013 87 10000 0.81 63 21:23 02.02.2021
2994 Clouds 13 1013 93 10000 0.83 61 20:49 02.02.2021
2995 Clouds 13 1013 87 10000 0.49 107 20:21 02.02.2021
2996 Clouds 13 1013 87 10000 0.48 103 19:51 02.02.2021
2997 Clouds 13 1013 87 10000 0.49 107 19:33 02.02.2021
2998 Clouds 14 1012 88 10000 1.01 149 18:56 02.02.2021
2999 Clouds 14 1012 88 10000 0.98 147 18:37 02.02.2021
3000 Clouds 14 1012 82 10000 1.18 158 18:19 02.02.2021
3001 Clouds 15 1012 77 10000 2.06 180 17:38 02.02.2021
3002 Clouds 15 1012 67 10000 2.06 190 17:19 02.02.2021
3003 Clouds 16 1011 63 10000 2.06 190 16:44 02.02.2021
3004 Clouds 16 1013 71 10000 0.89 167 16:25 02.02.2021
3005 Clouds 17 1011 52 10000 2.57 160 15:53 02.02.2021
3006 Clouds 17 1011 52 10000 2.57 160 15:29 02.02.2021
3007 Clouds 18 1010 52 10000 3.09 160 14:52 02.02.2021
3008 Clouds 17 1011 52 10000 3.09 160 14:33 02.02.2021
3009 Clouds 17 1011 52 10000 3.09 150 13:56 02.02.2021
3010 Clouds 17 1011 52 10000 3.09 150 13:38 02.02.2021
3011 Clouds 17 1011 52 10000 3.09 150 13:19 02.02.2021
3012 Clouds 17 1011 55 10000 2.06 180 12:42 02.02.2021
3013 Clouds 17 1011 63 10000 2.57 150 11:46 02.02.2021
3014 Clouds 16 1011 67 10000 2.57 150 11:25 02.02.2021
3015 Clouds 16 1013 63 10000 0.45 220 10:56 02.02.2021
3016 Clouds 16 1013 68 10000 0.45 207 10:37 02.02.2021
3017 Clouds 15 1011 77 10000 1.78 193 10:19 02.02.2021
3018 Clouds 14 1011 71 10000 1.78 193 09:39 02.02.2021
3019 Clouds 14 1011 71 10000 1.18 198 09:19 02.02.2021
3020 Clouds 14 1012 79 10000 0.45 300 08:33 02.02.2021
3021 Clouds 12 1012 83 10000 0.45 115 07:41 02.02.2021
3022 Clouds 10 1010 87 10000 0.54 199 06:46 02.02.2021
3023 Clouds 11 1010 93 10000 0.77 214 06:27 02.02.2021
3024 Clouds 10 1010 93 10000 0.77 214 05:47 02.02.2021
3025 Clouds 11 1009 93 10000 1.5 237 02:46 02.02.2021
3026 Clouds 11 1009 93 10000 1.97 230 02:23 02.02.2021
3027 Clouds 12 1008 93 10000 1.97 225 00:37 02.02.2021
3028 Clouds 12 1008 87 10000 1.99 224 23:45 01.02.2021
3029 Clear 12 1010 83 10000 0.45 188 22:52 01.02.2021
3030 Clear 12 1009 83 10000 2.26 214 22:34 01.02.2021
3031 Clear 13 1009 85 10000 0.45 221 21:55 01.02.2021
3032 Clear 13 1009 87 10000 2.3 218 21:37 01.02.2021
3033 Clear 13 1009 88 10000 0.45 167 21:18 01.02.2021
3034 Clouds 13 1007 93 10000 2.64 223 20:40 01.02.2021
3035 Clouds 13 1007 93 10000 3.18 224 20:22 01.02.2021
3036 Clouds 13 1006 93 10000 3.18 224 19:41 01.02.2021
3037 Clouds 13 1006 94 10000 3.96 210 19:21 01.02.2021
3038 Clouds 13 1006 94 10000 3.96 210 19:21 01.02.2021
3039 Clouds 13 1006 94 10000 2.06 60 18:49 01.02.2021
3040 Clouds 14 1006 88 10000 1.03 20 18:29 01.02.2021
3041 Clouds 14 1005 82 10000 4.03 210 17:48 01.02.2021
3042 Clouds 14 1005 77 10000 5.34 198 17:26 01.02.2021
3043 Clouds 14 1005 72 10000 1.54 0 16:58 01.02.2021
3044 Clouds 15 1005 77 10000 7.75 197 16:32 01.02.2021
3045 Clouds 15 1004 72 10000 7.7 197 15:48 01.02.2021
3046 Rain 15 1005 82 10000 1.54 0 15:20 01.02.2021
3047 Clouds 15 1004 88 10000 8.83 198 14:52 01.02.2021
3048 Rain 15 1004 88 10000 8.83 198 14:34 01.02.2021
3049 Rain 15 1005 82 10000 1.54 0 13:52 01.02.2021
3050 Rain 15 1005 88 10000 8.27 183 13:28 01.02.2021
3051 Rain 14 1005 88 9000 7.85 180 12:58 01.02.2021
3052 Rain 14 1005 88 9000 8.27 183 12:40 01.02.2021
3053 Rain 14 1005 88 9000 8.27 183 12:40 01.02.2021
3054 Rain 14 1005 94 9000 2.06 40 12:40 01.02.2021
3055 Rain 14 1005 94 9000 2.06 40 12:21 01.02.2021
3056 Rain 15 1006 94 8000 2.06 300 11:39 01.02.2021
3057 Rain 15 1006 94 9000 8.05 184 11:19 01.02.2021
3058 Rain 15 1005 94 9000 2.06 60 10:44 01.02.2021
3059 Rain 15 1005 94 9000 2.06 60 10:19 01.02.2021
3060 Rain 15 1005 94 9000 9.71 192 09:43 01.02.2021
3061 Rain 15 1005 94 10000 6.71 178 09:19 01.02.2021
3062 Drizzle 16 1005 88 10000 6.71 178 08:41 01.02.2021
3063 Clouds 15 1005 88 10000 4.52 177 07:37 01.02.2021
3064 Clouds 15 1003 82 10000 3.6 180 05:59 01.02.2021
3065 Clouds 16 1003 77 10000 4.12 190 02:49 01.02.2021
3066 Clouds 16 1004 82 10000 2.06 150 00:40 01.02.2021
3067 Clouds 15 1004 88 10000 2.57 140 23:40 31.01.2021
3068 Clouds 15 1005 82 10000 4.63 150 22:43 31.01.2021
3069 Clouds 15 1005 77 10000 4.63 160 22:23 31.01.2021
3070 Clouds 15 1005 77 10000 3.6 160 21:50 31.01.2021
3071 Clouds 15 1005 77 10000 6.69 160 21:23 31.01.2021
3072 Clouds 15 1005 77 10000 9.26 150 20:49 31.01.2021
3073 Clouds 15 1005 77 10000 10.29 160 20:21 31.01.2021
3074 Clouds 15 1005 77 10000 10.29 160 19:55 31.01.2021
3075 Clouds 15 1005 77 10000 10.29 160 19:37 31.01.2021
3076 Clouds 15 1005 82 10000 8.23 150 19:18 31.01.2021
3077 Clouds 15 1005 88 10000 7.2 150 18:40 31.01.2021
3078 Clouds 15 1005 88 10000 7.2 150 18:21 31.01.2021
3079 Clouds 15 1005 88 10000 7.2 150 17:46 31.01.2021
3080 Clouds 15 1005 82 10000 5.66 140 17:23 31.01.2021
3081 Clouds 15 1005 82 10000 5.14 130 16:51 31.01.2021
3082 Clouds 15 1005 82 10000 5.14 130 16:51 31.01.2021
3083 Clouds 15 1005 82 10000 5.14 130 16:33 31.01.2021
3084 Clouds 16 1006 82 10000 4.63 130 15:52 31.01.2021
3085 Clouds 16 1006 82 10000 4.63 130 15:34 31.01.2021
3086 Clouds 16 1006 72 10000 3.09 130 14:44 31.01.2021
3087 Clouds 16 1006 59 10000 4.63 150 14:24 31.01.2021
3088 Clouds 17 1006 63 10000 5.66 150 13:53 31.01.2021
3089 Clouds 17 1006 63 10000 5.66 150 13:35 31.01.2021
3090 Clouds 17 1006 59 10000 3.6 160 12:49 31.01.2021
3091 Clouds 17 1007 59 10000 2.06 150 12:23 31.01.2021
3092 Clouds 17 1007 63 10000 2.91 197 11:47 31.01.2021
3093 Clouds 16 1007 63 10000 2.51 181 11:29 31.01.2021
3094 Clouds 16 1008 67 10000 2.51 181 10:59 31.01.2021
3095 Clouds 16 1008 67 10000 2.51 181 10:35 31.01.2021
3096 Clouds 16 1007 63 10000 2.31 177 09:55 31.01.2021
3097 Clouds 15 1008 67 10000 1.69 173 09:32 31.01.2021
3098 Clouds 14 1008 76 10000 1.71 173 08:34 31.01.2021
3099 Clouds 10 1008 93 10000 1.3 140 07:20 31.01.2021
3100 Clouds 8 1008 93 10000 1.03 0 05:42 31.01.2021
3101 Clouds 10 1008 87 10000 0.62 231 00:52 31.01.2021
3102 Clouds 10 1008 81 10000 2.06 330 00:26 31.01.2021
3103 Clouds 10 1007 81 10000 2.06 360 23:34 30.01.2021
3104 Clouds 11 1008 76 10000 1.54 0 22:57 30.01.2021
3105 Clouds 11 1008 76 10000 1.54 0 22:31 30.01.2021
3106 Clouds 10 1008 71 10000 1.54 0 21:43 30.01.2021
3107 Clouds 11 1007 71 10000 1.54 0 21:23 30.01.2021
3108 Clouds 11 1007 66 10000 2.06 300 20:50 30.01.2021
3109 Clouds 12 1007 66 10000 2.06 300 20:31 30.01.2021
3110 Clouds 12 1006 66 10000 1.59 327 19:55 30.01.2021
3111 Clouds 13 1006 66 10000 1.7 326 19:36 30.01.2021
3112 Clouds 12 1006 66 10000 2.84 326 19:18 30.01.2021
3113 Clouds 14 1005 55 10000 1.54 300 18:39 30.01.2021
3114 Clouds 14 1004 62 10000 4.13 314 18:19 30.01.2021
3115 Clouds 15 1003 48 10000 4.12 280 17:24 30.01.2021
3116 Clouds 16 1002 48 10000 5.14 290 16:57 30.01.2021
3117 Clouds 17 1002 48 10000 5.14 290 16:37 30.01.2021
3118 Clouds 17 1001 45 10000 4.12 270 16:19 30.01.2021
3119 Clear 17 1002 54 10000 4.92 240 15:42 30.01.2021
3120 Clear 17 1002 54 10000 4.47 297 15:22 30.01.2021
3121 Clouds 17 1000 52 10000 4.12 300 14:52 30.01.2021
3122 Clouds 16 1000 52 10000 6.17 300 14:24 30.01.2021
3123 Clouds 16 999 37 10000 7.2 280 13:42 30.01.2021
3124 Clouds 18 999 39 10000 6.69 270 13:20 30.01.2021
3125 Clouds 18 999 42 10000 7.72 280 12:42 30.01.2021
3126 Clouds 18 1001 59 10000 4.92 260 12:21 30.01.2021
3127 Clouds 17 1001 59 10000 4.02 221 11:40 30.01.2021
3128 Clouds 17 1000 55 10000 5.14 300 10:55 30.01.2021
3129 Clouds 17 1000 63 10000 4.05 268 09:58 30.01.2021
3130 Clouds 16 1000 63 10000 4.07 269 09:39 30.01.2021
3131 Clouds 16 1000 67 10000 3.45 253 09:21 30.01.2021
3132 Clouds 15 1000 72 10000 3.45 253 08:41 30.01.2021
3133 Clouds 13 1001 82 10000 2.35 235 07:40 30.01.2021
3134 Clouds 11 1004 86 10000 2.09 214 06:21 30.01.2021
3135 Clouds 10 1002 87 10000 1.35 251 03:43 30.01.2021
3136 Clouds 10 1005 87 10000 2.07 217 02:40 30.01.2021
3137 Clouds 11 1005 87 10000 1.1 217 02:21 30.01.2021
3138 Clouds 10 1007 87 10000 1.58 193 00:53 30.01.2021
3139 Clouds 10 1007 87 10000 2.06 233 00:21 30.01.2021
3140 Clouds 11 1007 87 10000 2.06 234 23:50 29.01.2021
3141 Clouds 10 1007 87 10000 1.6 230 23:27 29.01.2021
3142 Clouds 11 1008 87 10000 1.6 230 22:46 29.01.2021
3143 Clouds 10 1008 87 10000 0.94 237 22:28 29.01.2021
3144 Clouds 10 1009 81 10000 0.94 237 21:56 29.01.2021
3145 Clouds 10 1009 76 10000 1.16 256 21:26 29.01.2021
3146 Clouds 11 1010 76 10000 1.16 256 20:43 29.01.2021
3147 Clouds 11 1009 76 10000 1.55 254 20:23 29.01.2021
3148 Clouds 11 1009 71 10000 1.55 254 19:40 29.01.2021
3149 Clouds 11 1009 71 10000 1.37 236 19:21 29.01.2021
3150 Clouds 11 1009 71 10000 1.19 235 18:53 29.01.2021
3151 Clouds 12 1009 62 10000 0.64 214 17:50 29.01.2021
3152 Clouds 12 1009 62 10000 1.33 209 17:23 29.01.2021
3153 Clouds 12 1010 58 10000 1.33 209 16:53 29.01.2021
3154 Clouds 13 1010 58 10000 2.26 206 16:24 29.01.2021
3155 Clouds 13 1010 51 10000 3.09 170 15:55 29.01.2021
3156 Clouds 14 1010 51 10000 3.09 170 15:37 29.01.2021
3157 Clouds 13 1010 51 10000 3.6 160 15:19 29.01.2021
3158 Clouds 14 1010 47 10000 3.09 190 14:23 29.01.2021
3159 Clouds 14 1011 47 10000 3.09 190 13:50 29.01.2021
3160 Clouds 14 1011 47 10000 3.09 190 13:31 29.01.2021
3161 Clouds 13 1012 58 10000 4.12 180 12:43 29.01.2021
3162 Clouds 13 1012 58 10000 4.12 190 12:19 29.01.2021
3163 Clouds 13 1012 54 10000 3.6 190 11:44 29.01.2021
3164 Clouds 12 1013 54 10000 2.57 180 11:18 29.01.2021
3165 Clouds 12 1013 50 10000 2.57 180 10:46 29.01.2021
3166 Clouds 11 1013 56 10000 2.68 168 10:23 29.01.2021
3167 Clouds 10 1013 57 10000 2.86 241 09:39 29.01.2021
3168 Clouds 9 1013 61 10000 3.1 247 08:50 29.01.2021
3169 Clouds 8 1014 66 10000 1.99 261 08:27 29.01.2021
3170 Clouds 7 1014 70 10000 1.99 261 07:48 29.01.2021
3171 Clouds 6 1014 70 10000 1.99 261 07:30 29.01.2021
3172 Clouds 5 1013 75 10000 1.54 330 06:49 29.01.2021
3173 Clear 4 1014 75 10000 2.38 252 04:53 29.01.2021
3174 Clear 4 1014 69 10000 2.73 247 02:37 29.01.2021
3175 Clear 3 1015 69 10000 2.06 350 00:38 29.01.2021
3176 Clear 3 1015 69 10000 1.54 330 00:19 29.01.2021
3177 Clear 4 1015 69 10000 2.06 350 23:41 28.01.2021
3178 Clear 4 1015 64 10000 0.75 261 23:23 28.01.2021
3179 Clear 4 1015 64 10000 0.75 262 22:43 28.01.2021
3180 Clear 4 1015 64 10000 0.53 336 22:24 28.01.2021
3181 Clear 4 1015 60 10000 0.53 336 21:49 28.01.2021
3182 Clear 4 1015 60 10000 0.53 336 21:31 28.01.2021
3183 Clear 4 1015 60 10000 0.96 17 20:54 28.01.2021
3184 Clear 4 1015 60 10000 0.96 17 20:36 28.01.2021
3185 Clear 4 1015 56 10000 1.63 28 20:18 28.01.2021
3186 Clear 5 1014 52 10000 1.64 28 19:37 28.01.2021
3187 Clear 5 1014 52 10000 1.66 29 19:18 28.01.2021
3188 Clear 5 1014 45 10000 2.06 290 18:42 28.01.2021
3189 Clear 5 1014 52 10000 1.03 0 18:20 28.01.2021
3190 Clouds 6 1014 45 10000 1.03 0 17:44 28.01.2021
3191 Clouds 6 1014 33 10000 2.57 330 17:26 28.01.2021
3192 Clouds 7 1014 29 10000 3.09 330 16:44 28.01.2021
3193 Clouds 8 1013 27 10000 4.12 330 16:22 28.01.2021
3194 Clouds 8 1013 27 10000 5.14 330 15:41 28.01.2021
3195 Clouds 8 1013 27 10000 5.14 310 14:59 28.01.2021
3196 Clouds 8 1013 27 10000 5.14 310 14:41 28.01.2021
3197 Clouds 8 1013 25 10000 5.14 300 14:23 28.01.2021
3198 Clouds 8 1013 27 10000 5.14 300 13:45 28.01.2021
3199 Clouds 8 1013 29 10000 5.14 310 12:54 28.01.2021
3200 Clouds 8 1013 31 10000 5.14 340 12:35 28.01.2021
3201 Clouds 8 1014 27 10000 4.12 320 11:59 28.01.2021
3202 Clouds 7 1015 38 10000 4.02 313 11:40 28.01.2021
3203 Clouds 7 1014 31 10000 4.12 320 11:20 28.01.2021
3204 Clouds 7 1014 39 10000 3.6 350 10:52 28.01.2021
3205 Clouds 7 1014 39 10000 3.6 350 10:33 28.01.2021
3206 Clouds 7 1013 42 10000 5.14 340 09:49 28.01.2021
3207 Clouds 6 1013 42 10000 3.09 330 09:24 28.01.2021
3208 Clouds 6 1014 47 10000 1.79 5 08:55 28.01.2021
3209 Clouds 5 1014 49 10000 2.24 343 08:19 28.01.2021
3210 Clouds 5 1014 49 10000 1.34 5 07:44 28.01.2021
3211 Clouds 3 1012 64 10000 2.06 300 06:50 28.01.2021
3212 Clouds 3 1011 55 10000 2.03 27 06:25 28.01.2021
3213 Clouds 3 1012 55 10000 1.6 360 04:27 28.01.2021
3214 Clouds 5 1012 45 10000 1.68 352 01:38 28.01.2021
3215 Clouds 5 1011 42 10000 1.08 331 23:48 27.01.2021
3216 Clouds 5 1011 39 10000 1.18 322 23:24 27.01.2021
3217 Clouds 5 1011 39 10000 2.06 270 22:42 27.01.2021
3218 Clouds 5 1011 39 10000 2.06 290 22:22 27.01.2021
3219 Clouds 5 1010 39 10000 1.47 310 21:43 27.01.2021
3220 Clouds 5 1010 52 10000 1.79 328 21:24 27.01.2021
3221 Clouds 5 1010 52 10000 1.79 328 20:52 27.01.2021
3222 Clouds 5 1010 56 10000 2.57 350 20:30 27.01.2021
3223 Clouds 5 1010 52 10000 2.67 350 19:50 27.01.2021
3224 Clouds 5 1009 52 10000 2.06 260 19:26 27.01.2021
3225 Clouds 6 1009 45 10000 3.09 300 18:57 27.01.2021
3226 Clouds 6 1009 45 10000 3.09 300 18:38 27.01.2021
3227 Clouds 6 1009 42 10000 4.12 320 18:20 27.01.2021
3228 Clouds 6 1008 45 10000 4.12 320 17:39 27.01.2021
3229 Clouds 6 1008 45 10000 4.12 320 17:18 27.01.2021
3230 Clouds 6 1008 42 10000 6.17 330 16:43 27.01.2021
3231 Clouds 6 1008 42 10000 6.17 330 16:24 27.01.2021
3232 Clouds 7 1008 36 10000 6.17 320 15:49 27.01.2021
3233 Clouds 7 1007 39 10000 6.17 310 15:29 27.01.2021
3234 Clouds 7 1007 42 10000 5.14 310 14:40 27.01.2021
3235 Clouds 7 1007 42 10000 5.14 310 14:20 27.01.2021
3236 Clouds 7 1006 53 10000 6.17 300 13:41 27.01.2021
3237 Clouds 7 1006 57 10000 5.14 310 12:46 27.01.2021
3238 Clouds 7 1006 57 10000 5.14 310 12:26 27.01.2021
3239 Clouds 7 1006 52 10000 5.14 310 11:52 27.01.2021
3240 Clouds 6 1006 52 10000 3.09 310 11:26 27.01.2021
3241 Clouds 6 1006 52 10000 5.14 300 10:52 27.01.2021
3242 Clouds 6 1006 52 10000 5.14 300 10:26 27.01.2021
3243 Clouds 6 1005 52 10000 4.12 300 09:59 27.01.2021
3244 Clouds 6 1005 52 10000 4.12 300 09:33 27.01.2021
3245 Clouds 6 1004 61 10000 2.57 300 08:48 27.01.2021
3246 Clouds 6 1003 75 10000 2.57 300 07:58 27.01.2021
3247 Clouds 6 1003 75 10000 2.57 300 07:39 27.01.2021
3248 Clouds 5 1003 70 10000 3.6 310 06:48 27.01.2021
3249 Clouds 6 1002 75 10000 3.09 320 05:57 27.01.2021
3250 Clouds 6 1001 76 10000 6.17 340 05:35 27.01.2021
3251 Clouds 9 999 71 10000 4.63 340 02:46 27.01.2021
3252 Clouds 9 999 71 10000 4.63 340 02:21 27.01.2021
3253 Clouds 10 999 66 10000 4.63 320 01:46 27.01.2021
3254 Clouds 10 999 71 10000 4.63 300 00:30 27.01.2021
3255 Clouds 10 999 82 10000 2.06 330 23:44 26.01.2021
3256 Clouds 10 1000 93 10000 7.91 242 23:22 26.01.2021
3257 Clouds 10 999 93 10000 7.93 242 22:44 26.01.2021
3258 Rain 10 999 93 9000 2.06 240 22:20 26.01.2021
3259 Rain 10 999 87 8000 9.41 192 21:53 26.01.2021
3260 Rain 11 999 82 8000 2.06 350 21:26 26.01.2021
3261 Rain 11 1000 76 9000 3.09 280 20:56 26.01.2021
3262 Rain 11 1000 76 9000 3.09 280 20:36 26.01.2021
3263 Rain 11 1000 76 9000 3.09 280 20:36 26.01.2021
3264 Rain 12 1000 93 9000 3.09 290 20:18 26.01.2021
3265 Rain 12 997 94 8000 2.06 280 19:42 26.01.2021
3266 Clouds 14 999 82 8000 5.14 200 19:19 26.01.2021
3267 Rain 15 999 72 10000 9.26 160 18:43 26.01.2021
3268 Clouds 15 1000 72 10000 7.72 170 18:23 26.01.2021
3269 Clouds 15 1000 72 10000 7.72 170 18:23 26.01.2021
3270 Rain 15 1000 67 10000 7.72 170 17:48 26.01.2021
3271 Rain 15 1000 67 10000 7.2 170 17:25 26.01.2021
3272 Rain 15 1001 67 10000 6.17 170 16:53 26.01.2021
3273 Clouds 15 1001 67 10000 5.66 170 16:22 26.01.2021
3274 Clouds 15 1001 72 10000 6.17 170 15:58 26.01.2021
3275 Clouds 15 1001 75 10000 7.6 161 15:38 26.01.2021
3276 Clouds 15 1003 76 10000 4.02 186 15:18 26.01.2021
3277 Clouds 15 1003 76 10000 4.02 186 15:18 26.01.2021
3278 Clouds 15 1004 77 10000 3.13 178 14:34 26.01.2021
3279 Clouds 15 1004 78 10000 2.24 31 13:59 26.01.2021
3280 Clouds 15 1005 77 10000 2.68 169 13:30 26.01.2021
3281 Clouds 15 1004 72 10000 6.17 170 12:56 26.01.2021
3282 Clouds 15 1004 72 10000 6.17 170 12:37 26.01.2021
3283 Clouds 15 1004 67 10000 6.17 170 12:19 26.01.2021
3284 Clouds 15 1005 67 10000 7.72 170 11:43 26.01.2021
3285 Clouds 15 1006 63 10000 3.09 170 11:18 26.01.2021
3286 Clouds 15 1006 67 10000 3.09 130 10:34 26.01.2021
3287 Clouds 15 1007 63 10000 4.12 150 09:57 26.01.2021
3288 Clouds 15 1007 63 10000 4.12 150 09:36 26.01.2021
3289 Clouds 15 1007 63 10000 5.14 170 09:18 26.01.2021
3290 Clouds 14 1007 76 10000 10.14 200 08:42 26.01.2021
3291 Clouds 13 1009 68 10000 0.89 176 07:54 26.01.2021
3292 Clouds 11 1009 69 10000 0.89 202 06:58 26.01.2021
3293 Clouds 11 1007 81 10000 1.54 310 05:51 26.01.2021
3294 Clouds 11 1007 81 10000 1.54 310 05:32 26.01.2021
3295 Clouds 10 1009 81 10000 4.81 217 03:32 26.01.2021
3296 Clouds 11 1010 81 10000 1.54 340 00:59 26.01.2021
3297 Clouds 11 1010 76 10000 1.54 350 00:24 26.01.2021
3298 Clouds 12 1011 65 10000 4.17 233 23:31 25.01.2021
3299 Clouds 12 1010 71 10000 4.55 238 22:47 25.01.2021
3300 Clouds 12 1010 66 10000 2.06 10 22:29 25.01.2021
3301 Clouds 12 1010 66 10000 2.06 10 21:45 25.01.2021
3302 Clouds 12 1010 62 10000 2.57 350 21:18 25.01.2021
3303 Clouds 13 1010 62 10000 4.03 239 20:41 25.01.2021
3304 Clouds 13 1010 62 10000 4.28 250 20:23 25.01.2021
3305 Clouds 13 1010 54 10000 4.28 250 19:47 25.01.2021
3306 Clouds 13 1010 54 10000 4.28 250 19:47 25.01.2021
3307 Clouds 13 1010 54 10000 4.28 250 19:47 25.01.2021
3308 Clouds 13 1010 58 10000 4.31 246 19:23 25.01.2021
3309 Clouds 14 1010 51 10000 4.36 247 18:45 25.01.2021
3310 Clouds 14 1009 51 10000 4.46 239 18:24 25.01.2021
3311 Clouds 14 1009 47 10000 1.54 0 17:49 25.01.2021
3312 Clouds 14 1009 51 10000 4.45 242 17:25 25.01.2021
3313 Clouds 15 1008 44 10000 2.57 250 16:49 25.01.2021
3314 Clouds 16 1008 55 10000 2.57 150 16:26 25.01.2021
3315 Clouds 16 1008 48 10000 4.12 270 15:57 25.01.2021
3316 Clouds 16 1008 48 10000 4.12 270 15:39 25.01.2021
3317 Clouds 16 1008 48 10000 4.12 260 15:19 25.01.2021
3318 Clouds 17 1007 45 10000 3.6 270 14:39 25.01.2021
3319 Clouds 17 1007 48 10000 3.09 260 14:18 25.01.2021
3320 Clear 17 1009 57 10000 1.79 350 13:44 25.01.2021
3321 Clouds 16 1007 51 10000 2.06 260 13:21 25.01.2021
3322 Clouds 16 1007 55 10000 3.09 260 12:44 25.01.2021
3323 Clouds 17 1007 52 10000 3.6 160 12:19 25.01.2021
3324 Clouds 16 1007 63 10000 2.06 160 11:31 25.01.2021
3325 Clouds 16 1007 63 10000 2.06 90 10:53 25.01.2021
3326 Clouds 15 1007 67 10000 6.04 254 10:22 25.01.2021
3327 Clouds 15 1007 63 10000 6.06 254 09:54 25.01.2021
3328 Clouds 15 1007 63 10000 6.06 254 09:31 25.01.2021
3329 Clouds 15 1006 77 10000 8.81 236 08:48 25.01.2021
3330 Clouds 14 1006 76 10000 8.97 224 08:23 25.01.2021
3331 Clouds 13 1005 76 10000 9.14 223 07:29 25.01.2021
3332 Clouds 13 1005 82 10000 9.95 218 06:39 25.01.2021
3333 Clouds 14 1006 51 10000 4.12 200 02:59 25.01.2021
3334 Rain 14 1007 63 10000 6.17 180 00:48 25.01.2021
3335 Rain 14 1008 63 10000 5.14 180 23:40 24.01.2021
3336 Rain 14 1008 63 10000 5.14 180 23:18 24.01.2021
3337 Rain 14 1008 63 10000 5.66 170 22:41 24.01.2021
3338 Rain 14 1008 63 10000 4.12 170 22:18 24.01.2021
3339 Clouds 14 1008 58 10000 3.09 160 21:44 24.01.2021
3340 Clouds 14 1009 67 10000 3.09 160 21:21 24.01.2021
3341 Clouds 14 1009 58 10000 2.06 200 20:43 24.01.2021
3342 Clouds 14 1009 58 10000 2.06 200 20:20 24.01.2021
3343 Clouds 14 1009 62 10000 1.03 0 19:50 24.01.2021
3344 Clouds 14 1009 62 10000 1.03 0 19:26 24.01.2021
3345 Clouds 14 1009 58 10000 2.57 190 18:57 24.01.2021
3346 Clouds 14 1009 58 10000 2.57 190 18:57 24.01.2021
3347 Clouds 14 1009 58 10000 2.57 190 18:38 24.01.2021
3348 Clouds 14 1009 58 10000 3.6 190 18:20 24.01.2021
3349 Clouds 14 1009 67 10000 2.57 150 17:49 24.01.2021
3350 Clouds 13 1009 62 10000 3.09 150 17:25 24.01.2021
3351 Clouds 14 1009 58 10000 2.06 140 16:43 24.01.2021
3352 Clouds 14 1010 58 10000 2.06 170 16:25 24.01.2021
3353 Clouds 14 1010 63 10000 5.25 193 15:58 24.01.2021
3354 Clouds 14 1010 63 10000 5.25 193 15:40 24.01.2021
3355 Clouds 15 1010 63 10000 4.46 209 15:18 24.01.2021
3356 Clouds 15 1010 63 10000 4.46 209 14:38 24.01.2021
3357 Clouds 15 1010 63 10000 1.54 0 13:45 24.01.2021
3358 Clouds 15 1011 58 10000 3.09 160 13:24 24.01.2021
3359 Clouds 15 1011 63 10000 2.06 170 12:47 24.01.2021
3360 Clouds 15 1011 63 10000 2.06 140 12:20 24.01.2021
3361 Clouds 15 1012 63 10000 2.57 180 11:50 24.01.2021
3362 Clouds 15 1012 67 10000 2.57 130 11:24 24.01.2021
3363 Clouds 14 1012 72 10000 2.06 160 10:46 24.01.2021
3364 Clouds 14 1012 72 10000 2.06 160 10:46 24.01.2021
3365 Clouds 13 1012 71 10000 2.06 80 10:19 24.01.2021
3366 Clouds 13 1012 76 10000 3.18 237 09:23 24.01.2021
3367 Clouds 12 1012 76 10000 1.54 0 08:58 24.01.2021
3368 Clouds 11 1012 87 10000 1.54 0 08:23 24.01.2021
3369 Clouds 9 1010 87 10000 2.06 240 02:52 24.01.2021
3370 Clouds 10 1010 87 10000 2.06 240 02:18 24.01.2021
3371 Clouds 11 1011 87 8000 2.06 260 00:27 24.01.2021
3372 Rain 13 1010 82 10000 14.32 200 23:53 23.01.2021
3373 Clouds 13 1010 76 10000 13.39 198 23:27 23.01.2021
3374 Drizzle 13 1011 77 10000 4.12 190 22:55 23.01.2021
3375 Drizzle 13 1011 77 10000 3.09 180 22:37 23.01.2021
3376 Clouds 13 1011 72 10000 5.14 170 21:53 23.01.2021
3377 Clouds 13 1011 72 10000 5.14 170 21:22 23.01.2021
3378 Clouds 13 1012 67 10000 5.14 170 20:48 23.01.2021
3379 Clouds 13 1012 67 10000 5.14 170 20:28 23.01.2021
3380 Clouds 13 1012 67 10000 3.09 160 19:47 23.01.2021
3381 Clouds 13 1012 67 10000 3.09 160 19:25 23.01.2021
3382 Clouds 13 1012 67 10000 3.09 160 18:51 23.01.2021
3383 Clouds 13 1012 67 10000 3.09 160 18:28 23.01.2021
3384 Clouds 13 1012 67 10000 3.6 160 17:56 23.01.2021
3385 Clouds 13 1012 62 10000 3.6 160 17:28 23.01.2021
3386 Rain 14 1012 62 10000 5.14 150 16:51 23.01.2021
3387 Clouds 14 1012 62 10000 5.14 150 16:32 23.01.2021
3388 Clouds 14 1013 58 10000 6.17 160 15:49 23.01.2021
3389 Clouds 14 1014 58 10000 5.14 170 15:27 23.01.2021
3390 Clouds 14 1014 58 10000 5.14 170 14:38 23.01.2021
3391 Clouds 14 1014 58 10000 5.14 170 14:19 23.01.2021
3392 Clouds 14 1014 67 10000 3.6 160 13:40 23.01.2021
3393 Clouds 14 1015 67 10000 3.6 160 13:22 23.01.2021
3394 Clouds 14 1015 67 10000 3.09 150 12:42 23.01.2021
3395 Clouds 14 1015 67 10000 3.09 150 12:22 23.01.2021
3396 Clouds 14 1016 67 10000 3.09 160 11:35 23.01.2021
3397 Clouds 14 1017 67 10000 3.09 160 10:54 23.01.2021
3398 Clouds 14 1017 67 10000 3.09 160 10:23 23.01.2021
3399 Clouds 14 1017 76 10000 8.24 198 09:51 23.01.2021
3400 Clouds 13 1017 76 10000 6.97 196 09:28 23.01.2021
3401 Clouds 13 1019 71 10000 1.34 175 08:42 23.01.2021
3402 Clouds 12 1019 72 10000 0.89 184 07:48 23.01.2021
3403 Clouds 12 1019 70 10000 2.24 186 06:48 23.01.2021
3404 Clouds 11 1019 93 10000 3.97 196 01:44 23.01.2021
3405 Clouds 11 1019 87 10000 4.03 186 00:23 23.01.2021
3406 Clouds 12 1019 87 10000 3.97 186 23:36 22.01.2021
3407 Clouds 13 1020 82 10000 3.3 179 22:42 22.01.2021
3408 Clouds 13 1020 82 10000 2.93 194 21:59 22.01.2021
3409 Clouds 13 1020 82 10000 2.93 194 21:38 22.01.2021
3410 Clouds 13 1020 82 10000 3.23 199 21:20 22.01.2021
3411 Clouds 13 1020 82 10000 3.23 199 20:46 22.01.2021
3412 Clouds 13 1020 77 10000 3.28 205 20:25 22.01.2021
3413 Clouds 13 1020 77 10000 2.06 180 19:37 22.01.2021
3414 Clouds 13 1020 77 10000 2.06 180 19:18 22.01.2021
3415 Clouds 14 1021 72 10000 2.06 190 18:44 22.01.2021
3416 Clouds 14 1021 72 10000 2.06 180 18:25 22.01.2021
3417 Clouds 14 1020 72 10000 2.06 180 17:46 22.01.2021
3418 Clouds 14 1020 77 10000 3.97 200 17:28 22.01.2021
3419 Clouds 14 1020 77 10000 3.97 200 16:54 22.01.2021
3420 Clouds 14 1020 77 10000 2.57 170 16:27 22.01.2021
3421 Clouds 15 1020 72 10000 3.09 170 15:45 22.01.2021
3422 Clouds 15 1020 67 10000 3.6 160 15:20 22.01.2021
3423 Clouds 15 1021 67 10000 3.6 160 14:32 22.01.2021
3424 Clouds 15 1021 63 10000 2.06 150 13:53 22.01.2021
3425 Clouds 15 1021 63 10000 1.54 0 13:35 22.01.2021
3426 Clouds 15 1022 67 10000 1.54 0 12:56 22.01.2021
3427 Clouds 15 1022 63 10000 1.54 0 12:27 22.01.2021
3428 Clouds 15 1023 63 10000 1.54 0 11:49 22.01.2021
3429 Clouds 15 1023 63 10000 1.54 0 11:30 22.01.2021
3430 Clouds 14 1024 63 10000 2.56 215 10:46 22.01.2021
3431 Clouds 14 1024 71 10000 2.1 213 10:23 22.01.2021
3432 Clouds 13 1025 74 10000 2.1 213 09:43 22.01.2021
3433 Clouds 12 1025 78 10000 1.03 206 08:57 22.01.2021
3434 Clouds 11 1024 81 10000 1.54 0 08:32 22.01.2021
3435 Clouds 9 1024 87 10000 1.54 0 07:45 22.01.2021
3436 Clouds 8 1024 87 10000 0.66 242 04:59 22.01.2021
3437 Clouds 8 1025 87 10000 2.06 340 01:20 22.01.2021
3438 Clouds 8 1025 87 10000 1.11 266 00:27 22.01.2021
3439 Clouds 8 1025 81 10000 1.11 266 23:43 21.01.2021
3440 Clouds 9 1025 87 10000 1.54 0 23:20 21.01.2021
3441 Clouds 9 1025 87 10000 2.06 330 22:47 21.01.2021
3442 Clouds 9 1026 87 10000 1.19 257 21:58 21.01.2021
3443 Clouds 9 1026 87 10000 1.19 257 21:38 21.01.2021
3444 Clouds 9 1026 81 10000 1.17 261 21:18 21.01.2021
3445 Clouds 10 1026 81 10000 1.15 261 20:43 21.01.2021
3446 Clouds 9 1026 76 10000 1.08 259 20:21 21.01.2021
3447 Clouds 9 1026 81 10000 1.06 259 19:47 21.01.2021
3448 Clouds 9 1026 81 10000 0.72 254 19:25 21.01.2021
3449 Clouds 10 1026 81 10000 2.06 310 18:43 21.01.2021
3450 Clouds 10 1025 76 10000 2.06 290 18:22 21.01.2021
3451 Clouds 11 1025 76 10000 0.68 215 17:57 21.01.2021
3452 Clouds 12 1025 71 10000 1.04 200 17:22 21.01.2021
3453 Clouds 12 1025 71 10000 1.04 200 16:58 21.01.2021
3454 Clouds 12 1025 71 10000 1.04 200 16:38 21.01.2021
3455 Clouds 13 1025 67 10000 2.06 160 16:20 21.01.2021
3456 Clear 13 1027 64 10000 1.34 209 15:47 21.01.2021
3457 Clouds 14 1025 55 10000 3.09 180 15:26 21.01.2021
3458 Clouds 14 1025 55 10000 3.6 180 14:46 21.01.2021
3459 Clouds 14 1025 51 10000 3.09 170 14:24 21.01.2021
3460 Clear 14 1025 55 10000 3.6 160 13:43 21.01.2021
3461 Clear 14 1025 55 10000 3.6 160 13:23 21.01.2021
3462 Clear 14 1025 55 10000 3.6 160 13:23 21.01.2021
3463 Clear 14 1025 55 10000 3.6 160 13:23 21.01.2021
3464 Clear 14 1026 51 10000 2.57 170 12:44 21.01.2021
3465 Clear 14 1026 58 10000 2.57 180 12:24 21.01.2021
3466 Clear 14 1027 54 10000 2.57 180 11:51 21.01.2021
3467 Clear 13 1027 54 10000 2.06 170 11:30 21.01.2021
3468 Clear 13 1027 54 10000 2.06 170 11:30 21.01.2021
3469 Clear 13 1027 54 10000 2.16 228 10:52 21.01.2021
3470 Clear 13 1027 54 10000 2.16 228 10:33 21.01.2021
3471 Clouds 12 1027 62 10000 1.59 232 09:48 21.01.2021
3472 Clouds 12 1027 62 10000 1.59 232 09:30 21.01.2021
3473 Clouds 11 1027 71 10000 0.9 261 08:57 21.01.2021
3474 Clouds 9 1027 81 10000 0.83 300 08:27 21.01.2021
3475 Clouds 7 1027 93 10000 0.82 301 07:45 21.01.2021
3476 Clouds 7 1027 93 10000 0.63 296 07:23 21.01.2021
3477 Clear 7 1026 87 10000 1.07 278 05:59 21.01.2021
3478 Clear 7 1026 81 10000 1.54 320 04:29 21.01.2021
3479 Clear 6 1026 87 10000 1.01 326 01:33 21.01.2021
3480 Clear 6 1026 81 10000 1.09 334 00:40 21.01.2021
3481 Clear 7 1027 87 10000 1.13 314 23:43 20.01.2021
3482 Clear 7 1027 87 10000 1.14 283 23:22 20.01.2021
3483 Clear 7 1027 81 10000 1.13 284 22:49 20.01.2021
3484 Clear 6 1027 87 10000 0.8 274 22:29 20.01.2021
3485 Clear 6 1027 81 10000 0.8 274 21:49 20.01.2021
3486 Clear 7 1026 75 10000 0.6 252 21:22 20.01.2021
3487 Clear 7 1026 81 10000 1.54 0 20:51 20.01.2021
3488 Clear 7 1026 75 10000 0.39 205 20:21 20.01.2021
3489 Clear 7 1026 70 10000 0.39 205 19:47 20.01.2021
3490 Clear 7 1026 70 10000 0.24 204 19:28 20.01.2021
3491 Clear 7 1026 70 10000 1.54 0 18:43 20.01.2021
3492 Clear 7 1026 70 10000 1.54 0 18:21 20.01.2021
3493 Clear 8 1026 61 10000 0.65 170 17:48 20.01.2021
3494 Clear 9 1025 57 10000 1.54 0 17:27 20.01.2021
3495 Clear 10 1025 47 10000 1.54 180 16:49 20.01.2021
3496 Clear 10 1025 43 10000 2.57 190 16:22 20.01.2021
3497 Clear 11 1025 44 10000 2.57 200 15:41 20.01.2021
3498 Clear 11 1027 55 10000 0.89 220 15:19 20.01.2021
3499 Clear 11 1027 55 10000 2.14 219 14:40 20.01.2021
3500 Clear 11 1025 50 10000 4.12 180 14:20 20.01.2021
3501 Clear 11 1025 50 10000 2.06 150 13:37 20.01.2021
3502 Clear 10 1026 50 10000 1.54 0 12:56 20.01.2021
3503 Clear 10 1027 50 10000 2.57 190 12:22 20.01.2021
3504 Clear 10 1027 50 10000 2.57 190 12:22 20.01.2021
3505 Clear 10 1027 46 10000 2.06 200 11:41 20.01.2021
3506 Clear 10 1027 53 10000 1.54 0 11:20 20.01.2021
3507 Clear 9 1028 50 10000 1.54 0 10:49 20.01.2021
3508 Clear 9 1028 49 10000 2.15 226 10:25 20.01.2021
3509 Clear 8 1027 46 10000 2.13 226 09:39 20.01.2021
3510 Clear 7 1027 53 10000 1.22 236 09:19 20.01.2021
3511 Clear 6 1029 58 10000 1.22 236 08:44 20.01.2021
3512 Clear 5 1027 70 10000 0.55 270 08:23 20.01.2021
3513 Clear 4 1028 66 10000 0.55 270 07:53 20.01.2021
3514 Clear 2 1027 74 10000 1.54 320 07:24 20.01.2021
3515 Clouds 2 1026 64 10000 2.06 350 04:44 20.01.2021
3516 Clouds 2 1026 64 10000 1.06 349 02:57 20.01.2021
3517 Clouds 2 1026 56 10000 3.09 350 00:58 20.01.2021
3518 Clouds 2 1026 56 10000 2.57 340 23:57 19.01.2021
3519 Clouds 2 1026 56 10000 2.57 340 23:38 19.01.2021
3520 Clouds 3 1026 56 10000 2.06 320 22:59 19.01.2021
3521 Clouds 3 1026 56 10000 2.06 320 22:40 19.01.2021
3522 Clouds 3 1026 56 10000 2.06 320 22:21 19.01.2021
3523 Clouds 3 1026 60 10000 2.57 350 21:55 19.01.2021
3524 Clouds 3 1026 60 10000 2.57 350 21:36 19.01.2021
3525 Clouds 3 1025 56 10000 2.06 310 20:50 19.01.2021
3526 Clouds 4 1025 52 10000 2.06 320 20:30 19.01.2021
3527 Clouds 4 1025 52 10000 2.06 300 19:56 19.01.2021
3528 Clouds 4 1025 52 10000 2.06 300 19:37 19.01.2021
3529 Clouds 4 1025 52 10000 2.57 320 19:19 19.01.2021
3530 Clouds 4 1025 52 10000 3.09 320 18:39 19.01.2021
3531 Clouds 4 1024 52 10000 4.12 340 18:21 19.01.2021
3532 Clouds 5 1024 52 10000 4.12 340 17:45 19.01.2021
3533 Clouds 5 1024 45 10000 3.09 330 17:23 19.01.2021
3534 Clouds 6 1024 45 10000 3.6 340 16:44 19.01.2021
3535 Clouds 6 1023 45 10000 7.2 350 16:24 19.01.2021
3536 Clouds 6 1023 49 10000 6.69 340 15:54 19.01.2021
3537 Clouds 6 1023 49 10000 6.69 340 15:34 19.01.2021
3538 Clouds 7 1022 49 10000 7.2 350 14:50 19.01.2021
3539 Clouds 7 1022 53 10000 5.14 340 14:29 19.01.2021
3540 Clouds 8 1022 49 10000 6.17 340 13:53 19.01.2021
3541 Clouds 8 1022 42 10000 7.2 350 13:28 19.01.2021
3542 Clouds 8 1022 37 10000 6.17 350 12:58 19.01.2021
3543 Clouds 8 1022 46 10000 6.69 350 12:35 19.01.2021
3544 Clouds 8 1023 53 10000 5.14 350 11:59 19.01.2021
3545 Clouds 8 1023 53 10000 5.14 350 11:40 19.01.2021
3546 Clouds 7 1023 53 10000 4.63 340 11:21 19.01.2021
3547 Clouds 7 1023 56 10000 6.17 340 10:47 19.01.2021
3548 Clouds 7 1023 57 10000 5.66 320 10:27 19.01.2021
3549 Clouds 7 1023 57 10000 4.12 310 09:51 19.01.2021
3550 Clouds 6 1022 61 10000 2.06 330 09:20 19.01.2021
3551 Clouds 5 1022 65 10000 2.57 300 08:35 19.01.2021
3552 Clouds 3 1022 70 10000 3.09 280 07:57 19.01.2021
3553 Clouds 2 1022 75 10000 2.06 280 07:19 19.01.2021
3554 Clouds 2 1021 70 10000 2.57 300 04:50 19.01.2021
3555 Clouds 3 1022 70 10000 2.06 280 02:24 19.01.2021
3556 Clouds 3 1022 70 10000 2.57 310 00:45 19.01.2021
3557 Clouds 3 1021 70 10000 2.57 290 23:57 18.01.2021
3558 Clouds 3 1021 70 10000 2.26 350 23:28 18.01.2021
3559 Clouds 3 1021 70 10000 3.6 320 22:44 18.01.2021
3560 Clouds 3 1021 70 10000 3.09 310 22:23 18.01.2021
3561 Clouds 3 1021 70 10000 3.6 320 21:48 18.01.2021
3562 Clouds 3 1021 70 10000 3.6 300 21:23 18.01.2021
3563 Clouds 3 1021 70 10000 2.06 290 20:57 18.01.2021
3564 Clouds 3 1021 70 10000 2.06 290 20:57 18.01.2021
3565 Clouds 3 1021 70 10000 2.06 290 20:34 18.01.2021
3566 Clouds 3 1021 70 10000 3.09 320 19:54 18.01.2021
3567 Clouds 3 1021 70 10000 3.09 320 19:36 18.01.2021
3568 Clouds 3 1021 75 10000 2.57 310 18:57 18.01.2021
3569 Clouds 3 1021 75 10000 2.57 310 18:38 18.01.2021
3570 Clouds 3 1021 75 10000 3.09 320 18:19 18.01.2021
3571 Clouds 3 1020 75 10000 3.09 330 17:39 18.01.2021
3572 Clouds 4 1019 75 10000 4.12 320 16:55 18.01.2021
3573 Clouds 4 1019 75 10000 4.12 320 16:55 18.01.2021
3574 Clouds 4 1019 75 10000 4.12 320 16:35 18.01.2021
3575 Clouds 4 1019 70 10000 4.12 330 15:58 18.01.2021
3576 Clouds 4 1019 70 10000 4.12 330 15:40 18.01.2021
3577 Clouds 4 1018 70 10000 4.12 330 15:19 18.01.2021
3578 Clouds 5 1018 70 10000 4.63 340 14:42 18.01.2021
3579 Clouds 4 1018 70 10000 4.63 330 14:24 18.01.2021
3580 Clouds 4 1018 70 10000 4.12 350 13:45 18.01.2021
3581 Clouds 4 1017 78 6412 1.34 36 13:24 18.01.2021
3582 Clouds 4 1018 65 10000 3.6 340 12:49 18.01.2021
3583 Clouds 4 1018 70 10000 3.09 330 12:19 18.01.2021
3584 Clouds 4 1018 65 10000 4.63 330 11:48 18.01.2021
3585 Clouds 4 1016 70 10000 4.12 330 11:27 18.01.2021
3586 Clouds 4 1018 70 10000 5.14 340 10:53 18.01.2021
3587 Clouds 4 1018 70 10000 5.14 340 10:34 18.01.2021
3588 Clouds 4 1019 71 10000 3.13 19 09:43 18.01.2021
3589 Clouds 4 1017 65 10000 4.63 350 09:19 18.01.2021
3590 Clouds 3 1017 65 10000 3.6 340 08:43 18.01.2021
3591 Clouds 3 1017 65 10000 4.63 340 07:55 18.01.2021
3592 Rain 3 1016 60 10000 2.57 270 06:56 18.01.2021
3593 Clouds 3 1015 56 10000 2.57 320 04:57 18.01.2021
3594 Clouds 3 1016 60 10000 2.57 320 04:30 18.01.2021
3595 Clouds 3 1017 57 8060 1.34 97 03:53 18.01.2021
3596 Clouds 3 1016 64 10000 4.81 33 03:31 18.01.2021
3597 Clouds 3 1017 56 10000 0.89 346 02:59 18.01.2021
3598 Clouds 3 1017 52 10000 0.89 18 02:27 18.01.2021
3599 Clouds 2 1016 64 10000 2.85 39 00:43 18.01.2021
3600 Clouds 2 1016 64 10000 2.02 22 00:20 18.01.2021
3601 Clouds 2 1016 64 10000 2.02 22 23:44 17.01.2021
3602 Clouds 2 1016 64 10000 2.37 32 23:20 17.01.2021
3603 Clouds 2 1016 60 10000 2.48 34 22:26 17.01.2021
3604 Clouds 2 1016 60 10000 2.46 34 22:26 17.01.2021
3605 Clouds 2 1016 55 10000 2.46 34 21:58 17.01.2021
3606 Clouds 2 1016 55 10000 2.48 34 21:39 17.01.2021
3607 Clouds 2 1016 55 10000 2.48 34 21:39 17.01.2021
3608 Clouds 2 1016 55 10000 2.28 33 21:21 17.01.2021
3609 Clouds 2 1016 55 10000 2.28 33 20:44 17.01.2021
3610 Clouds 2 1016 55 10000 2.06 24 20:25 17.01.2021
3611 Clouds 2 1016 55 10000 2.06 24 19:42 17.01.2021
3612 Clouds 2 1016 55 10000 1.92 16 19:21 17.01.2021
3613 Clear 2 1015 48 10000 2.01 16 18:38 17.01.2021
3614 Clear 2 1015 48 10000 2.27 15 18:19 17.01.2021
3615 Clear 2 1015 48 10000 2.25 14 17:45 17.01.2021
3616 Clear 3 1015 41 10000 2.98 6 17:24 17.01.2021
3617 Clear 3 1015 41 10000 2.06 300 16:43 17.01.2021
3618 Clear 4 1014 35 10000 3.09 320 16:20 17.01.2021
3619 Clear 4 1014 35 10000 5.14 330 15:42 17.01.2021
3620 Clear 4 1014 38 10000 5.14 330 15:21 17.01.2021
3621 Clouds 4 1014 38 10000 5.14 330 14:48 17.01.2021
3622 Clouds 4 1014 38 10000 5.14 320 14:26 17.01.2021
3623 Clouds 4 1014 41 10000 6.17 340 13:45 17.01.2021
3624 Clouds 4 1015 41 10000 5.14 340 13:27 17.01.2021
3625 Clouds 4 1015 41 10000 5.14 330 12:52 17.01.2021
3626 Clouds 4 1014 41 10000 5.14 340 12:31 17.01.2021
3627 Clouds 3 1015 45 10000 5.14 350 11:54 17.01.2021
3628 Clouds 3 1015 44 10000 5.14 330 11:22 17.01.2021
3629 Clouds 3 1015 45 10000 6.17 340 10:46 17.01.2021
3630 Clouds 3 1015 44 10000 6.17 330 10:21 17.01.2021
3631 Clouds 2 1014 48 10000 5.66 330 09:21 17.01.2021
3632 Clouds 1 1014 51 10000 5.14 330 08:44 17.01.2021
3633 Clouds 0 1013 55 10000 5.14 330 06:52 17.01.2021
3634 Clouds 1 1012 60 8000 7.2 320 04:28 17.01.2021
3635 Clouds 2 1012 64 10000 4.12 310 02:46 17.01.2021
3636 Clouds 3 1011 70 10000 4.12 310 00:48 17.01.2021
3637 Drizzle 3 1011 75 7000 6.69 320 00:18 17.01.2021
3638 Drizzle 3 1011 75 8000 7.2 320 23:49 16.01.2021
3639 Clouds 3 1010 75 10000 7.72 330 23:19 16.01.2021
3640 Drizzle 4 1010 81 8000 6.69 320 22:45 16.01.2021
3641 Clouds 4 1010 75 10000 6.69 320 21:58 16.01.2021
3642 Clouds 4 1010 75 10000 6.69 320 21:37 16.01.2021
3643 Clouds 4 1010 75 10000 5.14 320 21:18 16.01.2021
3644 Clouds 4 1009 75 10000 5.14 330 20:42 16.01.2021
3645 Clouds 4 1009 75 10000 6.17 320 20:21 16.01.2021
3646 Clouds 4 1009 75 10000 7.2 310 19:44 16.01.2021
3647 Clouds 5 1009 75 10000 6.17 320 19:24 16.01.2021
3648 Clouds 5 1009 75 10000 6.17 320 19:24 16.01.2021
3649 Clouds 5 1009 75 10000 3.6 310 18:43 16.01.2021
3650 Clouds 5 1008 75 10000 4.12 330 18:24 16.01.2021
3651 Clouds 5 1008 81 10000 4.63 320 17:47 16.01.2021
3652 Drizzle 5 1007 81 7000 5.66 330 17:28 16.01.2021
3653 Rain 5 1007 81 7000 6.69 340 16:47 16.01.2021
3654 Drizzle 5 1006 75 8000 5.66 340 16:26 16.01.2021
3655 Clouds 5 1006 75 6000 6.69 340 15:51 16.01.2021
3656 Drizzle 6 1006 75 8000 6.17 340 15:20 16.01.2021
3657 Drizzle 6 1006 75 8000 6.17 330 14:22 16.01.2021
3658 Drizzle 6 1006 81 8000 5.14 330 13:48 16.01.2021
3659 Drizzle 5 1006 75 9000 3.09 310 13:24 16.01.2021
3660 Drizzle 5 1006 81 9000 6.17 340 12:39 16.01.2021
3661 Clouds 5 1006 81 10000 3.6 330 12:20 16.01.2021
3662 Clouds 4 1006 81 10000 4.63 330 11:48 16.01.2021
3663 Drizzle 4 1007 87 9000 3.6 320 11:25 16.01.2021
3664 Clouds 4 1008 87 8000 3.09 330 10:46 16.01.2021
3665 Rain 4 1008 87 8000 2.06 300 10:22 16.01.2021
3666 Clouds 4 1008 87 8000 4.12 330 09:36 16.01.2021
3667 Clouds 5 1008 87 8000 4.12 320 08:47 16.01.2021
3668 Clouds 5 1008 93 9000 3.6 320 07:48 16.01.2021
3669 Clouds 5 1008 87 9000 3.6 320 06:43 16.01.2021
3670 Clouds 6 1008 93 9000 2.57 330 04:40 16.01.2021
3671 Clouds 6 1010 93 10000 2.06 300 02:56 16.01.2021
3672 Clouds 7 1011 70 10000 1.54 0 00:51 16.01.2021
3673 Clouds 7 1011 70 10000 1.54 0 00:29 16.01.2021
3674 Clouds 7 1011 65 10000 2.06 340 23:58 15.01.2021
3675 Clouds 7 1012 65 10000 2.06 340 23:24 15.01.2021
3676 Clouds 7 1012 65 10000 2.06 300 22:26 15.01.2021
3677 Clouds 7 1012 65 10000 2.06 310 21:47 15.01.2021
3678 Clouds 7 1013 65 10000 2.06 310 21:22 15.01.2021
3679 Clouds 7 1013 65 10000 2.57 340 20:42 15.01.2021
3680 Clouds 7 1013 65 10000 2.57 340 20:42 15.01.2021
3681 Clouds 7 1013 65 10000 2.57 340 20:22 15.01.2021
3682 Clouds 7 1013 65 10000 2.06 330 19:42 15.01.2021
3683 Clouds 7 1013 65 10000 2.06 330 19:24 15.01.2021
3684 Clouds 7 1013 61 10000 2.57 330 18:45 15.01.2021
3685 Clouds 7 1013 61 10000 2.57 330 18:20 15.01.2021
3686 Clouds 7 1013 61 10000 3.6 340 17:53 15.01.2021
3687 Clouds 7 1013 61 10000 3.6 330 17:28 15.01.2021
3688 Clouds 7 1013 57 10000 4.63 340 16:59 15.01.2021
3689 Clouds 7 1013 57 10000 4.63 340 16:40 15.01.2021
3690 Clouds 7 1012 57 10000 5.14 330 16:20 15.01.2021
3691 Clouds 7 1012 53 10000 4.12 340 15:37 15.01.2021
3692 Clouds 8 1012 53 10000 4.12 330 15:18 15.01.2021
3693 Clouds 8 1012 57 10000 4.12 330 14:39 15.01.2021
3694 Clouds 7 1012 53 10000 6.17 340 14:20 15.01.2021
3695 Clouds 8 1012 53 10000 5.14 340 13:40 15.01.2021
3696 Clouds 8 1012 53 10000 5.66 340 13:19 15.01.2021
3697 Clouds 8 1013 57 10000 6.69 340 12:46 15.01.2021
3698 Clouds 8 1013 61 10000 7.2 330 12:25 15.01.2021
3699 Clouds 8 1013 57 10000 7.2 330 11:42 15.01.2021
3700 Clouds 7 1013 61 10000 8.23 330 11:21 15.01.2021
3701 Clouds 8 1013 57 10000 7.2 330 10:51 15.01.2021
3702 Clouds 7 1013 57 10000 7.2 330 10:22 15.01.2021
3703 Clouds 7 1013 65 10000 5.66 330 09:49 15.01.2021
3704 Clouds 7 1012 65 10000 7.2 330 09:29 15.01.2021
3705 Clouds 7 1012 70 10000 6.69 330 08:29 15.01.2021
3706 Clouds 6 1011 65 10000 7.72 330 07:46 15.01.2021
3707 Clouds 6 1011 70 10000 7.72 330 07:24 15.01.2021
3708 Clouds 6 1011 65 10000 6.17 330 06:52 15.01.2021
3709 Clouds 8 1007 71 10000 6.17 10 03:29 15.01.2021
3710 Clouds 11 1007 71 10000 5.74 243 00:55 15.01.2021
3711 Clouds 10 1007 71 10000 5.25 236 23:42 14.01.2021
3712 Clouds 10 1007 66 10000 3.99 221 22:59 14.01.2021
3713 Clouds 10 1007 66 10000 4.05 221 22:40 14.01.2021
3714 Clouds 10 1007 62 10000 3 212 22:22 14.01.2021
3715 Clouds 10 1008 58 10000 3 212 21:42 14.01.2021
3716 Clouds 10 1008 58 10000 1.79 241 21:21 14.01.2021
3717 Clouds 11 1008 54 10000 2.06 320 20:49 14.01.2021
3718 Clouds 11 1008 50 10000 3.09 280 20:25 14.01.2021
3719 Clouds 11 1008 54 10000 4.63 250 19:44 14.01.2021
3720 Clouds 11 1008 50 10000 4.63 250 19:26 14.01.2021
3721 Clouds 11 1008 47 10000 5.14 260 18:55 14.01.2021
3722 Clouds 11 1008 43 10000 5.14 260 18:30 14.01.2021
3723 Clouds 11 1008 40 10000 4.12 280 17:50 14.01.2021
3724 Clouds 11 1008 40 10000 4.12 280 17:27 14.01.2021
3725 Clouds 11 1008 35 10000 4.12 280 16:43 14.01.2021
3726 Clouds 12 1008 33 10000 4.12 280 16:23 14.01.2021
3727 Clouds 12 1009 35 10000 4.12 260 15:45 14.01.2021
3728 Clouds 12 1009 44 10000 4.12 260 14:59 14.01.2021
3729 Clouds 12 1009 44 10000 4.12 260 14:39 14.01.2021
3730 Clouds 12 1009 44 10000 4.12 260 14:19 14.01.2021
3731 Clouds 12 1009 33 10000 3.09 350 13:53 14.01.2021
3732 Clear 11 1008 38 10000 1.79 279 13:22 14.01.2021
3733 Clouds 11 1009 37 10000 2.57 310 12:51 14.01.2021
3734 Clouds 11 1010 40 10000 5.14 350 12:20 14.01.2021
3735 Clear 10 1011 44 10000 2.68 309 11:50 14.01.2021
3736 Clouds 10 1011 50 10000 3.09 310 11:21 14.01.2021
3737 Clouds 10 1011 50 10000 3.09 300 10:54 14.01.2021
3738 Clouds 10 1011 50 10000 3.09 300 10:35 14.01.2021
3739 Clouds 9 1011 57 10000 4.12 330 09:59 14.01.2021
3740 Clouds 9 1011 57 10000 4.12 330 09:41 14.01.2021
3741 Clouds 9 1011 57 10000 4.63 340 09:18 14.01.2021
3742 Clouds 8 1009 76 10000 4.12 320 08:28 14.01.2021
3743 Clouds 8 1009 76 10000 4.12 320 07:50 14.01.2021
3744 Clouds 7 1009 81 10000 3.09 310 06:59 14.01.2021
3745 Clouds 8 1008 76 10000 5.14 330 06:24 14.01.2021
3746 Clouds 9 1007 87 10000 2.25 344 02:51 14.01.2021
3747 Clouds 9 1008 76 10000 2.71 357 23:56 13.01.2021
3748 Clouds 9 1008 58 10000 2.06 340 23:24 13.01.2021
3749 Clouds 10 1008 58 10000 2.06 340 22:40 13.01.2021
3750 Clouds 10 1008 58 10000 2.06 340 22:18 13.01.2021
3751 Clouds 11 1008 58 10000 3.1 346 21:42 13.01.2021
3752 Clouds 11 1007 58 10000 3.09 300 21:19 13.01.2021
3753 Clouds 11 1007 58 10000 3.09 300 20:43 13.01.2021
3754 Clouds 11 1007 54 10000 3.6 300 20:21 13.01.2021
3755 Clouds 12 1007 54 10000 3.6 300 19:46 13.01.2021
3756 Clouds 12 1007 54 10000 3.09 300 19:23 13.01.2021
3757 Clouds 12 1007 50 10000 2.57 300 18:44 13.01.2021
3758 Clouds 12 1007 47 10000 3.09 330 18:22 13.01.2021
3759 Clouds 12 1006 50 10000 3.09 290 17:41 13.01.2021
3760 Clouds 12 1006 50 10000 4.12 290 17:18 13.01.2021
3761 Clouds 13 1006 47 10000 4.12 300 16:36 13.01.2021
3762 Clouds 13 1006 47 10000 4.12 300 16:18 13.01.2021
3763 Clouds 14 1006 44 10000 3.09 280 15:40 13.01.2021
3764 Clouds 14 1006 44 10000 6.17 300 14:56 13.01.2021
3765 Clouds 14 1006 44 10000 6.17 300 14:27 13.01.2021
3766 Clouds 14 1006 44 10000 6.17 300 13:38 13.01.2021
3767 Clouds 14 1006 41 10000 5.14 300 13:19 13.01.2021
3768 Clouds 15 1006 41 10000 5.14 280 12:44 13.01.2021
3769 Clouds 14 1006 41 10000 5.14 280 12:22 13.01.2021
3770 Clouds 15 1007 41 10000 3.6 280 11:49 13.01.2021
3771 Clear 14 1007 44 10000 3.6 300 11:31 13.01.2021
3772 Clear 14 1007 44 10000 1.54 0 10:48 13.01.2021
3773 Clear 14 1007 51 10000 2.57 350 10:26 13.01.2021
3774 Clear 13 1008 47 10000 2.57 300 09:40 13.01.2021
3775 Clear 12 1007 58 10000 1.54 0 08:58 13.01.2021
3776 Clear 12 1007 58 10000 1.54 0 08:58 13.01.2021
3777 Clear 12 1007 58 10000 1.54 0 08:38 13.01.2021
3778 Clouds 11 1007 71 10000 2.06 350 08:20 13.01.2021
3779 Clouds 9 1007 71 10000 1.54 0 07:28 13.01.2021
3780 Clouds 10 1006 66 10000 1.54 0 05:52 13.01.2021
3781 Clouds 10 1005 71 10000 1.54 0 04:18 13.01.2021
3782 Clouds 10 1005 66 10000 2.57 340 03:43 13.01.2021
3783 Clouds 10 1005 76 10000 2.57 360 03:21 13.01.2021
3784 Clouds 12 1005 62 10000 2.06 300 00:47 13.01.2021
3785 Clouds 12 1005 58 10000 3.09 300 23:40 12.01.2021
3786 Clouds 13 1005 54 10000 2.57 350 22:58 12.01.2021
3787 Clouds 13 1005 54 10000 2.57 350 22:39 12.01.2021
3788 Clouds 13 1004 58 10000 2.57 310 22:19 12.01.2021
3789 Clouds 13 1004 54 10000 3.6 300 21:43 12.01.2021
3790 Clouds 13 1004 51 10000 4.12 300 21:23 12.01.2021
3791 Clouds 13 1004 51 10000 3.6 300 20:47 12.01.2021
3792 Clouds 13 1004 41 10000 3.09 230 20:26 12.01.2021
3793 Clouds 14 1004 54 10000 2.57 50 19:44 12.01.2021
3794 Clouds 14 1003 51 10000 3.09 320 18:57 12.01.2021
3795 Clouds 14 1003 51 10000 3.09 320 18:38 12.01.2021
3796 Clouds 15 1003 51 10000 2.57 320 18:20 12.01.2021
3797 Clouds 15 1003 63 10000 2.06 310 17:34 12.01.2021
3798 Clouds 16 1003 59 10000 4.12 330 16:54 12.01.2021
3799 Clouds 16 1003 59 10000 4.12 330 16:36 12.01.2021
3800 Clouds 16 1002 76 10000 4.11 245 16:18 12.01.2021
3801 Clouds 16 1005 84 9182 0.45 209 15:29 12.01.2021
3802 Rain 17 1004 82 10000 2.57 210 14:57 12.01.2021
3803 Clouds 17 1004 82 10000 2.57 210 14:39 12.01.2021
3804 Clouds 18 1005 82 10000 2.24 236 14:18 12.01.2021
3805 Clouds 18 1005 81 10000 2.68 165 13:45 12.01.2021
3806 Rain 18 1006 80 7274 2.24 161 12:39 12.01.2021
3807 Clouds 18 1005 72 8000 7.2 150 11:55 12.01.2021
3808 Clouds 18 1007 81 10000 2.24 220 11:36 12.01.2021
3809 Clouds 18 1006 70 10000 1.34 138 10:45 12.01.2021
3810 Clouds 18 1007 72 10000 7.2 150 10:20 12.01.2021
3811 Clouds 18 1007 72 10000 7.2 150 10:20 12.01.2021
3812 Clouds 18 1007 77 10000 6.17 150 09:55 12.01.2021
3813 Clouds 18 1007 77 10000 6.17 150 09:24 12.01.2021
3814 Clouds 18 1007 77 10000 4.12 140 08:42 12.01.2021
3815 Clouds 18 1007 77 10000 5.57 190 08:21 12.01.2021
3816 Clouds 18 1008 77 10000 5.57 190 07:34 12.01.2021
3817 Clouds 18 1008 77 10000 2.06 90 06:20 12.01.2021
3818 Clouds 18 1009 72 10000 4.44 182 05:30 12.01.2021
3819 Clouds 18 1010 82 10000 1.54 0 03:26 12.01.2021
3820 Clouds 18 1011 82 10000 4.14 187 02:18 12.01.2021
3821 Clouds 18 1013 77 10000 1.79 127 01:26 12.01.2021
3822 Clouds 18 1010 69 10000 7.6 140 23:46 11.01.2021
3823 Clouds 17 1013 76 10000 2.24 82 23:23 11.01.2021
3824 Clouds 17 1012 88 10000 5 190 22:52 11.01.2021
3825 Clouds 17 1012 88 10000 5 190 22:33 11.01.2021
3826 Clouds 17 1012 82 10000 4.06 185 21:57 11.01.2021
3827 Clouds 17 1012 82 10000 4.06 185 21:37 11.01.2021
3828 Clouds 17 1012 82 10000 4.33 184 21:18 11.01.2021
3829 Clouds 17 1012 82 10000 2.85 171 20:40 11.01.2021
3830 Clouds 17 1012 72 10000 2.06 90 20:22 11.01.2021
3831 Clouds 17 1012 72 10000 2.06 90 19:53 11.01.2021
3832 Clouds 18 1012 72 10000 2.06 100 19:24 11.01.2021
3833 Clouds 18 1012 72 10000 2.57 70 18:45 11.01.2021
3834 Clouds 18 1012 68 10000 3.8 168 18:25 11.01.2021
3835 Clouds 19 1012 52 10000 2.57 180 17:44 11.01.2021
3836 Clouds 19 1011 56 10000 1.54 0 17:26 11.01.2021
3837 Clouds 20 1011 56 10000 3.6 100 16:57 11.01.2021
3838 Clouds 20 1011 56 10000 3.6 100 16:36 11.01.2021
3839 Clouds 20 1011 56 10000 2.06 80 16:18 11.01.2021
3840 Clouds 21 1011 56 10000 4.72 180 15:44 11.01.2021
3841 Clouds 21 1013 65 10000 1.34 236 15:25 11.01.2021
3842 Clouds 22 1011 56 10000 3.6 170 14:39 11.01.2021
3843 Clouds 22 1011 53 10000 4.63 160 13:50 11.01.2021
3844 Clouds 22 1011 60 10000 4.63 160 13:26 11.01.2021
3845 Clouds 22 1011 53 10000 5.14 170 12:51 11.01.2021
3846 Clouds 22 1011 53 10000 5.14 170 12:32 11.01.2021
3847 Clouds 22 1012 60 10000 5.66 170 11:56 11.01.2021
3848 Clouds 22 1012 64 10000 5.66 170 11:27 11.01.2021
3849 Clouds 21 1013 64 10000 6.17 170 10:47 11.01.2021
3850 Clouds 21 1012 64 10000 7.72 180 10:25 11.01.2021
3851 Clouds 21 1013 68 10000 6.17 180 09:43 11.01.2021
3852 Clouds 20 1012 68 10000 5.14 190 09:21 11.01.2021
3853 Clouds 19 1012 72 10000 5.66 180 08:45 11.01.2021
3854 Clouds 18 1012 77 10000 3.09 180 08:18 11.01.2021
3855 Clouds 18 1012 77 10000 7.18 200 07:28 11.01.2021
3856 Clouds 17 1012 77 10000 2.06 70 06:58 11.01.2021
3857 Clouds 17 1012 82 10000 1.03 0 06:23 11.01.2021
3858 Clouds 16 1013 88 10000 1.54 0 01:46 11.01.2021
3859 Clouds 16 1013 88 10000 1.03 0 00:38 11.01.2021
3860 Clouds 16 1014 88 10000 1.03 0 23:36 10.01.2021
3861 Clouds 16 1014 88 10000 1.03 0 22:49 10.01.2021
3862 Clouds 16 1014 88 10000 1.03 0 22:27 10.01.2021
3863 Clouds 16 1014 88 10000 1.03 0 21:46 10.01.2021
3864 Clouds 16 1014 88 10000 1.03 0 21:21 10.01.2021
3865 Clouds 16 1014 82 10000 1.03 0 20:57 10.01.2021
3866 Clouds 16 1014 82 10000 1.03 0 20:33 10.01.2021
3867 Clouds 16 1014 82 10000 1.03 0 20:00 10.01.2021
3868 Clouds 17 1014 82 10000 1.03 0 19:38 10.01.2021
3869 Clouds 17 1014 77 10000 2.06 80 19:20 10.01.2021
3870 Clouds 17 1014 82 10000 2.06 80 18:42 10.01.2021
3871 Clouds 17 1014 77 10000 2.06 80 18:19 10.01.2021
3872 Clouds 17 1014 77 10000 2.06 120 17:22 10.01.2021
3873 Clouds 18 1014 82 10000 3.09 100 16:46 10.01.2021
3874 Clouds 18 1014 77 10000 3.3 172 16:27 10.01.2021
3875 Clouds 19 1014 77 10000 4.11 176 15:26 10.01.2021
3876 Clouds 19 1014 77 10000 4.12 180 14:56 10.01.2021
3877 Clouds 19 1014 77 10000 4.12 180 14:38 10.01.2021
3878 Clouds 20 1014 82 10000 3.09 180 13:56 10.01.2021
3879 Clouds 20 1014 82 10000 3.09 180 13:38 10.01.2021
3880 Clouds 20 1014 77 10000 4.12 170 13:20 10.01.2021
3881 Clouds 21 1014 68 10000 3.6 170 12:50 10.01.2021
3882 Clouds 21 1014 68 10000 3.6 170 12:32 10.01.2021
3883 Clouds 20 1015 73 10000 2.57 190 11:54 10.01.2021
3884 Clouds 20 1015 68 10000 4.67 176 11:20 10.01.2021
3885 Clouds 20 1016 72 10000 4.61 176 10:47 10.01.2021
3886 Clouds 19 1017 68 10000 3.99 174 10:22 10.01.2021
3887 Clouds 18 1017 72 10000 3.99 174 09:36 10.01.2021
3888 Clouds 16 1016 88 10000 1.78 124 08:26 10.01.2021
3889 Clouds 15 1016 88 10000 1.78 124 07:38 10.01.2021
3890 Clouds 15 1015 94 10000 1.41 181 06:21 10.01.2021
3891 Clouds 15 1015 94 10000 1.41 181 05:45 10.01.2021
3892 Clouds 15 1016 94 10000 1.85 204 05:27 10.01.2021
3893 Clouds 15 1013 88 10000 1.31 333 01:30 10.01.2021
3894 Clouds 15 1013 88 10000 1.31 333 01:30 10.01.2021
3895 Clouds 15 1013 88 10000 2.69 253 00:19 10.01.2021
3896 Clouds 15 1014 88 10000 2.71 254 23:41 09.01.2021
3897 Clouds 15 1014 88 10000 1.16 235 22:59 09.01.2021
3898 Clouds 15 1013 88 10000 0.58 226 22:20 09.01.2021
3899 Clouds 16 1013 88 10000 0.56 226 21:58 09.01.2021
3900 Clouds 16 1013 88 10000 0.56 226 21:39 09.01.2021
3901 Clouds 16 1013 88 10000 0.77 192 21:21 09.01.2021
3902 Clouds 16 1013 88 10000 0.77 192 20:54 09.01.2021
3903 Clouds 16 1013 88 10000 0.81 187 20:29 09.01.2021
3904 Clouds 16 1013 82 10000 0.78 185 19:40 09.01.2021
3905 Clouds 17 1013 82 10000 0.88 155 19:20 09.01.2021
3906 Clouds 17 1012 82 10000 1.08 162 18:37 09.01.2021
3907 Clouds 17 1013 82 10000 1.03 0 18:18 09.01.2021
3908 Clouds 18 1012 77 10000 1.03 0 17:41 09.01.2021
3909 Clouds 18 1012 72 10000 1.03 0 17:22 09.01.2021
3910 Clouds 19 1012 72 10000 1.54 0 16:28 09.01.2021
3911 Clouds 19 1011 68 10000 1.03 0 15:41 09.01.2021
3912 Clouds 20 1011 60 10000 2.57 200 15:22 09.01.2021
3913 Clouds 20 1011 64 10000 3.09 180 14:37 09.01.2021
3914 Clouds 20 1011 64 10000 4.12 180 14:19 09.01.2021
3915 Clouds 20 1011 64 10000 1.03 0 13:45 09.01.2021
3916 Clouds 20 1012 73 10000 0.45 202 13:27 09.01.2021
3917 Clouds 20 1010 71 10000 1.34 156 12:29 09.01.2021
3918 Clouds 20 1012 68 10000 1.54 0 11:59 09.01.2021
3919 Clouds 20 1012 68 10000 1.54 0 11:40 09.01.2021
3920 Clouds 20 1012 68 10000 1.54 0 11:22 09.01.2021
3921 Clouds 19 1012 73 10000 1.54 0 10:48 09.01.2021
3922 Clouds 19 1012 82 10000 1.54 0 10:25 09.01.2021
3923 Clouds 18 1012 82 10000 3.09 90 09:44 09.01.2021
3924 Clouds 18 1012 82 10000 2.06 0 09:21 09.01.2021
3925 Clouds 16 1012 88 10000 2.06 0 08:19 09.01.2021
3926 Clouds 16 1010 88 10000 3.58 206 06:55 09.01.2021
3927 Clouds 16 1010 88 10000 4.45 209 06:36 09.01.2021
3928 Clouds 16 1010 88 10000 5.1 196 04:25 09.01.2021
3929 Clouds 16 1011 94 10000 4.12 192 02:47 09.01.2021
3930 Clouds 16 1011 94 10000 3.55 183 02:28 09.01.2021
3931 Clouds 16 1011 94 10000 3.55 183 01:35 09.01.2021
3932 Clouds 16 1012 94 10000 3.37 175 00:34 09.01.2021
3933 Clouds 16 1012 88 10000 2.57 90 23:50 08.01.2021
3934 Clouds 16 1012 88 10000 3.6 130 22:49 08.01.2021
3935 Clouds 16 1012 82 10000 4.84 193 21:58 08.01.2021
3936 Clouds 16 1012 82 10000 4.84 193 21:31 08.01.2021
3937 Clouds 16 1012 82 10000 5.31 197 20:41 08.01.2021
3938 Clouds 16 1012 82 10000 5.78 196 20:21 08.01.2021
3939 Clouds 16 1012 88 10000 5.78 196 19:39 08.01.2021
3940 Clouds 16 1012 88 10000 5.62 193 19:20 08.01.2021
3941 Clouds 16 1012 88 10000 5.64 193 18:34 08.01.2021
3942 Clouds 16 1012 82 10000 5.56 192 17:55 08.01.2021
3943 Clouds 17 1012 77 10000 5.56 192 17:30 08.01.2021
3944 Clouds 17 1012 72 10000 3.09 170 16:51 08.01.2021
3945 Clouds 17 1012 72 10000 3.09 170 16:20 08.01.2021
3946 Clouds 18 1012 68 10000 2.57 150 15:40 08.01.2021
3947 Clouds 18 1012 68 10000 3.09 140 14:42 08.01.2021
3948 Clouds 18 1012 68 10000 3.09 140 14:23 08.01.2021
3949 Clouds 18 1013 63 10000 2.57 160 13:23 08.01.2021
3950 Clouds 18 1013 63 10000 2.06 140 12:53 08.01.2021
3951 Clouds 18 1014 63 10000 2.06 140 12:25 08.01.2021
3952 Clouds 18 1014 63 10000 2.06 140 11:59 08.01.2021
3953 Clouds 18 1014 63 10000 2.06 140 11:41 08.01.2021
3954 Clouds 18 1015 68 10000 3.99 204 11:20 08.01.2021
3955 Clouds 17 1015 72 10000 3.99 204 10:46 08.01.2021
3956 Clouds 16 1015 77 10000 3.32 195 10:23 08.01.2021
3957 Clouds 15 1016 77 10000 3.29 195 09:41 08.01.2021
3958 Clouds 15 1017 81 10000 0.45 169 09:20 08.01.2021
3959 Clouds 12 1015 93 10000 1.81 195 07:56 08.01.2021
3960 Clouds 11 1015 93 10000 2.15 194 07:25 08.01.2021
3961 Clouds 12 1015 100 10000 1.8 198 04:20 08.01.2021
3962 Clouds 12 1016 87 10000 2.06 300 23:45 07.01.2021
3963 Clouds 12 1016 87 10000 1.25 175 23:27 07.01.2021
3964 Clouds 12 1016 87 10000 1.25 175 22:38 07.01.2021
3965 Clouds 13 1017 87 10000 1.25 172 22:18 07.01.2021
3966 Clouds 13 1017 87 10000 1.54 310 21:40 07.01.2021
3967 Clouds 12 1016 87 10000 1.35 162 21:21 07.01.2021
3968 Clouds 13 1017 82 10000 1.33 161 20:44 07.01.2021
3969 Clouds 12 1017 82 10000 1.22 165 20:23 07.01.2021
3970 Clouds 12 1017 82 10000 1.21 164 19:42 07.01.2021
3971 Clouds 12 1017 87 10000 1.29 169 18:55 07.01.2021
3972 Clouds 13 1017 82 10000 1.3 186 18:30 07.01.2021
3973 Clouds 14 1016 82 10000 1.51 186 17:42 07.01.2021
3974 Clouds 14 1016 82 10000 1.31 183 17:22 07.01.2021
3975 Clouds 14 1016 77 10000 1.34 182 16:52 07.01.2021
3976 Clouds 15 1016 67 10000 1.39 200 16:24 07.01.2021
3977 Clouds 16 1016 63 10000 1.4 199 15:37 07.01.2021
3978 Clouds 17 1016 63 10000 2.1 208 14:45 07.01.2021
3979 Clouds 16 1016 63 10000 2.06 207 14:26 07.01.2021
3980 Clouds 15 1017 77 10000 2.08 208 13:41 07.01.2021
3981 Clouds 15 1017 77 10000 2.16 223 13:18 07.01.2021
3982 Clouds 15 1017 77 10000 1.94 216 13:18 07.01.2021
3983 Clouds 16 1018 69 10000 0.45 207 12:35 07.01.2021
3984 Clouds 15 1018 76 10000 2.57 227 11:54 07.01.2021
3985 Clouds 15 1019 67 10000 0.89 207 11:35 07.01.2021
3986 Clouds 15 1018 76 10000 2.26 232 10:50 07.01.2021
3987 Clouds 15 1020 73 10000 2.08 237 10:20 07.01.2021
3988 Clouds 14 1019 81 10000 1.5 0 09:47 07.01.2021
3989 Clouds 14 1019 87 10000 1.62 245 09:19 07.01.2021
3990 Clouds 13 1018 87 10000 1.31 224 08:29 07.01.2021
3991 Clouds 12 1018 87 10000 1.31 224 07:48 07.01.2021
3992 Clouds 11 1018 93 10000 1.28 208 07:26 07.01.2021
3993 Clouds 11 1018 93 10000 1.67 218 04:31 07.01.2021
3994 Clouds 12 1018 93 10000 2.27 213 00:30 07.01.2021
3995 Clouds 12 1018 93 10000 2.39 205 23:48 06.01.2021
3996 Clear 12 1019 93 10000 2.36 208 22:44 06.01.2021
3997 Clouds 12 1019 87 10000 2.29 203 21:44 06.01.2021
3998 Clouds 11 1019 87 10000 1.89 197 21:23 06.01.2021
3999 Clouds 12 1019 81 10000 1.89 197 20:58 06.01.2021
4000 Clouds 12 1019 81 10000 1.84 196 20:36 06.01.2021
4001 Clouds 11 1019 81 10000 1.29 172 20:18 06.01.2021
4002 Clouds 11 1019 87 10000 2.1 340 19:38 06.01.2021
4003 Clouds 12 1019 87 10000 2.1 340 19:19 06.01.2021
4004 Clouds 11 1019 87 10000 1.35 188 18:41 06.01.2021
4005 Clouds 12 1019 76 10000 1.52 185 18:23 06.01.2021
4006 Clouds 13 1019 76 10000 2.1 150 17:42 06.01.2021
4007 Clouds 13 1019 76 10000 2.1 150 17:24 06.01.2021
4008 Clouds 14 1019 63 10000 3.1 160 16:42 06.01.2021
4009 Clouds 15 1019 63 10000 3.1 160 16:20 06.01.2021
4010 Clouds 15 1019 63 10000 3.1 150 15:53 06.01.2021
4011 Clouds 15 1019 51 10000 3.6 170 15:32 06.01.2021
4012 Clouds 15 1019 55 10000 3.1 160 14:51 06.01.2021
4013 Clouds 15 1019 55 10000 3.1 160 14:21 06.01.2021
4014 Clouds 15 1019 59 10000 2.6 160 13:47 06.01.2021
4015 Clouds 16 1019 56 10000 3.13 179 13:24 06.01.2021
4016 Clouds 15 1020 59 10000 2.1 110 12:48 06.01.2021
4017 Clouds 15 1020 59 10000 2.1 110 12:20 06.01.2021
4018 Clouds 14 1021 67 10000 2.25 223 11:36 06.01.2021
4019 Clouds 14 1021 67 10000 2.83 228 11:18 06.01.2021
4020 Clouds 14 1021 66 10000 1.72 228 10:22 06.01.2021
4021 Clouds 14 1023 72 10000 1.34 336 09:51 06.01.2021
4022 Clouds 12 1023 76 10000 1.24 240 08:59 06.01.2021
4023 Clouds 12 1022 76 10000 1.24 240 08:38 06.01.2021
4024 Clouds 10 1021 87 10000 1.16 268 07:58 06.01.2021
4025 Clouds 9 1020 87 10000 1.03 261 06:55 06.01.2021
4026 Clouds 10 1020 87 10000 0.97 322 05:34 06.01.2021
4027 Clouds 10 1020 87 10000 1.09 289 04:34 06.01.2021
4028 Clouds 10 1019 87 10000 0.85 282 02:47 06.01.2021
4029 Clouds 10 1019 87 10000 0.84 291 02:25 06.01.2021
4030 Clouds 10 1019 87 10000 1.27 261 01:23 06.01.2021
4031 Clouds 10 1019 87 10000 1.09 269 23:32 05.01.2021
4032 Clouds 10 1019 87 10000 1.12 270 22:45 05.01.2021
4033 Clouds 10 1019 87 10000 1.27 292 22:21 05.01.2021
4034 Clouds 10 1019 87 10000 1.27 292 21:56 05.01.2021
4035 Clouds 11 1019 76 10000 2.1 10 20:58 05.01.2021
4036 Clouds 11 1018 76 10000 2.6 20 20:27 05.01.2021
4037 Clouds 11 1018 76 10000 1.71 277 19:44 05.01.2021
4038 Clouds 11 1018 76 10000 1.78 267 19:23 05.01.2021
4039 Clouds 12 1017 71 10000 2.1 350 18:45 05.01.2021
4040 Clouds 12 1017 71 10000 2.1 350 18:26 05.01.2021
4041 Clouds 12 1017 66 10000 1.5 0 17:52 05.01.2021
4042 Clouds 12 1017 71 10000 1.68 264 17:31 05.01.2021
4043 Clouds 13 1017 54 10000 1.6 257 16:53 05.01.2021
4044 Clouds 14 1016 51 10000 2.6 250 16:23 05.01.2021
4045 Clouds 15 1016 48 10000 2.6 220 15:51 05.01.2021
4046 Clouds 15 1016 51 10000 3.1 210 15:29 05.01.2021
4047 Clouds 15 1015 51 10000 3.6 180 14:47 05.01.2021
4048 Clouds 15 1015 51 10000 3.6 200 13:55 05.01.2021
4049 Clouds 15 1015 48 10000 3.6 210 13:35 05.01.2021
4050 Clouds 15 1015 48 10000 5.1 200 12:51 05.01.2021
4051 Clouds 15 1015 48 10000 5.1 190 12:29 05.01.2021
4052 Clouds 15 1016 51 10000 2.6 130 11:49 05.01.2021
4053 Clouds 15 1016 51 10000 2.6 130 11:25 05.01.2021
4054 Clouds 14 1016 62 10000 2.6 90 10:44 05.01.2021
4055 Clouds 14 1016 62 10000 2.6 110 10:18 05.01.2021
4056 Clouds 13 1016 66 10000 2.1 100 09:41 05.01.2021
4057 Clouds 12 1015 66 10000 1.5 320 08:45 05.01.2021
4058 Clouds 11 1015 66 10000 1.5 320 08:19 05.01.2021
4059 Clouds 10 1013 81 10000 1.5 0 05:32 05.01.2021
4060 Clouds 10 1012 87 10000 2.1 360 03:39 05.01.2021
4061 Clouds 11 1011 71 10000 2.1 340 00:23 05.01.2021
4062 Clouds 11 1011 71 10000 2.1 340 23:42 04.01.2021
4063 Clouds 11 1010 76 10000 1.5 0 23:22 04.01.2021
4064 Clouds 11 1010 76 10000 2.1 300 22:46 04.01.2021
4065 Clouds 11 1010 93 10000 6.01 249 22:19 04.01.2021
4066 Clouds 12 1009 93 10000 6.01 249 21:40 04.01.2021
4067 Clouds 12 1009 93 10000 6.01 249 21:40 04.01.2021
4068 Clouds 12 1009 87 10000 2.1 340 21:20 04.01.2021
4069 Clouds 12 1009 100 10000 4.17 254 20:38 04.01.2021
4070 Clouds 13 1008 100 10000 5.32 259 20:19 04.01.2021
4071 Clouds 13 1008 100 10000 5.32 259 19:42 04.01.2021
4072 Clouds 14 1008 93 10000 6.49 237 19:19 04.01.2021
4073 Clouds 14 1007 93 10000 6.41 231 18:44 04.01.2021
4074 Rain 14 1007 87 10000 2.1 20 17:56 04.01.2021
4075 Clouds 14 1007 87 10000 2.1 20 17:37 04.01.2021
4076 Rain 15 1007 93 8000 2.1 320 17:18 04.01.2021
4077 Clouds 15 1005 79 6816 7.6 108 16:40 04.01.2021
4078 Clouds 16 1006 77 6000 10.8 150 16:22 04.01.2021
4079 Rain 16 1006 77 6000 10.8 150 15:47 04.01.2021
4080 Clouds 17 1007 77 10000 6.2 140 15:24 04.01.2021
4081 Rain 17 1007 82 10000 8.7 150 13:58 04.01.2021
4082 Clouds 17 1008 77 10000 8.7 150 13:36 04.01.2021
4083 Clouds 17 1009 82 10000 6.2 150 12:57 04.01.2021
4084 Clouds 17 1009 82 10000 6.2 150 12:30 04.01.2021
4085 Clouds 17 1010 77 10000 7.7 150 11:45 04.01.2021
4086 Clouds 17 1010 77 10000 6.7 150 11:19 04.01.2021
4087 Clouds 17 1011 77 10000 6.2 150 10:45 04.01.2021
4088 Clouds 16 1011 77 10000 6.2 150 10:23 04.01.2021
4089 Clouds 16 1012 82 10000 5.1 140 09:44 04.01.2021
4090 Drizzle 16 1012 82 10000 6.2 140 09:18 04.01.2021
4091 Drizzle 15 1012 87 10000 6.2 150 08:32 04.01.2021
4092 Rain 15 1013 82 10000 6.2 140 07:47 04.01.2021
4093 Clouds 14 1013 87 10000 4.6 160 06:40 04.01.2021
4094 Clouds 14 1014 82 10000 4.6 130 05:20 04.01.2021
4095 Clouds 14 1015 82 10000 2.1 90 02:27 04.01.2021
4096 Clouds 14 1016 82 10000 2.6 120 00:27 04.01.2021
4097 Clouds 14 1017 77 10000 2.6 100 23:38 03.01.2021
4098 Clouds 14 1018 82 10000 2.6 110 22:59 03.01.2021
4099 Clouds 14 1018 77 10000 2.36 137 22:41 03.01.2021
4100 Clouds 14 1018 77 10000 2.61 153 22:22 03.01.2021
4101 Clouds 14 1018 82 10000 2.1 80 21:45 03.01.2021
4102 Clouds 14 1018 82 10000 2.1 80 21:24 03.01.2021
4103 Clouds 14 1018 82 10000 3.6 100 20:42 03.01.2021
4104 Clouds 14 1018 77 10000 4.1 120 20:20 03.01.2021
4105 Clouds 14 1018 77 10000 4.1 120 19:52 03.01.2021
4106 Clouds 14 1018 82 10000 3.1 70 19:33 03.01.2021
4107 Clouds 15 1018 77 10000 3.6 110 18:52 03.01.2021
4108 Clouds 15 1018 82 10000 3.1 100 18:33 03.01.2021
4109 Clouds 15 1018 82 10000 3.6 140 17:53 03.01.2021
4110 Clouds 15 1018 82 10000 3.6 140 17:29 03.01.2021
4111 Clouds 15 1018 82 10000 3.6 130 16:57 03.01.2021
4112 Clear 15 1017 79 10000 4.92 143 16:39 03.01.2021
4113 Clouds 16 1018 77 10000 3.6 150 16:19 03.01.2021
4114 Clouds 17 1018 72 10000 4.1 150 15:45 03.01.2021
4115 Clouds 17 1016 72 10000 5.1 150 15:19 03.01.2021
4116 Clouds 17 1018 72 10000 5.1 150 14:43 03.01.2021
4117 Clear 17 1017 76 10000 4.02 146 13:57 03.01.2021
4118 Clear 17 1017 77 10000 3.58 129 13:37 03.01.2021
4119 Clouds 17 1018 72 10000 3.6 160 13:19 03.01.2021
4120 Clouds 17 1019 68 10000 3.6 170 11:46 03.01.2021
4121 Clouds 17 1018 77 10000 4.02 153 11:27 03.01.2021
4122 Clouds 17 1019 72 10000 2.1 140 10:58 03.01.2021
4123 Clouds 16 1019 77 10000 1.5 80 10:33 03.01.2021
4124 Clouds 16 1019 72 10000 1.5 0 09:52 03.01.2021
4125 Clouds 15 1019 87 10000 6.95 197 09:26 03.01.2021
4126 Clouds 14 1019 82 10000 1.5 0 08:32 03.01.2021
4127 Clouds 13 1018 87 10000 6.21 195 06:57 03.01.2021
4128 Clouds 13 1018 93 10000 2.6 120 03:30 03.01.2021
4129 Clouds 13 1018 93 10000 2.6 120 02:26 03.01.2021
4130 Clouds 13 1018 93 8000 6.69 186 00:54 03.01.2021
4131 Rain 13 1018 100 8000 6.82 180 23:53 02.01.2021
4132 Clouds 13 1019 100 8000 5.39 178 23:20 02.01.2021
4133 Rain 13 1019 100 8000 5.39 178 22:48 02.01.2021
4134 Rain 13 1019 100 8000 4.29 172 22:29 02.01.2021
4135 Rain 13 1019 100 9000 4.29 172 21:49 02.01.2021
4136 Rain 13 1019 100 9000 4.07 178 21:29 02.01.2021
4137 Thunderstorm 14 1018 100 4000 5.1 170 20:45 02.01.2021
4138 Rain 14 1018 100 4000 5.1 170 20:25 02.01.2021
4139 Rain 15 1018 87 9000 2.68 157 19:48 02.01.2021
4140 Rain 14 1018 87 9000 2.07 131 19:20 02.01.2021
4141 Rain 14 1018 87 10000 1.64 114 18:51 02.01.2021
4142 Clouds 14 1018 87 10000 1.64 114 18:32 02.01.2021
4143 Clouds 14 1018 72 10000 1.82 117 17:46 02.01.2021
4144 Clouds 14 1018 72 10000 1.76 129 17:28 02.01.2021
4145 Clouds 14 1018 72 10000 1.76 129 16:46 02.01.2021
4146 Clouds 15 1018 72 10000 1.72 125 16:22 02.01.2021
4147 Clouds 15 1018 63 10000 1.72 125 15:48 02.01.2021
4148 Clouds 15 1018 63 10000 1.87 123 15:28 02.01.2021
4149 Clouds 15 1017 73 10000 0.45 142 14:47 02.01.2021
4150 Clouds 15 1017 72 10000 1.88 125 14:24 02.01.2021
4151 Clouds 15 1017 68 10000 0.45 142 13:44 02.01.2021
4152 Clouds 15 1018 59 10000 1.11 128 12:59 02.01.2021
4153 Clouds 16 1019 59 10000 1.09 135 12:40 02.01.2021
4154 Clouds 16 1019 58 10000 0.7 140 12:19 02.01.2021
4155 Clouds 15 1019 58 10000 0.7 140 11:38 02.01.2021
4156 Clouds 15 1020 58 10000 1.01 147 11:20 02.01.2021
4157 Clouds 15 1021 66 10000 0.89 272 10:40 02.01.2021
4158 Clouds 15 1021 67 10000 1.33 90 10:21 02.01.2021
4159 Clouds 14 1021 70 10000 0.45 43 09:39 02.01.2021
4160 Clouds 14 1021 71 10000 1.59 62 09:19 02.01.2021
4161 Clouds 13 1021 73 10000 0.89 48 08:46 02.01.2021
4162 Clear 12 1021 71 10000 0.45 85 08:19 02.01.2021
4163 Clear 10 1020 74 10000 0.45 53 07:25 02.01.2021
4164 Clear 10 1020 73 10000 1.42 56 06:57 02.01.2021
4165 Clear 10 1020 73 10000 1.42 56 06:57 02.01.2021
4166 Clouds 9 1018 81 10000 2.1 340 05:57 02.01.2021
4167 Clear 9 1019 81 10000 2.1 350 02:52 02.01.2021
4168 Clear 9 1018 81 10000 1.12 38 00:43 02.01.2021
4169 Clear 9 1018 81 10000 0.88 51 00:23 02.01.2021
4170 Clear 10 1018 81 10000 2.1 360 23:37 01.01.2021
4171 Clear 10 1018 75 10000 0.53 49 23:19 01.01.2021
4172 Clear 10 1018 75 10000 0.53 49 22:44 01.01.2021
4173 Clouds 10 1018 70 10000 2.1 330 22:21 01.01.2021
4174 Clouds 10 1018 70 10000 2.1 330 21:42 01.01.2021
4175 Clouds 10 1018 70 10000 1 0 21:20 01.01.2021
4176 Clouds 10 1018 70 10000 1 0 20:50 01.01.2021
4177 Clouds 10 1018 70 10000 1 0 20:50 01.01.2021
4178 Clouds 11 1017 66 10000 1.5 0 20:19 01.01.2021
4179 Clouds 11 1017 66 10000 1.5 0 19:42 01.01.2021
4180 Clouds 11 1017 66 10000 1.5 0 19:22 01.01.2021
4181 Clouds 11 1017 66 10000 1.5 0 18:48 01.01.2021
4182 Clouds 11 1017 66 10000 1.5 0 18:29 01.01.2021
4183 Clouds 11 1016 58 10000 2.1 330 17:50 01.01.2021
4184 Clouds 12 1016 47 10000 1.11 202 17:24 01.01.2021
4185 Clouds 13 1016 47 10000 1.11 202 16:53 01.01.2021
4186 Clear 14 1018 67 10000 0.45 121 16:29 01.01.2021
4187 Clouds 15 1015 39 10000 1.5 0 15:43 01.01.2021
4188 Clear 15 1017 58 10000 0.45 244 14:52 01.01.2021
4189 Clear 15 1017 60 10000 0.89 259 14:33 01.01.2021
4190 Clear 15 1017 57 10000 0.89 205 13:45 01.01.2021
4191 Clear 15 1015 56 10000 2.24 212 13:24 01.01.2021
4192 Clear 15 1017 58 10000 1.79 258 12:39 01.01.2021
4193 Clear 15 1017 60 10000 1.34 328 12:18 01.01.2021
4194 Clouds 15 1016 59 10000 2.1 50 11:39 01.01.2021
4195 Clouds 14 1017 62 10000 1.5 0 11:18 01.01.2021
4196 Clouds 14 1017 67 10000 1.5 0 10:35 01.01.2021
4197 Clear 13 1016 71 10000 2.56 266 09:47 01.01.2021
4198 Clear 13 1018 71 10000 0.45 184 09:20 01.01.2021
4199 Clear 12 1016 81 10000 1.54 289 08:29 01.01.2021
4200 Clouds 10 1014 87 10000 1.77 296 04:53 01.01.2021
4201 Clouds 11 1014 81 10000 2.14 277 02:44 01.01.2021
4202 Clear 12 1015 71 10000 1.34 229 01:37 01.01.2021
4203 Clouds 12 1013 81 10000 1.5 0 00:28 01.01.2021
4204 Clouds 12 1013 76 10000 2.6 320 23:37 31.12.2020
4205 Clear 13 1015 66 10000 0.45 273 23:19 31.12.2020
4206 Clear 12 1012 65 10000 1.79 161 22:40 31.12.2020
4207 Clear 13 1012 65 10000 1.34 151 22:20 31.12.2020
4208 Clear 13 1012 72 10000 1.34 150 21:47 31.12.2020
4209 Clouds 13 1012 81 10000 2.1 310 21:25 31.12.2020
4210 Clouds 13 1012 81 10000 2.1 310 20:54 31.12.2020
4211 Clouds 14 1012 62 10000 1.5 0 20:21 31.12.2020
4212 Clouds 14 1012 62 10000 2.1 230 19:48 31.12.2020
4213 Clouds 14 1012 62 10000 2.1 230 19:30 31.12.2020
4214 Clouds 14 1012 67 10000 4.1 180 18:50 31.12.2020
4215 Clouds 15 1012 67 10000 4.1 180 18:24 31.12.2020
4216 Clouds 15 1011 77 10000 2.1 180 17:45 31.12.2020
4217 Clouds 14 1011 77 10000 2.1 180 17:24 31.12.2020
4218 Clouds 15 1011 72 10000 3.1 180 16:44 31.12.2020
4219 Clouds 15 1011 72 10000 3.1 180 16:26 31.12.2020
4220 Clouds 16 1011 63 10000 4.1 160 15:57 31.12.2020
4221 Clear 16 1013 77 10000 0.89 185 15:38 31.12.2020
4222 Clouds 16 1011 59 10000 3.1 180 15:18 31.12.2020
4223 Clouds 16 1011 59 10000 2.1 180 14:40 31.12.2020
4224 Clouds 16 1011 59 10000 2.1 180 14:21 31.12.2020
4225 Clouds 16 1011 52 10000 2.6 220 13:42 31.12.2020
4226 Clouds 16 1013 77 10000 1.34 147 13:24 31.12.2020
4227 Clouds 16 1013 77 10000 1.34 147 13:24 31.12.2020
4228 Clouds 16 1012 59 10000 2.6 150 12:55 31.12.2020
4229 Clouds 16 1012 59 10000 2.6 150 12:37 31.12.2020
4230 Clouds 16 1012 67 10000 2.6 160 11:58 31.12.2020
4231 Clouds 16 1012 67 10000 2.6 160 11:40 31.12.2020
4232 Clouds 16 1012 67 10000 2.6 160 11:21 31.12.2020
4233 Clouds 15 1013 77 10000 2.1 140 10:40 31.12.2020
4234 Clouds 15 1013 82 10000 2.6 150 10:22 31.12.2020
4235 Clouds 14 1013 77 10000 1 0 09:47 31.12.2020
4236 Clouds 14 1013 77 10000 1 0 09:22 31.12.2020
4237 Rain 14 1013 77 10000 1 0 08:46 31.12.2020
4238 Rain 14 1013 77 10000 1 0 08:27 31.12.2020
4239 Rain 15 1013 76 10000 1 0 07:52 31.12.2020
4240 Clear 15 1014 75 10000 2.68 170 06:50 31.12.2020
4241 Clear 14 1014 75 10000 1.79 196 05:30 31.12.2020
4242 Clear 14 1014 75 10000 1.79 196 05:30 31.12.2020
4243 Clouds 14 1013 87 10000 2.1 50 03:24 31.12.2020
4244 Clouds 14 1014 81 10000 7.35 197 02:26 31.12.2020
4245 Clouds 14 1014 87 10000 2.1 80 01:53 31.12.2020
4246 Clouds 14 1014 87 10000 2.1 80 01:33 31.12.2020
4247 Clouds 14 1014 76 10000 8.13 197 00:55 31.12.2020
4248 Clouds 14 1014 82 10000 1.5 130 00:24 31.12.2020
4249 Clouds 14 1014 76 10000 2.6 170 23:21 30.12.2020
4250 Clouds 15 1015 82 10000 2.1 160 22:56 30.12.2020
4251 Clouds 15 1015 82 10000 2.1 160 22:34 30.12.2020
4252 Clouds 15 1014 67 10000 3.6 170 21:50 30.12.2020
4253 Clouds 15 1014 67 10000 3.6 170 21:25 30.12.2020
4254 Clouds 15 1014 67 10000 3.6 190 20:53 30.12.2020
4255 Clouds 15 1015 67 10000 3.6 190 20:27 30.12.2020
4256 Clouds 15 1015 63 10000 3.6 200 19:58 30.12.2020
4257 Clouds 15 1015 63 10000 3.6 200 19:58 30.12.2020
4258 Clouds 15 1014 72 10000 3.6 180 19:36 30.12.2020
4259 Clouds 15 1015 72 10000 2.1 170 19:18 30.12.2020
4260 Clouds 15 1014 72 10000 3.1 170 18:38 30.12.2020
4261 Clouds 15 1014 72 10000 3.1 170 18:19 30.12.2020
4262 Clouds 16 1014 67 10000 3.6 170 17:42 30.12.2020
4263 Clouds 16 1014 63 10000 3.6 160 17:22 30.12.2020
4264 Clouds 16 1014 63 10000 4.1 170 16:43 30.12.2020
4265 Clear 16 1016 72 10000 2.24 74 15:51 30.12.2020
4266 Clear 16 1016 72 10000 2.24 74 15:51 30.12.2020
4267 Clouds 17 1014 59 10000 6.2 170 15:30 30.12.2020
4268 Clear 17 1016 65 10000 2.24 205 14:58 30.12.2020
4269 Clouds 17 1015 59 10000 4.6 170 14:39 30.12.2020
4270 Clear 17 1016 65 10000 2.24 211 14:18 30.12.2020
4271 Clouds 17 1015 59 10000 1.5 170 13:18 30.12.2020
4272 Clouds 17 1015 59 10000 2.1 190 12:26 30.12.2020
4273 Clouds 17 1016 59 10000 2.6 210 11:44 30.12.2020
4274 Clouds 17 1016 63 10000 2.1 190 11:22 30.12.2020
4275 Clouds 17 1016 63 10000 2.1 190 10:57 30.12.2020
4276 Clouds 17 1016 63 10000 2.1 200 10:37 30.12.2020
4277 Clouds 17 1016 67 10000 3.1 150 10:18 30.12.2020
4278 Clouds 17 1016 67 10000 8.89 202 09:41 30.12.2020
4279 Clouds 17 1016 67 10000 8.89 202 09:41 30.12.2020
4280 Clouds 16 1016 77 10000 8.37 203 08:49 30.12.2020
4281 Clouds 15 1016 87 10000 7.72 207 07:51 30.12.2020
4282 Clouds 14 1016 87 10000 8.48 206 07:24 30.12.2020
4283 Clouds 15 1015 82 10000 8.49 208 06:40 30.12.2020
4284 Clouds 15 1015 77 10000 5.1 170 05:48 30.12.2020
4285 Clouds 15 1015 77 10000 5.1 170 05:29 30.12.2020
4286 Clouds 15 1015 77 10000 3.1 170 03:41 30.12.2020
4287 Clouds 15 1015 72 10000 2.6 170 03:23 30.12.2020
4288 Clouds 15 1016 77 10000 6.79 199 02:32 30.12.2020
4289 Clouds 15 1016 82 10000 6.79 199 01:46 30.12.2020
4290 Clouds 15 1016 82 10000 6.91 201 01:28 30.12.2020
4291 Clouds 15 1016 77 10000 6.75 202 00:41 30.12.2020
4292 Clouds 14 1016 77 10000 7.3 205 00:22 30.12.2020
4293 Clouds 15 1016 67 10000 2.6 190 23:43 29.12.2020
4294 Clouds 15 1016 67 10000 2.6 190 23:24 29.12.2020
4295 Clouds 15 1016 63 10000 5.1 180 22:49 29.12.2020
4296 Clouds 15 1016 63 10000 3.1 190 22:31 29.12.2020
4297 Clouds 15 1016 67 10000 8.25 203 21:56 29.12.2020
4298 Clouds 15 1016 71 10000 8.25 203 21:37 29.12.2020
4299 Clouds 15 1016 71 10000 7.56 195 21:18 29.12.2020
4300 Clouds 15 1015 67 10000 7.56 195 20:41 29.12.2020
4301 Clouds 15 1015 67 10000 7.87 191 20:22 29.12.2020
4302 Clouds 15 1015 63 10000 4.1 200 19:43 29.12.2020
4303 Clouds 15 1015 63 10000 4.1 200 19:21 29.12.2020
4304 Clouds 15 1015 67 10000 4.1 170 18:50 29.12.2020
4305 Clouds 15 1015 67 10000 4.1 170 18:28 29.12.2020
4306 Clouds 15 1014 72 10000 4.6 180 17:46 29.12.2020
4307 Clouds 15 1014 72 10000 4.6 180 17:21 29.12.2020
4308 Clouds 15 1014 72 10000 4.6 180 17:21 29.12.2020
4309 Clouds 16 1014 72 10000 2.6 160 16:54 29.12.2020
4310 Clouds 16 1014 72 10000 3.6 160 16:26 29.12.2020
4311 Clear 16 1016 77 10000 1.79 239 15:42 29.12.2020
4312 Clear 16 1016 77 10000 1.79 241 15:23 29.12.2020
4313 Clouds 17 1014 52 10000 4.6 170 14:45 29.12.2020
4314 Clouds 17 1014 52 10000 4.6 170 14:27 29.12.2020
4315 Clouds 17 1014 48 10000 2.6 200 13:54 29.12.2020
4316 Clouds 17 1014 48 10000 2.6 210 13:23 29.12.2020
4317 Clouds 17 1015 45 10000 3.1 220 12:45 29.12.2020
4318 Clouds 17 1015 45 10000 3.1 220 12:26 29.12.2020
4319 Clouds 17 1015 48 10000 4.1 200 11:58 29.12.2020
4320 Clouds 17 1015 48 10000 3.1 190 11:31 29.12.2020
4321 Clouds 16 1015 55 10000 2.6 180 10:40 29.12.2020
4322 Clouds 16 1015 55 10000 2.6 180 10:19 29.12.2020
4323 Clear 16 1015 66 10000 3.58 185 09:39 29.12.2020
4324 Clouds 16 1015 55 10000 2.1 210 09:18 29.12.2020
4325 Clouds 15 1015 58 10000 2.6 210 08:45 29.12.2020
4326 Clouds 13 1014 76 10000 2.6 340 07:35 29.12.2020
4327 Clouds 13 1014 71 10000 6.06 232 06:58 29.12.2020
4328 Clouds 14 1013 71 10000 2.1 170 05:33 29.12.2020
4329 Clouds 13 1013 81 10000 5.05 199 01:36 29.12.2020
4330 Clear 13 1015 73 10000 1.79 211 00:24 29.12.2020
4331 Clouds 13 1013 87 10000 1.5 0 00:24 29.12.2020
4332 Clouds 13 1013 87 10000 1.5 0 00:24 29.12.2020
4333 Clouds 13 1013 81 10000 3.92 200 23:37 28.12.2020
4334 Clouds 13 1013 76 10000 1.5 0 22:44 28.12.2020
4335 Clear 13 1015 67 10000 1.34 189 21:51 28.12.2020
4336 Clear 13 1015 65 10000 1.34 208 21:30 28.12.2020
4337 Clear 13 1015 63 10000 1.79 276 20:50 28.12.2020
4338 Clear 13 1015 66 10000 1.34 215 20:31 28.12.2020
4339 Clear 13 1015 63 10000 2.24 227 19:59 28.12.2020
4340 Clouds 13 1013 81 10000 2.6 360 19:41 28.12.2020
4341 Clouds 13 1013 81 10000 2.6 360 19:21 28.12.2020
4342 Clouds 14 1013 58 10000 5.53 225 18:48 28.12.2020
4343 Clouds 14 1013 58 10000 5.6 224 18:26 28.12.2020
4344 Clouds 14 1012 58 10000 5.6 224 17:41 28.12.2020
4345 Clouds 14 1012 51 10000 2.1 200 17:18 28.12.2020
4346 Clouds 15 1012 51 10000 3.6 190 16:33 28.12.2020
4347 Clouds 15 1011 51 10000 2.6 200 15:59 28.12.2020
4348 Clear 15 1013 58 10000 1.34 203 15:40 28.12.2020
4349 Clear 15 1013 57 10000 1.34 203 14:49 28.12.2020
4350 Clouds 16 1011 45 10000 3.6 200 13:51 28.12.2020
4351 Clouds 15 1011 48 10000 3.6 200 13:24 28.12.2020
4352 Clouds 16 1012 51 10000 2.6 210 12:40 28.12.2020
4353 Clouds 16 1012 55 10000 2.6 200 12:20 28.12.2020
4354 Clouds 15 1012 51 10000 3.1 200 11:45 28.12.2020
4355 Clouds 15 1012 51 10000 3.1 200 11:23 28.12.2020
4356 Clouds 15 1013 62 10000 7.43 226 10:44 28.12.2020
4357 Clouds 15 1013 62 10000 6.91 227 10:26 28.12.2020
4358 Clouds 14 1013 76 10000 6.91 227 09:46 28.12.2020
4359 Clear 14 1015 61 10000 2.24 218 09:19 28.12.2020
4360 Clear 12 1013 73 10000 0.45 250 07:30 28.12.2020
4361 Clouds 11 1011 81 10000 6.35 227 06:48 28.12.2020
4362 Clouds 13 1012 76 10000 3.86 230 04:26 28.12.2020
4363 Clouds 13 1010 93 10000 4.22 236 01:57 28.12.2020
4364 Rain 13 1011 93 10000 4.42 235 00:30 28.12.2020
4365 Clouds 13 1011 93 10000 4.42 235 23:46 27.12.2020
4366 Clouds 14 1011 93 10000 5.6 222 23:19 27.12.2020
4367 Clouds 13 1011 100 10000 5.12 194 21:57 27.12.2020
4368 Clouds 13 1011 100 10000 5.12 194 21:57 27.12.2020
4369 Rain 13 1011 100 10000 8.04 189 21:26 27.12.2020
4370 Clouds 13 1011 100 10000 2.6 200 20:47 27.12.2020
4371 Clouds 13 1011 87 9000 6.2 150 19:46 27.12.2020
4372 Rain 13 1011 87 9000 6.2 150 19:21 27.12.2020
4373 Rain 13 1011 87 9000 6.2 150 18:41 27.12.2020
4374 Rain 13 1010 82 9000 5.7 160 18:19 27.12.2020
4375 Rain 13 1010 82 10000 5.7 150 17:43 27.12.2020
4376 Rain 13 1010 82 10000 5.7 150 17:24 27.12.2020
4377 Rain 14 1011 87 8000 4.1 180 16:35 27.12.2020
4378 Clouds 15 1011 82 7000 6.2 220 15:56 27.12.2020
4379 Clear 17 1012 74 10000 3.13 224 14:59 27.12.2020
4380 Clouds 17 1010 72 10000 9.3 160 14:41 27.12.2020
4381 Clear 17 1012 77 10000 3.13 190 14:19 27.12.2020
4382 Clouds 17 1011 72 10000 8.2 160 13:22 27.12.2020
4383 Clouds 17 1012 72 10000 3.58 223 12:47 27.12.2020
4384 Clouds 17 1013 69 10000 3.13 213 12:18 27.12.2020
4385 Clouds 17 1014 74 10000 2.68 81 11:39 27.12.2020
4386 Clouds 17 1013 67 10000 7.2 180 10:52 27.12.2020
4387 Clouds 17 1012 68 10000 9.3 160 10:25 27.12.2020
4388 Clouds 17 1013 63 10000 8.2 160 09:56 27.12.2020
4389 Clouds 17 1013 72 10000 6.7 150 08:50 27.12.2020
4390 Clouds 16 1013 77 10000 7.7 150 08:26 27.12.2020
4391 Clouds 15 1013 77 10000 7.7 150 07:27 27.12.2020
4392 Clouds 15 1013 82 10000 5.1 160 05:46 27.12.2020
4393 Clouds 15 1013 82 10000 6.2 160 04:32 27.12.2020
4394 Clouds 15 1016 86 10000 1.79 245 03:21 27.12.2020
4395 Clouds 15 1014 82 10000 3.1 140 01:34 27.12.2020
4396 Clouds 15 1015 77 10000 2.6 160 00:24 27.12.2020
4397 Clouds 16 1015 77 10000 2.6 160 23:40 26.12.2020
4398 Clouds 15 1015 87 10000 2.1 180 23:19 26.12.2020
4399 Clouds 15 1015 87 10000 2.1 180 22:36 26.12.2020
4400 Clouds 15 1015 87 10000 2.1 180 22:18 26.12.2020
4401 Clouds 15 1015 82 10000 2.1 140 21:48 26.12.2020
4402 Clouds 16 1015 82 10000 2.1 140 21:24 26.12.2020
4403 Clouds 16 1015 82 10000 2.1 140 20:43 26.12.2020
4404 Clouds 16 1015 82 10000 2.1 140 20:19 26.12.2020
4405 Clouds 16 1015 77 10000 2.1 180 19:29 26.12.2020
4406 Clouds 16 1014 82 10000 3.1 160 18:53 26.12.2020
4407 Clouds 16 1014 77 10000 3.1 170 18:32 26.12.2020
4408 Clouds 16 1014 77 10000 2.6 110 17:44 26.12.2020
4409 Clouds 16 1014 77 10000 2.6 110 17:26 26.12.2020
4410 Clouds 16 1014 72 10000 2.1 140 16:37 26.12.2020
4411 Clouds 17 1014 72 10000 2.6 150 15:52 26.12.2020
4412 Clouds 17 1014 68 10000 3.6 150 15:19 26.12.2020
4413 Clouds 18 1013 68 10000 4.1 170 14:29 26.12.2020
4414 Clouds 18 1015 78 10000 1.79 130 13:56 26.12.2020
4415 Clouds 18 1015 79 10000 1.79 198 13:36 26.12.2020
4416 Clouds 18 1015 76 10000 2.24 121 12:53 26.12.2020
4417 Clouds 18 1016 77 10000 1.79 186 12:30 26.12.2020
4418 Clouds 19 1014 63 10000 2.6 160 11:59 26.12.2020
4419 Clouds 19 1015 63 10000 3.6 120 11:41 26.12.2020
4420 Clouds 18 1015 63 10000 2.1 140 11:19 26.12.2020
4421 Clouds 18 1015 68 10000 2.1 120 10:43 26.12.2020
4422 Clouds 18 1015 68 10000 2.1 120 10:23 26.12.2020
4423 Clear 17 1017 75 10000 0.89 255 09:41 26.12.2020
4424 Clouds 16 1015 82 10000 1.5 0 08:54 26.12.2020
4425 Clouds 13 1015 93 10000 2.32 195 08:19 26.12.2020
4426 Clouds 11 1015 100 10000 1.73 209 07:21 26.12.2020
4427 Clouds 11 1015 93 10000 1.45 209 04:39 26.12.2020
4428 Clouds 11 1015 93 10000 1.57 254 02:47 26.12.2020
4429 Clouds 12 1015 93 10000 1.56 253 00:36 26.12.2020
4430 Clouds 12 1016 87 10000 1.76 245 23:49 25.12.2020
4431 Clouds 13 1016 87 10000 1.81 247 23:28 25.12.2020
4432 Clouds 12 1016 87 10000 1.81 247 22:58 25.12.2020
4433 Clouds 13 1016 87 10000 1.99 241 22:26 25.12.2020
4434 Clouds 13 1015 81 10000 1.99 241 21:44 25.12.2020
4435 Clouds 13 1015 87 10000 1.8 220 21:25 25.12.2020
4436 Clouds 13 1015 87 10000 1.8 220 20:45 25.12.2020
4437 Clouds 13 1015 87 10000 1.75 214 20:27 25.12.2020
4438 Clouds 14 1015 82 10000 1.75 214 19:43 25.12.2020
4439 Clouds 14 1015 87 10000 1.97 211 18:49 25.12.2020
4440 Clouds 14 1015 87 10000 2.13 213 18:30 25.12.2020
4441 Clouds 15 1015 77 10000 2.13 213 17:35 25.12.2020
4442 Clouds 15 1015 72 10000 1.5 0 16:55 25.12.2020
4443 Clouds 16 1015 67 10000 2.6 180 16:25 25.12.2020
4444 Clouds 16 1015 67 10000 3.1 160 15:50 25.12.2020
4445 Clouds 17 1016 72 10000 0.45 227 15:32 25.12.2020
4446 Clouds 17 1016 64 10000 0.89 204 14:38 25.12.2020
4447 Clouds 17 1016 63 10000 1.34 212 14:19 25.12.2020
4448 Clouds 17 1016 62 10000 0.89 197 13:43 25.12.2020
4449 Clear 17 1016 62 10000 1.34 191 13:24 25.12.2020
4450 Clear 17 1014 65 10000 2.68 161 12:28 25.12.2020
4451 Clear 17 1014 69 10000 3.13 185 11:50 25.12.2020
4452 Clouds 17 1015 59 10000 1.5 0 11:25 25.12.2020
4453 Clouds 17 1015 59 10000 1.5 0 11:25 25.12.2020
4454 Clouds 17 1016 68 10000 2.1 110 10:49 25.12.2020
4455 Clouds 16 1016 72 10000 2.1 40 10:22 25.12.2020
4456 Clouds 15 1016 87 10000 1.5 0 09:27 25.12.2020
4457 Clouds 14 1016 93 10000 1.5 0 08:47 25.12.2020
4458 Clouds 12 1015 100 10000 1.8 304 07:52 25.12.2020
4459 Clouds 10 1015 93 10000 1.67 288 06:44 25.12.2020
4460 Clouds 11 1015 87 10000 1.69 287 02:50 25.12.2020
4461 Clouds 11 1016 87 10000 1.38 280 01:18 25.12.2020
4462 Clouds 11 1016 93 10000 1.27 275 00:18 25.12.2020
4463 Clouds 12 1016 93 10000 1.24 271 23:23 24.12.2020
4464 Clouds 12 1017 93 10000 1.2 264 22:40 24.12.2020
4465 Clouds 12 1017 87 10000 1.2 264 22:19 24.12.2020
4466 Clouds 13 1017 81 10000 1.5 340 21:32 24.12.2020
4467 Clouds 13 1017 82 10000 1.3 245 20:20 24.12.2020
4468 Clouds 13 1017 82 10000 2.6 80 18:39 24.12.2020
4469 Clouds 14 1017 87 10000 1.5 0 18:18 24.12.2020
4470 Clouds 14 1017 77 10000 1.99 222 17:36 24.12.2020
4471 Clear 15 1017 76 10000 0.89 161 16:28 24.12.2020
4472 Clear 15 1017 74 10000 1.34 161 15:59 24.12.2020
4473 Clear 15 1017 74 10000 1.34 161 15:59 24.12.2020
4474 Clear 15 1017 73 10000 1.34 161 15:41 24.12.2020
4475 Clear 16 1017 72 10000 1.79 161 15:19 24.12.2020
4476 Clear 16 1017 71 10000 0.89 161 14:42 24.12.2020
4477 Clear 16 1017 71 10000 2.24 161 14:23 24.12.2020
4478 Clear 16 1017 71 10000 1.79 161 14:23 24.12.2020
4479 Clear 16 1017 70 10000 2.24 161 13:41 24.12.2020
4480 Clear 16 1017 70 10000 1.79 159 13:21 24.12.2020
4481 Clear 16 1019 67 10000 2.6 150 12:41 24.12.2020
4482 Clear 16 1019 67 10000 2.6 150 12:21 24.12.2020
4483 Clear 16 1020 72 10000 2.74 237 11:41 24.12.2020
4484 Clear 15 1020 72 10000 2.25 243 11:20 24.12.2020
4485 Clear 15 1020 72 10000 2.25 243 10:52 24.12.2020
4486 Clear 15 1021 72 10000 1.61 243 10:34 24.12.2020
4487 Clear 14 1021 71 10000 1.61 243 09:52 24.12.2020
4488 Clear 14 1021 76 10000 1.2 264 09:24 24.12.2020
4489 Clear 12 1021 93 10000 1.15 285 08:20 24.12.2020
4490 Clear 11 1021 93 10000 1.15 285 07:39 24.12.2020
4491 Clouds 10 1021 100 10000 0.91 290 07:18 24.12.2020
4492 Clouds 9 1021 93 10000 1.02 306 05:36 24.12.2020
4493 Clouds 9 1022 93 10000 0.94 317 01:57 24.12.2020
4494 Clouds 9 1022 93 10000 0.94 317 01:57 24.12.2020
4495 Clouds 10 1022 93 10000 0.94 317 01:37 24.12.2020
4496 Clouds 9 1022 93 10000 1.5 340 01:18 24.12.2020
4497 Clouds 10 1022 93 10000 0.95 288 00:21 24.12.2020
4498 Clouds 9 1023 87 10000 0.95 288 23:49 23.12.2020
4499 Clouds 10 1023 87 10000 0.95 288 23:30 23.12.2020
4500 Clouds 10 1023 87 10000 1.5 350 22:57 23.12.2020
4501 Clouds 11 1023 87 10000 2.1 340 22:31 23.12.2020
4502 Clouds 11 1023 87 10000 0.55 287 21:56 23.12.2020
4503 Clouds 11 1023 87 10000 0.34 300 21:28 23.12.2020
4504 Clouds 10 1023 87 10000 0.34 300 20:54 23.12.2020
4505 Clouds 11 1023 81 10000 0.34 300 20:36 23.12.2020
4506 Clouds 10 1023 87 10000 1.5 0 20:18 23.12.2020
4507 Clouds 11 1023 87 10000 0.26 4 19:39 23.12.2020
4508 Clouds 11 1023 81 10000 0.35 6 19:20 23.12.2020
4509 Clouds 11 1023 81 10000 0.27 342 18:48 23.12.2020
4510 Clouds 11 1022 87 10000 0.41 312 18:24 23.12.2020
4511 Clouds 12 1022 82 10000 2.1 360 17:39 23.12.2020
4512 Clouds 12 1022 82 10000 2.1 360 17:39 23.12.2020
4513 Clouds 12 1022 76 10000 1.5 0 17:20 23.12.2020
4514 Clouds 13 1022 77 10000 1.5 0 16:47 23.12.2020
4515 Clouds 13 1022 77 10000 1.5 0 16:29 23.12.2020
4516 Clouds 14 1022 67 10000 2.1 180 15:58 23.12.2020
4517 Clouds 15 1022 67 10000 2.1 180 15:37 23.12.2020
4518 Clouds 15 1022 67 10000 2.1 180 15:19 23.12.2020
4519 Clouds 15 1022 67 10000 2.1 210 14:40 23.12.2020
4520 Clouds 15 1022 67 10000 2.1 210 14:21 23.12.2020
4521 Clouds 15 1022 67 10000 2.1 180 13:44 23.12.2020
4522 Clouds 15 1023 67 10000 2.1 180 13:20 23.12.2020
4523 Clouds 15 1023 67 10000 2.1 180 12:54 23.12.2020
4524 Clouds 15 1023 63 10000 1.5 0 12:30 23.12.2020
4525 Clouds 15 1023 63 10000 1.5 0 11:56 23.12.2020
4526 Clouds 15 1023 67 10000 1.5 0 11:31 23.12.2020
4527 Clouds 14 1024 67 10000 1.5 0 10:56 23.12.2020
4528 Clouds 14 1024 62 10000 1.33 239 10:37 23.12.2020
4529 Clouds 13 1024 76 10000 0.58 244 09:38 23.12.2020
4530 Clouds 12 1024 81 10000 0.26 349 08:57 23.12.2020
4531 Clouds 11 1024 87 10000 0.69 20 08:31 23.12.2020
4532 Clouds 10 1024 87 10000 2.1 10 07:49 23.12.2020
4533 Clouds 9 1024 87 10000 1.67 31 06:42 23.12.2020
4534 Clouds 9 1024 87 10000 1.98 32 05:58 23.12.2020
4535 Clouds 9 1024 93 10000 1.63 42 05:23 23.12.2020
4536 Clouds 9 1024 87 10000 1.66 46 01:59 23.12.2020
4537 Clouds 9 1025 93 10000 1.87 53 00:33 23.12.2020
4538 Clouds 9 1025 81 10000 2.13 43 23:45 22.12.2020
4539 Clouds 9 1025 81 10000 2.24 40 23:23 22.12.2020
4540 Clouds 10 1025 81 10000 2.24 40 22:43 22.12.2020
4541 Clouds 10 1025 81 10000 2.21 39 22:24 22.12.2020
4542 Clouds 10 1025 81 10000 2.21 39 21:52 22.12.2020
4543 Clouds 10 1025 76 10000 2.13 35 21:21 22.12.2020
4544 Clouds 10 1025 76 10000 2.13 35 20:54 22.12.2020
4545 Clouds 10 1025 76 10000 2.13 35 20:35 22.12.2020
4546 Clouds 11 1025 81 10000 2.12 46 19:59 22.12.2020
4547 Clouds 11 1025 76 10000 2.12 46 19:41 22.12.2020
4548 Clouds 11 1025 81 10000 2.1 50 19:20 22.12.2020
4549 Clouds 11 1026 75 10000 2.24 25 18:44 22.12.2020
4550 Clouds 11 1026 75 10000 1.34 38 18:24 22.12.2020
4551 Clouds 11 1024 71 10000 2.1 360 17:41 22.12.2020
4552 Clouds 11 1024 71 10000 2.1 360 17:18 22.12.2020
4553 Clouds 11 1024 71 10000 2.1 360 17:18 22.12.2020
4554 Clouds 11 1024 66 10000 2.1 360 16:47 22.12.2020
4555 Clouds 12 1024 66 10000 2.1 360 16:22 22.12.2020
4556 Clouds 12 1024 67 10000 2.1 360 15:51 22.12.2020
4557 Clouds 12 1024 67 10000 2.1 360 15:33 22.12.2020
4558 Clouds 13 1024 67 10000 2.1 360 14:59 22.12.2020
4559 Clouds 13 1024 67 10000 2.1 360 14:41 22.12.2020
4560 Clouds 13 1024 67 10000 3.1 350 14:22 22.12.2020
4561 Clouds 12 1024 67 10000 3.1 350 13:47 22.12.2020
4562 Clouds 12 1025 71 10000 1.79 19 13:19 22.12.2020
4563 Clouds 12 1025 62 10000 3.1 350 12:55 22.12.2020
4564 Clouds 12 1025 71 10000 1.79 17 12:36 22.12.2020
4565 Clouds 12 1026 70 10000 2.24 14 12:18 22.12.2020
4566 Clouds 12 1026 71 10000 2.68 18 11:40 22.12.2020
4567 Clouds 12 1026 70 10000 2.24 55 11:21 22.12.2020
4568 Clouds 12 1026 68 10000 1.79 23 10:53 22.12.2020
4569 Clouds 12 1025 67 10000 3.1 350 10:25 22.12.2020
4570 Clouds 12 1025 71 10000 2.64 19 09:57 22.12.2020
4571 Clouds 12 1025 71 10000 2.66 24 09:27 22.12.2020
4572 Clouds 12 1025 76 10000 2.66 24 08:53 22.12.2020
4573 Clouds 11 1025 81 10000 2.49 19 08:34 22.12.2020
4574 Clouds 11 1025 76 10000 2.49 19 07:56 22.12.2020
4575 Clouds 11 1025 76 10000 2.49 19 07:56 22.12.2020
4576 Clouds 10 1025 81 10000 2.49 13 07:23 22.12.2020
4577 Clouds 10 1025 81 10000 1 0 05:51 22.12.2020
4578 Clouds 11 1025 76 10000 1.5 0 03:46 22.12.2020
4579 Clouds 11 1025 71 10000 2.1 330 01:44 22.12.2020
4580 Clouds 11 1024 73 10000 0.45 59 23:56 21.12.2020
4581 Clouds 11 1025 71 10000 2.31 11 23:38 21.12.2020
4582 Clouds 11 1025 71 10000 2.46 8 23:18 21.12.2020
4583 Clouds 11 1025 71 10000 2.46 8 22:36 21.12.2020
4584 Clouds 11 1025 71 10000 2.1 330 22:18 21.12.2020
4585 Clouds 11 1025 71 10000 2.1 330 21:44 21.12.2020
4586 Clouds 11 1025 71 10000 2.1 330 21:26 21.12.2020
4587 Clouds 11 1025 71 10000 2.6 330 20:43 21.12.2020
4588 Clouds 11 1025 66 10000 2.6 350 20:20 21.12.2020
4589 Clouds 11 1025 71 10000 2.1 350 19:46 21.12.2020
4590 Clouds 11 1025 71 10000 2.1 350 19:20 21.12.2020
4591 Clouds 11 1025 71 10000 2.1 360 18:55 21.12.2020
4592 Clouds 11 1026 74 10000 2.24 5 18:36 21.12.2020
4593 Clouds 11 1025 66 10000 2.1 340 18:18 21.12.2020
4594 Clouds 11 1024 66 10000 2.1 350 17:42 21.12.2020
4595 Clouds 12 1024 66 10000 2.1 350 17:22 21.12.2020
4596 Clouds 12 1024 66 10000 4.1 350 16:39 21.12.2020
4597 Clouds 12 1024 66 10000 4.1 350 16:19 21.12.2020
4598 Clouds 12 1025 73 10000 1.79 5 15:41 21.12.2020
4599 Clouds 12 1024 58 10000 4.6 340 14:58 21.12.2020
4600 Clouds 13 1024 62 10000 5.1 350 14:22 21.12.2020
4601 Clouds 13 1024 62 10000 5.1 350 13:52 21.12.2020
4602 Clouds 13 1025 66 10000 2.68 38 13:33 21.12.2020
4603 Clouds 13 1025 67 10000 2.68 42 12:57 21.12.2020
4604 Clouds 13 1025 67 10000 2.68 42 12:57 21.12.2020
4605 Clouds 13 1025 66 10000 2.68 10 12:37 21.12.2020
4606 Clouds 13 1024 58 10000 3.6 360 12:18 21.12.2020
4607 Clouds 13 1025 62 10000 3.6 10 11:42 21.12.2020
4608 Clouds 13 1025 62 10000 3.6 10 11:22 21.12.2020
4609 Clouds 13 1026 68 10000 2.68 73 10:57 21.12.2020
4610 Clouds 13 1025 62 10000 2.6 360 10:38 21.12.2020
4611 Clouds 13 1025 66 10000 3.1 20 09:55 21.12.2020
4612 Clouds 12 1025 66 10000 3.6 10 09:37 21.12.2020
4613 Clouds 12 1025 66 10000 2.1 330 09:18 21.12.2020
4614 Clouds 11 1025 76 10000 2.39 6 08:21 21.12.2020
4615 Clouds 11 1024 76 10000 2.51 358 06:48 21.12.2020
4616 Clouds 11 1024 71 10000 2.52 3 04:59 21.12.2020
4617 Clouds 11 1024 71 10000 2.02 353 04:27 21.12.2020
4618 Clouds 11 1025 76 10000 2.53 11 00:36 21.12.2020
4619 Clouds 11 1025 76 10000 2.53 11 23:47 20.12.2020
4620 Clouds 11 1025 76 10000 2.89 21 23:20 20.12.2020
4621 Rain 11 1025 76 10000 2.1 330 22:44 20.12.2020
4622 Rain 11 1025 76 10000 2.38 26 22:23 20.12.2020
4623 Clouds 11 1026 75 10000 2.24 33 21:42 20.12.2020
4624 Clouds 11 1026 75 10000 2.24 12 21:24 20.12.2020
4625 Clouds 11 1026 74 10000 1.79 5 20:59 20.12.2020
4626 Clouds 12 1025 71 10000 2.67 27 20:40 20.12.2020
4627 Clouds 11 1025 76 10000 2.45 32 20:21 20.12.2020
4628 Clouds 11 1025 81 10000 2.45 32 19:42 20.12.2020
4629 Clouds 12 1025 81 10000 3.03 38 19:20 20.12.2020
4630 Clouds 12 1024 76 10000 2.82 28 18:47 20.12.2020
4631 Clouds 12 1024 76 10000 3.51 37 18:29 20.12.2020
4632 Clouds 12 1024 81 10000 3.51 37 17:47 20.12.2020
4633 Clouds 12 1024 81 10000 2.83 35 17:28 20.12.2020
4634 Clouds 12 1024 71 10000 1 0 16:48 20.12.2020
4635 Clouds 12 1024 71 10000 1 0 16:29 20.12.2020
4636 Clouds 12 1024 71 10000 2.6 90 15:51 20.12.2020
4637 Clouds 12 1024 71 10000 3.1 90 15:28 20.12.2020
4638 Clouds 13 1024 67 10000 1 0 14:58 20.12.2020
4639 Clouds 13 1024 67 10000 1 0 14:36 20.12.2020
4640 Clouds 13 1024 67 10000 1 0 13:57 20.12.2020
4641 Clouds 13 1024 67 10000 1 0 13:37 20.12.2020
4642 Clouds 13 1024 76 10000 2.1 100 13:18 20.12.2020
4643 Clouds 13 1024 76 10000 2.1 100 12:44 20.12.2020
4644 Clouds 13 1024 76 10000 2.1 100 12:22 20.12.2020
4645 Clouds 13 1025 67 10000 1.85 22 11:49 20.12.2020
4646 Clouds 13 1025 67 10000 1.99 17 11:26 20.12.2020
4647 Clouds 13 1025 76 10000 1.99 17 10:49 20.12.2020
4648 Clouds 12 1025 76 10000 2.87 28 10:21 20.12.2020
4649 Clouds 12 1025 76 10000 2.87 28 09:47 20.12.2020
4650 Clouds 12 1025 81 10000 3.17 34 09:29 20.12.2020
4651 Clouds 12 1025 81 10000 3.17 34 08:59 20.12.2020
4652 Clouds 12 1025 81 10000 3.17 34 08:40 20.12.2020
4653 Clouds 12 1025 81 10000 2.73 22 07:59 20.12.2020
4654 Clouds 11 1025 81 10000 2.51 18 07:19 20.12.2020
4655 Clouds 12 1025 81 10000 2.95 26 02:47 20.12.2020
4656 Clouds 11 1025 87 10000 2.7 31 00:59 20.12.2020
4657 Clouds 12 1025 81 10000 2.72 31 23:41 19.12.2020
4658 Clouds 12 1025 81 10000 2.73 32 23:18 19.12.2020
4659 Clouds 12 1025 81 10000 2.73 32 22:44 19.12.2020
4660 Clouds 12 1025 81 10000 2.62 33 22:24 19.12.2020
4661 Clouds 12 1025 81 10000 2.62 33 21:45 19.12.2020
4662 Clouds 12 1025 81 10000 2.62 39 21:26 19.12.2020
4663 Clouds 12 1025 81 10000 2.62 39 20:59 19.12.2020
4664 Clouds 12 1025 76 10000 2.62 39 20:36 19.12.2020
4665 Clouds 13 1025 71 10000 2.49 40 20:18 19.12.2020
4666 Clouds 13 1025 71 10000 2.6 320 19:41 19.12.2020
4667 Clouds 13 1025 71 10000 2.6 320 19:23 19.12.2020
4668 Clouds 13 1025 67 10000 2.1 320 18:34 19.12.2020
4669 Clouds 13 1025 67 10000 2.1 320 17:56 19.12.2020
4670 Clouds 13 1025 67 10000 3.1 320 17:36 19.12.2020
4671 Clouds 13 1025 67 10000 3.1 320 17:18 19.12.2020
4672 Clouds 13 1025 67 10000 2.6 300 16:40 19.12.2020
4673 Clouds 13 1025 67 10000 2.6 300 16:22 19.12.2020
4674 Clouds 14 1025 62 10000 2.39 17 15:54 19.12.2020
4675 Clouds 14 1025 62 10000 2.7 14 15:21 19.12.2020
4676 Clouds 14 1025 62 10000 2.1 330 14:38 19.12.2020
4677 Clouds 14 1025 62 10000 2.6 310 13:58 19.12.2020
4678 Clouds 14 1025 62 10000 3.6 330 13:37 19.12.2020
4679 Clouds 14 1026 66 10000 2.24 5 13:18 19.12.2020
4680 Clouds 15 1025 59 10000 2.6 330 12:42 19.12.2020
4681 Clouds 15 1025 59 10000 2.6 330 12:24 19.12.2020
4682 Clouds 15 1025 59 10000 2.6 330 11:53 19.12.2020
4683 Clouds 15 1026 67 10000 2.5 18 11:33 19.12.2020
4684 Clouds 14 1026 67 10000 2.82 19 10:42 19.12.2020
4685 Clouds 14 1027 71 10000 2.78 16 10:20 19.12.2020
4686 Clouds 13 1027 76 10000 2.78 16 09:42 19.12.2020
4687 Clouds 13 1026 87 10000 2.58 15 08:59 19.12.2020
4688 Clouds 12 1026 87 10000 2.72 13 08:24 19.12.2020
4689 Clouds 10 1026 93 10000 2.8 11 07:23 19.12.2020
4690 Clouds 10 1026 93 10000 2.97 15 06:51 19.12.2020
4691 Clouds 10 1026 93 10000 3.12 18 06:18 19.12.2020
4692 Clouds 10 1025 93 10000 3.1 20 05:18 19.12.2020
4693 Clouds 10 1026 93 10000 3.2 22 01:36 19.12.2020
4694 Clouds 10 1026 87 10000 3.03 24 00:36 19.12.2020
4695 Clouds 10 1026 93 10000 2.98 26 00:18 19.12.2020
4696 Clouds 11 1026 87 10000 2.1 350 23:44 18.12.2020
4697 Clouds 11 1026 87 10000 2.1 350 23:22 18.12.2020
4698 Clouds 11 1026 87 10000 2.1 40 22:45 18.12.2020
4699 Clouds 11 1026 87 10000 2.1 40 22:21 18.12.2020
4700 Clouds 11 1026 93 10000 2.78 27 21:47 18.12.2020
4701 Clouds 12 1027 81 10000 1.79 22 21:28 18.12.2020
4702 Clouds 11 1025 87 10000 2.54 27 20:40 18.12.2020
4703 Clouds 12 1025 81 10000 3.06 33 20:19 18.12.2020
4704 Clouds 11 1025 81 10000 3.06 33 19:41 18.12.2020
4705 Clouds 12 1025 81 10000 2.94 35 19:20 18.12.2020
4706 Clouds 12 1025 76 10000 2.1 360 18:40 18.12.2020
4707 Clouds 12 1025 71 10000 2.1 330 18:22 18.12.2020
4708 Clouds 12 1025 76 10000 3.1 350 17:24 18.12.2020
4709 Clouds 13 1025 71 10000 1.5 340 16:49 18.12.2020
4710 Clouds 13 1025 71 10000 3.1 10 16:27 18.12.2020
4711 Clouds 13 1025 71 10000 3.1 10 15:59 18.12.2020
4712 Clouds 13 1025 67 10000 3.1 20 15:41 18.12.2020
4713 Clouds 13 1024 67 10000 2.6 360 15:22 18.12.2020
4714 Clouds 13 1024 67 10000 2.6 360 14:54 18.12.2020
4715 Clouds 13 1024 67 10000 4.1 10 14:21 18.12.2020
4716 Clouds 13 1024 67 10000 4.1 10 13:50 18.12.2020
4717 Clouds 13 1024 76 10000 0.45 38 13:30 18.12.2020
4718 Clouds 13 1025 67 10000 4.1 30 12:49 18.12.2020
4719 Clouds 14 1024 76 10000 1.79 51 12:21 18.12.2020
4720 Clouds 14 1025 67 10000 4.1 340 11:23 18.12.2020
4721 Clouds 14 1026 67 10000 2.1 360 10:40 18.12.2020
4722 Clouds 14 1026 67 10000 1.88 12 10:20 18.12.2020
4723 Clouds 13 1026 67 10000 2.1 330 09:39 18.12.2020
4724 Clouds 13 1026 67 10000 2.1 330 09:21 18.12.2020
4725 Clouds 13 1025 71 10000 2.6 340 08:55 18.12.2020
4726 Clouds 12 1025 71 10000 2.1 340 08:30 18.12.2020
4727 Clouds 12 1025 71 10000 2.1 340 07:46 18.12.2020
4728 Clouds 12 1025 71 10000 2.1 350 07:18 18.12.2020
4729 Clouds 12 1025 71 10000 2.1 350 06:51 18.12.2020
4730 Clouds 12 1024 76 10000 2.1 350 05:42 18.12.2020
4731 Clouds 11 1024 76 10000 2.6 340 04:51 18.12.2020
4732 Clouds 11 1024 81 10000 1.5 0 02:24 18.12.2020
4733 Clouds 11 1024 81 10000 2.6 340 01:40 18.12.2020
4734 Clouds 11 1024 81 10000 2.1 340 00:27 18.12.2020
4735 Clouds 11 1024 81 10000 1.5 0 23:50 17.12.2020
4736 Clouds 11 1024 81 10000 2.6 350 23:19 17.12.2020
4737 Clouds 11 1024 87 10000 1.27 28 22:47 17.12.2020
4738 Clouds 11 1024 87 10000 1.25 29 22:26 17.12.2020
4739 Clouds 11 1024 87 10000 1.25 29 21:43 17.12.2020
4740 Clouds 12 1024 81 10000 1.48 30 21:19 17.12.2020
4741 Clouds 11 1024 81 10000 1.48 30 20:43 17.12.2020
4742 Clouds 12 1024 81 10000 1.9 30 20:19 17.12.2020
4743 Clouds 12 1024 81 10000 1.9 30 19:49 17.12.2020
4744 Clouds 12 1024 81 10000 1.98 22 19:24 17.12.2020
4745 Clouds 12 1024 76 10000 1.89 30 18:47 17.12.2020
4746 Clouds 13 1024 76 10000 1.66 22 18:27 17.12.2020
4747 Clouds 13 1024 76 10000 1.5 0 17:58 17.12.2020
4748 Clouds 13 1023 76 10000 1.5 0 17:36 17.12.2020
4749 Clouds 13 1023 71 10000 2.1 360 17:18 17.12.2020
4750 Clouds 13 1023 71 10000 2.1 360 16:37 17.12.2020
4751 Clouds 14 1023 62 10000 2.6 350 16:18 17.12.2020
4752 Clouds 14 1023 62 10000 2.1 330 15:41 17.12.2020
4753 Clouds 14 1023 62 10000 2.6 360 15:20 17.12.2020
4754 Clouds 14 1023 62 10000 2.6 360 14:47 17.12.2020
4755 Clouds 14 1024 69 10000 0.89 25 14:19 17.12.2020
4756 Clouds 14 1023 67 10000 2.1 340 13:42 17.12.2020
4757 Clouds 14 1023 62 10000 3.1 330 13:18 17.12.2020
4758 Clouds 14 1024 62 10000 3.1 340 12:39 17.12.2020
4759 Clouds 14 1024 62 10000 3.1 330 12:21 17.12.2020
4760 Clouds 14 1024 62 10000 2.6 330 11:41 17.12.2020
4761 Clouds 14 1024 62 10000 2.6 320 11:20 17.12.2020
4762 Clouds 15 1024 62 10000 2.6 330 10:40 17.12.2020
4763 Clouds 14 1024 67 10000 1.72 5 09:37 17.12.2020
4764 Clouds 13 1024 76 10000 2.28 11 08:50 17.12.2020
4765 Clouds 11 1024 76 10000 2.6 350 07:42 17.12.2020
4766 Clouds 10 1024 76 10000 2.6 350 07:21 17.12.2020
4767 Clouds 10 1024 87 10000 1 0 06:47 17.12.2020
4768 Clouds 9 1024 87 10000 1 0 06:29 17.12.2020
4769 Clouds 10 1023 81 10000 1 0 03:30 17.12.2020
4770 Clouds 11 1023 81 10000 2.7 17 00:27 17.12.2020
4771 Clouds 11 1023 81 10000 1 0 23:42 16.12.2020
4772 Clouds 11 1023 87 10000 1 0 23:18 16.12.2020
4773 Clouds 11 1023 87 10000 1 0 22:48 16.12.2020
4774 Clouds 11 1023 87 10000 1 0 22:30 16.12.2020
4775 Clouds 11 1023 81 10000 1 0 21:44 16.12.2020
4776 Clouds 11 1023 81 10000 1 0 21:23 16.12.2020
4777 Clouds 11 1023 81 10000 1 0 20:52 16.12.2020
4778 Clouds 11 1022 62 10000 2.6 330 20:20 16.12.2020
4779 Clouds 12 1022 62 10000 2.6 330 19:43 16.12.2020
4780 Clouds 12 1022 62 10000 2.6 330 19:43 16.12.2020
4781 Clouds 12 1022 67 10000 2.6 320 19:18 16.12.2020
4782 Clouds 12 1022 67 10000 2.6 320 18:51 16.12.2020
4783 Clouds 12 1022 67 10000 2.6 320 18:26 16.12.2020
4784 Clouds 12 1022 67 10000 3.6 340 17:38 16.12.2020
4785 Clear 12 1024 78 10000 0.89 13 16:56 16.12.2020
4786 Clear 13 1021 76 10000 1.34 61 16:37 16.12.2020
4787 Clouds 13 1022 67 10000 3.6 320 16:19 16.12.2020
4788 Clouds 14 1022 59 10000 3.6 330 15:46 16.12.2020
4789 Clouds 14 1022 63 10000 4.1 340 15:19 16.12.2020
4790 Clouds 15 1021 63 10000 4.6 330 14:45 16.12.2020
4791 Clouds 15 1021 63 10000 4.6 330 14:27 16.12.2020
4792 Clouds 15 1021 63 10000 4.1 320 13:42 16.12.2020
4793 Clouds 15 1022 59 10000 5.1 330 13:21 16.12.2020
4794 Clouds 15 1022 63 10000 4.6 340 12:44 16.12.2020
4795 Clouds 15 1022 59 10000 5.1 340 11:55 16.12.2020
4796 Clouds 14 1022 59 10000 4.6 340 11:36 16.12.2020
4797 Clouds 14 1022 63 10000 4.1 340 10:58 16.12.2020
4798 Clouds 14 1023 59 10000 3.1 340 10:38 16.12.2020
4799 Clouds 14 1022 62 10000 3.6 330 09:56 16.12.2020
4800 Clouds 14 1022 62 10000 3.6 330 09:34 16.12.2020
4801 Clouds 12 1022 67 10000 3.1 320 08:23 16.12.2020
4802 Clouds 11 1022 71 10000 3.1 320 07:47 16.12.2020
4803 Clouds 11 1022 71 10000 3.1 320 07:29 16.12.2020
4804 Clouds 11 1021 76 10000 2.6 320 05:42 16.12.2020
4805 Clouds 11 1021 71 10000 2.1 310 02:20 16.12.2020
4806 Clouds 12 1020 71 10000 3.1 330 23:59 15.12.2020
4807 Clear 12 1022 80 10000 2.98 350 23:40 15.12.2020
4808 Clouds 12 1020 71 10000 2.6 310 22:44 15.12.2020
4809 Clouds 12 1020 71 10000 2.6 310 22:23 15.12.2020
4810 Clouds 12 1020 71 10000 2.1 310 21:49 15.12.2020
4811 Clouds 12 1020 71 10000 2.1 310 21:24 15.12.2020
4812 Clouds 12 1020 71 10000 2.6 320 20:46 15.12.2020
4813 Clouds 12 1020 71 10000 2.6 320 20:46 15.12.2020
4814 Clouds 12 1021 80 10000 0.45 9 20:27 15.12.2020
4815 Clouds 12 1020 67 10000 2.6 310 19:55 15.12.2020
4816 Clouds 12 1019 71 10000 2.6 310 19:35 15.12.2020
4817 Clouds 12 1019 71 10000 2.6 280 18:59 15.12.2020
4818 Clouds 12 1019 71 10000 3.1 320 18:39 15.12.2020
4819 Clouds 13 1018 67 10000 3.1 310 18:20 15.12.2020
4820 Clouds 13 1018 67 10000 3.1 310 17:42 15.12.2020
4821 Clouds 13 1018 67 10000 3.1 310 17:22 15.12.2020
4822 Clouds 13 1018 67 10000 4.1 330 16:37 15.12.2020
4823 Clouds 13 1018 67 10000 4.1 320 16:19 15.12.2020
4824 Clouds 13 1018 67 10000 4.1 320 15:37 15.12.2020
4825 Clouds 13 1017 67 10000 5.1 320 14:59 15.12.2020
4826 Clouds 13 1017 67 10000 7.7 340 14:41 15.12.2020
4827 Clouds 13 1016 67 10000 6.2 340 14:19 15.12.2020
4828 Clouds 13 1016 67 10000 6.2 340 13:47 15.12.2020
4829 Clouds 13 1016 67 10000 6.2 340 13:22 15.12.2020
4830 Clouds 13 1016 67 10000 6.2 330 12:44 15.12.2020
4831 Clouds 13 1016 71 10000 7.2 330 12:19 15.12.2020
4832 Clouds 13 1016 71 10000 7.7 340 11:50 15.12.2020
4833 Clouds 13 1017 67 10000 7.2 340 11:21 15.12.2020
4834 Clouds 13 1016 71 10000 5.1 340 10:45 15.12.2020
4835 Clouds 13 1016 71 10000 6.7 330 10:20 15.12.2020
4836 Clouds 13 1016 71 10000 6.7 330 09:42 15.12.2020
4837 Clouds 13 1016 71 10000 6.7 330 09:23 15.12.2020
4838 Clouds 12 1015 66 10000 5.1 330 08:40 15.12.2020
4839 Clouds 12 1015 66 10000 6.2 330 08:21 15.12.2020
4840 Clouds 12 1014 71 10000 5.1 330 07:43 15.12.2020
4841 Clouds 12 1014 71 10000 5.1 350 06:53 15.12.2020
4842 Clouds 11 1012 71 9000 6.2 320 05:34 15.12.2020
4843 Clouds 12 1010 71 9000 5.7 320 00:39 15.12.2020
4844 Clouds 12 1010 76 9000 4.1 320 23:48 14.12.2020
4845 Clouds 12 1009 76 9000 3.1 310 23:19 14.12.2020
4846 Clouds 12 1009 76 9000 3.1 310 22:40 14.12.2020
4847 Clouds 12 1009 76 9000 2.6 290 22:19 14.12.2020
4848 Clouds 12 1009 76 9000 4.1 310 21:40 14.12.2020
4849 Clouds 12 1008 76 9000 4.6 290 21:18 14.12.2020
4850 Clouds 12 1007 76 9000 3.1 270 20:46 14.12.2020
4851 Clouds 12 1007 76 9000 3.1 270 20:27 14.12.2020
4852 Clouds 12 1006 76 8000 5.1 330 19:41 14.12.2020
4853 Clouds 12 1006 76 8000 5.1 330 19:23 14.12.2020
4854 Clouds 12 1005 81 8000 6.2 330 18:43 14.12.2020
4855 Clouds 12 1005 81 8000 6.2 330 18:23 14.12.2020
4856 Clouds 12 1005 81 8000 7.7 330 17:38 14.12.2020
4857 Clouds 12 1004 81 8000 8.7 330 17:19 14.12.2020
4858 Clouds 12 1004 81 8000 8.7 330 16:42 14.12.2020
4859 Clouds 12 1003 76 10000 7.7 340 16:23 14.12.2020
4860 Clouds 12 1003 76 10000 8.2 330 15:33 14.12.2020
4861 Clouds 12 1002 76 10000 7.7 330 14:51 14.12.2020
4862 Clouds 12 1002 76 8000 9.8 340 14:32 14.12.2020
4863 Clouds 12 1001 76 8000 8.7 330 13:58 14.12.2020
4864 Clouds 12 1001 76 8000 9.3 340 13:37 14.12.2020
4865 Clouds 12 1000 81 10000 7.7 340 12:58 14.12.2020
4866 Clouds 12 1000 81 10000 9.3 340 12:40 14.12.2020
4867 Rain 12 1000 81 10000 8.2 340 12:20 14.12.2020
4868 Clouds 12 999 81 10000 9.8 330 11:30 14.12.2020
4869 Clouds 12 1000 81 10000 6.7 320 10:29 14.12.2020
4870 Clouds 12 1000 81 10000 4.1 320 09:53 14.12.2020
4871 Clouds 12 1000 81 6000 5.1 320 09:25 14.12.2020
4872 Rain 12 999 87 6000 4.1 320 08:45 14.12.2020
4873 Rain 11 999 87 6000 4.1 320 08:25 14.12.2020
4874 Clouds 11 998 81 7000 6.7 320 07:22 14.12.2020
4875 Rain 11 998 81 7000 5.7 320 06:44 14.12.2020
4876 Rain 11 998 81 7000 5.7 320 06:44 14.12.2020
4877 Clouds 12 996 87 10000 6.2 320 04:19 14.12.2020
4878 Clouds 12 997 87 8000 3.6 310 02:25 14.12.2020
4879 Rain 13 997 76 10000 4.1 320 00:52 14.12.2020
4880 Rain 13 997 76 10000 3.1 310 00:30 14.12.2020
4881 Clouds 13 997 82 10000 4.1 320 23:46 13.12.2020
4882 Clouds 13 998 82 10000 3.6 350 23:20 13.12.2020
4883 Clouds 13 997 82 10000 4.6 330 22:43 13.12.2020
4884 Clouds 13 997 87 10000 3.6 330 22:18 13.12.2020
4885 Clouds 13 997 93 10000 3.1 320 21:42 13.12.2020
4886 Clouds 13 997 100 7000 1.5 340 21:18 13.12.2020
4887 Clouds 13 998 93 7000 2.1 350 20:33 13.12.2020
4888 Rain 13 998 87 7000 2.1 30 19:50 13.12.2020
4889 Rain 14 997 77 8000 3.6 10 19:27 13.12.2020
4890 Rain 14 997 87 10000 5.56 15 18:57 13.12.2020
4891 Rain 14 997 82 10000 5.56 15 18:39 13.12.2020
4892 Clouds 14 999 87 10000 4.63 46 18:19 13.12.2020
4893 Clouds 13 998 82 10000 1.5 0 17:45 13.12.2020
4894 Clouds 14 998 82 10000 1.5 0 17:18 13.12.2020
4895 Clouds 14 997 82 10000 1.5 310 16:53 13.12.2020
4896 Clouds 14 998 82 10000 3.89 45 16:34 13.12.2020
4897 Clouds 14 998 72 10000 3.6 350 15:48 13.12.2020
4898 Clouds 14 998 72 10000 3.6 350 15:27 13.12.2020
4899 Clouds 15 998 72 10000 3.1 10 14:50 13.12.2020
4900 Clouds 15 998 72 10000 3.6 360 14:29 13.12.2020
4901 Clouds 15 999 77 10000 1.79 67 13:58 13.12.2020
4902 Clouds 15 997 77 10000 1.79 43 13:36 13.12.2020
4903 Clouds 15 999 80 10000 1.79 5 13:18 13.12.2020
4904 Clouds 15 999 80 10000 2.24 43 13:18 13.12.2020
4905 Clouds 15 1000 80 10000 1.34 32 12:36 13.12.2020
4906 Clouds 15 1000 76 10000 0.89 35 12:18 13.12.2020
4907 Clouds 16 1000 67 10000 1.43 18 11:34 13.12.2020
4908 Clouds 16 1000 72 10000 0.77 352 10:47 13.12.2020
4909 Clouds 15 1000 72 10000 0.99 332 10:29 13.12.2020
4910 Clouds 15 1000 82 10000 0.99 332 09:51 13.12.2020
4911 Clouds 14 1000 93 10000 1.86 5 08:53 13.12.2020
4912 Clouds 13 1000 93 10000 1.86 5 08:32 13.12.2020
4913 Clouds 12 1000 93 10000 1.5 350 07:27 13.12.2020
4914 Clouds 12 999 93 8000 2.75 40 03:26 13.12.2020
4915 Clouds 12 1000 93 8000 1.5 0 02:32 13.12.2020
4916 Clouds 13 1000 93 10000 1.55 358 01:37 13.12.2020
4917 Rain 13 1000 93 10000 2.1 110 00:47 13.12.2020
4918 Rain 13 1000 93 10000 2.24 322 23:50 12.12.2020
4919 Rain 13 1000 93 10000 4.41 229 23:29 12.12.2020
4920 Clouds 14 1001 87 10000 4.41 229 22:39 12.12.2020
4921 Clouds 14 1001 87 10000 6.03 202 21:56 12.12.2020
4922 Clouds 14 1001 87 10000 6.03 202 21:32 12.12.2020
4923 Clouds 14 1001 87 10000 5.63 188 20:48 12.12.2020
4924 Clouds 14 1001 93 10000 4.68 185 20:24 12.12.2020
4925 Clouds 13 1001 93 10000 4.68 185 19:55 12.12.2020
4926 Clouds 13 1001 93 10000 3.12 170 19:35 12.12.2020
4927 Clouds 13 1000 93 10000 2.88 169 18:59 12.12.2020
4928 Clouds 14 1000 93 10000 1.5 0 18:41 12.12.2020
4929 Clouds 14 1000 93 10000 1.5 0 18:22 12.12.2020
4930 Clouds 14 1000 87 10000 1.4 157 17:42 12.12.2020
4931 Clouds 14 999 87 10000 1 179 16:54 12.12.2020
4932 Clouds 15 1000 77 10000 1.5 150 15:59 12.12.2020
4933 Clouds 16 1000 72 10000 2.6 160 15:41 12.12.2020
4934 Clouds 16 999 72 10000 1.5 0 14:55 12.12.2020
4935 Clouds 16 999 72 10000 2.1 170 14:35 12.12.2020
4936 Clouds 16 1000 72 10000 1.5 0 13:47 12.12.2020
4937 Clouds 16 1000 72 10000 1.5 0 13:27 12.12.2020
4938 Clouds 16 1000 72 10000 1.5 0 12:43 12.12.2020
4939 Clouds 16 1001 72 10000 2.6 170 11:41 12.12.2020
4940 Clouds 16 1001 82 10000 2.85 215 10:52 12.12.2020
4941 Clouds 14 1001 87 10000 1.5 0 09:31 12.12.2020
4942 Clouds 14 1002 87 10000 1.65 198 08:42 12.12.2020
4943 Clouds 13 1000 100 8000 1.5 0 02:46 12.12.2020
4944 Clouds 13 1002 87 8000 7.2 180 23:53 11.12.2020
4945 Clouds 13 1003 93 8000 4.1 120 22:21 11.12.2020
4946 Rain 12 1005 93 8000 1.5 0 20:25 11.12.2020
4947 Clouds 13 1006 93 8000 2.6 50 17:40 11.12.2020
4948 Rain 14 1007 87 10000 2.6 350 14:41 11.12.2020
4949 Clouds 14 1008 87 10000 6 190 13:58 11.12.2020
4950 Rain 15 1009 67 10000 3.78 197 12:49 11.12.2020
4951 Clouds 15 1009 67 10000 3.73 199 11:58 11.12.2020
4952 Clouds 14 1010 71 10000 3.73 199 11:38 11.12.2020
4953 Clouds 14 1011 68 10000 2.29 191 10:44 11.12.2020
4954 Clouds 12 1012 81 10000 0.89 39 08:43 11.12.2020
4955 Clouds 10 1009 87 10000 2.1 340 05:40 11.12.2020
4956 Clouds 10 1009 81 10000 2.26 253 04:49 11.12.2020
4957 Clouds 10 1009 93 10000 2.6 40 01:32 11.12.2020
4958 Clouds 11 1009 87 10000 1.5 0 00:20 11.12.2020
4959 Clouds 11 1008 81 10000 1.5 0 22:27 10.12.2020
4960 Clouds 11 1008 87 10000 1.5 0 21:36 10.12.2020
4961 Clouds 12 1007 81 10000 3.41 247 20:39 10.12.2020
4962 Clouds 12 1007 76 10000 1.5 0 19:37 10.12.2020
4963 Clouds 12 1007 76 10000 2.6 320 18:53 10.12.2020
4964 Clouds 12 1006 93 10000 1 0 17:52 10.12.2020
4965 Clouds 13 1006 93 10000 1.5 0 16:25 10.12.2020
4966 Clouds 13 1005 93 10000 1.5 0 15:27 10.12.2020
4967 Clouds 13 1007 85 10000 1.34 217 14:50 10.12.2020
4968 Clouds 13 1007 86 10000 0.89 214 14:26 10.12.2020
4969 Rain 13 1007 87 8000 1 0 12:40 10.12.2020
4970 Clouds 13 1008 93 10000 1.5 0 11:33 10.12.2020
4971 Rain 14 1009 93 10000 1.5 0 08:51 10.12.2020
4972 Thunderstorm 13 1008 93 9000 2.1 0 07:45 10.12.2020
4973 Rain 17 1010 77 10000 2.68 144 06:41 10.12.2020
4974 Clouds 17 1012 80 10000 3.13 224 02:53 10.12.2020
4975 Clouds 17 1011 72 10000 10.41 198 01:58 10.12.2020
4976 Clouds 17 1011 77 10000 7.7 170 23:52 09.12.2020
4977 Clouds 17 1012 68 10000 5.7 180 20:59 09.12.2020
4978 Clouds 17 1012 68 10000 6.2 180 20:28 09.12.2020
4979 Clouds 17 1012 68 10000 5.7 170 19:21 09.12.2020
4980 Clouds 17 1011 68 10000 6.7 170 17:43 09.12.2020
4981 Clouds 17 1011 72 10000 6.2 160 16:41 09.12.2020
4982 Clouds 17 1011 72 10000 6.2 160 16:20 09.12.2020
4983 Clouds 17 1011 72 10000 6.2 160 16:20 09.12.2020
4984 Clouds 17 1012 72 10000 6.2 140 15:18 09.12.2020
4985 Clouds 17 1012 72 10000 7.2 140 14:27 09.12.2020
4986 Clouds 17 1012 82 10000 7.7 150 13:58 09.12.2020
4987 Clouds 17 1013 59 10000 5.1 150 13:19 09.12.2020
4988 Clouds 18 1013 63 10000 5.1 150 12:44 09.12.2020
4989 Clouds 18 1014 63 10000 4.1 170 11:51 09.12.2020
4990 Clouds 17 1014 63 10000 3.1 170 10:48 09.12.2020
4991 Clouds 16 1014 82 10000 1.5 320 08:49 09.12.2020
4992 Clouds 15 1015 82 10000 1.34 190 07:43 09.12.2020
4993 Clouds 12 1014 93 10000 3.22 205 05:53 09.12.2020
4994 Clouds 13 1015 87 10000 1.5 0 03:29 09.12.2020
4995 Clouds 13 1014 87 10000 1.5 0 01:52 09.12.2020
4996 Clouds 12 1015 81 10000 1.5 0 23:44 08.12.2020
4997 Clouds 12 1015 81 10000 2.6 340 22:56 08.12.2020
4998 Clouds 12 1015 81 10000 1.5 0 21:28 08.12.2020
4999 Clouds 13 1015 76 10000 2.6 340 19:34 08.12.2020
5000 Clouds 13 1015 71 10000 2.1 330 18:59 08.12.2020
5001 Clouds 14 1015 71 10000 1.79 189 17:55 08.12.2020
5002 Clouds 16 1013 59 10000 2.1 190 15:51 08.12.2020
5003 Clouds 16 1015 60 10000 0.89 179 14:28 08.12.2020
5004 Clouds 17 1013 55 10000 4.6 180 13:29 08.12.2020
5005 Clouds 17 1013 52 10000 3.1 200 12:29 08.12.2020
5006 Clouds 16 1014 59 10000 2.6 140 11:51 08.12.2020
5007 Clouds 16 1014 67 10000 2.18 258 10:47 08.12.2020
5008 Clouds 16 1014 67 10000 1.77 261 10:28 08.12.2020
5009 Clear 14 1016 75 10000 0.89 292 08:39 08.12.2020
5010 Clouds 11 1013 87 10000 1.56 302 06:52 08.12.2020
5011 Clouds 12 1012 87 10000 2.17 274 03:42 08.12.2020
5012 Clouds 12 1012 81 10000 2.1 350 00:47 08.12.2020
5013 Clouds 12 1012 81 10000 2.1 350 00:22 08.12.2020
5014 Clouds 13 1014 73 10000 0.45 101 22:43 07.12.2020
5015 Clouds 12 1012 76 10000 2.97 262 21:56 07.12.2020
5016 Clouds 13 1011 71 10000 2.93 260 20:31 07.12.2020
5017 Clouds 13 1010 71 10000 2.55 277 18:47 07.12.2020
5018 Clouds 14 1010 62 10000 2.9 264 17:29 07.12.2020
5019 Clouds 15 1009 59 10000 3.1 280 16:55 07.12.2020
5020 Clouds 16 1008 55 10000 2.6 280 15:47 07.12.2020
5021 Clear 16 1010 69 10000 0.89 235 15:19 07.12.2020
5022 Clouds 16 1008 72 10000 2.6 170 14:19 07.12.2020
5023 Clouds 16 1008 72 10000 2.6 170 13:23 07.12.2020
5024 Clouds 15 1008 77 10000 4.73 254 11:44 07.12.2020
5025 Clouds 15 1009 47 10000 2.9 277 11:19 07.12.2020
5026 Clouds 13 1009 93 9000 2.9 299 09:57 07.12.2020
5027 Rain 13 1009 100 6000 3.1 360 08:29 07.12.2020
5028 Clouds 15 1008 87 10000 2.6 80 06:44 07.12.2020
5029 Clouds 15 1010 86 10000 2.9 91 04:58 07.12.2020
5030 Clouds 15 1011 87 10000 1.87 130 01:57 07.12.2020
5031 Clouds 14 1012 93 10000 2.37 110 00:29 07.12.2020
5032 Clouds 14 1012 87 10000 2.62 90 22:33 06.12.2020
5033 Clouds 14 1014 85 10000 2.46 86 21:22 06.12.2020
5034 Clouds 14 1013 87 10000 2.46 86 20:34 06.12.2020
5035 Clouds 14 1013 87 10000 2.36 86 19:57 06.12.2020
5036 Clouds 15 1013 82 10000 2.65 77 18:41 06.12.2020
5037 Clouds 15 1013 77 10000 2.39 83 17:20 06.12.2020
5038 Clear 16 1014 70 10000 0.45 197 15:37 06.12.2020
5039 Clouds 18 1013 63 10000 4.1 190 13:56 06.12.2020
5040 Clouds 18 1014 59 10000 4.6 170 12:52 06.12.2020
5041 Clouds 18 1014 59 10000 4.6 100 12:23 06.12.2020
5042 Clouds 18 1015 63 10000 3.6 100 11:35 06.12.2020
5043 Clouds 17 1015 63 10000 4.1 90 10:55 06.12.2020
5044 Clouds 17 1016 67 10000 5.1 100 10:24 06.12.2020
5045 Clouds 15 1016 82 10000 1.99 64 08:45 06.12.2020
5046 Clouds 12 1016 87 10000 2.1 350 06:51 06.12.2020
5047 Clouds 13 1016 87 10000 2.15 48 02:21 06.12.2020
5048 Clouds 13 1017 93 10000 2.03 45 00:42 06.12.2020
5049 Clouds 13 1017 93 10000 1.91 47 00:23 06.12.2020
5050 Clouds 13 1017 87 10000 2.1 350 22:51 05.12.2020
5051 Clouds 13 1016 87 10000 1.89 51 22:20 05.12.2020
5052 Clouds 13 1016 87 10000 1.89 51 21:51 05.12.2020
5053 Clouds 13 1016 82 10000 1.9 53 21:26 05.12.2020
5054 Clouds 14 1016 87 10000 1.83 59 19:49 05.12.2020
5055 Clouds 14 1015 82 10000 1.5 0 18:41 05.12.2020
5056 Clouds 15 1015 82 10000 1.5 0 17:34 05.12.2020
5057 Clouds 16 1015 67 10000 3.6 200 16:42 05.12.2020
5058 Clouds 16 1015 67 10000 3.6 200 16:20 05.12.2020
5059 Clouds 17 1014 59 10000 3.1 170 14:28 05.12.2020
5060 Clouds 18 1015 63 10000 3.1 170 12:24 05.12.2020
5061 Clouds 17 1015 63 10000 1.59 154 11:47 05.12.2020
5062 Clouds 17 1015 72 10000 1.28 110 10:32 05.12.2020
5063 Clear 13 1016 92 10000 0.45 33 07:49 05.12.2020
5064 Clouds 12 1016 92 10000 1.4 53 07:25 05.12.2020
5065 Clouds 11 1014 100 10000 0.93 54 04:44 05.12.2020
5066 Rain 13 1013 93 8000 1.98 175 23:56 04.12.2020
5067 Rain 13 1013 93 10000 2.38 179 22:32 04.12.2020
5068 Clouds 14 1012 87 8000 2.23 169 20:26 04.12.2020
5069 Clouds 14 1011 82 10000 1.5 50 18:53 04.12.2020
5070 Clouds 14 1011 82 10000 2.48 130 18:20 04.12.2020
5071 Clouds 14 1011 82 10000 2.1 120 17:41 04.12.2020
5072 Clouds 15 1012 84 10000 1.34 144 15:54 04.12.2020
5073 Clouds 16 1010 72 10000 3.6 150 13:58 04.12.2020
5074 Clouds 16 1010 72 10000 3.6 150 13:31 04.12.2020
5075 Clouds 17 1010 77 10000 3.6 150 12:54 04.12.2020
5076 Clouds 16 1010 87 10000 7.74 178 11:33 04.12.2020
5077 Clouds 15 1011 100 8000 5.38 161 10:28 04.12.2020
5078 Clouds 14 1010 93 10000 2.48 132 07:43 04.12.2020
5079 Clouds 13 1010 87 10000 1.71 104 06:39 04.12.2020
5080 Clouds 13 1010 87 8000 4.1 80 04:38 04.12.2020
5081 Clouds 12 1013 71 10000 4.43 61 23:49 03.12.2020
5082 Clouds 12 1014 76 10000 4.39 52 22:45 03.12.2020
5083 Clouds 12 1015 76 10000 2.6 59 21:20 03.12.2020
5084 Clouds 12 1015 66 10000 2.06 66 19:49 03.12.2020
5085 Clouds 12 1015 71 10000 3.1 60 19:20 03.12.2020
5086 Clouds 13 1015 71 10000 3.1 70 18:39 03.12.2020
5087 Clouds 13 1016 67 10000 3.1 80 17:20 03.12.2020
5088 Clouds 14 1016 58 10000 1.36 107 15:59 03.12.2020
5089 Clouds 15 1016 59 10000 1.5 0 15:31 03.12.2020
5090 Clouds 15 1016 55 10000 2.1 100 14:48 03.12.2020
5091 Clouds 15 1017 55 10000 2.1 110 13:50 03.12.2020
5092 Clouds 14 1018 58 10000 2.6 70 12:33 03.12.2020
5093 Clouds 14 1018 62 10000 3.1 80 11:55 03.12.2020
5094 Clouds 13 1019 62 10000 3.6 80 10:38 03.12.2020
5095 Clouds 12 1019 66 10000 2.1 70 08:38 03.12.2020
5096 Clouds 10 1019 87 10000 2.38 56 03:42 03.12.2020
5097 Clouds 10 1020 87 10000 2.21 58 01:41 03.12.2020
5098 Clouds 10 1020 87 10000 2.55 65 23:56 02.12.2020
5099 Clouds 11 1020 87 10000 2.57 64 22:45 02.12.2020
5100 Clouds 11 1020 81 10000 2.68 61 21:43 02.12.2020
5101 Clouds 11 1020 76 10000 2.77 60 20:49 02.12.2020
5102 Clouds 11 1020 76 10000 2.66 59 20:31 02.12.2020
5103 Clouds 11 1020 71 10000 2.1 60 19:40 02.12.2020
5104 Clouds 12 1019 66 10000 3.6 80 17:50 02.12.2020
5105 Clouds 12 1019 66 10000 3.6 80 17:31 02.12.2020
5106 Clouds 12 1018 62 10000 4.1 70 15:46 02.12.2020
5107 Clouds 13 1018 62 10000 2.6 70 13:41 02.12.2020
5108 Clouds 13 1020 66 10000 2.04 56 11:33 02.12.2020
5109 Clouds 12 1020 71 10000 2.11 53 10:25 02.12.2020
5110 Clouds 10 1019 81 10000 2.64 40 07:48 02.12.2020
5111 Clouds 10 1018 71 10000 3.18 34 23:40 01.12.2020
5112 Clouds 11 1018 76 10000 4.05 36 22:20 01.12.2020
5113 Clouds 11 1018 76 10000 4.05 36 22:20 01.12.2020
5114 Clouds 10 1017 71 10000 3.85 38 19:43 01.12.2020
5115 Clouds 10 1017 71 10000 3.79 39 18:56 01.12.2020
5116 Clouds 11 1017 71 10000 2.1 330 17:26 01.12.2020
5117 Clouds 11 1017 71 10000 4.1 350 14:53 01.12.2020
5118 Clouds 12 1017 66 10000 4.1 340 12:48 01.12.2020
5119 Clouds 12 1017 66 10000 3.1 340 11:41 01.12.2020
5120 Clouds 12 1017 66 10000 3.1 340 10:54 01.12.2020
5121 Clouds 12 1018 66 10000 5.1 340 10:31 01.12.2020
5122 Clouds 11 1017 71 10000 4.1 360 07:47 01.12.2020
5123 Clouds 11 1017 71 10000 4.1 340 06:26 01.12.2020
5124 Clouds 12 1015 76 10000 5.1 330 01:36 01.12.2020
5125 Clouds 12 1015 71 10000 5.1 340 00:52 01.12.2020
5126 Clouds 12 1015 71 10000 4.6 330 23:20 30.11.2020
5127 Clouds 13 1015 76 10000 6.2 350 22:42 30.11.2020
5128 Clouds 13 1015 76 10000 6.2 350 22:22 30.11.2020
5129 Clouds 13 1015 76 10000 4.1 340 20:47 30.11.2020
5130 Clouds 13 1016 82 10000 4.19 354 19:41 30.11.2020
5131 Clouds 13 1014 76 10000 4.1 330 18:22 30.11.2020
5132 Clouds 13 1013 76 10000 4.1 360 17:46 30.11.2020
5133 Clouds 14 1013 72 10000 4.1 360 16:53 30.11.2020
5134 Clouds 14 1013 72 10000 4.1 330 15:45 30.11.2020
5135 Clouds 15 1014 82 10000 3.88 12 13:56 30.11.2020
5136 Clouds 16 1014 74 10000 1.79 66 13:22 30.11.2020
5137 Clouds 17 1014 72 10000 0.89 121 12:26 30.11.2020
5138 Clouds 17 1012 63 10000 4.1 360 11:56 30.11.2020
5139 Clouds 16 1013 63 10000 2.72 44 10:25 30.11.2020
5140 Clouds 16 1013 72 10000 2.72 44 09:33 30.11.2020
5141 Clouds 13 1012 100 10000 1.5 137 04:27 30.11.2020
5142 Rain 13 1013 87 10000 2.51 170 23:28 29.11.2020
5143 Rain 13 1013 87 10000 2.51 142 21:46 29.11.2020
5144 Rain 13 1013 87 10000 2.71 134 21:26 29.11.2020
5145 Clouds 15 1014 76 10000 0.89 211 19:31 29.11.2020
5146 Clouds 16 1013 87 10000 2.1 10 17:43 29.11.2020
5147 Clouds 17 1014 73 10000 1.79 157 14:49 29.11.2020
5148 Clouds 17 1014 93 8000 2.1 20 12:46 29.11.2020
5149 Clouds 17 1015 87 7000 2.6 200 11:41 29.11.2020
5150 Clouds 16 1016 76 10000 7.59 188 08:55 29.11.2020
5151 Clouds 15 1017 77 10000 0.89 200 08:36 29.11.2020
5152 Clouds 14 1018 77 10000 5.49 193 03:30 29.11.2020
5153 Clear 13 1018 76 10000 2.45 177 23:18 28.11.2020
5154 Clear 13 1018 76 10000 2.45 177 22:50 28.11.2020
5155 Clear 13 1018 76 10000 2.24 178 20:27 28.11.2020
5156 Clear 13 1018 81 10000 2.24 171 19:29 28.11.2020
5157 Clear 13 1018 76 10000 2.24 171 18:58 28.11.2020
5158 Clear 13 1018 76 10000 2.24 177 18:23 28.11.2020
5159 Clear 14 1018 71 10000 2.24 177 17:33 28.11.2020
5160 Clouds 15 1018 59 10000 3.6 150 15:56 28.11.2020
5161 Clouds 16 1019 63 10000 0.89 200 14:25 28.11.2020
5162 Clear 16 1020 48 10000 2.21 210 11:29 28.11.2020
5163 Clear 15 1020 41 10000 1.62 208 09:37 28.11.2020
5164 Clouds 10 1020 61 10000 2.6 330 03:49 28.11.2020
5165 Clouds 10 1020 62 10000 2.6 330 03:24 28.11.2020
5166 Clouds 10 1021 65 10000 1.5 360 23:23 27.11.2020
5167 Clouds 10 1021 65 10000 1.29 19 22:54 27.11.2020
5168 Clear 11 1020 54 10000 1.82 10 20:55 27.11.2020
5169 Clear 11 1020 61 10000 2.14 17 20:28 27.11.2020
5170 Clear 12 1020 54 10000 2.3 18 19:22 27.11.2020
5171 Clear 14 1019 48 10000 2.6 330 16:59 27.11.2020
5172 Clouds 17 1019 42 10000 4.6 330 14:46 27.11.2020
5173 Clouds 17 1019 42 10000 4.6 340 13:24 27.11.2020
5174 Clouds 17 1020 42 10000 5.7 320 12:47 27.11.2020
5175 Clouds 16 1020 42 10000 5.1 340 11:35 27.11.2020
5176 Clouds 16 1021 42 10000 5.1 340 10:50 27.11.2020
5177 Clear 15 1021 44 10000 4.6 350 09:53 27.11.2020
5178 Clear 10 1022 67 10000 3.18 356 07:22 27.11.2020
5179 Clear 11 1022 66 10000 3.46 352 22:27 26.11.2020
5180 Clouds 11 1021 58 10000 4.1 320 21:56 26.11.2020
5181 Clouds 12 1021 58 10000 4.1 320 20:52 26.11.2020
5182 Clouds 12 1020 58 10000 4.6 340 18:42 26.11.2020
5183 Clouds 12 1020 58 10000 5.1 340 17:51 26.11.2020
5184 Clouds 15 1019 44 10000 6.7 350 14:50 26.11.2020
5185 Clouds 16 1020 48 10000 6.7 340 13:41 26.11.2020
5186 Clouds 16 1020 48 10000 5.7 340 12:42 26.11.2020
5187 Clouds 16 1021 48 10000 5.7 350 11:36 26.11.2020
5188 Clouds 15 1021 54 10000 5.1 330 10:33 26.11.2020
5189 Clouds 14 1021 58 10000 5.1 320 09:46 26.11.2020
5190 Clouds 14 1021 58 10000 5.1 320 09:27 26.11.2020
5191 Clouds 13 1021 58 10000 5.1 320 08:38 26.11.2020
5192 Clouds 11 1020 58 10000 3.6 320 04:42 26.11.2020
5193 Clouds 12 1020 54 10000 2.6 320 22:42 25.11.2020
5194 Clouds 11 1020 54 10000 2.1 320 20:42 25.11.2020
5195 Clouds 11 1020 54 10000 3.6 350 19:44 25.11.2020
5196 Clouds 11 1020 50 10000 3.1 330 18:27 25.11.2020
5197 Clouds 12 1020 54 10000 5.1 350 16:34 25.11.2020
5198 Clouds 12 1021 63 10000 4.02 5 15:36 25.11.2020
5199 Clouds 12 1020 62 10000 4.1 350 13:56 25.11.2020
5200 Clouds 12 1020 62 10000 4.1 350 13:37 25.11.2020
5201 Clouds 12 1021 62 10000 5.1 340 11:44 25.11.2020
5202 Clouds 12 1021 58 10000 5.1 10 11:18 25.11.2020
5203 Clouds 12 1021 58 10000 5.1 360 09:18 25.11.2020
5204 Clouds 11 1021 62 10000 5.7 360 08:41 25.11.2020
5205 Clouds 12 1020 62 10000 5.7 340 03:59 25.11.2020
5206 Clouds 12 1020 50 10000 3.6 360 01:53 25.11.2020
5207 Clouds 12 1019 56 10000 2.24 12 00:23 25.11.2020
5208 Clouds 12 1021 54 10000 4.1 360 23:52 24.11.2020
5209 Clouds 12 1022 61 10000 3.13 57 23:33 24.11.2020
5210 Clouds 12 1020 63 10000 2.68 47 21:51 24.11.2020
5211 Clouds 12 1022 61 10000 5.36 18 21:29 24.11.2020
5212 Clouds 12 1021 58 10000 3.6 350 20:40 24.11.2020
5213 Clouds 13 1021 58 10000 3.6 360 18:56 24.11.2020
5214 Clouds 13 1022 63 10000 4.02 355 17:31 24.11.2020
5215 Clouds 14 1020 67 10000 4.1 350 16:50 24.11.2020
5216 Clouds 14 1020 67 10000 4.1 350 16:50 24.11.2020
5217 Clouds 14 1020 67 10000 5.1 330 16:31 24.11.2020
5218 Clouds 14 1021 68 10000 4.47 10 15:54 24.11.2020
5219 Clouds 14 1019 63 10000 6.2 340 15:18 24.11.2020
5220 Clouds 15 1019 63 10000 5.1 350 14:34 24.11.2020
5221 Clouds 16 1020 55 10000 5.1 340 12:50 24.11.2020
5222 Clouds 16 1020 55 10000 5.1 350 12:22 24.11.2020
5223 Clouds 15 1020 55 10000 5.1 350 11:53 24.11.2020
5224 Clouds 15 1021 59 10000 4.1 340 10:46 24.11.2020
5225 Clouds 15 1022 65 10000 0.89 308 10:24 24.11.2020
5226 Clouds 14 1021 62 10000 4.1 340 09:35 24.11.2020
5227 Clouds 11 1021 66 10000 2.1 300 07:58 24.11.2020
5228 Clouds 9 1021 87 10000 2.72 12 04:48 24.11.2020
5229 Clouds 10 1022 76 10000 2.45 17 23:28 23.11.2020
5230 Clouds 11 1023 76 10000 2.66 18 21:38 23.11.2020
5231 Clouds 11 1023 71 10000 2.1 330 20:56 23.11.2020
5232 Clouds 11 1023 71 10000 2.5 19 20:28 23.11.2020
5233 Clouds 12 1023 66 10000 2.1 310 19:32 23.11.2020
5234 Clouds 13 1023 62 10000 3.6 330 17:27 23.11.2020
5235 Clouds 13 1023 62 10000 3.1 330 16:54 23.11.2020
5236 Clouds 16 1023 55 10000 4.1 340 14:49 23.11.2020
5237 Clouds 16 1024 51 10000 4.6 340 13:54 23.11.2020
5238 Clouds 16 1025 51 10000 4.6 330 12:39 23.11.2020
5239 Clouds 15 1025 55 10000 5.1 340 11:51 23.11.2020
5240 Clouds 15 1026 55 10000 5.7 340 11:30 23.11.2020
5241 Clouds 14 1026 58 10000 5.1 340 09:47 23.11.2020
5242 Clouds 13 1026 62 10000 3.6 360 08:51 23.11.2020
5243 Clouds 11 1026 81 10000 1.5 0 07:40 23.11.2020
5244 Clear 11 1028 72 10000 1.79 327 02:39 23.11.2020
5245 Clouds 11 1028 71 10000 3.1 330 23:48 22.11.2020
5246 Clouds 11 1028 71 10000 2.1 330 22:22 22.11.2020
5247 Clouds 11 1028 71 10000 2.6 340 21:24 22.11.2020
5248 Clouds 12 1028 71 10000 3.1 330 20:19 22.11.2020
5249 Clouds 12 1028 62 10000 2.6 320 18:59 22.11.2020
5250 Clouds 12 1028 62 10000 2.1 350 18:19 22.11.2020
5251 Clouds 13 1027 58 10000 4.6 350 16:25 22.11.2020
5252 Clouds 13 1027 62 10000 3.6 360 14:58 22.11.2020
5253 Clouds 13 1027 58 10000 4.1 350 13:27 22.11.2020
5254 Clouds 13 1028 67 10000 4.92 348 12:43 22.11.2020
5255 Clouds 13 1028 69 10000 5.36 23 11:39 22.11.2020
5256 Clouds 14 1027 58 10000 3.6 360 10:50 22.11.2020
5257 Clouds 13 1027 58 10000 3.6 360 10:32 22.11.2020
5258 Clouds 11 1025 76 10000 2.1 10 04:39 22.11.2020
5259 Clouds 12 1024 66 10000 2.6 330 23:56 21.11.2020
5260 Clouds 12 1024 71 10000 3.1 340 22:41 21.11.2020
5261 Clouds 12 1024 66 10000 2.6 360 21:31 21.11.2020
5262 Clouds 12 1024 76 10000 3.13 43 20:49 21.11.2020
5263 Clouds 11 1024 77 10000 3.58 355 20:20 21.11.2020
5264 Clouds 11 1023 62 10000 3.6 350 19:49 21.11.2020
5265 Clouds 12 1023 62 10000 3.1 10 19:18 21.11.2020
5266 Clouds 12 1022 62 10000 2.6 360 17:32 21.11.2020
5267 Clouds 12 1023 70 10000 3.13 19 16:45 21.11.2020
5268 Clouds 13 1022 66 10000 4.02 24 15:42 21.11.2020
5269 Clouds 13 1022 63 10000 3.13 34 15:20 21.11.2020
5270 Clouds 14 1022 64 10000 3.13 5 14:42 21.11.2020
5271 Clouds 14 1020 51 10000 5.1 360 12:59 21.11.2020
5272 Clear 15 1021 56 10000 4.92 328 12:23 21.11.2020
5273 Clouds 15 1020 51 10000 5.1 350 11:50 21.11.2020
5274 Clouds 14 1021 54 10000 5.1 340 10:28 21.11.2020
5275 Clouds 14 1020 62 10000 3.6 340 09:19 21.11.2020
5276 Clouds 13 1020 66 10000 3.1 330 08:44 21.11.2020
5277 Clouds 12 1018 71 10000 2.6 340 05:42 21.11.2020
5278 Clouds 12 1018 62 10000 2.1 320 03:36 21.11.2020
5279 Clouds 12 1017 62 10000 2.1 340 00:22 21.11.2020
5280 Clouds 12 1016 58 10000 2.6 350 23:19 20.11.2020
5281 Clear 12 1015 63 10000 0.45 10 21:46 20.11.2020
5282 Clear 12 1015 63 10000 0.45 15 21:26 20.11.2020
5283 Clouds 12 1015 54 10000 3.1 330 20:41 20.11.2020
5284 Clouds 12 1015 54 10000 3.6 330 19:33 20.11.2020
5285 Clouds 12 1015 58 10000 6.2 340 18:27 20.11.2020
5286 Clouds 13 1014 58 10000 7.2 350 17:32 20.11.2020
5287 Clouds 13 1013 54 10000 6.2 360 16:48 20.11.2020
5288 Clouds 13 1013 54 10000 6.2 360 16:27 20.11.2020
5289 Clouds 14 1013 51 10000 4.6 330 15:42 20.11.2020
5290 Clouds 14 1013 54 10000 8.2 340 13:57 20.11.2020
5291 Clouds 15 1013 51 10000 7.2 340 13:22 20.11.2020
5292 Clouds 15 1013 51 10000 7.7 340 12:58 20.11.2020
5293 Clouds 14 1013 54 10000 6.7 350 11:55 20.11.2020
5294 Clouds 14 1014 54 10000 4.6 10 11:35 20.11.2020
5295 Clouds 13 1015 71 10000 5.7 10 09:56 20.11.2020
5296 Clouds 11 1014 71 10000 5.7 20 08:32 20.11.2020
5297 Clouds 11 1014 62 10000 5.7 20 07:51 20.11.2020
5298 Clouds 10 1014 71 8000 3.6 360 05:19 20.11.2020
5299 Clouds 11 1015 66 10000 4.1 360 00:21 20.11.2020
5300 Clouds 11 1016 66 10000 4.1 360 22:30 19.11.2020
5301 Clouds 12 1017 62 10000 4.6 360 21:53 19.11.2020
5302 Clouds 12 1017 66 10000 5.7 340 20:58 19.11.2020
5303 Drizzle 12 1017 71 10000 4.1 340 20:20 19.11.2020
5304 Clouds 12 1018 71 10000 4.6 340 19:27 19.11.2020
5305 Clouds 12 1018 71 10000 3.6 360 18:54 19.11.2020
5306 Drizzle 12 1018 66 9000 7.2 360 17:35 19.11.2020
5307 Clouds 12 1018 58 10000 8.7 350 16:33 19.11.2020
5308 Clouds 13 1017 54 10000 10.8 350 15:31 19.11.2020
5309 Clouds 14 1018 55 10000 9.8 360 13:55 19.11.2020
5310 Clouds 14 1018 55 10000 7.7 360 13:36 19.11.2020
5311 Clouds 15 1019 58 10000 6.71 324 12:55 19.11.2020
5312 Clouds 15 1019 55 10000 6.2 350 12:34 19.11.2020
5313 Clouds 14 1020 62 10000 5.1 360 11:41 19.11.2020
5314 Clouds 14 1020 67 10000 6.2 340 11:22 19.11.2020
5315 Clouds 14 1021 72 10000 6.2 340 10:44 19.11.2020
5316 Clouds 14 1021 71 10000 6.2 350 09:48 19.11.2020
5317 Clouds 14 1021 71 10000 5.1 330 09:28 19.11.2020
5318 Clouds 13 1021 76 8000 5.7 350 08:44 19.11.2020
5319 Clouds 13 1021 76 10000 3.1 350 07:36 19.11.2020
5320 Clouds 13 1023 71 10000 4.6 340 01:48 19.11.2020
5321 Clouds 13 1023 71 10000 3.1 340 00:33 19.11.2020
5322 Clouds 14 1024 71 10000 3.1 340 23:32 18.11.2020
5323 Clouds 13 1024 71 10000 3.6 340 22:59 18.11.2020
5324 Clouds 13 1023 71 10000 3.6 340 22:29 18.11.2020
5325 Clouds 13 1024 71 10000 2.6 340 21:44 18.11.2020
5326 Clouds 14 1024 71 10000 2.6 340 21:25 18.11.2020
5327 Clouds 14 1024 76 10000 3.6 340 20:37 18.11.2020
5328 Clouds 14 1024 72 10000 3.1 330 19:44 18.11.2020
5329 Clouds 14 1024 72 10000 3.1 330 19:22 18.11.2020
5330 Clouds 14 1024 72 10000 2.6 330 18:45 18.11.2020
5331 Clouds 14 1024 72 10000 2.6 340 17:44 18.11.2020
5332 Clouds 14 1024 72 10000 3.1 350 16:52 18.11.2020
5333 Clouds 14 1024 72 10000 3.6 350 16:18 18.11.2020
5334 Clouds 15 1024 67 10000 3.6 360 14:42 18.11.2020
5335 Clouds 15 1024 67 10000 3.6 360 14:42 18.11.2020
5336 Clouds 15 1024 67 10000 3.6 360 14:22 18.11.2020
5337 Clouds 14 1024 67 10000 4.1 340 13:22 18.11.2020
5338 Rain 15 1024 59 10000 4.1 340 12:44 18.11.2020
5339 Clouds 16 1025 57 10000 5.36 5 11:56 18.11.2020
5340 Clouds 16 1024 55 10000 4.1 350 10:58 18.11.2020
5341 Clouds 17 1024 59 10000 6.7 350 10:30 18.11.2020
5342 Clouds 16 1024 63 10000 7.2 350 08:43 18.11.2020
5343 Clouds 14 1024 67 10000 4.1 330 07:28 18.11.2020
5344 Clouds 12 1024 82 10000 3.1 330 04:34 18.11.2020
5345 Clouds 14 1024 82 10000 3.11 12 00:21 18.11.2020
5346 Clouds 14 1024 82 10000 3.08 19 23:25 17.11.2020
5347 Clouds 14 1024 93 10000 3.08 19 22:44 17.11.2020
5348 Clouds 14 1025 74 10000 0.45 349 22:26 17.11.2020
5349 Clouds 14 1024 87 10000 2.86 21 21:47 17.11.2020
5350 Clouds 14 1024 93 10000 3 27 21:23 17.11.2020
5351 Clouds 14 1023 93 10000 3 27 20:43 17.11.2020
5352 Clouds 15 1023 93 10000 3.14 31 20:23 17.11.2020
5353 Clouds 15 1023 93 10000 3.14 31 19:44 17.11.2020
5354 Clouds 16 1023 77 10000 2.67 47 18:23 17.11.2020
5355 Clouds 16 1022 68 10000 2.1 0 17:31 17.11.2020
5356 Clouds 16 1022 63 10000 3.1 110 16:36 17.11.2020
5357 Clouds 17 1022 68 10000 3.1 180 15:58 17.11.2020
5358 Clouds 17 1021 68 10000 3.6 180 15:36 17.11.2020
5359 Clouds 18 1021 68 10000 4.1 170 14:58 17.11.2020
5360 Clouds 18 1021 68 10000 4.6 170 14:30 17.11.2020
5361 Clouds 19 1021 64 10000 4.1 170 13:45 17.11.2020
5362 Clouds 19 1021 64 10000 4.1 170 13:21 17.11.2020
5363 Clouds 19 1021 64 10000 4.1 170 13:21 17.11.2020
5364 Clouds 19 1022 56 10000 2.6 160 12:42 17.11.2020
5365 Clouds 19 1022 60 10000 0.54 167 11:45 17.11.2020
5366 Clouds 19 1022 56 10000 0.72 117 11:21 17.11.2020
5367 Clouds 18 1022 63 10000 0.72 117 10:37 17.11.2020
5368 Clouds 18 1022 63 10000 1.25 90 09:53 17.11.2020
5369 Clouds 17 1022 72 10000 1.25 90 09:33 17.11.2020
5370 Clouds 15 1022 82 10000 1.5 0 08:25 17.11.2020
5371 Clouds 14 1022 82 10000 1.5 0 07:56 17.11.2020
5372 Clouds 13 1023 83 10000 0.89 21 07:26 17.11.2020
5373 Clouds 13 1021 87 10000 2.1 330 04:28 17.11.2020
5374 Clouds 13 1021 81 10000 2.1 350 02:59 17.11.2020
5375 Clouds 13 1021 81 10000 2.1 350 02:21 17.11.2020
5376 Clouds 13 1021 81 10000 2.1 340 00:56 17.11.2020
5377 Clouds 13 1021 76 10000 1.5 340 23:51 16.11.2020
5378 Clouds 13 1021 76 10000 1.5 340 23:29 16.11.2020
5379 Clouds 13 1021 81 10000 1 0 22:48 16.11.2020
5380 Clouds 13 1021 81 10000 1 0 22:21 16.11.2020
5381 Clouds 13 1021 81 10000 1 0 21:49 16.11.2020
5382 Clouds 13 1021 81 10000 1 0 21:25 16.11.2020
5383 Clouds 13 1021 76 10000 1 0 20:58 16.11.2020
5384 Clouds 13 1021 76 10000 1 0 20:25 16.11.2020
5385 Clouds 14 1021 76 10000 1 0 19:42 16.11.2020
5386 Clouds 14 1021 76 10000 1 0 19:24 16.11.2020
5387 Clouds 14 1020 67 10000 0.89 144 18:47 16.11.2020
5388 Clear 15 1020 67 10000 1.2 136 17:54 16.11.2020
5389 Clouds 15 1020 63 10000 1.51 143 17:25 16.11.2020
5390 Clear 16 1019 59 10000 1.51 143 16:57 16.11.2020
5391 Clouds 16 1019 55 10000 1.51 143 16:38 16.11.2020
5392 Clouds 17 1019 55 10000 2.6 180 16:18 16.11.2020
5393 Clouds 18 1019 55 10000 2.6 180 15:41 16.11.2020
5394 Clouds 18 1019 59 10000 2.6 190 15:21 16.11.2020
5395 Clouds 18 1019 59 10000 3.1 180 14:42 16.11.2020
5396 Clouds 18 1019 55 10000 3.1 170 13:35 16.11.2020
5397 Clouds 18 1020 45 10000 1.54 207 12:34 16.11.2020
5398 Clouds 18 1020 45 10000 1.54 207 11:55 16.11.2020
5399 Clouds 18 1021 48 10000 0.58 181 11:37 16.11.2020
5400 Clouds 18 1021 48 10000 2.1 150 11:18 16.11.2020
5401 Clouds 18 1021 52 10000 0.58 181 10:40 16.11.2020
5402 Clouds 17 1021 52 10000 0.63 81 10:22 16.11.2020
5403 Clear 17 1021 55 10000 0.63 81 09:41 16.11.2020
5404 Clear 16 1021 62 10000 1.14 50 08:59 16.11.2020
5405 Clear 16 1023 65 10000 0.45 19 08:38 16.11.2020
5406 Clear 13 1022 74 10000 0.45 22 07:44 16.11.2020
5407 Clear 11 1021 81 10000 1.84 33 06:47 16.11.2020
5408 Clouds 11 1021 76 10000 1.5 0 05:55 16.11.2020
5409 Clouds 11 1021 76 10000 1.93 37 04:37 16.11.2020
5410 Clouds 12 1021 71 10000 1.5 0 01:49 16.11.2020
5411 Clouds 12 1021 71 10000 1.88 40 01:27 16.11.2020
5412 Clouds 13 1022 66 10000 1.95 41 23:53 15.11.2020
5413 Clouds 13 1022 71 10000 2.23 42 23:22 15.11.2020
5414 Clouds 13 1022 66 10000 2.23 42 22:45 15.11.2020
5415 Clouds 13 1022 66 10000 2.3 38 22:20 15.11.2020
5416 Clouds 14 1022 62 10000 2.3 38 21:43 15.11.2020
5417 Clouds 14 1022 62 10000 2.08 36 21:24 15.11.2020
5418 Clouds 14 1022 67 10000 2.08 36 20:41 15.11.2020
5419 Clouds 14 1022 67 10000 2.08 36 20:41 15.11.2020
5420 Clouds 14 1022 62 10000 1.94 37 20:18 15.11.2020
5421 Clouds 14 1022 62 10000 1.94 37 19:48 15.11.2020
5422 Clouds 14 1022 62 10000 1.96 41 19:22 15.11.2020
5423 Clouds 14 1022 63 10000 1.5 0 18:57 15.11.2020
5424 Clouds 15 1022 63 10000 1.5 0 18:39 15.11.2020
5425 Clouds 15 1022 63 10000 1.5 0 18:19 15.11.2020
5426 Clouds 15 1021 59 10000 1.31 46 17:44 15.11.2020
5427 Clouds 15 1021 59 10000 0.9 70 17:24 15.11.2020
5428 Clouds 15 1021 51 10000 0.9 70 16:46 15.11.2020
5429 Clouds 16 1021 48 10000 0.66 84 16:21 15.11.2020
5430 Clouds 17 1021 48 10000 0.66 84 15:50 15.11.2020
5431 Clouds 17 1021 48 10000 0.3 2 15:28 15.11.2020
5432 Clouds 17 1021 48 10000 0.3 2 14:58 15.11.2020
5433 Clouds 18 1021 52 10000 2.6 190 14:31 15.11.2020
5434 Clouds 18 1021 45 10000 2.6 200 13:56 15.11.2020
5435 Clouds 18 1021 40 10000 3.1 170 13:36 15.11.2020
5436 Clouds 18 1021 42 10000 2.6 170 12:51 15.11.2020
5437 Clouds 18 1022 42 10000 0.93 298 12:25 15.11.2020
5438 Clouds 18 1023 45 10000 0.93 298 11:47 15.11.2020
5439 Clouds 18 1023 42 10000 1.12 332 11:21 15.11.2020
5440 Clouds 18 1023 42 10000 1.12 332 10:54 15.11.2020
5441 Clouds 18 1023 45 10000 1.12 332 10:33 15.11.2020
5442 Clear 17 1023 48 10000 1.57 357 09:59 15.11.2020
5443 Clear 16 1023 55 10000 1.57 357 09:40 15.11.2020
5444 Clear 16 1023 55 10000 2.04 5 09:19 15.11.2020
5445 Clear 15 1023 62 10000 2.04 5 08:50 15.11.2020
5446 Clear 13 1023 71 10000 2.2 5 07:48 15.11.2020
5447 Clouds 12 1023 81 10000 2.46 11 06:55 15.11.2020
5448 Clouds 11 1023 81 10000 2.55 15 04:58 15.11.2020
5449 Clouds 11 1023 76 10000 2.51 8 02:43 15.11.2020
5450 Clouds 12 1024 66 10000 2.26 3 00:45 15.11.2020
5451 Clouds 12 1024 66 10000 2.29 3 00:26 15.11.2020
5452 Clouds 12 1024 66 10000 2.29 3 23:34 14.11.2020
5453 Clouds 13 1024 71 10000 2.16 1 22:46 14.11.2020
5454 Clouds 13 1024 71 10000 2.16 1 22:46 14.11.2020
5455 Clouds 13 1024 71 10000 2.2 5 22:28 14.11.2020
5456 Clouds 13 1023 62 10000 2.1 340 21:41 14.11.2020
5457 Clouds 13 1023 62 10000 2.1 340 21:22 14.11.2020
5458 Clouds 14 1023 62 10000 2.1 340 20:50 14.11.2020
5459 Clouds 14 1023 67 10000 2.1 340 20:26 14.11.2020
5460 Clouds 14 1023 62 10000 2.6 340 19:46 14.11.2020
5461 Clouds 14 1023 62 10000 2.6 340 19:28 14.11.2020
5462 Clouds 14 1023 58 10000 2.6 360 18:43 14.11.2020
5463 Clouds 14 1023 58 10000 2.6 360 18:23 14.11.2020
5464 Clouds 15 1022 55 10000 4.1 10 17:50 14.11.2020
5465 Clouds 15 1022 55 10000 4.1 10 17:31 14.11.2020
5466 Clouds 15 1022 51 10000 4.1 360 16:57 14.11.2020
5467 Clear 15 1024 66 10000 2.24 17 16:36 14.11.2020
5468 Clear 15 1024 66 10000 2.24 17 16:36 14.11.2020
5469 Clouds 16 1022 48 10000 4.1 360 16:18 14.11.2020
5470 Clouds 17 1022 48 10000 4.1 360 15:50 14.11.2020
5471 Clear 18 1023 50 10000 1.79 5 15:21 14.11.2020
5472 Clouds 18 1021 45 10000 3.1 340 14:41 14.11.2020
5473 Clouds 18 1023 54 10000 2.24 340 14:23 14.11.2020
5474 Clouds 19 1022 49 10000 4.1 350 13:40 14.11.2020
5475 Clear 19 1023 56 10000 1.34 38 13:22 14.11.2020
5476 Clouds 19 1022 49 10000 3.6 350 12:46 14.11.2020
5477 Clouds 18 1022 49 10000 3.6 350 12:27 14.11.2020
5478 Clouds 19 1023 52 10000 3.6 350 11:43 14.11.2020
5479 Clouds 18 1023 52 10000 3.6 350 11:24 14.11.2020
5480 Clouds 18 1023 59 10000 4.6 320 10:43 14.11.2020
5481 Clouds 17 1023 59 10000 4.6 320 10:25 14.11.2020
5482 Clouds 17 1023 63 10000 3.1 320 09:47 14.11.2020
5483 Clouds 16 1023 63 10000 3.1 320 09:28 14.11.2020
5484 Clouds 16 1023 67 10000 2.6 320 08:49 14.11.2020
5485 Clouds 15 1023 67 10000 2.6 320 08:27 14.11.2020
5486 Clouds 14 1023 82 10000 1.99 18 07:44 14.11.2020
5487 Clouds 13 1023 82 10000 2.35 23 07:25 14.11.2020
5488 Clouds 12 1023 87 10000 1 0 06:31 14.11.2020
5489 Clouds 13 1023 81 10000 1.5 0 05:31 14.11.2020
5490 Clouds 13 1023 76 10000 1 0 03:53 14.11.2020
5491 Clouds 13 1023 87 10000 1 0 00:56 14.11.2020
5492 Clouds 13 1023 87 10000 1 0 23:47 13.11.2020
5493 Clouds 13 1023 87 10000 1 0 23:25 13.11.2020
5494 Clouds 14 1023 82 10000 1 0 22:46 13.11.2020
5495 Clouds 14 1023 82 10000 1 0 22:26 13.11.2020
5496 Clouds 14 1023 76 10000 1 0 21:55 13.11.2020
5497 Clouds 14 1023 76 10000 1 0 21:37 13.11.2020
5498 Clouds 14 1023 82 10000 1 0 21:19 13.11.2020
5499 Clouds 15 1023 77 10000 1 0 20:41 13.11.2020
5500 Clouds 15 1023 77 10000 1 0 20:21 13.11.2020
5501 Clouds 15 1023 67 10000 1.5 0 19:46 13.11.2020
5502 Clouds 15 1023 63 10000 1.5 0 19:23 13.11.2020
5503 Clouds 15 1023 63 10000 1.5 0 18:54 13.11.2020
5504 Clouds 16 1022 63 10000 1.5 0 18:21 13.11.2020
5505 Clouds 16 1022 72 10000 2.1 150 17:41 13.11.2020
5506 Clouds 17 1022 68 10000 2.1 150 17:18 13.11.2020
5507 Clouds 17 1024 73 10000 0.45 258 16:48 13.11.2020
5508 Clouds 17 1022 63 10000 3.1 170 16:23 13.11.2020
5509 Clouds 18 1022 59 10000 2.6 160 15:49 13.11.2020
5510 Clouds 18 1022 59 10000 2.6 180 15:27 13.11.2020
5511 Clouds 18 1022 56 10000 2.1 180 14:45 13.11.2020
5512 Clouds 18 1022 59 10000 2.1 180 14:22 13.11.2020
5513 Clouds 19 1022 59 10000 2.1 170 13:47 13.11.2020
5514 Clouds 18 1023 59 10000 2.1 180 13:23 13.11.2020
5515 Clouds 18 1023 59 10000 2.6 180 12:46 13.11.2020
5516 Clouds 18 1023 59 10000 2.6 180 12:24 13.11.2020
5517 Clouds 18 1023 59 10000 2.1 180 11:49 13.11.2020
5518 Clouds 18 1023 59 10000 2.1 180 11:27 13.11.2020
5519 Clouds 18 1024 59 10000 2.1 170 10:55 13.11.2020
5520 Clouds 18 1024 59 10000 1.5 0 10:35 13.11.2020
5521 Clouds 18 1024 52 10000 0.05 343 09:56 13.11.2020
5522 Clouds 17 1024 55 10000 0.05 343 09:38 13.11.2020
5523 Clouds 17 1024 55 10000 0.9 37 09:19 13.11.2020
5524 Clouds 17 1024 55 10000 0.9 37 09:19 13.11.2020
5525 Clouds 16 1024 55 10000 0.9 37 09:19 13.11.2020
5526 Clouds 16 1024 67 10000 1.5 0 08:36 13.11.2020
5527 Clouds 15 1024 71 10000 1.5 0 07:58 13.11.2020
5528 Clouds 14 1023 76 10000 1.55 26 07:40 13.11.2020
5529 Clouds 13 1023 76 10000 1.88 25 07:21 13.11.2020
5530 Clouds 13 1023 81 10000 1.88 25 06:48 13.11.2020
5531 Clouds 13 1023 76 10000 1.97 25 05:43 13.11.2020
5532 Clouds 13 1023 76 10000 2.01 24 05:23 13.11.2020
5533 Clouds 13 1024 71 10000 2.29 27 01:45 13.11.2020
5534 Clouds 13 1024 76 10000 2.33 22 00:51 13.11.2020
5535 Clouds 13 1024 76 10000 2.2 19 00:32 13.11.2020
5536 Clouds 13 1024 81 10000 2.2 19 23:38 12.11.2020
5537 Clouds 13 1024 81 10000 2.2 20 23:19 12.11.2020
5538 Clouds 13 1024 81 10000 2.2 20 23:19 12.11.2020
5539 Clouds 13 1024 76 10000 2.2 20 22:50 12.11.2020
5540 Clouds 13 1024 76 10000 2.2 20 22:32 12.11.2020
5541 Clouds 13 1024 76 10000 2.5 19 21:56 12.11.2020
5542 Clouds 13 1024 76 10000 2.5 19 21:36 12.11.2020
5543 Clouds 13 1024 71 10000 2.5 20 21:18 12.11.2020
5544 Clouds 14 1024 72 10000 2.5 20 20:39 12.11.2020
5545 Clouds 14 1024 72 10000 2.48 28 20:21 12.11.2020
5546 Clouds 14 1024 72 10000 2.48 28 19:49 12.11.2020
5547 Clouds 14 1024 72 10000 2.57 37 19:31 12.11.2020
5548 Clouds 14 1024 72 10000 2.57 37 18:52 12.11.2020
5549 Clouds 15 1024 67 10000 2.1 300 18:24 12.11.2020
5550 Clouds 15 1024 67 10000 2.1 300 17:55 12.11.2020
5551 Clouds 15 1023 67 10000 2.6 330 17:30 12.11.2020
5552 Clouds 15 1023 63 10000 3.1 340 16:58 12.11.2020
5553 Clouds 16 1023 63 10000 3.1 340 16:39 12.11.2020
5554 Clouds 16 1023 63 10000 3.1 340 16:21 12.11.2020
5555 Clouds 16 1023 59 10000 4.1 350 15:42 12.11.2020
5556 Clouds 17 1023 55 10000 4.1 340 15:23 12.11.2020
5557 Clouds 17 1023 55 10000 4.1 340 14:46 12.11.2020
5558 Clouds 17 1023 55 10000 4.1 350 14:26 12.11.2020
5559 Clouds 17 1023 55 10000 4.1 330 13:55 12.11.2020
5560 Clouds 17 1023 59 10000 5.1 340 13:37 12.11.2020
5561 Clouds 17 1023 59 10000 4.1 350 13:18 12.11.2020
5562 Clouds 17 1024 59 10000 4.1 330 12:42 12.11.2020
5563 Clouds 17 1024 59 10000 4.1 330 12:20 12.11.2020
5564 Clouds 16 1024 59 10000 5.1 350 11:47 12.11.2020
5565 Clouds 16 1025 59 10000 4.1 330 11:28 12.11.2020
5566 Clouds 16 1025 59 10000 3.1 320 10:43 12.11.2020
5567 Clouds 16 1025 59 10000 3.1 320 10:43 12.11.2020
5568 Clouds 17 1024 59 10000 2.6 320 10:24 12.11.2020
5569 Clouds 17 1024 59 10000 2.6 310 09:48 12.11.2020
5570 Clouds 16 1024 59 10000 2.6 310 09:23 12.11.2020
5571 Clouds 16 1024 59 10000 2.6 310 08:57 12.11.2020
5572 Clouds 16 1024 59 10000 2.6 310 08:57 12.11.2020
5573 Clouds 16 1024 59 10000 2.6 320 08:39 12.11.2020
5574 Clouds 15 1024 67 10000 2.6 330 08:19 12.11.2020
5575 Clouds 15 1024 67 10000 2.6 330 07:48 12.11.2020
5576 Clouds 15 1024 67 10000 2.6 330 07:22 12.11.2020
5577 Clouds 14 1024 67 10000 3.1 330 06:49 12.11.2020
5578 Clouds 14 1024 67 10000 3.1 330 06:49 12.11.2020
5579 Clouds 14 1023 67 10000 2.6 330 05:35 12.11.2020
5580 Clear 14 1022 76 10000 3.21 349 03:23 12.11.2020
5581 Clouds 14 1024 67 10000 3.21 349 02:41 12.11.2020
5582 Clear 14 1023 71 10000 2.75 348 23:59 11.11.2020
5583 Clear 14 1023 70 10000 2.73 347 23:25 11.11.2020
5584 Clouds 14 1024 62 10000 2.6 0 22:59 11.11.2020
5585 Clouds 14 1024 62 10000 2.1 320 22:39 11.11.2020
5586 Clouds 14 1024 62 10000 2.1 320 22:21 11.11.2020
5587 Clear 14 1025 68 10000 3.08 352 21:43 11.11.2020
5588 Clear 14 1025 67 10000 0.45 22 21:25 11.11.2020
5589 Clear 14 1025 66 10000 2.24 5 20:59 11.11.2020
5590 Clear 14 1025 67 10000 2.24 355 20:40 11.11.2020
5591 Clouds 14 1023 59 10000 3.1 360 20:21 11.11.2020
5592 Clouds 15 1023 59 10000 4.1 360 19:49 11.11.2020
5593 Clouds 15 1023 59 10000 5.1 10 19:49 11.11.2020
5594 Clouds 15 1023 59 10000 5.1 10 19:31 11.11.2020
5595 Clouds 15 1023 59 10000 4.6 360 18:55 11.11.2020
5596 Clouds 15 1023 59 10000 5.1 360 18:35 11.11.2020
5597 Clouds 15 1023 55 10000 6.2 350 17:43 11.11.2020
5598 Clouds 16 1023 55 10000 6.2 350 17:23 11.11.2020
5599 Clouds 16 1022 55 10000 5.1 350 16:56 11.11.2020
5600 Clouds 15 1024 67 10000 4.02 25 16:35 11.11.2020
5601 Clouds 16 1023 64 10000 4.02 355 15:54 11.11.2020
5602 Clouds 17 1023 64 10000 4.02 11 15:27 11.11.2020
5603 Clouds 17 1021 48 10000 5.1 340 15:00 11.11.2020
5604 Clouds 17 1021 48 10000 6.7 350 14:39 11.11.2020
5605 Clouds 18 1023 60 10000 4.92 180 14:18 11.11.2020
5606 Clouds 18 1023 60 10000 4.92 55 13:43 11.11.2020
5607 Clouds 18 1022 42 10000 6.7 340 12:55 11.11.2020
5608 Clouds 18 1023 57 10000 5.36 24 12:21 11.11.2020
5609 Clouds 18 1022 49 10000 6.2 350 11:51 11.11.2020
5610 Clouds 18 1023 59 10000 4.47 28 11:33 11.11.2020
5611 Clouds 18 1023 55 10000 5.1 350 10:45 11.11.2020
5612 Clouds 18 1023 55 10000 5.1 350 10:27 11.11.2020
5613 Clouds 18 1023 55 10000 5.1 360 09:55 11.11.2020
5614 Clouds 17 1023 59 10000 4.6 360 09:37 11.11.2020
5615 Clouds 17 1023 59 10000 4.6 360 09:19 11.11.2020
5616 Clouds 16 1023 59 10000 6.2 350 08:43 11.11.2020
5617 Clouds 16 1023 59 10000 6.2 350 08:24 11.11.2020
5618 Clouds 15 1024 76 10000 3.13 36 07:43 11.11.2020
5619 Clouds 15 1023 76 10000 4.47 43 06:31 11.11.2020
5620 Clouds 15 1021 63 10000 4.1 360 05:36 11.11.2020
5621 Clouds 15 1023 74 10000 4.02 25 01:37 11.11.2020
5622 Clouds 15 1023 74 10000 3.13 46 00:56 11.11.2020
5623 Clouds 16 1021 63 10000 4.6 340 00:24 11.11.2020
5624 Clouds 16 1021 59 10000 5.1 340 23:37 10.11.2020
5625 Clouds 16 1021 63 10000 5.1 340 23:18 10.11.2020
5626 Clouds 16 1023 75 10000 4.02 10 22:43 10.11.2020
5627 Clouds 16 1023 75 10000 4.47 5 22:24 10.11.2020
5628 Clouds 16 1021 63 10000 4.1 350 21:41 10.11.2020
5629 Clouds 16 1021 63 10000 4.1 350 21:23 10.11.2020
5630 Clouds 16 1023 76 10000 4.47 44 20:55 10.11.2020
5631 Clouds 16 1023 75 10000 4.47 9 20:37 10.11.2020
5632 Clouds 16 1023 75 10000 4.02 34 20:19 10.11.2020
5633 Clouds 16 1022 75 10000 4.47 35 19:42 10.11.2020
5634 Clear 16 1022 74 10000 4.02 15 19:23 10.11.2020
5635 Clear 16 1022 73 10000 4.02 360 18:43 10.11.2020
5636 Clear 16 1022 73 10000 4.92 44 18:24 10.11.2020
5637 Clear 16 1020 70 10000 5.36 35 17:57 10.11.2020
5638 Clear 16 1022 71 10000 4.47 17 17:38 10.11.2020
5639 Clear 16 1022 69 10000 4.02 25 17:20 10.11.2020
5640 Clear 17 1020 64 10000 4.02 37 16:41 10.11.2020
5641 Clear 17 1020 63 10000 7.15 45 16:22 10.11.2020
5642 Clear 18 1021 66 10000 4.92 26 15:54 10.11.2020
5643 Clear 18 1021 65 10000 4.47 17 15:36 10.11.2020
5644 Clear 18 1021 64 10000 4.47 32 15:18 10.11.2020
5645 Clear 19 1021 64 10000 3.58 51 14:39 10.11.2020
5646 Clear 19 1021 62 10000 4.47 24 14:18 10.11.2020
5647 Clouds 19 1019 52 10000 6.7 330 13:38 10.11.2020
5648 Clear 19 1021 63 10000 4.92 34 13:20 10.11.2020
5649 Clouds 19 1019 52 10000 6.7 350 12:46 10.11.2020
5650 Clouds 19 1020 49 10000 6.2 350 12:27 10.11.2020
5651 Clear 19 1021 61 10000 5.36 360 11:43 10.11.2020
5652 Clear 19 1021 61 10000 5.36 360 11:43 10.11.2020
5653 Clear 19 1021 60 10000 5.81 28 11:22 10.11.2020
5654 Clouds 19 1020 56 10000 6.2 350 10:57 10.11.2020
5655 Clouds 19 1020 59 10000 6.2 360 10:38 10.11.2020
5656 Clouds 19 1020 59 10000 6.2 360 10:20 10.11.2020
5657 Clouds 18 1020 59 10000 4.1 340 09:46 10.11.2020
5658 Clouds 18 1020 59 10000 4.1 340 09:25 10.11.2020
5659 Clouds 18 1020 59 10000 4.1 330 08:55 10.11.2020
5660 Clouds 17 1020 59 10000 4.1 330 08:29 10.11.2020
5661 Clouds 16 1020 67 10000 4.1 330 07:45 10.11.2020
5662 Clear 16 1021 71 10000 1.79 24 07:25 10.11.2020
5663 Clouds 15 1019 72 10000 4.1 320 06:41 10.11.2020
5664 Clouds 15 1020 72 10000 4.1 330 05:49 10.11.2020
5665 Clouds 15 1020 72 10000 6.2 330 04:59 10.11.2020
5666 Clear 15 1021 72 10000 0.89 21 02:48 10.11.2020
5667 Clear 15 1021 70 10000 0.89 38 01:32 10.11.2020
5668 Clouds 15 1021 72 10000 1.79 16 00:23 10.11.2020
5669 Clouds 15 1021 72 10000 1.79 16 00:23 10.11.2020
5670 Clouds 15 1019 74 10000 1.34 46 23:38 09.11.2020
5671 Clouds 15 1019 73 10000 1.79 34 22:54 09.11.2020
5672 Clouds 16 1021 72 10000 2.24 46 22:36 09.11.2020
5673 Clouds 16 1020 67 10000 4.1 340 22:18 09.11.2020
5674 Clouds 16 1020 67 10000 4.1 340 21:39 09.11.2020
5675 Clouds 16 1020 67 10000 3.1 350 21:19 09.11.2020
5676 Clouds 16 1020 67 10000 3.1 350 20:39 09.11.2020
5677 Clouds 16 1020 67 10000 3.1 350 20:21 09.11.2020
5678 Clouds 16 1020 67 10000 3.1 350 19:42 09.11.2020
5679 Clouds 16 1020 67 10000 3.1 350 19:22 09.11.2020
5680 Clouds 16 1020 67 10000 2.6 330 18:47 09.11.2020
5681 Clouds 16 1020 67 10000 2.6 330 18:21 09.11.2020
5682 Clouds 16 1020 67 10000 3.1 330 17:58 09.11.2020
5683 Clouds 16 1020 63 10000 3.6 330 17:39 09.11.2020
5684 Clouds 17 1020 63 10000 3.6 330 17:21 09.11.2020
5685 Clouds 17 1019 63 10000 4.1 320 16:39 09.11.2020
5686 Clear 17 1021 71 10000 3.58 5 16:19 09.11.2020
5687 Clouds 18 1019 59 10000 5.1 330 15:42 09.11.2020
5688 Clouds 18 1019 59 10000 5.1 330 15:24 09.11.2020
5689 Clouds 18 1019 60 10000 5.1 330 14:45 09.11.2020
5690 Clouds 19 1019 60 10000 5.1 330 14:27 09.11.2020
5691 Clouds 19 1019 60 10000 5.1 330 13:52 09.11.2020
5692 Clouds 19 1020 60 10000 5.7 340 13:24 09.11.2020
5693 Clouds 19 1020 56 10000 5.1 340 12:57 09.11.2020
5694 Clouds 19 1020 56 10000 5.1 340 12:37 09.11.2020
5695 Clouds 19 1020 56 10000 4.6 330 12:19 09.11.2020
5696 Clouds 19 1021 56 10000 4.1 340 11:41 09.11.2020
5697 Clouds 19 1021 56 10000 4.1 340 11:22 09.11.2020
5698 Clouds 19 1021 59 10000 4.1 340 10:43 09.11.2020
5699 Clouds 18 1021 59 10000 4.1 340 10:25 09.11.2020
5700 Clouds 18 1021 59 10000 3.6 330 09:52 09.11.2020
5701 Clear 17 1022 69 10000 4.02 56 09:28 09.11.2020
5702 Clouds 17 1021 63 10000 3.6 330 08:45 09.11.2020
5703 Clear 17 1022 70 10000 3.13 59 08:26 09.11.2020
5704 Clouds 16 1020 67 10000 3.6 320 07:43 09.11.2020
5705 Clouds 15 1020 67 10000 3.6 320 07:21 09.11.2020
5706 Clouds 15 1020 67 10000 2.6 330 06:48 09.11.2020
5707 Clouds 14 1020 67 10000 2.1 320 03:49 09.11.2020
5708 Clouds 14 1020 67 10000 2.1 350 01:56 09.11.2020
5709 Clouds 14 1020 63 10000 2.1 350 01:38 09.11.2020
5710 Clear 14 1022 72 10000 0.45 344 00:35 09.11.2020
5711 Clouds 15 1021 63 10000 2.1 310 23:39 08.11.2020
5712 Clouds 15 1021 63 10000 2.1 310 23:20 08.11.2020
5713 Clouds 15 1021 63 10000 2.1 310 22:42 08.11.2020
5714 Clouds 15 1021 63 10000 4.1 340 22:20 08.11.2020
5715 Clouds 15 1021 63 10000 4.1 340 21:43 08.11.2020
5716 Clouds 15 1020 63 10000 3.6 340 21:20 08.11.2020
5717 Clouds 15 1020 63 10000 3.6 340 20:56 08.11.2020
5718 Clouds 15 1020 63 10000 3.6 340 20:37 08.11.2020
5719 Clouds 15 1020 63 10000 3.6 340 20:19 08.11.2020
5720 Clouds 15 1020 63 10000 5.1 340 19:43 08.11.2020
5721 Clouds 15 1020 63 10000 5.1 340 19:21 08.11.2020
5722 Clouds 15 1021 59 10000 5.1 350 18:49 08.11.2020
5723 Clouds 16 1021 59 10000 5.1 350 18:22 08.11.2020
5724 Clouds 16 1021 59 10000 5.1 350 17:59 08.11.2020
5725 Clouds 16 1020 59 10000 6.2 350 17:41 08.11.2020
5726 Clouds 16 1020 59 10000 6.2 350 17:20 08.11.2020
5727 Clouds 16 1020 59 10000 6.7 330 16:57 08.11.2020
5728 Clouds 16 1020 59 10000 6.7 330 16:37 08.11.2020
5729 Clouds 17 1020 55 10000 5.1 340 16:18 08.11.2020
5730 Clouds 17 1020 52 10000 6.2 350 15:44 08.11.2020
5731 Clouds 17 1020 52 10000 6.2 350 15:25 08.11.2020
5732 Clouds 18 1020 52 10000 6.7 350 14:42 08.11.2020
5733 Clouds 18 1020 52 10000 6.7 350 14:23 08.11.2020
5734 Clouds 18 1020 52 10000 6.7 350 13:50 08.11.2020
5735 Clouds 18 1020 52 10000 6.7 350 13:24 08.11.2020
5736 Clouds 18 1021 52 10000 6.7 340 12:47 08.11.2020
5737 Clouds 18 1021 52 10000 6.7 340 12:29 08.11.2020
5738 Clouds 17 1022 59 10000 6.2 340 11:58 08.11.2020
5739 Clouds 17 1022 59 10000 6.2 340 11:40 08.11.2020
5740 Clouds 17 1022 59 10000 6.2 340 11:21 08.11.2020
5741 Clouds 17 1023 59 10000 4.6 350 10:51 08.11.2020
5742 Clouds 17 1023 59 10000 4.6 350 10:20 08.11.2020
5743 Clouds 17 1023 59 10000 5.1 350 09:59 08.11.2020
5744 Clouds 16 1023 59 10000 5.1 350 09:40 08.11.2020
5745 Clouds 16 1023 55 10000 5.1 350 09:18 08.11.2020
5746 Clouds 16 1023 59 10000 5.1 350 08:41 08.11.2020
5747 Clouds 16 1023 59 10000 5.1 350 08:21 08.11.2020
5748 Clouds 15 1023 59 10000 4.1 360 08:21 08.11.2020
5749 Clouds 15 1023 59 10000 4.1 360 07:53 08.11.2020
5750 Clouds 15 1023 59 10000 4.1 360 07:30 08.11.2020
5751 Clouds 15 1023 55 10000 4.1 340 06:26 08.11.2020
5752 Clouds 15 1023 55 10000 4.1 350 05:53 08.11.2020
5753 Clouds 14 1023 59 10000 4.1 360 04:50 08.11.2020
5754 Clear 14 1025 67 10000 4.49 9 01:55 08.11.2020
5755 Clouds 15 1023 64 10000 2.24 338 01:19 08.11.2020
5756 Clouds 15 1023 67 10000 2.24 34 00:30 08.11.2020
5757 Clouds 15 1025 55 10000 3.1 340 23:50 07.11.2020
5758 Clouds 15 1024 63 10000 1.79 52 23:31 07.11.2020
5759 Clouds 15 1024 63 10000 1.79 52 23:31 07.11.2020
5760 Clouds 16 1024 61 10000 0.45 355 22:48 07.11.2020
5761 Clouds 16 1026 62 10000 3.13 18 22:28 07.11.2020
5762 Clouds 16 1027 63 10000 3.13 13 21:58 07.11.2020
5763 Clouds 16 1027 64 10000 3.13 28 21:39 07.11.2020
5764 Clouds 15 1027 65 10000 2.68 32 21:19 07.11.2020
5765 Clouds 16 1026 51 10000 4.6 340 20:45 07.11.2020
5766 Clouds 16 1026 51 10000 4.6 340 20:26 07.11.2020
5767 Clouds 16 1026 55 10000 3.6 350 19:46 07.11.2020
5768 Clouds 16 1026 55 10000 3.6 350 19:27 07.11.2020
5769 Clear 16 1027 60 10000 4.02 21 18:43 07.11.2020
5770 Clear 15 1027 61 10000 4.47 13 18:25 07.11.2020
5771 Clouds 15 1025 51 10000 4.1 360 17:53 07.11.2020
5772 Clouds 15 1025 51 10000 4.6 350 17:34 07.11.2020
5773 Clouds 16 1025 51 10000 5.1 350 16:47 07.11.2020
5774 Clouds 16 1025 51 10000 5.1 350 16:26 07.11.2020
5775 Clouds 16 1025 48 10000 7.2 340 15:58 07.11.2020
5776 Clouds 17 1025 48 10000 7.2 340 15:40 07.11.2020
5777 Clouds 17 1025 48 10000 7.2 340 15:20 07.11.2020
5778 Clouds 17 1025 42 10000 6.7 340 14:43 07.11.2020
5779 Clouds 18 1025 42 10000 6.7 340 14:24 07.11.2020
5780 Clouds 18 1025 45 10000 7.7 350 13:52 07.11.2020
5781 Clouds 18 1025 42 10000 6.7 350 13:30 07.11.2020
5782 Clouds 18 1025 45 10000 6.2 340 12:47 07.11.2020
5783 Clouds 18 1025 45 10000 6.2 340 12:25 07.11.2020
5784 Clouds 18 1025 45 10000 5.7 360 11:43 07.11.2020
5785 Clouds 18 1025 45 10000 5.7 360 11:22 07.11.2020
5786 Clouds 18 1026 52 10000 4.6 340 10:45 07.11.2020
5787 Clouds 18 1026 52 10000 4.6 340 10:27 07.11.2020
5788 Clouds 17 1025 52 10000 5.7 350 09:54 07.11.2020
5789 Clouds 17 1025 55 10000 4.1 350 09:36 07.11.2020
5790 Clouds 16 1025 51 10000 5.1 330 08:55 07.11.2020
5791 Clouds 16 1025 51 10000 4.6 350 08:36 07.11.2020
5792 Clouds 16 1025 51 10000 4.6 350 08:36 07.11.2020
5793 Clouds 16 1025 51 10000 5.1 340 07:55 07.11.2020
5794 Clouds 15 1025 55 10000 4.1 360 07:31 07.11.2020
5795 Clouds 15 1024 55 10000 5.7 350 06:47 07.11.2020
5796 Clouds 14 1025 64 10000 3.58 350 05:34 07.11.2020
5797 Clouds 14 1024 68 10000 4.47 62 03:24 07.11.2020
5798 Clouds 15 1025 66 10000 3.13 360 01:43 07.11.2020
5799 Clouds 15 1023 55 10000 5.1 340 01:24 07.11.2020
5800 Clouds 15 1023 59 10000 2.6 330 00:22 07.11.2020
5801 Clouds 15 1023 59 10000 2.1 340 23:24 06.11.2020
5802 Clouds 15 1025 68 10000 3.58 12 22:44 06.11.2020
5803 Clouds 15 1025 68 10000 4.47 15 22:20 06.11.2020
5804 Clouds 15 1025 68 10000 4.02 46 21:54 06.11.2020
5805 Clouds 15 1025 69 10000 4.47 44 21:36 06.11.2020
5806 Clouds 15 1025 69 10000 4.47 44 21:36 06.11.2020
5807 Clouds 15 1025 69 10000 5.36 15 21:18 06.11.2020
5808 Clouds 15 1025 69 10000 4.92 15 20:43 06.11.2020
5809 Clouds 16 1023 55 10000 2.6 350 20:19 06.11.2020
5810 Clouds 16 1024 66 10000 4.02 17 19:45 06.11.2020
5811 Clouds 16 1024 65 10000 3.58 360 19:26 06.11.2020
5812 Clouds 16 1022 55 10000 3.6 350 18:47 06.11.2020
5813 Clouds 16 1022 51 10000 5.1 330 18:26 06.11.2020
5814 Clouds 16 1022 55 10000 6.2 330 17:52 06.11.2020
5815 Clouds 16 1022 55 10000 6.2 330 17:31 06.11.2020
5816 Clouds 16 1022 59 10000 6.2 340 16:58 06.11.2020
5817 Clouds 16 1022 59 10000 5.1 350 16:33 06.11.2020
5818 Clouds 16 1022 59 10000 4.1 350 15:55 06.11.2020
5819 Clouds 16 1022 59 10000 4.1 350 15:33 06.11.2020
5820 Clouds 16 1022 63 10000 5.1 360 14:54 06.11.2020
5821 Clouds 16 1022 63 10000 5.1 360 14:29 06.11.2020
5822 Clouds 16 1022 63 10000 5.1 350 13:54 06.11.2020
5823 Clouds 16 1022 63 10000 6.7 350 13:26 06.11.2020
5824 Clouds 16 1023 63 10000 5.1 360 12:59 06.11.2020
5825 Clouds 16 1023 63 10000 5.1 350 12:40 06.11.2020
5826 Clouds 16 1023 63 10000 5.1 350 12:21 06.11.2020
5827 Clouds 16 1023 63 10000 5.1 340 11:37 06.11.2020
5828 Clouds 16 1023 67 10000 4.1 350 10:58 06.11.2020
5829 Clouds 16 1023 67 10000 5.1 340 10:35 06.11.2020
5830 Clouds 16 1023 72 10000 4.1 350 09:57 06.11.2020
5831 Clouds 16 1023 72 10000 4.1 350 09:38 06.11.2020
5832 Drizzle 16 1023 72 10000 5.1 340 09:20 06.11.2020
5833 Clouds 16 1023 72 10000 4.1 330 08:47 06.11.2020
5834 Clouds 16 1023 72 10000 4.1 330 08:27 06.11.2020
5835 Clouds 16 1023 77 10000 4.1 340 07:42 06.11.2020
5836 Drizzle 16 1022 82 10000 4.1 350 07:19 06.11.2020
5837 Drizzle 16 1022 82 10000 4.1 330 06:40 06.11.2020
5838 Clouds 15 1022 77 10000 4.1 350 05:38 06.11.2020
5839 Clouds 16 1022 72 10000 2.6 340 02:00 06.11.2020
5840 Clouds 15 1022 72 10000 3.1 330 00:29 06.11.2020
5841 Clouds 15 1022 67 10000 3.6 330 23:51 05.11.2020
5842 Clouds 16 1022 63 10000 3.6 330 23:24 05.11.2020
5843 Clouds 16 1023 59 10000 3.1 320 22:48 05.11.2020
5844 Clouds 16 1023 59 10000 3.1 320 22:26 05.11.2020
5845 Clouds 16 1023 59 10000 4.1 330 21:57 05.11.2020
5846 Clouds 16 1023 55 10000 3.1 330 21:38 05.11.2020
5847 Clouds 16 1023 55 10000 3.1 330 21:19 05.11.2020
5848 Clouds 16 1023 55 10000 2.6 340 20:43 05.11.2020
5849 Clouds 16 1023 55 10000 2.6 340 20:24 05.11.2020
5850 Clouds 16 1023 55 10000 2.6 340 20:24 05.11.2020
5851 Clouds 16 1023 59 10000 4.1 350 19:45 05.11.2020
5852 Clouds 16 1023 59 10000 4.1 350 19:26 05.11.2020
5853 Clouds 16 1023 59 10000 4.1 360 18:58 05.11.2020
5854 Clouds 16 1023 59 10000 3.1 350 18:39 05.11.2020
5855 Clouds 16 1023 59 10000 3.1 350 18:21 05.11.2020
5856 Clouds 16 1022 52 10000 3.1 330 17:45 05.11.2020
5857 Clouds 17 1022 52 10000 4.1 330 17:25 05.11.2020
5858 Clouds 17 1022 52 10000 4.1 330 16:48 05.11.2020
5859 Clouds 17 1022 52 10000 4.1 330 16:28 05.11.2020
5860 Clouds 18 1022 42 10000 6.2 350 15:53 05.11.2020
5861 Clouds 18 1022 42 10000 6.2 350 15:27 05.11.2020
5862 Clouds 18 1022 42 10000 5.1 10 14:57 05.11.2020
5863 Clear 18 1021 50 10000 2.24 55 14:39 05.11.2020
5864 Clear 18 1023 55 10000 4.02 351 14:20 05.11.2020
5865 Clouds 19 1022 42 10000 6.2 350 13:40 05.11.2020
5866 Clouds 19 1022 43 10000 5.1 360 13:18 05.11.2020
5867 Clouds 19 1022 43 10000 6.2 350 12:41 05.11.2020
5868 Clouds 19 1022 43 10000 6.2 350 12:22 05.11.2020
5869 Clouds 19 1024 53 10000 4.02 15 11:41 05.11.2020
5870 Clouds 19 1024 53 10000 3.58 13 11:22 05.11.2020
5871 Clouds 19 1023 52 10000 5.1 350 10:48 05.11.2020
5872 Clouds 18 1023 52 10000 4.1 350 10:26 05.11.2020
5873 Clouds 18 1023 55 10000 4.1 350 09:49 05.11.2020
5874 Clouds 18 1024 59 10000 3.1 350 09:25 05.11.2020
5875 Clouds 17 1023 63 10000 2.6 360 08:51 05.11.2020
5876 Clouds 17 1023 63 10000 2.6 360 08:32 05.11.2020
5877 Clouds 16 1023 67 10000 2.1 360 07:58 05.11.2020
5878 Clouds 16 1023 67 10000 2.1 360 07:28 05.11.2020
5879 Clouds 15 1022 67 10000 1.5 0 06:43 05.11.2020
5880 Clouds 15 1022 63 10000 1.5 0 06:20 05.11.2020
5881 Clouds 15 1022 59 10000 2.6 330 03:45 05.11.2020
5882 Clouds 16 1023 65 10000 3.58 19 00:38 05.11.2020
5883 Clouds 16 1022 63 10000 2.1 340 00:18 05.11.2020
5884 Clouds 16 1022 63 10000 2.1 340 23:36 04.11.2020
5885 Clouds 16 1022 63 10000 2.1 40 23:18 04.11.2020
5886 Clouds 16 1022 63 10000 1.5 0 22:41 04.11.2020
5887 Clouds 17 1022 63 10000 1.5 0 22:21 04.11.2020
5888 Clouds 17 1021 68 10000 5.06 26 21:47 04.11.2020
5889 Clouds 17 1021 68 10000 5.28 29 21:27 04.11.2020
5890 Clouds 17 1021 68 10000 5.28 29 20:54 04.11.2020
5891 Clouds 17 1021 68 10000 5.28 29 20:35 04.11.2020
5892 Clouds 17 1021 68 10000 5.29 31 19:59 04.11.2020
5893 Clouds 17 1021 68 10000 5.29 31 19:40 04.11.2020
5894 Clouds 17 1021 68 10000 5.29 31 19:40 04.11.2020
5895 Clouds 17 1021 68 10000 5.38 32 19:22 04.11.2020
5896 Clouds 17 1020 63 10000 4.66 28 18:41 04.11.2020
5897 Clouds 17 1020 63 10000 4.5 33 18:22 04.11.2020
5898 Clouds 17 1020 63 10000 4.5 33 17:47 04.11.2020
5899 Clouds 17 1019 68 10000 4.1 36 17:27 04.11.2020
5900 Clouds 18 1021 69 10000 2.24 24 16:46 04.11.2020
5901 Clouds 18 1021 68 10000 3.58 5 16:27 04.11.2020
5902 Clouds 19 1019 60 10000 4.57 36 15:59 04.11.2020
5903 Clouds 19 1020 70 10000 2.68 49 15:40 04.11.2020
5904 Clouds 19 1020 70 10000 3.13 9 15:20 04.11.2020
5905 Clouds 19 1020 69 10000 2.68 355 14:44 04.11.2020
5906 Clouds 20 1020 69 10000 2.68 355 14:24 04.11.2020
5907 Clouds 20 1018 56 10000 4.1 350 13:51 04.11.2020
5908 Clouds 20 1018 56 10000 2.6 360 13:22 04.11.2020
5909 Clouds 21 1020 66 10000 1.34 111 12:58 04.11.2020
5910 Clouds 20 1020 68 10000 2.24 5 12:40 04.11.2020
5911 Clouds 20 1020 68 10000 1.79 59 12:22 04.11.2020
5912 Clouds 20 1020 67 10000 1.34 71 11:45 04.11.2020
5913 Clouds 20 1020 67 10000 1.79 37 11:22 04.11.2020
5914 Clouds 20 1020 66 10000 2.24 18 10:49 04.11.2020
5915 Clouds 20 1020 67 10000 1.79 5 10:24 04.11.2020
5916 Clouds 20 1020 65 10000 1.34 10 09:56 04.11.2020
5917 Clouds 20 1019 56 10000 2.6 320 09:28 04.11.2020
5918 Clouds 19 1019 60 10000 2.6 330 08:58 04.11.2020
5919 Clouds 19 1019 60 10000 2.3 19 08:39 04.11.2020
5920 Clouds 18 1018 63 10000 2.2 12 08:18 04.11.2020
5921 Clouds 17 1018 72 10000 2.2 12 07:40 04.11.2020
5922 Clouds 17 1018 72 10000 2.27 7 07:21 04.11.2020
5923 Clouds 16 1018 72 10000 2.21 15 06:40 04.11.2020
5924 Clouds 16 1018 67 10000 2.35 25 05:24 04.11.2020
5925 Clouds 16 1017 72 10000 1.95 21 02:31 04.11.2020
5926 Clouds 16 1018 72 10000 1.95 21 01:38 04.11.2020
5927 Clouds 16 1018 72 10000 1.82 13 00:25 04.11.2020
5928 Clouds 16 1018 63 10000 1.56 11 23:30 03.11.2020
5929 Clouds 16 1018 72 10000 1.56 11 22:58 03.11.2020
5930 Clouds 16 1018 77 10000 1.56 11 22:39 03.11.2020
5931 Clouds 16 1018 77 10000 1.15 357 22:19 03.11.2020
5932 Clouds 16 1018 72 10000 1.15 357 21:43 03.11.2020
5933 Clouds 16 1018 72 10000 0.88 332 21:25 03.11.2020
5934 Clouds 17 1018 77 10000 0.88 332 20:49 03.11.2020
5935 Clouds 17 1017 77 10000 0.79 316 20:27 03.11.2020
5936 Clouds 17 1017 72 10000 0.79 316 19:57 03.11.2020
5937 Clouds 17 1017 72 10000 0.79 316 19:38 03.11.2020
5938 Clouds 17 1017 72 10000 0.63 310 19:19 03.11.2020
5939 Clouds 18 1017 68 10000 0.67 4 18:41 03.11.2020
5940 Clouds 18 1017 68 10000 0.49 17 18:19 03.11.2020
5941 Clouds 18 1017 68 10000 0.49 17 17:47 03.11.2020
5942 Clouds 18 1017 68 10000 0.22 16 17:29 03.11.2020
5943 Clouds 19 1017 68 10000 0.22 16 16:52 03.11.2020
5944 Clouds 19 1017 60 10000 0.64 46 16:31 03.11.2020
5945 Clouds 19 1017 56 10000 0.64 46 15:59 03.11.2020
5946 Clouds 19 1017 52 10000 0.64 46 15:40 03.11.2020
5947 Clouds 19 1019 70 10000 0.45 214 15:20 03.11.2020
5948 Clouds 19 1019 69 10000 0.45 234 14:45 03.11.2020
5949 Clouds 19 1017 52 10000 0.61 69 14:27 03.11.2020
5950 Clouds 20 1018 56 10000 0.61 69 13:42 03.11.2020
5951 Clouds 20 1018 56 10000 0.11 188 13:22 03.11.2020
5952 Clouds 20 1018 60 10000 3.1 330 12:48 03.11.2020
5953 Drizzle 19 1018 60 10000 2.6 320 12:27 03.11.2020
5954 Clouds 20 1019 60 10000 2.6 330 11:55 03.11.2020
5955 Drizzle 19 1019 72 10000 0.64 201 11:36 03.11.2020
5956 Clouds 19 1019 68 10000 0.52 219 11:18 03.11.2020
5957 Clouds 19 1019 77 10000 0.52 219 10:38 03.11.2020
5958 Clouds 18 1019 72 10000 0.18 349 10:19 03.11.2020
5959 Clouds 18 1019 72 10000 0.18 349 09:47 03.11.2020
5960 Clouds 18 1019 77 10000 0.89 335 09:26 03.11.2020
5961 Clouds 18 1019 77 10000 0.89 335 08:51 03.11.2020
5962 Clouds 18 1019 82 10000 1.1 336 08:33 03.11.2020
5963 Clouds 17 1019 87 10000 1.1 336 07:48 03.11.2020
5964 Clouds 16 1020 83 10000 1.44 334 07:21 03.11.2020
5965 Clouds 15 1018 87 10000 1.44 334 06:43 03.11.2020
5966 Clouds 15 1019 93 10000 1.5 333 04:40 03.11.2020
5967 Clouds 15 1020 82 10000 1.02 326 00:46 03.11.2020
5968 Clouds 15 1020 82 10000 0.76 322 00:25 03.11.2020
5969 Clouds 15 1020 82 10000 0.76 322 23:47 02.11.2020
5970 Clouds 15 1020 82 10000 0.41 249 23:28 02.11.2020
5971 Clouds 15 1021 77 10000 0.41 249 22:45 02.11.2020
5972 Clouds 15 1021 77 10000 0.7 219 22:27 02.11.2020
5973 Clouds 15 1021 77 10000 0.7 219 21:58 02.11.2020
5974 Clouds 15 1021 77 10000 0.7 219 21:36 02.11.2020
5975 Clouds 15 1021 77 10000 0.57 215 21:18 02.11.2020
5976 Clouds 15 1020 77 10000 0.57 212 20:38 02.11.2020
5977 Clouds 16 1020 82 10000 0.57 212 20:19 02.11.2020
5978 Clouds 16 1020 77 10000 0.57 212 19:44 02.11.2020
5979 Clouds 16 1020 82 10000 0.49 233 19:26 02.11.2020
5980 Clouds 16 1020 82 10000 0.49 233 19:26 02.11.2020
5981 Clouds 17 1020 77 10000 0.47 194 18:43 02.11.2020
5982 Clouds 17 1020 77 10000 0.47 194 18:43 02.11.2020
5983 Clouds 17 1020 72 10000 0.7 193 18:22 02.11.2020
5984 Clouds 17 1020 72 10000 0.7 193 17:59 02.11.2020
5985 Clouds 17 1020 68 10000 0.7 193 17:40 02.11.2020
5986 Clouds 18 1021 68 10000 0.81 183 17:21 02.11.2020
5987 Clouds 18 1020 60 10000 0.81 183 16:49 02.11.2020
5988 Clouds 18 1020 60 10000 1.3 201 16:28 02.11.2020
5989 Clouds 19 1020 60 10000 2.1 190 15:55 02.11.2020
5990 Clouds 19 1020 56 10000 2.1 190 15:36 02.11.2020
5991 Clouds 19 1020 56 10000 2.1 190 15:18 02.11.2020
5992 Clear 20 1020 60 10000 2.6 180 14:41 02.11.2020
5993 Clear 20 1020 60 10000 2.6 180 14:19 02.11.2020
5994 Clear 20 1020 60 10000 2.6 180 13:46 02.11.2020
5995 Clear 20 1020 60 10000 2.6 180 13:21 02.11.2020
5996 Clear 20 1021 60 10000 2.1 170 12:43 02.11.2020
5997 Clear 20 1021 60 10000 2.1 170 12:21 02.11.2020
5998 Clear 20 1022 52 10000 1.68 203 11:45 02.11.2020
5999 Clear 20 1022 52 10000 0.94 177 11:20 02.11.2020
6000 Clear 20 1022 49 10000 0.94 177 10:45 02.11.2020
6001 Clear 19 1022 49 10000 0.42 97 10:24 02.11.2020
6002 Clear 19 1022 52 10000 0.42 97 09:55 02.11.2020
6003 Clear 18 1022 55 10000 1.14 50 09:26 02.11.2020
6004 Clear 17 1022 59 10000 1.14 50 08:48 02.11.2020
6005 Clear 17 1022 59 10000 1.88 37 08:29 02.11.2020
6006 Clear 16 1022 72 10000 1.88 37 07:59 02.11.2020
6007 Clear 16 1021 76 10000 1.88 37 07:38 02.11.2020
6008 Clear 14 1021 76 10000 2.1 350 06:44 02.11.2020
6009 Clouds 13 1021 76 10000 2.1 340 04:59 02.11.2020
6010 Clear 13 1021 81 10000 2.1 360 01:27 02.11.2020
6011 Clouds 14 1021 81 10000 2.1 340 00:37 02.11.2020
6012 Clouds 14 1021 81 10000 2.1 360 23:57 01.11.2020
6013 Clouds 14 1021 82 10000 1.62 22 23:38 01.11.2020
6014 Clouds 14 1021 76 10000 2.1 330 23:19 01.11.2020
6015 Clouds 14 1021 76 10000 2.1 330 22:41 01.11.2020
6016 Clouds 14 1021 76 10000 2.1 330 22:21 01.11.2020
6017 Clouds 14 1021 76 10000 2.1 350 21:43 01.11.2020
6018 Clouds 15 1021 76 10000 2.1 350 21:23 01.11.2020
6019 Clouds 15 1021 76 10000 2.1 360 20:47 01.11.2020
6020 Clouds 15 1021 76 10000 2.1 360 20:25 01.11.2020
6021 Clouds 15 1020 72 10000 2.54 31 19:48 01.11.2020
6022 Clouds 15 1020 72 10000 2.96 42 19:29 01.11.2020
6023 Clouds 16 1020 63 10000 3.1 350 18:58 01.11.2020
6024 Clouds 16 1020 63 10000 3.1 70 18:38 01.11.2020
6025 Clouds 16 1019 63 10000 3.6 70 18:19 01.11.2020
6026 Clouds 16 1019 63 10000 3.6 70 17:45 01.11.2020
6027 Clouds 17 1019 59 10000 3.1 100 17:27 01.11.2020
6028 Clouds 17 1019 55 10000 3.6 80 16:45 01.11.2020
6029 Clouds 17 1019 55 10000 3.6 80 16:27 01.11.2020
6030 Clouds 18 1019 59 10000 3.6 80 15:59 01.11.2020
6031 Clouds 18 1020 62 10000 1.34 82 15:39 01.11.2020
6032 Clouds 18 1019 52 10000 2.6 70 15:20 01.11.2020
6033 Clouds 18 1020 60 10000 2.68 5 14:46 01.11.2020
6034 Clear 19 1020 60 10000 1.79 124 14:23 01.11.2020
6035 Clouds 19 1019 56 10000 5.1 90 13:58 01.11.2020
6036 Clouds 19 1019 52 10000 3.1 70 13:39 01.11.2020
6037 Clouds 19 1019 52 10000 4.1 50 13:21 01.11.2020
6038 Clear 19 1021 62 10000 2.24 30 12:43 01.11.2020
6039 Clear 19 1021 62 10000 3.58 92 12:20 01.11.2020
6040 Clear 19 1021 64 10000 1.79 24 11:49 01.11.2020
6041 Clear 19 1021 65 10000 3.58 67 11:18 01.11.2020
6042 Clear 20 1019 49 10000 4.1 350 10:42 01.11.2020
6043 Clear 21 1019 49 10000 4.1 350 10:24 01.11.2020
6044 Clear 20 1019 49 10000 3.6 340 09:50 01.11.2020
6045 Clear 20 1019 49 10000 3.1 330 09:27 01.11.2020
6046 Clouds 19 1019 52 10000 4.97 13 08:44 01.11.2020
6047 Clear 18 1020 61 10000 3.2 348 08:18 01.11.2020
6048 Clear 17 1020 60 10000 0.45 94 07:33 01.11.2020
6049 Clear 14 1017 71 10000 1.5 327 03:25 01.11.2020
6050 Clear 15 1017 71 10000 1.51 324 01:46 01.11.2020
6051 Clear 15 1017 66 10000 1.33 321 00:23 01.11.2020
6052 Clear 15 1018 62 10000 1.5 0 23:24 31.10.2020
6053 Clear 15 1018 58 10000 2.1 340 22:46 31.10.2020
6054 Clear 15 1018 58 10000 2.1 340 22:25 31.10.2020
6055 Clear 16 1018 62 10000 1.5 0 21:47 31.10.2020
6056 Clear 16 1018 62 10000 1.5 0 21:26 31.10.2020
6057 Clear 16 1018 62 10000 1.5 0 20:59 31.10.2020
6058 Clear 17 1018 58 10000 1.34 323 20:38 31.10.2020
6059 Clear 16 1018 58 10000 1.34 323 20:18 31.10.2020
6060 Clear 17 1018 55 10000 1.5 0 19:39 31.10.2020
6061 Clear 17 1018 55 10000 1.5 0 19:19 31.10.2020
6062 Clear 17 1018 48 10000 1.17 340 18:46 31.10.2020
6063 Clear 18 1018 45 10000 1.02 3 17:58 31.10.2020
6064 Clear 18 1017 45 10000 1.02 3 17:40 31.10.2020
6065 Clear 18 1017 40 10000 1.5 330 17:19 31.10.2020
6066 Clear 19 1018 35 10000 2.6 330 16:42 31.10.2020
6067 Clear 19 1018 35 10000 2.6 330 16:42 31.10.2020
6068 Clear 19 1018 35 10000 2.6 330 16:20 31.10.2020
6069 Clouds 20 1018 33 10000 2.6 320 15:43 31.10.2020
6070 Clouds 20 1018 35 10000 2.6 320 15:23 31.10.2020
6071 Clouds 20 1018 35 10000 4.6 330 14:47 31.10.2020
6072 Clouds 20 1018 35 10000 4.6 330 14:28 31.10.2020
6073 Clouds 21 1018 35 10000 4.6 340 13:50 31.10.2020
6074 Clear 20 1020 48 10000 2.24 19 13:26 31.10.2020
6075 Clouds 20 1019 40 10000 4.1 340 12:42 31.10.2020
6076 Clouds 20 1020 43 10000 3.1 330 11:48 31.10.2020
6077 Clouds 20 1020 43 10000 3.1 330 11:29 31.10.2020
6078 Clouds 20 1020 43 10000 3.1 350 10:58 31.10.2020
6079 Clouds 19 1020 48 10000 3.6 340 10:36 31.10.2020
6080 Clouds 19 1021 49 10000 3.6 350 09:45 31.10.2020
6081 Clouds 18 1021 52 10000 3.1 350 09:27 31.10.2020
6082 Clouds 18 1021 55 10000 2.1 320 08:40 31.10.2020
6083 Clouds 17 1020 55 10000 2.1 310 07:59 31.10.2020
6084 Clouds 17 1020 55 10000 1.5 300 07:27 31.10.2020
6085 Clouds 16 1020 59 10000 3.6 350 06:42 31.10.2020
6086 Clouds 15 1020 59 10000 3.6 350 06:20 31.10.2020
6087 Clouds 16 1019 59 10000 2.6 330 03:46 31.10.2020
6088 Clouds 17 1019 52 10000 2.6 330 01:44 31.10.2020
6089 Clouds 16 1019 52 10000 3.1 330 00:47 31.10.2020
6090 Clouds 17 1019 63 10000 2.1 330 23:53 30.10.2020
6091 Clouds 17 1019 63 10000 2.1 330 23:27 30.10.2020
6092 Clouds 17 1019 77 10000 2.1 300 22:56 30.10.2020
6093 Clouds 17 1019 77 10000 2.1 300 22:37 30.10.2020
6094 Clouds 17 1019 72 10000 2.1 300 22:18 30.10.2020
6095 Clouds 17 1019 72 10000 2.1 340 21:41 30.10.2020
6096 Clouds 17 1019 72 10000 2.1 340 21:22 30.10.2020
6097 Clouds 17 1018 63 10000 3.1 350 20:44 30.10.2020
6098 Clouds 18 1018 63 10000 3.1 350 20:25 30.10.2020
6099 Clouds 18 1018 59 10000 4.1 350 19:54 30.10.2020
6100 Clouds 18 1017 59 10000 2.1 280 19:22 30.10.2020
6101 Clouds 18 1017 55 10000 2.1 320 18:53 30.10.2020
6102 Clouds 19 1017 49 10000 1.5 320 18:34 30.10.2020
6103 Clouds 19 1016 49 10000 1.5 330 17:59 30.10.2020
6104 Clouds 19 1016 52 10000 1.5 330 17:40 30.10.2020
6105 Clouds 20 1016 56 10000 2.6 10 17:20 30.10.2020
6106 Clouds 20 1016 52 10000 2.6 340 16:49 30.10.2020
6107 Clouds 21 1016 52 10000 2.6 340 16:24 30.10.2020
6108 Clouds 21 1016 43 10000 3.6 340 15:41 30.10.2020
6109 Clouds 22 1016 43 10000 5.1 350 15:21 30.10.2020
6110 Clouds 22 1016 43 10000 5.1 350 14:55 30.10.2020
6111 Clouds 22 1016 43 10000 5.1 340 14:36 30.10.2020
6112 Clouds 22 1016 49 10000 5.1 340 14:18 30.10.2020
6113 Clouds 23 1016 49 10000 3.1 340 13:41 30.10.2020
6114 Clouds 22 1016 49 10000 4.1 350 13:19 30.10.2020
6115 Clouds 22 1016 49 10000 4.1 350 12:41 30.10.2020
6116 Clouds 22 1017 49 10000 5.1 340 12:21 30.10.2020
6117 Clouds 22 1017 46 10000 5.1 350 11:44 30.10.2020
6118 Clouds 22 1017 46 10000 5.1 350 11:20 30.10.2020
6119 Clouds 22 1017 46 10000 5.1 360 10:50 30.10.2020
6120 Clouds 21 1019 62 10000 0.45 284 10:25 30.10.2020
6121 Clouds 21 1017 53 10000 1.7 308 09:46 30.10.2020
6122 Clouds 20 1019 67 10000 0.45 340 09:24 30.10.2020
6123 Clouds 20 1017 60 10000 1.72 309 08:55 30.10.2020
6124 Clouds 19 1017 68 10000 1.7 321 08:31 30.10.2020
6125 Clouds 18 1017 77 10000 1.7 321 07:51 30.10.2020
6126 Clouds 17 1017 82 10000 1.7 321 07:33 30.10.2020
6127 Clouds 16 1016 82 10000 1.67 333 06:49 30.10.2020
6128 Clouds 15 1016 87 10000 1.08 318 05:31 30.10.2020
6129 Clouds 15 1015 82 10000 0.39 304 02:30 30.10.2020
6130 Clouds 16 1016 77 10000 0.63 350 00:47 30.10.2020
6131 Clouds 16 1016 77 10000 0.84 358 23:57 29.10.2020
6132 Clouds 16 1016 77 10000 0.84 358 23:39 29.10.2020
6133 Clouds 16 1016 77 10000 1.08 13 23:21 29.10.2020
6134 Clouds 16 1016 82 10000 1.08 13 22:43 29.10.2020
6135 Clouds 16 1016 82 10000 1.26 7 22:24 29.10.2020
6136 Clouds 16 1016 82 10000 1.26 7 21:43 29.10.2020
6137 Clouds 16 1016 82 10000 1.34 14 21:21 29.10.2020
6138 Clouds 16 1016 82 10000 1.34 14 21:21 29.10.2020
6139 Clouds 17 1015 77 10000 1.34 14 20:42 29.10.2020
6140 Clouds 17 1015 72 10000 1.68 20 20:20 29.10.2020
6141 Clouds 17 1015 72 10000 1.68 20 19:54 29.10.2020
6142 Clouds 18 1015 68 10000 1.5 0 19:36 29.10.2020
6143 Clouds 18 1015 68 10000 1.5 0 19:18 29.10.2020
6144 Clear 18 1017 73 10000 2.04 20 18:41 29.10.2020
6145 Clouds 18 1015 64 10000 2.6 330 18:21 29.10.2020
6146 Clear 19 1017 72 10000 2.38 13 17:42 29.10.2020
6147 Clouds 19 1014 60 10000 2.6 330 17:21 29.10.2020
6148 Clouds 19 1014 60 10000 2.6 300 16:48 29.10.2020
6149 Clouds 20 1014 60 10000 2.6 300 16:22 29.10.2020
6150 Clouds 20 1014 56 10000 4.1 330 15:57 29.10.2020
6151 Clouds 21 1014 56 10000 4.1 330 15:38 29.10.2020
6152 Clouds 21 1015 62 10000 0.45 19 15:20 29.10.2020
6153 Clouds 21 1014 56 10000 4.1 330 14:46 29.10.2020
6154 Clouds 21 1014 56 10000 4.1 330 14:24 29.10.2020
6155 Clouds 21 1013 56 10000 4.1 350 13:49 29.10.2020
6156 Clouds 22 1013 56 10000 4.1 350 13:28 29.10.2020
6157 Clouds 21 1013 56 10000 5.1 350 12:59 29.10.2020
6158 Clouds 21 1014 56 10000 5.1 350 12:39 29.10.2020
6159 Clouds 21 1014 64 10000 4.1 350 12:19 29.10.2020
6160 Clouds 21 1014 64 10000 4.1 350 11:44 29.10.2020
6161 Clouds 21 1014 64 10000 4.1 350 11:24 29.10.2020
6162 Clouds 20 1014 68 10000 5.1 340 10:37 29.10.2020
6163 Clouds 20 1013 68 10000 4.6 340 10:19 29.10.2020
6164 Clouds 20 1013 68 10000 4.6 340 09:50 29.10.2020
6165 Clouds 19 1013 68 10000 4.6 340 09:28 29.10.2020
6166 Clouds 17 1013 68 10000 3.1 330 08:55 29.10.2020
6167 Clouds 17 1013 72 10000 3.1 300 08:31 29.10.2020
6168 Clouds 17 1012 72 10000 4.1 330 07:53 29.10.2020
6169 Clouds 16 1011 77 10000 5.1 340 07:35 29.10.2020
6170 Clouds 16 1011 82 10000 3.1 320 06:55 29.10.2020
6171 Clouds 16 1009 82 10000 4.1 330 04:51 29.10.2020
6172 Clouds 16 1009 82 10000 2.1 340 02:51 29.10.2020
6173 Clouds 16 1010 89 10000 0.45 20 00:51 29.10.2020
6174 Rain 16 1010 89 7637 0.45 70 00:30 29.10.2020
6175 Clouds 16 1009 90 7637 0.45 46 23:45 28.10.2020
6176 Rain 16 1007 88 7395 0.64 124 23:21 28.10.2020
6177 Clouds 16 1008 93 10000 0.64 124 22:44 28.10.2020
6178 Clouds 16 1008 93 10000 2.63 191 22:26 28.10.2020
6179 Clouds 16 1008 93 10000 2.63 191 22:26 28.10.2020
6180 Clouds 16 1008 93 10000 2.63 191 21:58 28.10.2020
6181 Clouds 16 1008 93 10000 2.63 191 21:39 28.10.2020
6182 Clouds 16 1008 93 10000 2.69 181 21:18 28.10.2020
6183 Clouds 16 1008 93 10000 2.69 181 20:41 28.10.2020
6184 Clouds 16 1008 93 10000 1.96 137 20:20 28.10.2020
6185 Clouds 16 1008 93 10000 1.96 137 19:49 28.10.2020
6186 Clouds 16 1008 93 10000 2.23 112 19:28 28.10.2020
6187 Clouds 16 1008 93 8000 4.1 60 18:47 28.10.2020
6188 Clouds 16 1008 93 8000 4.1 60 18:21 28.10.2020
6189 Rain 16 1007 93 8000 3.1 80 17:45 28.10.2020
6190 Rain 16 1007 87 10000 4.1 70 17:25 28.10.2020
6191 Rain 16 1007 87 10000 4.1 70 16:57 28.10.2020
6192 Clouds 16 1008 87 10000 4.1 70 16:38 28.10.2020
6193 Clouds 17 1008 77 8000 3.1 80 16:20 28.10.2020
6194 Clouds 17 1007 72 10000 2.6 90 15:37 28.10.2020
6195 Rain 18 1009 74 10000 7.14 173 15:18 28.10.2020
6196 Clouds 18 1008 77 9000 2.1 100 14:42 28.10.2020
6197 Rain 18 1009 74 10000 8.25 169 14:22 28.10.2020
6198 Clouds 19 1010 75 6139 0.89 149 12:42 28.10.2020
6199 Rain 18 1011 76 5934 0.45 184 12:22 28.10.2020
6200 Clouds 18 1009 74 5934 1.34 102 11:56 28.10.2020
6201 Clouds 18 1011 73 5934 0.45 176 11:36 28.10.2020
6202 Rain 18 1011 73 8359 0.89 230 11:18 28.10.2020
6203 Clouds 18 1010 82 10000 4.1 180 10:44 28.10.2020
6204 Clouds 18 1010 82 10000 4.1 180 10:26 28.10.2020
6205 Clouds 17 1009 82 10000 2.6 200 09:43 28.10.2020
6206 Rain 18 1010 77 10000 4.1 90 09:23 28.10.2020
6207 Clouds 17 1010 77 10000 4.1 90 08:50 28.10.2020
6208 Rain 18 1010 82 10000 2.68 355 08:30 28.10.2020
6209 Rain 18 1011 68 10000 3.1 30 07:53 28.10.2020
6210 Clouds 18 1011 77 10000 3.94 80 07:31 28.10.2020
6211 Clouds 18 1011 77 10000 2.1 320 06:54 28.10.2020
6212 Clouds 17 1012 77 10000 3.16 80 06:36 28.10.2020
6213 Clouds 17 1010 82 10000 2.45 77 05:22 28.10.2020
6214 Clouds 16 1011 82 10000 2.39 76 04:30 28.10.2020
6215 Clouds 16 1012 82 10000 2.07 67 02:26 28.10.2020
6216 Clouds 16 1012 82 10000 2.07 67 01:53 28.10.2020
6217 Clouds 16 1012 82 10000 0.92 96 00:33 28.10.2020
6218 Clouds 17 1013 77 10000 0.92 96 23:47 27.10.2020
6219 Clouds 17 1013 77 10000 0.95 100 23:21 27.10.2020
6220 Clouds 17 1013 77 10000 0.95 100 22:44 27.10.2020
6221 Clouds 17 1013 77 10000 0.83 138 22:19 27.10.2020
6222 Clouds 17 1013 77 10000 0.83 138 21:57 27.10.2020
6223 Clouds 17 1013 77 10000 0.83 138 21:37 27.10.2020
6224 Clouds 17 1013 77 10000 0.98 152 21:19 27.10.2020
6225 Clouds 18 1013 77 10000 0.98 152 20:50 27.10.2020
6226 Clouds 18 1013 77 10000 1.43 173 20:24 27.10.2020
6227 Clouds 18 1013 77 10000 1.43 173 19:57 27.10.2020
6228 Clouds 18 1013 77 10000 1.43 173 19:37 27.10.2020
6229 Clouds 18 1013 77 10000 1.65 180 19:18 27.10.2020
6230 Clouds 19 1012 77 10000 1.5 0 18:44 27.10.2020
6231 Clouds 19 1012 77 10000 1.5 0 18:24 27.10.2020
6232 Clouds 19 1012 72 10000 2.1 170 17:59 27.10.2020
6233 Clouds 20 1012 64 10000 2.1 180 17:40 27.10.2020
6234 Clouds 20 1012 64 10000 3.1 180 17:18 27.10.2020
6235 Clouds 20 1012 60 10000 3.6 170 16:42 27.10.2020
6236 Clouds 21 1012 60 10000 3.6 170 16:23 27.10.2020
6237 Clouds 22 1012 53 10000 3.6 160 15:42 27.10.2020
6238 Clouds 22 1012 53 10000 3.6 160 15:24 27.10.2020
6239 Clouds 22 1012 49 10000 3.1 180 14:50 27.10.2020
6240 Clouds 22 1012 46 10000 3.1 190 14:30 27.10.2020
6241 Clouds 22 1012 43 10000 3.1 190 13:58 27.10.2020
6242 Clouds 22 1012 38 10000 3.1 200 13:29 27.10.2020
6243 Clouds 22 1013 43 10000 3.6 190 12:46 27.10.2020
6244 Clouds 22 1013 43 10000 3.6 190 12:27 27.10.2020
6245 Clouds 22 1013 49 10000 3.6 190 11:59 27.10.2020
6246 Clouds 22 1013 49 10000 3.1 150 11:41 27.10.2020
6247 Clouds 22 1013 53 10000 2.6 150 11:21 27.10.2020
6248 Clouds 22 1013 56 10000 1.5 0 10:44 27.10.2020
6249 Clouds 21 1013 56 10000 1.5 0 10:21 27.10.2020
6250 Clouds 21 1014 56 10000 2.18 224 09:38 27.10.2020
6251 Clouds 21 1014 56 10000 1.32 232 09:20 27.10.2020
6252 Clear 20 1014 63 10000 1.32 232 08:33 27.10.2020
6253 Clear 19 1015 68 10000 0.83 262 07:57 27.10.2020
6254 Clear 19 1015 69 10000 0.83 262 07:38 27.10.2020
6255 Clouds 17 1015 70 10000 0.45 26 07:20 27.10.2020
6256 Clear 16 1013 87 10000 0.94 297 06:21 27.10.2020
6257 Clear 15 1013 82 10000 0.94 297 05:46 27.10.2020
6258 Clear 15 1013 82 10000 0.94 285 05:27 27.10.2020
6259 Clear 16 1013 76 10000 0.74 292 03:20 27.10.2020
6260 Clear 16 1014 76 10000 0.53 271 01:24 27.10.2020
6261 Clear 16 1014 71 10000 0.48 312 00:44 27.10.2020
6262 Clear 16 1014 67 10000 0.6 299 23:39 26.10.2020
6263 Clear 17 1014 62 10000 0.76 253 23:18 26.10.2020
6264 Clear 17 1014 62 10000 0.76 253 22:44 26.10.2020
6265 Clear 17 1014 62 10000 0.79 219 22:19 26.10.2020
6266 Clear 17 1014 63 10000 0.79 219 21:41 26.10.2020
6267 Clear 17 1014 63 10000 1.16 198 21:19 26.10.2020
6268 Clear 17 1014 63 10000 1.16 198 20:49 26.10.2020
6269 Clear 18 1014 63 10000 1.46 191 20:27 26.10.2020
6270 Clear 18 1014 63 10000 1.46 191 20:27 26.10.2020
6271 Clear 18 1014 55 10000 1.46 191 19:58 26.10.2020
6272 Clear 18 1014 52 10000 1.46 191 19:40 26.10.2020
6273 Clear 18 1014 52 10000 1.83 193 19:20 26.10.2020
6274 Clear 19 1014 60 10000 1.5 140 18:42 26.10.2020
6275 Clear 19 1013 52 10000 2.04 195 18:22 26.10.2020
6276 Clear 20 1013 49 10000 2.04 195 17:44 26.10.2020
6277 Clear 20 1013 49 10000 2.53 196 17:24 26.10.2020
6278 Clear 20 1013 43 10000 2.53 196 16:57 26.10.2020
6279 Clear 21 1013 40 10000 2.53 196 16:38 26.10.2020
6280 Clear 21 1013 40 10000 2.97 196 16:19 26.10.2020
6281 Clouds 22 1013 38 10000 3.1 220 15:39 26.10.2020
6282 Clouds 22 1013 38 10000 3.1 220 15:19 26.10.2020
6283 Clouds 23 1013 36 10000 3.1 220 14:46 26.10.2020
6284 Clouds 23 1013 36 10000 3.1 220 14:26 26.10.2020
6285 Clouds 23 1013 33 10000 3.1 210 13:43 26.10.2020
6286 Clouds 23 1013 33 10000 3.1 210 13:23 26.10.2020
6287 Clouds 23 1014 25 10000 2.1 210 12:48 26.10.2020
6288 Clouds 23 1014 25 10000 2.1 210 12:27 26.10.2020
6289 Clear 23 1014 25 10000 2.91 220 11:56 26.10.2020
6290 Clear 23 1014 27 10000 2.1 190 11:37 26.10.2020
6291 Clear 23 1014 36 10000 2.1 190 11:19 26.10.2020
6292 Clear 23 1014 29 10000 2.17 226 10:43 26.10.2020
6293 Clear 22 1014 29 10000 1.23 230 10:25 26.10.2020
6294 Clear 21 1014 37 10000 1.23 230 09:48 26.10.2020
6295 Clear 21 1014 37 10000 0.46 296 09:26 26.10.2020
6296 Clear 20 1014 45 10000 0.46 296 08:46 26.10.2020
6297 Clear 18 1014 55 10000 1.37 350 07:58 26.10.2020
6298 Clear 18 1014 59 10000 1.37 350 07:38 26.10.2020
6299 Clear 17 1013 55 10000 2.1 300 06:58 26.10.2020
6300 Clear 16 1013 55 10000 3.1 320 04:48 26.10.2020
6301 Clear 16 1013 55 10000 2.1 320 04:18 26.10.2020
6302 Clear 17 1013 63 10000 2.6 300 03:20 26.10.2020
6303 Clear 17 1013 55 10000 2.1 320 03:20 26.10.2020
6304 Clear 17 1013 63 10000 2.6 300 03:20 26.10.2020
6305 Clear 17 1013 55 10000 2.1 320 03:20 26.10.2020
6306 Clear 17 1013 63 10000 2.6 300 01:34 26.10.2020
6307 Clear 18 1013 59 10000 2.6 330 00:33 26.10.2020
6308 Clear 18 1013 59 10000 2.1 340 23:43 25.10.2020
6309 Clear 18 1013 59 10000 2.1 340 23:22 25.10.2020
6310 Clear 19 1012 52 10000 2.6 300 22:42 25.10.2020
6311 Clear 19 1012 52 10000 2.6 300 22:24 25.10.2020
6312 Clear 19 1012 52 10000 2.1 350 21:48 25.10.2020
6313 Clear 20 1012 49 10000 2.1 350 21:29 25.10.2020
6314 Clear 20 1012 49 10000 2.1 350 21:29 25.10.2020
6315 Clear 20 1012 49 10000 3.1 350 20:57 25.10.2020
6316 Clear 20 1012 40 10000 3.1 330 20:38 25.10.2020
6317 Clear 20 1012 49 10000 2.1 300 20:19 25.10.2020
6318 Clear 21 1012 49 10000 2.1 300 19:49 25.10.2020
6319 Clear 21 1012 49 10000 2.1 300 19:24 25.10.2020
6320 Clear 21 1011 53 10000 2.1 360 18:57 25.10.2020
6321 Clear 21 1011 53 10000 2.1 360 18:57 25.10.2020
6322 Clear 21 1011 56 10000 2.1 30 18:38 25.10.2020
6323 Clear 22 1011 56 10000 2.1 30 18:38 25.10.2020
6324 Clear 21 1011 56 10000 2.1 30 18:38 25.10.2020
6325 Clear 22 1011 56 10000 2.1 30 18:20 25.10.2020
6326 Clouds 22 1012 56 10000 0.89 281 17:40 25.10.2020
6327 Clouds 23 1010 44 10000 3.1 310 17:21 25.10.2020
6328 Clouds 23 1012 54 10000 1.79 277 16:58 25.10.2020
6329 Clouds 24 1012 56 10000 1.34 296 16:39 25.10.2020
6330 Clouds 24 1012 56 10000 1.34 266 16:20 25.10.2020
6331 Clouds 24 1012 60 10000 1.79 304 15:47 25.10.2020
6332 Clouds 24 1010 41 10000 3.6 240 15:25 25.10.2020
6333 Clouds 24 1010 41 10000 3.6 240 14:47 25.10.2020
6334 Clouds 25 1012 55 10000 0.89 228 14:28 25.10.2020
6335 Clouds 25 1012 53 10000 0.89 233 13:44 25.10.2020
6336 Clouds 25 1012 53 10000 0.89 211 13:21 25.10.2020
6337 Clouds 25 1012 53 10000 0.89 211 13:21 25.10.2020
6338 Clouds 24 1013 53 10000 0.89 238 12:49 25.10.2020
6339 Clouds 24 1011 44 10000 3.6 200 12:27 25.10.2020
6340 Clouds 25 1011 29 10000 3.1 190 11:57 25.10.2020
6341 Clouds 25 1012 33 10000 2.1 160 11:39 25.10.2020
6342 Clouds 25 1012 33 10000 2.1 160 11:39 25.10.2020
6343 Clouds 24 1012 36 10000 1.5 0 11:18 25.10.2020
6344 Clouds 24 1012 43 10000 1.5 0 10:44 25.10.2020
6345 Clouds 23 1012 43 10000 1.5 0 10:25 25.10.2020
6346 Clouds 22 1012 49 10000 2.63 235 09:48 25.10.2020
6347 Clouds 21 1013 52 10000 1.61 236 09:20 25.10.2020
6348 Clouds 21 1013 52 10000 1.61 236 08:55 25.10.2020
6349 Clouds 21 1012 63 10000 1.61 236 08:36 25.10.2020
6350 Clouds 20 1012 72 10000 1.53 260 08:18 25.10.2020
6351 Clouds 18 1012 66 10000 1.53 260 07:41 25.10.2020
6352 Clouds 18 1014 72 10000 0.77 335 06:52 25.10.2020
6353 Clear 16 1012 82 10000 1.19 314 06:19 25.10.2020
6354 Clear 16 1013 82 10000 1.32 305 04:53 25.10.2020
6355 Clear 17 1013 82 10000 1.1 309 03:53 25.10.2020
6356 Clouds 18 1015 70 10000 0.83 312 02:19 25.10.2020
6357 Clear 18 1014 67 10000 0.76 302 00:49 25.10.2020
6358 Clear 18 1014 67 10000 0.65 252 00:26 25.10.2020
6359 Clear 18 1015 63 10000 0.65 252 23:54 24.10.2020
6360 Clear 18 1015 63 10000 0.7 214 23:29 24.10.2020
6361 Clear 19 1015 63 10000 0.7 214 22:57 24.10.2020
6362 Clear 19 1014 63 10000 0.7 214 22:38 24.10.2020
6363 Clear 19 1014 63 10000 0.97 189 22:20 24.10.2020
6364 Clear 19 1014 63 10000 0.97 189 21:43 24.10.2020
6365 Clear 19 1014 63 10000 1.19 198 21:21 24.10.2020
6366 Clear 19 1015 64 10000 1.19 198 20:49 24.10.2020
6367 Clear 20 1015 64 10000 1.45 202 20:25 24.10.2020
6368 Clear 20 1015 68 10000 1.47 204 19:57 24.10.2020
6369 Clear 20 1014 64 10000 1.47 204 19:37 24.10.2020
6370 Clear 21 1014 64 10000 1.89 206 19:19 24.10.2020
6371 Clouds 21 1016 77 10000 1.89 206 18:46 24.10.2020
6372 Clear 22 1014 60 10000 2.1 180 18:26 24.10.2020
6373 Clouds 23 1016 72 10000 0.45 250 17:41 24.10.2020
6374 Clear 23 1014 47 10000 2.1 180 17:22 24.10.2020
6375 Clear 24 1016 63 10000 0.45 200 16:47 24.10.2020
6376 Clear 25 1014 32 10000 2.6 160 16:28 24.10.2020
6377 Clear 26 1014 32 10000 2.1 160 15:41 24.10.2020
6378 Clear 27 1014 32 10000 2.1 160 15:20 24.10.2020
6379 Clear 26 1014 28 10000 2.1 170 14:56 24.10.2020
6380 Clear 26 1014 28 10000 2.1 180 14:29 24.10.2020
6381 Clear 26 1015 41 10000 2.1 180 13:50 24.10.2020
6382 Clear 26 1015 41 10000 2.1 170 13:31 24.10.2020
6383 Clear 25 1016 41 10000 2.87 216 12:58 24.10.2020
6384 Clear 25 1016 41 10000 2.87 216 12:37 24.10.2020
6385 Clear 25 1016 41 10000 2.34 211 12:19 24.10.2020
6386 Clear 25 1016 22 10000 2.34 211 11:43 24.10.2020
6387 Clear 24 1016 22 10000 1.62 217 11:19 24.10.2020
6388 Clear 24 1016 40 10000 1.62 217 10:42 24.10.2020
6389 Clear 23 1016 40 10000 0.72 240 10:24 24.10.2020
6390 Clear 22 1017 56 10000 0.72 240 09:44 24.10.2020
6391 Clear 21 1017 56 10000 0.75 325 09:25 24.10.2020
6392 Clear 21 1018 57 10000 0.75 325 08:54 24.10.2020
6393 Clear 19 1018 60 10000 0.45 102 08:18 24.10.2020
6394 Clear 17 1017 67 10000 1.29 331 07:50 24.10.2020
6395 Clear 16 1017 71 10000 1.14 349 07:20 24.10.2020
6396 Clear 16 1016 62 10000 1.14 349 06:49 24.10.2020
6397 Clear 16 1017 67 10000 1.42 347 05:27 24.10.2020
6398 Clear 17 1017 58 10000 1.38 348 02:20 24.10.2020
6399 Clear 17 1018 55 10000 1.35 343 00:55 24.10.2020
6400 Clear 17 1018 59 10000 1.35 343 00:37 24.10.2020
6401 Clear 18 1018 59 10000 1.14 332 00:19 24.10.2020
6402 Clear 18 1018 55 10000 1.14 332 23:40 23.10.2020
6403 Clear 18 1018 55 10000 0.99 342 23:22 23.10.2020
6404 Clear 18 1018 59 10000 0.99 342 22:42 23.10.2020
6405 Clear 19 1018 59 10000 1.12 13 22:22 23.10.2020
6406 Clear 19 1018 52 10000 1.12 13 21:56 23.10.2020
6407 Clear 19 1018 52 10000 1.12 13 21:38 23.10.2020
6408 Clear 19 1018 52 10000 1.37 28 21:20 23.10.2020
6409 Clear 20 1018 49 10000 1.37 28 20:39 23.10.2020
6410 Clear 20 1018 49 10000 0.98 32 20:19 23.10.2020
6411 Clear 21 1018 49 10000 0.98 32 19:45 23.10.2020
6412 Clear 21 1018 49 10000 0.35 6 19:26 23.10.2020
6413 Clear 21 1017 38 10000 2.6 360 18:47 23.10.2020
6414 Clear 22 1017 38 10000 2.6 360 18:29 23.10.2020
6415 Clear 23 1019 55 10000 0.8 245 17:46 23.10.2020
6416 Clear 24 1019 56 10000 0.45 215 17:22 23.10.2020
6417 Clear 24 1019 57 10000 0.89 213 16:51 23.10.2020
6418 Clear 25 1019 54 10000 0.45 188 16:33 23.10.2020
6419 Clear 25 1019 51 10000 0.89 204 15:58 23.10.2020
6420 Clear 25 1019 52 10000 0.89 219 15:39 23.10.2020
6421 Clear 25 1018 32 10000 3.1 340 15:19 23.10.2020
6422 Clear 26 1018 30 10000 4.1 340 14:47 23.10.2020
6423 Clear 25 1018 30 10000 4.1 340 14:29 23.10.2020
6424 Clear 25 1019 34 10000 4.6 330 13:42 23.10.2020
6425 Clear 25 1019 34 10000 4.6 330 13:23 23.10.2020
6426 Clear 25 1019 36 10000 4.1 330 12:50 23.10.2020
6427 Clear 25 1020 36 10000 4.1 330 12:30 23.10.2020
6428 Clear 24 1020 38 10000 4.1 340 11:50 23.10.2020
6429 Clear 23 1020 38 10000 4.1 340 11:27 23.10.2020
6430 Clear 23 1021 41 10000 4.6 350 10:54 23.10.2020
6431 Clear 22 1021 43 10000 4.6 350 10:26 23.10.2020
6432 Clear 21 1021 46 10000 4.1 330 09:57 23.10.2020
6433 Clear 20 1020 46 10000 4.6 330 09:39 23.10.2020
6434 Clear 20 1020 46 10000 3.6 330 09:20 23.10.2020
6435 Clear 19 1022 62 10000 2.14 351 08:50 23.10.2020
6436 Clear 18 1022 65 10000 2.57 353 08:24 23.10.2020
6437 Clear 16 1022 72 10000 0.45 355 07:26 23.10.2020
6438 Clear 16 1022 72 10000 0.45 355 07:26 23.10.2020
6439 Clear 15 1021 73 10000 2.58 355 06:49 23.10.2020
6440 Clear 15 1020 59 10000 2.72 359 06:20 23.10.2020
6441 Clear 16 1022 73 10000 0.89 59 03:38 23.10.2020
6442 Clear 16 1021 63 10000 2.48 359 02:26 23.10.2020
6443 Clear 17 1022 71 10000 2.46 1 00:49 23.10.2020
6444 Clear 17 1022 71 10000 2.33 4 00:29 23.10.2020
6445 Clear 17 1021 55 10000 2.33 4 23:37 22.10.2020
6446 Clear 17 1021 59 10000 2.41 5 23:18 22.10.2020
6447 Clear 17 1021 63 10000 2.41 5 22:44 22.10.2020
6448 Clear 17 1021 63 10000 2.5 5 22:22 22.10.2020
6449 Clear 18 1021 67 10000 2.5 5 21:49 22.10.2020
6450 Clear 18 1021 63 10000 2.67 9 21:31 22.10.2020
6451 Clear 18 1021 63 10000 2.67 9 20:59 22.10.2020
6452 Clear 18 1020 63 10000 2.67 9 20:41 22.10.2020
6453 Clear 18 1020 63 10000 2.74 19 20:21 22.10.2020
6454 Clear 19 1020 60 10000 3.6 350 19:43 22.10.2020
6455 Clear 19 1020 60 10000 3.6 350 19:20 22.10.2020
6456 Clouds 19 1020 56 10000 4.1 350 18:44 22.10.2020
6457 Clouds 20 1020 52 10000 3.1 350 18:22 22.10.2020
6458 Clouds 20 1020 49 10000 4.6 350 17:48 22.10.2020
6459 Clear 20 1021 62 10000 2.24 41 17:26 22.10.2020
6460 Clear 21 1021 61 10000 2.24 42 16:59 22.10.2020
6461 Clouds 21 1020 46 10000 4.6 350 16:41 22.10.2020
6462 Clouds 21 1020 46 10000 4.6 350 16:23 22.10.2020
6463 Clouds 22 1020 44 10000 5.7 350 15:48 22.10.2020
6464 Clouds 22 1020 44 10000 5.7 350 15:26 22.10.2020
6465 Clear 22 1021 57 10000 2.24 16 14:50 22.10.2020
6466 Clear 22 1021 56 10000 4.02 16 14:26 22.10.2020
6467 Clear 22 1021 56 10000 4.02 16 14:26 22.10.2020
6468 Clear 22 1021 57 10000 2.24 68 13:49 22.10.2020
6469 Clouds 22 1020 44 10000 5.7 330 13:24 22.10.2020
6470 Clouds 22 1020 44 10000 5.1 350 12:57 22.10.2020
6471 Clouds 22 1021 44 10000 3.6 350 12:27 22.10.2020
6472 Clouds 22 1021 44 10000 5.1 10 11:50 22.10.2020
6473 Clouds 22 1021 46 10000 4.1 320 11:20 22.10.2020
6474 Clouds 21 1021 49 10000 4.6 350 10:52 22.10.2020
6475 Clouds 21 1021 49 10000 4.1 350 10:30 22.10.2020
6476 Clouds 20 1021 49 10000 4.6 350 09:59 22.10.2020
6477 Clouds 20 1021 49 10000 5.1 350 09:41 22.10.2020
6478 Clouds 19 1021 52 10000 5.1 330 08:57 22.10.2020
6479 Clouds 18 1021 52 10000 5.1 330 08:38 22.10.2020
6480 Clouds 19 1020 55 10000 3.6 330 08:18 22.10.2020
6481 Clouds 18 1020 55 10000 3.6 330 07:43 22.10.2020
6482 Clear 17 1019 68 10000 3.03 356 06:59 22.10.2020
6483 Clear 17 1019 68 10000 3.03 356 06:36 22.10.2020
6484 Clear 17 1019 68 10000 3.14 351 05:42 22.10.2020
6485 Clouds 17 1020 59 10000 4.1 310 05:20 22.10.2020
6486 Clouds 17 1021 59 10000 3.1 320 02:25 22.10.2020
6487 Clouds 17 1021 59 10000 4.1 340 00:27 22.10.2020
6488 Clouds 17 1021 59 10000 44.2 310 23:58 21.10.2020
6489 Clouds 17 1021 59 10000 4.1 310 23:37 21.10.2020
6490 Clouds 17 1022 59 10000 4.1 340 22:58 21.10.2020
6491 Clouds 17 1022 59 10000 4.1 340 22:36 21.10.2020
6492 Clouds 17 1021 59 10000 4.1 320 22:18 21.10.2020
6493 Clouds 17 1021 59 10000 4.1 320 21:42 21.10.2020
6494 Clouds 17 1021 59 10000 4.1 320 21:19 21.10.2020
6495 Clouds 17 1021 59 10000 3.1 350 20:48 21.10.2020
6496 Clouds 17 1021 59 10000 3.1 350 20:19 21.10.2020
6497 Clouds 17 1021 59 10000 3.1 350 19:59 21.10.2020
6498 Clouds 17 1021 59 10000 3.1 350 19:38 21.10.2020
6499 Clouds 17 1021 63 10000 3.6 350 19:18 21.10.2020
6500 Clouds 17 1021 63 10000 3.6 350 18:46 21.10.2020
6501 Clouds 17 1021 63 10000 3.6 350 18:25 21.10.2020
6502 Clouds 17 1021 63 10000 5.7 330 17:45 21.10.2020
6503 Clouds 17 1021 68 10000 5.1 330 17:20 21.10.2020
6504 Clouds 17 1021 68 10000 5.1 330 16:56 21.10.2020
6505 Clouds 17 1021 68 10000 5.1 330 16:36 21.10.2020
6506 Clouds 17 1021 68 10000 5.1 330 16:18 21.10.2020
6507 Clouds 17 1021 72 10000 5.7 330 15:42 21.10.2020
6508 Clouds 17 1021 72 10000 5.7 330 15:20 21.10.2020
6509 Drizzle 17 1021 72 9000 5.1 330 14:46 21.10.2020
6510 Drizzle 17 1021 72 9000 5.1 330 14:28 21.10.2020
6511 Drizzle 18 1021 72 9000 5.1 330 13:46 21.10.2020
6512 Drizzle 17 1021 72 9000 5.7 330 13:27 21.10.2020
6513 Clouds 17 1022 82 10000 2.68 316 12:55 21.10.2020
6514 Drizzle 17 1021 68 8000 5.1 350 12:37 21.10.2020
6515 Clouds 17 1022 72 10000 5.7 340 12:18 21.10.2020
6516 Clouds 18 1022 72 10000 3.6 320 11:40 21.10.2020
6517 Clouds 18 1022 72 10000 4.1 340 11:20 21.10.2020
6518 Clouds 18 1022 72 10000 4.1 340 10:46 21.10.2020
6519 Clouds 17 1022 72 10000 4.1 340 10:25 21.10.2020
6520 Clouds 18 1021 68 10000 4.6 350 09:53 21.10.2020
6521 Clouds 17 1021 68 10000 4.6 350 09:33 21.10.2020
6522 Clouds 17 1021 72 10000 4.1 330 08:56 21.10.2020
6523 Clouds 17 1021 72 10000 4.1 330 08:38 21.10.2020
6524 Clouds 17 1021 72 10000 4.1 330 08:19 21.10.2020
6525 Clouds 17 1020 72 10000 4.1 320 07:37 21.10.2020
6526 Clouds 16 1021 77 10000 4.1 330 06:55 21.10.2020
6527 Clouds 16 1021 77 10000 3.6 330 06:29 21.10.2020
6528 Clouds 16 1021 72 10000 4.6 330 04:47 21.10.2020
6529 Clouds 16 1022 67 10000 4.6 340 00:52 21.10.2020
6530 Clouds 16 1022 63 10000 3.6 340 23:49 20.10.2020
6531 Clouds 16 1022 63 10000 3.6 330 23:19 20.10.2020
6532 Clouds 16 1022 59 10000 4.1 330 22:29 20.10.2020
6533 Clouds 16 1022 59 10000 4.6 330 21:50 20.10.2020
6534 Clouds 16 1022 59 10000 4.1 330 21:21 20.10.2020
6535 Clouds 16 1021 55 10000 3.6 340 20:57 20.10.2020
6536 Clouds 16 1021 55 10000 3.6 340 20:38 20.10.2020
6537 Clouds 17 1021 48 10000 3.1 340 20:20 20.10.2020
6538 Clouds 17 1021 52 10000 3.6 340 19:44 20.10.2020
6539 Clouds 17 1021 52 10000 3.6 340 19:22 20.10.2020
6540 Clouds 17 1021 48 10000 3.6 340 18:54 20.10.2020
6541 Clouds 17 1021 48 10000 3.6 340 18:36 20.10.2020
6542 Clouds 18 1020 52 10000 6.2 340 17:50 20.10.2020
6543 Clouds 18 1021 45 10000 6.2 340 17:31 20.10.2020
6544 Clouds 19 1020 43 10000 4.1 340 16:48 20.10.2020
6545 Clouds 20 1020 43 10000 5.1 340 16:28 20.10.2020
6546 Clouds 20 1021 43 10000 6.2 340 15:57 20.10.2020
6547 Clouds 20 1021 43 10000 6.2 340 15:39 20.10.2020
6548 Clouds 20 1020 43 10000 6.2 340 15:20 20.10.2020
6549 Clouds 20 1021 40 10000 6.2 340 14:42 20.10.2020
6550 Clouds 20 1020 40 10000 6.2 340 14:24 20.10.2020
6551 Clouds 20 1021 40 10000 5.1 350 13:44 20.10.2020
6552 Clouds 20 1021 40 10000 5.1 340 13:25 20.10.2020
6553 Clouds 20 1021 40 10000 5.1 360 12:59 20.10.2020
6554 Clouds 20 1021 40 10000 5.1 360 12:40 20.10.2020
6555 Clouds 20 1022 53 10000 4.47 10 12:22 20.10.2020
6556 Clouds 20 1022 51 10000 4.02 51 11:45 20.10.2020
6557 Clear 19 1022 51 10000 4.92 24 11:27 20.10.2020
6558 Clear 19 1023 56 10000 5.36 37 10:39 20.10.2020
6559 Clouds 19 1021 49 10000 2.6 330 10:19 20.10.2020
6560 Clouds 18 1021 49 10000 2.6 330 09:43 20.10.2020
6561 Clouds 18 1021 59 10000 3.1 320 09:19 20.10.2020
6562 Clouds 17 1021 59 10000 3.1 320 08:39 20.10.2020
6563 Clouds 17 1021 63 10000 2.1 310 07:54 20.10.2020
6564 Clouds 16 1021 63 10000 3.1 310 07:26 20.10.2020
6565 Clouds 16 1021 67 10000 3.6 330 06:34 20.10.2020
6566 Clouds 16 1021 67 10000 3.1 340 05:53 20.10.2020
6567 Clouds 16 1021 67 10000 2.1 320 03:59 20.10.2020
6568 Clouds 17 1021 63 10000 2.6 330 02:30 20.10.2020
6569 Clouds 16 1022 65 10000 3.58 59 01:20 20.10.2020
6570 Clouds 16 1022 66 10000 3.13 40 00:50 20.10.2020
6571 Clouds 16 1022 66 10000 2.68 13 00:23 20.10.2020
6572 Clouds 17 1021 63 10000 2.6 340 23:48 19.10.2020
6573 Clouds 17 1021 67 10000 3.1 340 23:24 19.10.2020
6574 Clouds 17 1021 67 10000 2.6 320 22:51 19.10.2020
6575 Clouds 17 1021 67 10000 2.6 330 22:25 19.10.2020
6576 Clouds 17 1021 67 10000 2.6 330 21:50 19.10.2020
6577 Clouds 17 1021 67 10000 3.1 330 21:23 19.10.2020
6578 Clouds 17 1021 67 10000 3.1 330 20:54 19.10.2020
6579 Clouds 17 1021 67 10000 3.1 330 20:36 19.10.2020
6580 Clouds 17 1021 67 10000 3.6 320 19:59 19.10.2020
6581 Clouds 17 1021 67 10000 4.1 320 19:41 19.10.2020
6582 Clouds 17 1021 67 10000 3.6 330 19:19 19.10.2020
6583 Clouds 17 1020 68 10000 4.1 340 18:43 19.10.2020
6584 Clouds 17 1020 68 10000 4.6 320 18:19 19.10.2020
6585 Clouds 18 1020 63 10000 4.6 320 17:46 19.10.2020
6586 Clouds 18 1020 60 10000 5.7 330 17:26 19.10.2020
6587 Clouds 19 1021 65 10000 3.58 5 16:52 19.10.2020
6588 Clouds 19 1020 60 10000 5.1 320 16:29 19.10.2020
6589 Clouds 19 1021 63 10000 4.47 51 15:46 19.10.2020
6590 Clear 20 1021 64 10000 5.36 33 15:25 19.10.2020
6591 Clear 20 1021 62 10000 4.02 35 14:57 19.10.2020
6592 Clear 21 1021 59 10000 3.58 360 14:28 19.10.2020
6593 Clear 20 1021 61 10000 4.92 18 13:59 19.10.2020
6594 Clear 21 1021 60 10000 4.02 36 13:41 19.10.2020
6595 Clear 20 1021 62 10000 3.13 5 13:22 19.10.2020
6596 Clear 20 1021 62 10000 4.02 24 12:43 19.10.2020
6597 Clear 20 1021 65 10000 4.02 355 12:25 19.10.2020
6598 Clouds 20 1020 56 10000 6.7 340 11:42 19.10.2020
6599 Clouds 20 1020 56 10000 6.7 340 11:21 19.10.2020
6600 Clouds 20 1020 56 10000 5.1 340 10:44 19.10.2020
6601 Clouds 19 1019 56 10000 5.7 340 10:23 19.10.2020
6602 Clouds 19 1019 56 10000 5.7 340 09:56 19.10.2020
6603 Clouds 19 1019 52 10000 4.6 330 09:25 19.10.2020
6604 Clouds 19 1019 55 10000 5.1 330 08:59 19.10.2020
6605 Clouds 18 1018 55 10000 4.6 320 08:41 19.10.2020
6606 Clouds 18 1018 55 10000 4.6 320 08:20 19.10.2020
6607 Clouds 17 1018 59 10000 4.6 330 07:20 19.10.2020
6608 Clear 17 1016 67 10000 0.89 67 06:23 19.10.2020
6609 Clouds 17 1017 63 10000 3.1 330 04:47 19.10.2020
6610 Clouds 17 1017 59 10000 2.6 300 03:45 19.10.2020
6611 Clouds 18 1016 59 10000 3.1 280 01:33 19.10.2020
6612 Clouds 18 1016 59 10000 2.1 300 00:28 19.10.2020
6613 Clouds 18 1016 59 10000 2.6 300 23:56 18.10.2020
6614 Clouds 18 1016 59 10000 2.6 300 23:37 18.10.2020
6615 Clouds 18 1016 59 10000 2.6 300 23:18 18.10.2020
6616 Clouds 19 1016 55 10000 2.1 300 22:43 18.10.2020
6617 Clouds 19 1015 52 10000 3.11 29 22:18 18.10.2020
6618 Clouds 19 1015 52 10000 3.11 29 21:41 18.10.2020
6619 Clouds 20 1015 52 10000 2.86 31 21:21 18.10.2020
6620 Clouds 20 1015 49 10000 2.86 31 20:44 18.10.2020
6621 Clouds 20 1015 49 10000 2.49 37 20:23 18.10.2020
6622 Clouds 20 1015 49 10000 2.1 300 19:50 18.10.2020
6623 Clouds 21 1015 49 10000 2.1 300 19:27 18.10.2020
6624 Clouds 21 1013 46 10000 2.6 360 18:51 18.10.2020
6625 Clouds 21 1013 46 10000 2.6 360 18:30 18.10.2020
6626 Clouds 21 1013 40 10000 3.1 360 17:59 18.10.2020
6627 Clear 22 1015 59 10000 1.34 69 17:41 18.10.2020
6628 Clouds 22 1013 38 10000 3.6 360 17:21 18.10.2020
6629 Clouds 23 1012 31 10000 2.6 210 16:43 18.10.2020
6630 Clear 23 1014 51 10000 0.89 257 16:24 18.10.2020
6631 Clouds 24 1013 31 10000 2.6 220 15:43 18.10.2020
6632 Clear 23 1014 52 10000 1.34 269 15:21 18.10.2020
6633 Clouds 24 1013 31 10000 2.6 220 14:58 18.10.2020
6634 Clouds 24 1013 33 10000 2.6 220 14:31 18.10.2020
6635 C